ECMWFFLT2_sfc_thetae_003.txt.gz
Theta_e
345 345 342 341 341 343 348 353 352 353 352 352 351 349 348 349 348 345 343 344 342 342 344 345 345 344 348 345 345 348 348 347 348 347 346 346 345 344 344 344 344 343 342 342 342 343 343 343 343 343 343 343 344 339 336 337 334 337 335 336 336 335
345 344 342 342 342 343 347 350 349 349 350 351 351 350 346 344 347 339 342 341 340 344 343 343 342 348 342 344 346 348 348 347 348 348 347 346 345 345 344 344 344 343 342 342 342 337 337 342 342 343 343 343 337 335 334 336 335 336 336 335 336 338
345 343 340 341 342 341 342 345 348 348 348 350 351 347 344 345 339 337 337 338 341 339 341 343 342 344 345 346 346 348 348 348 348 348 347 346 345 345 344 344 344 343 343 342 339 332 332 332 333 340 341 337 333 333 335 335 335 335 334 336 335 342
347 344 340 340 340 339 341 345 344 345 345 344 343 344 340 339 340 338 336 336 337 340 339 337 345 343 340 335 336 346 348 347 348 348 347 346 346 345 345 344 344 344 343 340 334 331 332 332 329 331 334 333 333 335 335 334 333 334 335 339 337 342
344 343 343 339 340 340 342 344 342 341 342 342 341 338 337 337 339 340 337 337 339 338 337 338 337 336 334 334 335 339 343 343 343 343 346 341 341 343 342 340 340 340 336 334 331 329 329 331 329 330 333 333 334 334 335 334 334 334 335 336 338 342
340 340 343 342 342 343 346 344 342 342 341 335 335 338 336 332 332 336 340 341 340 337 336 336 333 333 334 335 335 337 340 340 339 340 342 339 338 338 338 337 338 338 334 332 330 327 327 331 329 330 330 332 333 333 335 334 334 334 335 336 338 342
340 341 339 342 345 344 344 343 343 343 337 334 335 335 333 333 333 335 338 341 337 336 336 334 331 331 332 332 332 335 339 335 337 336 338 337 336 338 338 335 336 335 332 330 329 328 330 332 331 330 330 331 333 333 334 334 334 334 335 336 340 341
340 340 337 339 342 343 340 340 342 346 337 337 334 333 333 332 335 336 338 338 341 336 337 335 332 332 334 334 335 335 338 336 336 335 336 336 336 335 336 334 335 334 330 330 331 329 329 329 330 330 332 331 333 331 334 334 334 334 335 336 337 340
338 339 339 341 341 341 340 339 337 338 337 336 329 331 331 332 333 336 336 336 337 335 338 337 334 334 332 332 334 335 333 334 334 336 335 334 334 332 333 334 334 334 331 332 333 332 331 329 328 330 327 329 331 331 331 334 335 335 335 336 336 339
339 339 339 338 339 341 340 338 337 339 342 337 331 331 331 333 334 335 333 335 336 337 338 338 336 334 331 331 334 333 334 332 332 334 335 333 333 332 331 335 333 334 331 332 332 332 331 330 328 327 326 325 326 328 332 332 335 335 335 335 336 338
338 342 338 335 337 339 339 339 339 336 336 335 338 336 336 334 332 334 333 335 335 336 339 336 334 333 333 333 335 332 331 334 333 333 333 332 334 333 334 334 333 330 329 329 331 332 331 329 329 329 328 326 326 327 329 331 332 335 335 334 335 336
333 335 331 336 340 337 336 338 339 334 332 335 336 334 334 334 336 334 335 334 333 334 336 335 333 332 331 332 333 332 332 334 335 336 336 333 332 334 336 334 333 332 330 331 330 330 331 330 329 330 331 330 331 330 329 329 328 333 335 335 335 336
330 329 326 326 326 328 328 331 334 333 334 335 334 333 334 332 332 334 334 335 333 335 332 332 331 333 334 331 332 332 331 332 335 337 336 333 331 334 333 329 329 330 330 330 330 329 331 330 329 330 332 332 331 331 331 330 329 329 333 335 334 334
327 328 327 327 325 324 326 327 332 335 340 334 334 334 337 336 334 333 332 333 332 334 333 334 333 333 332 329 330 329 329 331 333 332 331 329 329 333 331 330 329 329 333 329 329 327 329 330 330 332 332 333 332 331 330 331 330 330 329 332 333 333
326 325 326 327 327 326 324 324 326 330 334 336 334 334 332 332 334 333 331 333 334 337 335 334 334 332 331 331 331 330 330 331 334 332 331 330 330 331 331 331 328 327 328 329 330 331 331 331 329 330 330 332 332 333 331 331 331 331 330 329 330 334
329 327 325 326 324 325 325 323 328 335 328 331 332 333 332 333 335 334 335 333 334 335 335 334 334 332 329 332 333 332 334 335 335 332 329 330 330 329 329 329 330 328 326 328 330 327 327 327 329 326 329 329 331 330 330 330 331 331 331 330 330 329
326 326 325 326 326 325 323 322 323 324 322 327 329 330 331 332 334 336 334 334 334 338 335 335 333 333 330 332 330 330 330 332 332 332 329 330 329 329 328 328 327 327 325 326 330 329 327 329 332 331 331 333 334 330 328 329 331 331 332 329 328 329
328 326 325 325 323 324 324 324 323 325 331 323 330 331 332 332 333 334 335 334 336 337 338 336 336 334 331 331 331 333 334 334 333 332 331 330 329 329 327 327 325 325 327 328 327 328 327 328 330 332 330 331 331 329 328 328 329 331 329 329 328 327
327 327 325 324 325 324 325 320 318 316 316 321 323 328 331 330 329 331 332 332 333 333 335 335 334 333 330 333 333 334 333 334 332 331 332 331 328 327 326 325 325 325 327 330 329 328 327 328 329 329 328 327 328 329 331 330 327 327 328 329 329 330
326 324 323 324 320 318 319 313 314 318 319 320 322 324 323 323 324 324 331 331 331 331 333 334 333 330 330 331 331 331 332 332 332 331 330 329 327 326 325 325 324 326 327 329 331 329 329 327 325 324 324 325 328 328 329 327 326 326 326 328 327 327
324 324 323 321 317 316 317 317 319 315 315 317 321 320 320 321 321 320 321 324 329 329 331 330 333 330 329 333 329 331 331 330 331 331 329 328 328 328 327 326 326 325 327 326 326 327 328 328 323 321 323 323 324 325 325 325 324 325 325 325 326 326
324 322 322 321 321 318 320 317 317 314 313 315 318 317 317 316 318 321 321 323 323 321 318 318 324 329 328 328 329 330 329 330 330 330 330 329 329 330 328 327 327 325 327 327 325 326 327 326 321 321 318 317 319 323 324 325 324 324 325 325 325 326
323 322 322 322 323 322 322 320 322 316 316 315 317 318 317 317 319 320 320 321 319 318 319 319 318 324 327 327 326 327 329 329 330 330 328 327 327 325 326 326 326 324 323 327 325 326 325 323 320 320 317 316 313 312 315 321 321 323 325 323 325 326
322 322 322 325 323 321 321 319 318 317 316 316 315 319 318 318 318 318 317 318 318 317 319 319 319 320 319 321 322 325 328 328 329 331 329 327 325 325 325 325 325 324 324 321 322 323 324 325 322 320 313 312 312 310 309 314 317 318 323 323 325 326
321 322 323 324 322 320 317 315 315 315 316 315 315 315 315 315 317 320 318 316 318 319 319 318 317 318 319 317 317 318 324 325 324 327 328 327 326 325 327 327 326 324 324 320 320 320 324 326 326 324 318 313 311 310 310 312 315 316 320 323 324 326
320 320 320 321 321 318 315 313 311 310 309 309 311 311 312 314 315 315 315 316 317 319 320 319 319 320 322 323 317 314 316 317 317 323 326 324 327 327 327 326 326 324 324 322 320 318 319 324 326 324 322 319 317 312 312 315 313 307 316 321 322 324
321 318 321 321 321 321 317 314 311 310 310 311 312 312 313 316 316 316 318 318 317 318 319 317 317 318 318 319 315 315 314 314 316 319 321 319 319 319 321 324 326 326 325 324 322 317 318 318 321 322 322 323 324 321 319 315 310 312 308 314 320 319
320 319 322 321 320 320 317 315 312 311 312 313 316 315 315 316 317 318 316 316 317 317 319 320 317 314 314 316 314 311 310 313 315 316 318 317 318 319 321 322 323 322 320 322 321 319 316 316 316 316 319 318 320 319 320 320 319 314 311 310 311 317
320 319 322 320 321 320 319 316 313 313 315 317 316 316 317 317 316 316 314 316 317 317 315 315 314 313 313 314 316 312 309 308 310 313 316 315 316 317 317 317 316 316 314 314 318 320 320 317 317 314 315 317 317 316 317 318 318 316 312 310 309 311
321 320 322 320 321 320 318 319 315 316 316 315 316 315 315 315 316 315 316 314 313 313 314 312 311 311 314 314 313 313 312 312 310 313 315 313 313 313 312 313 314 314 313 312 312 313 312 309 309 309 312 316 316 314 312 313 313 314 314 315 309 310
322 321 322 319 320 320 318 318 317 316 315 314 313 313 314 314 316 316 314 312 312 314 311 312 313 313 313 313 314 315 312 312 313 316 312 309 310 311 311 311 313 312 311 310 309 308 309 309 308 307 308 307 306 306 305 304 303 305 305 304 303 303
322 321 321 319 319 320 316 316 318 316 315 314 314 314 313 314 315 314 312 312 312 311 311 314 312 311 312 314 314 313 314 313 313 312 312 312 313 313 314 313 311 311 310 309 309 309 307 306 306 305 305 305 305 306 306 305 306 305 305 304 303 302
321 320 320 318 318 319 315 315 319 316 315 316 314 314 313 314 315 314 314 313 312 310 311 311 312 313 312 312 314 313 312 310 310 311 310 311 311 311 310 309 309 309 309 308 307 306 304 305 306 304 303 305 304 305 305 306 306 306 306 306 305 300
320 321 320 318 318 320 315 315 319 316 316 317 314 314 313 315 314 315 316 314 312 312 311 311 312 311 312 313 315 313 312 312 312 314 314 312 310 310 311 310 310 310 310 309 309 307 307 306 305 305 305 302 302 304 303 304 305 305 305 304 303 301
319 321 321 320 319 320 317 316 320 317 317 316 315 315 315 316 315 315 315 314 313 313 312 312 312 313 315 314 314 313 312 310 311 310 311 310 314 312 311 312 312 311 311 310 310 309 306 306 307 305 305 304 305 303 302 303 305 306 306 306 305 305
319 319 319 318 319 320 320 319 320 317 316 317 316 316 315 316 315 316 315 314 313 313 314 313 313 314 314 315 312 312 312 312 311 312 312 310 309 309 309 309 310 310 309 312 309 308 307 305 305 305 305 305 303 303 304 306 306 304 305 307 307 306
318 319 319 319 319 321 322 321 319 318 316 316 316 315 315 315 315 316 316 315 314 315 315 315 314 314 315 314 313 312 312 311 311 311 311 312 311 310 310 311 310 308 308 311 310 309 308 307 306 307 306 305 305 303 304 307 305 306 307 306 307 305

ECMWFFLT2_sfc_thetae_006.txt.gz
Theta_e
342 342 343 344 345 347 350 352 351 351 351 351 351 351 350 350 350 350 349 349 346 344 344 345 345 344 348 345 345 347 348 347 347 346 345 345 344 344 344 343 342 342 342 342 342 343 343 343 343 343 343 342 341 332 331 333 333 334 333 335 336 333
341 341 342 343 345 347 349 350 348 349 349 349 350 350 347 345 349 343 347 343 341 345 341 341 341 349 343 344 345 347 348 347 347 346 346 345 344 344 344 344 343 342 342 342 342 334 335 342 342 343 342 343 332 330 332 333 333 332 334 333 335 337
341 341 341 342 344 346 346 346 347 347 348 350 350 348 344 345 338 339 340 340 341 340 340 340 340 344 344 345 343 347 347 348 347 347 346 345 345 344 344 344 344 343 342 342 335 328 327 327 326 341 342 332 330 330 332 331 332 333 332 333 332 340
341 340 340 340 341 342 343 345 345 345 346 345 344 343 341 338 337 337 338 338 337 341 338 339 347 347 348 336 334 341 347 347 347 347 346 345 345 344 344 344 343 343 342 339 328 327 328 327 326 324 327 329 329 331 332 331 332 332 333 337 334 341
341 339 339 339 340 340 342 343 343 342 342 341 339 337 337 337 336 335 336 338 338 338 336 336 334 334 331 330 331 332 337 339 339 339 345 339 339 341 340 335 337 339 331 331 330 329 327 328 329 327 326 327 330 330 332 332 332 332 333 335 336 342
341 340 339 338 338 342 343 342 340 340 339 339 337 335 334 334 335 335 335 337 338 335 335 334 332 331 332 330 331 331 333 332 336 340 340 339 337 337 336 337 335 334 333 330 330 329 325 328 329 327 326 326 328 329 331 330 331 332 333 333 337 342
340 340 339 341 341 343 341 340 339 338 336 333 335 334 331 331 332 334 337 338 335 334 334 332 331 330 330 330 331 331 332 331 334 338 339 338 338 337 337 335 333 334 332 330 331 329 327 326 327 328 328 327 328 330 331 331 331 332 333 333 338 342
339 339 338 343 341 342 341 340 340 343 336 338 334 332 330 330 332 333 337 338 339 334 334 331 330 330 331 330 331 332 333 331 332 336 337 337 336 336 336 334 334 334 333 331 330 329 327 327 327 328 328 327 329 330 331 331 332 333 333 333 335 340
340 337 337 341 341 340 340 340 339 335 333 341 331 331 330 331 332 332 334 337 338 334 335 332 331 331 331 331 332 333 333 332 333 334 334 335 336 335 336 333 334 334 332 329 327 328 327 327 327 328 326 328 330 330 331 331 331 332 333 333 334 337
339 337 338 341 340 339 338 337 336 335 333 339 330 331 330 330 331 332 331 333 335 334 335 333 332 332 330 331 332 333 332 331 332 333 333 333 334 334 334 333 332 333 333 329 328 329 328 326 326 325 324 325 325 327 329 331 331 332 333 334 333 335
338 341 339 341 339 338 337 335 336 335 334 332 330 331 330 331 331 332 331 331 333 334 334 334 333 332 330 331 331 332 331 331 331 332 333 332 331 331 330 332 332 331 331 329 329 329 328 327 327 328 328 328 327 327 327 329 332 332 333 333 333 333
336 339 337 337 341 337 337 338 337 335 334 333 334 331 330 330 334 331 332 331 332 333 336 333 332 331 330 330 330 331 331 332 331 332 332 331 331 332 331 334 334 332 329 329 328 328 328 328 328 329 330 329 329 328 327 327 331 332 332 333 333 334
336 336 333 334 335 335 337 336 333 332 333 335 333 333 331 330 329 330 331 331 331 333 333 332 331 331 332 329 330 329 330 333 333 333 333 332 331 330 331 330 330 330 328 328 328 328 329 329 328 329 330 331 329 329 328 328 327 329 332 332 332 334
327 328 327 326 325 327 333 332 331 331 336 332 330 329 332 330 332 330 331 331 332 332 331 330 329 329 329 329 329 329 329 330 331 331 330 328 329 329 327 328 328 329 331 326 326 325 327 327 328 328 330 331 330 328 328 328 326 326 330 331 331 331
327 326 326 324 324 327 331 332 331 333 332 330 330 331 328 329 329 329 330 331 332 332 330 330 328 329 327 327 327 326 327 327 330 329 329 327 329 329 328 328 327 327 326 325 326 326 325 325 325 327 328 328 329 329 328 328 328 328 327 327 330 331
324 323 323 324 325 327 329 330 331 337 332 331 331 330 328 328 328 329 330 329 331 331 330 328 328 329 327 328 328 327 328 330 331 328 328 329 328 328 327 327 327 327 325 325 326 322 322 323 324 325 326 327 326 326 326 327 328 329 328 327 327 328
322 322 322 322 321 321 324 326 329 331 331 330 329 328 328 327 329 330 330 329 329 330 330 328 329 330 327 328 329 329 329 330 330 327 327 327 327 326 326 326 324 325 326 325 324 322 323 325 325 325 327 329 330 327 325 326 326 327 329 327 327 327
322 322 321 320 320 320 321 321 322 326 331 328 328 329 330 331 330 329 330 329 330 330 330 330 331 330 328 329 329 329 328 328 329 327 327 327 326 325 323 324 323 323 325 325 323 323 323 324 328 328 326 328 328 329 327 326 325 326 325 326 325 326
322 321 320 320 321 320 319 315 316 322 325 326 327 326 328 330 330 329 329 329 330 330 331 330 330 331 329 331 329 329 328 327 326 327 327 326 324 325 324 321 323 323 325 325 325 324 324 325 326 326 325 325 325 328 329 328 326 325 325 325 326 328
321 321 319 320 319 315 313 316 318 321 323 322 322 323 320 323 326 327 327 328 329 329 330 330 330 330 330 330 330 329 328 328 326 327 326 324 323 323 323 323 321 323 324 327 327 325 325 325 323 323 322 322 324 325 327 324 324 325 323 324 323 324
320 320 319 316 314 311 310 314 317 320 319 317 318 318 318 317 319 320 324 327 329 330 329 330 330 329 329 333 330 331 328 327 328 328 326 324 322 323 323 322 324 322 323 324 324 324 324 324 321 318 318 318 320 322 325 323 322 322 322 321 322 322
319 319 318 316 316 314 314 315 315 317 317 316 316 313 313 316 318 319 318 318 318 318 325 329 329 327 328 328 328 329 328 326 326 326 325 324 323 326 323 323 323 322 323 322 321 323 324 322 317 317 314 312 312 317 321 322 320 321 322 321 321 321
319 319 319 318 315 315 315 316 315 314 316 313 315 315 315 318 318 315 315 316 317 317 317 319 325 327 327 328 327 327 328 327 326 328 326 324 323 323 322 323 322 322 320 322 322 323 323 320 318 317 315 312 309 307 311 315 316 319 321 320 321 321
319 319 319 320 320 317 318 315 316 316 314 314 315 318 315 314 313 314 315 317 317 316 317 317 318 321 323 326 326 327 325 326 327 327 326 325 324 323 322 322 324 322 321 319 319 322 324 322 319 318 313 312 309 304 304 306 311 315 319 320 321 321
319 319 319 322 318 317 316 314 314 314 316 315 314 313 312 312 314 317 316 315 314 315 316 315 315 316 317 316 321 325 325 323 325 324 325 324 323 324 323 323 323 321 320 317 318 320 323 324 323 320 316 311 308 306 306 308 309 311 317 318 317 321
319 319 320 317 316 315 315 313 312 312 310 310 309 309 309 311 311 312 312 313 315 316 316 316 315 315 317 316 316 318 321 324 325 325 325 324 322 323 323 323 322 322 320 318 320 316 319 324 321 321 319 316 312 308 309 314 309 304 312 316 318 320
319 318 319 316 315 315 312 312 311 311 311 311 310 309 310 311 312 312 313 313 314 314 314 313 312 311 311 312 312 313 314 315 318 320 322 322 323 323 325 326 324 322 321 320 319 315 319 318 318 319 320 320 320 317 313 310 308 306 303 308 314 315
319 319 318 315 314 314 312 310 310 310 312 310 310 311 312 312 313 315 313 313 314 313 313 312 311 310 311 312 311 311 313 314 315 317 319 317 316 316 318 319 320 319 319 319 318 317 314 314 316 314 316 317 317 318 317 316 310 310 306 307 307 312
318 319 317 316 314 313 313 311 311 311 311 312 313 314 314 315 313 314 313 312 311 310 309 309 310 310 311 312 313 309 310 311 313 314 316 314 313 314 314 313 312 312 313 314 317 316 316 313 313 313 315 314 315 315 315 315 315 313 310 306 305 306
316 318 318 316 314 313 312 312 311 312 313 312 314 313 313 311 311 311 311 309 309 308 308 309 310 310 309 309 309 311 311 311 311 313 313 309 310 310 311 311 310 310 310 310 309 309 307 306 308 308 313 314 311 309 307 303 303 306 307 309 307 306
317 319 318 316 315 313 312 312 313 315 314 313 313 312 311 310 311 310 309 308 308 308 309 309 309 309 310 311 312 313 310 310 311 314 311 309 309 310 310 309 309 308 308 307 306 306 306 306 306 306 305 305 304 305 303 301 301 303 302 300 298 299
316 318 317 317 315 314 312 313 315 315 314 314 313 313 311 311 312 310 308 308 307 307 307 308 307 308 308 309 311 309 310 309 310 309 310 310 310 310 309 308 307 307 306 306 306 306 303 303 303 303 303 303 303 304 304 303 303 303 301 301 300 298
315 317 317 317 315 314 313 314 315 315 314 314 313 313 312 313 312 309 308 308 307 307 307 307 307 308 307 308 309 307 307 307 308 310 308 308 307 307 306 306 306 305 304 303 303 303 302 301 301 301 301 301 302 302 303 303 303 303 302 302 300 297
315 318 316 316 315 314 314 314 315 315 314 315 313 313 314 314 312 310 310 308 308 308 307 307 308 307 309 309 308 308 308 308 308 308 308 306 306 306 307 307 307 306 306 304 304 303 303 302 302 301 299 300 300 300 300 303 302 303 302 301 299 299
316 316 315 316 316 314 315 315 315 315 315 315 313 314 315 315 312 311 310 308 308 308 308 308 308 308 310 309 308 308 308 307 307 308 309 309 310 308 308 309 309 308 307 306 305 305 303 303 304 302 300 299 301 301 301 302 302 303 303 302 302 302
316 317 318 318 319 318 317 317 315 314 314 314 315 314 315 314 313 312 311 309 309 309 309 309 309 310 311 310 308 309 309 307 307 307 308 308 307 308 308 307 307 306 306 310 306 304 303 303 303 302 301 299 300 300 302 302 302 301 302 303 303 302
316 316 317 318 319 319 318 317 314 315 314 313 313 313 314 314 313 313 312 310 309 309 310 310 310 312 311 308 308 308 308 308 307 307 307 307 306 306 307 308 306 305 305 306 306 304 304 303 303 302 302 301 299 300 303 303 302 304 304 302 303 302

ECMWFFLT2_sfc_thetae_012.txt.gz
Theta_e
348 348 349 347 346 346 348 350 349 350 349 349 349 349 348 349 349 348 348 348 345 342 341 342 343 341 346 344 346 346 346 346 346 345 345 344 343 343 342 342 342 341 341 341 340 339 339 340 341 342 341 341 342 336 333 333 334 336 334 337 338 331
347 346 348 347 347 346 347 348 345 345 346 347 348 349 347 344 349 341 348 343 340 344 339 338 339 346 341 343 345 347 346 346 345 345 344 344 344 343 343 342 342 342 342 340 337 329 330 335 338 341 340 337 333 333 333 333 333 334 335 335 335 334
346 347 347 347 346 346 345 344 344 344 345 348 347 348 343 345 339 339 340 339 340 339 339 340 340 343 343 345 344 346 346 345 345 344 344 344 343 343 343 343 342 342 341 336 329 327 326 328 329 336 335 330 329 332 332 332 332 334 334 335 333 337
345 346 346 346 347 346 345 345 343 343 343 342 340 342 339 339 338 338 338 338 337 340 338 336 345 343 345 338 339 345 346 345 345 344 343 344 343 343 342 342 340 342 335 330 328 327 327 328 328 326 327 329 330 331 331 332 332 332 332 336 331 338
345 345 345 346 346 346 346 346 345 344 343 343 342 341 339 336 335 336 336 337 338 338 334 334 332 335 333 333 332 332 335 338 337 336 341 334 334 335 335 332 333 334 330 330 328 327 328 329 328 328 328 329 330 330 332 332 332 331 332 335 335 339
343 343 345 345 345 346 347 345 345 345 344 342 342 341 338 333 332 333 334 336 338 335 335 332 331 331 330 330 331 331 333 338 339 337 338 334 334 334 333 333 332 334 333 332 329 328 328 330 327 327 328 328 330 332 331 331 332 332 332 333 336 339
341 342 343 345 345 346 345 345 344 343 342 339 340 339 338 332 330 332 334 337 335 335 336 332 330 329 329 329 330 329 330 334 338 339 339 338 337 336 333 334 333 333 331 332 332 329 328 328 326 327 328 328 330 331 331 331 331 332 332 333 335 340
340 341 341 344 344 344 344 343 344 343 342 342 339 338 337 332 331 332 334 334 337 333 334 333 330 328 328 328 329 330 330 331 334 338 339 339 338 337 334 333 334 333 332 332 332 330 328 328 327 326 328 328 329 330 330 331 331 332 332 332 335 340
340 340 340 343 343 343 342 342 343 341 340 343 337 336 335 332 331 331 333 335 337 332 330 331 328 327 327 328 328 331 331 330 330 334 337 338 338 336 335 333 332 332 331 331 330 329 329 328 327 326 326 328 329 330 330 330 330 331 332 332 333 338
338 338 339 343 343 342 341 341 341 340 339 341 335 334 332 331 330 331 332 334 335 332 332 330 329 327 327 327 328 331 331 330 329 331 334 335 336 336 336 333 331 332 332 330 330 329 329 326 327 326 325 327 329 330 330 330 331 332 332 333 333 336
337 340 339 341 341 341 341 340 340 339 340 339 334 333 331 330 330 331 332 333 333 334 331 330 329 328 328 328 328 329 329 329 330 331 332 333 332 334 334 334 332 330 330 329 328 328 327 327 327 327 327 328 329 331 330 331 333 333 333 333 333 334
337 339 337 340 341 340 340 340 339 336 338 337 334 331 329 328 332 330 330 330 331 332 334 330 329 327 328 328 328 328 329 329 330 331 331 331 331 331 331 332 333 331 331 329 327 328 329 328 328 328 328 327 328 329 329 331 332 332 332 332 332 333
338 338 336 338 340 339 339 340 338 335 335 336 333 329 327 327 328 329 329 330 330 332 333 331 329 330 332 328 328 328 328 329 329 330 331 331 332 330 331 332 330 330 328 327 328 328 329 329 328 328 329 328 328 328 328 329 330 331 332 332 332 333
337 336 336 336 336 337 337 336 334 331 334 331 330 328 329 327 329 329 329 329 328 330 331 330 329 328 328 327 328 328 327 328 328 329 329 330 330 329 329 328 327 328 332 327 327 327 328 328 328 328 328 328 328 327 328 328 327 329 331 331 331 331
336 334 337 336 337 334 331 333 330 328 328 328 327 326 327 329 331 331 328 328 329 332 332 330 329 328 327 327 326 326 326 330 331 329 329 328 329 328 327 327 327 326 325 326 326 327 327 326 326 325 325 326 326 326 327 327 328 328 328 330 331 331
334 333 333 334 333 332 331 328 328 330 326 327 327 327 328 329 330 330 329 327 329 332 330 329 329 327 327 326 326 325 325 329 331 328 327 327 328 327 326 326 326 326 325 325 326 323 324 324 326 326 327 326 326 326 325 326 326 326 326 326 327 329
331 331 330 330 329 327 326 325 326 326 325 325 324 325 326 327 328 329 328 327 330 333 329 328 328 327 326 326 325 325 326 329 329 327 327 326 326 326 326 325 324 325 325 324 324 323 323 323 324 325 326 326 326 325 325 326 326 326 326 327 326 326
328 328 328 328 328 325 325 324 324 326 328 323 323 324 324 326 326 327 327 326 328 331 329 326 327 326 325 327 326 326 328 328 327 327 325 324 324 324 325 326 323 324 324 324 322 323 323 324 325 325 324 323 325 326 325 326 327 328 327 328 328 326
323 323 324 325 324 322 321 321 320 321 321 320 322 323 324 324 324 325 325 326 328 329 328 326 326 327 327 330 328 329 330 327 326 326 324 323 323 324 323 322 323 322 323 323 323 324 324 324 324 324 324 324 327 327 326 326 326 327 327 327 327 329
320 321 321 321 321 321 322 322 321 320 321 319 318 323 320 321 322 322 325 326 326 326 328 327 326 326 328 329 329 329 329 327 326 325 323 323 322 322 322 323 323 324 323 325 325 324 324 323 322 322 323 323 324 326 326 326 326 326 325 324 326 326
318 320 321 319 320 322 319 317 317 318 317 314 317 317 317 316 318 320 322 324 326 325 325 327 327 326 326 330 329 328 328 328 328 326 324 322 322 321 322 323 323 323 323 321 323 323 322 323 321 319 317 318 320 323 327 325 324 325 325 325 323 322
317 318 320 321 322 321 317 319 317 316 313 313 315 317 318 313 316 318 318 321 324 323 323 326 327 327 328 328 328 328 328 327 328 325 324 323 323 325 324 324 323 323 322 322 321 324 323 322 317 315 315 313 315 317 323 323 323 323 323 324 322 321
316 316 315 317 319 318 313 316 315 312 314 311 312 313 313 315 315 313 313 315 318 320 323 323 325 328 326 327 328 327 327 326 325 326 324 323 323 323 323 323 323 322 320 321 323 324 322 319 318 317 316 313 311 310 315 317 318 319 320 321 320 320
316 315 313 315 318 315 317 314 313 313 312 312 313 315 312 312 312 312 312 313 315 316 320 321 323 326 325 324 325 326 325 325 325 326 324 323 323 322 322 322 322 322 321 318 318 319 323 321 317 317 313 313 311 308 307 311 312 316 318 319 320 320
316 314 314 318 317 317 316 313 313 313 313 312 312 310 311 310 311 316 313 312 313 314 316 316 318 322 325 322 322 323 323 323 323 322 324 325 324 324 324 322 322 321 320 319 318 320 322 323 320 322 316 313 310 308 309 312 310 313 316 320 319 320
314 314 315 314 317 318 317 314 312 311 309 307 307 308 308 309 309 309 309 310 310 311 312 313 313 317 323 323 321 322 323 323 322 322 323 323 323 324 323 324 322 322 319 319 321 321 319 322 321 320 319 317 316 312 311 314 311 308 314 316 317 319
315 314 314 314 317 318 314 314 314 313 311 310 309 307 306 307 308 308 308 308 307 308 308 310 311 314 318 321 319 320 321 322 323 322 324 324 324 324 323 324 322 321 320 319 320 318 318 319 318 319 319 320 320 317 316 314 310 307 309 313 314 314
315 316 314 315 316 316 314 312 311 310 311 309 310 309 308 308 309 311 308 307 307 306 308 309 310 312 315 318 316 316 318 321 322 322 324 322 322 322 323 324 324 321 319 320 319 319 318 320 319 317 318 317 318 318 317 316 314 313 308 308 311 313
315 315 312 314 316 315 316 313 312 311 311 309 309 310 311 311 310 308 306 305 306 306 307 308 309 311 312 315 318 313 315 317 319 320 320 316 317 320 320 318 318 318 319 317 318 317 319 318 317 316 316 314 312 310 309 313 314 312 311 304 306 304
315 314 313 314 315 314 314 313 311 311 310 310 311 309 309 308 307 306 305 304 305 306 306 307 308 309 310 311 312 314 313 314 314 316 317 313 312 312 312 313 314 316 315 314 314 317 318 315 313 314 317 314 311 306 306 305 306 307 306 307 304 304
315 314 313 313 313 313 312 312 312 311 310 310 309 309 308 306 306 305 305 304 304 305 305 306 308 308 308 310 312 314 311 311 314 317 313 310 310 310 309 310 309 309 309 310 310 310 309 309 308 307 308 311 308 306 306 304 303 304 303 301 300 300
312 312 311 312 312 312 312 312 312 311 311 311 310 310 309 308 306 305 304 304 304 304 304 305 306 307 308 309 311 310 312 310 310 308 308 308 308 307 307 307 307 307 306 306 308 308 306 305 305 304 304 304 304 304 304 304 303 303 303 302 301 300
312 311 310 310 309 309 309 310 311 311 312 312 311 310 309 308 306 305 304 304 304 304 304 306 306 307 307 307 309 307 308 309 308 309 307 307 306 306 306 305 305 304 304 304 304 304 304 303 304 304 303 303 304 305 305 303 303 303 302 301 301 300
310 309 309 309 309 310 310 310 311 312 312 312 310 310 309 309 307 306 305 305 305 305 305 306 305 306 306 306 307 309 308 307 307 306 306 305 305 305 304 304 304 303 303 302 302 302 302 302 301 302 303 303 303 304 303 303 303 303 302 302 301 301
310 309 309 310 311 311 312 312 312 313 313 312 311 311 310 310 308 306 305 305 305 304 305 305 306 306 307 305 306 305 306 305 305 305 306 306 307 306 306 305 305 304 303 302 302 302 301 301 301 301 302 302 302 302 303 302 304 303 303 304 303 302
311 310 310 311 311 312 312 313 314 313 313 314 315 313 312 312 309 308 306 305 305 304 305 305 305 306 306 305 305 306 307 304 304 305 305 305 305 305 305 304 304 303 304 305 301 301 300 301 301 301 302 301 302 302 302 303 304 304 303 304 304 301
311 311 311 311 311 313 314 314 313 313 314 314 314 312 312 312 310 308 306 305 305 305 304 305 306 307 305 305 305 306 305 304 305 305 305 306 305 305 305 305 304 303 303 303 303 301 301 301 301 301 302 303 303 303 303 305 305 305 304 304 303 303

ECMWFFLT2_sfc_thetae_015.txt.gz
Theta_e
349 349 350 350 350 350 349 348 350 350 349 349 349 349 348 348 348 349 348 348 346 350 349 349 348 347 347 348 346 346 345 345 345 344 344 344 344 343 342 342 342 341 340 339 339 338 339 340 341 342 340 343 344 345 345 343 342 341 341 340 340 337
347 348 349 349 350 348 347 348 350 352 352 350 350 350 350 349 349 348 348 349 348 348 347 347 347 345 347 347 346 345 345 344 345 344 343 343 343 342 342 342 342 341 339 338 337 338 338 337 338 340 339 337 344 344 345 344 343 341 340 341 340 340
345 347 348 348 349 350 349 350 349 350 350 348 350 350 348 348 347 346 347 346 348 349 348 347 348 345 345 345 346 343 345 344 343 343 343 344 343 342 342 342 342 340 338 336 339 338 337 337 338 338 339 343 344 344 344 344 343 343 340 341 340 339
345 347 347 347 348 348 348 350 348 348 350 351 349 352 348 347 346 347 346 347 350 350 349 351 343 344 344 347 348 342 341 344 344 343 342 342 343 342 341 340 341 340 340 340 338 336 335 337 338 339 341 343 343 344 344 343 341 342 342 339 338 338
347 347 346 348 347 347 347 345 346 347 347 349 348 348 348 347 347 347 347 348 348 349 349 349 348 347 347 348 348 347 348 348 343 343 344 342 342 342 343 341 342 340 340 340 337 337 337 336 338 338 340 342 343 344 344 344 342 342 341 342 341 338
346 345 347 347 347 347 347 346 345 347 349 348 348 349 348 347 346 347 346 346 348 348 348 348 347 347 347 347 347 346 346 346 343 343 344 341 341 342 341 340 340 339 340 341 340 339 338 337 335 337 337 340 343 344 343 342 342 342 341 341 341 338
344 344 344 347 345 346 346 347 348 348 346 348 350 347 346 346 346 347 346 348 345 346 346 346 346 346 345 345 345 345 343 344 342 341 344 341 342 342 340 340 341 340 340 340 339 338 336 336 337 334 336 336 341 342 342 341 341 341 341 341 341 339
343 342 344 345 345 344 347 345 348 346 346 347 347 346 346 346 345 346 346 346 347 345 344 344 344 344 343 343 344 344 344 343 342 341 342 342 342 341 339 340 343 341 339 339 336 337 335 334 337 336 331 333 339 341 342 341 343 342 341 341 340 341
343 343 344 345 343 344 345 345 345 345 345 346 345 345 345 345 344 345 346 347 346 345 344 343 342 342 341 344 343 343 343 343 344 342 342 342 341 341 341 340 340 339 339 339 338 338 336 335 337 337 333 335 337 339 341 342 342 341 340 340 340 340
342 342 343 343 344 344 343 345 345 346 345 345 344 344 343 343 344 344 344 345 345 345 344 343 341 341 340 342 343 343 343 343 343 344 343 341 343 342 341 340 340 339 337 338 337 337 336 335 334 336 334 336 336 337 340 340 341 339 339 340 340 340
341 343 342 341 343 342 342 343 343 343 344 344 344 343 341 342 342 342 340 334 332 336 338 337 333 333 334 341 341 341 342 343 344 343 344 343 343 343 342 341 340 339 339 336 334 335 335 335 334 333 335 334 338 338 337 339 339 338 338 339 340 341
341 343 343 342 343 341 341 341 343 342 342 344 344 342 340 340 342 340 334 333 332 334 333 331 330 329 329 330 334 340 342 343 343 344 344 343 343 344 343 341 342 341 340 337 336 335 335 334 335 334 335 334 334 335 336 337 337 339 338 336 340 340
342 343 342 342 342 341 342 341 342 341 342 342 342 341 340 341 341 336 335 335 334 334 332 332 331 331 330 330 330 333 339 342 343 343 343 343 343 344 343 342 342 341 338 338 337 336 335 334 333 334 335 334 336 336 337 337 337 338 335 334 335 334
342 342 343 343 343 342 342 342 343 342 342 342 341 340 340 341 341 337 336 337 335 333 335 336 334 331 330 331 331 330 335 341 342 342 343 342 342 342 341 340 339 338 337 337 336 336 335 332 333 333 335 334 335 336 336 336 338 339 338 337 337 334
342 342 343 342 342 342 342 342 341 341 341 341 340 339 339 338 337 335 335 337 336 336 337 336 335 333 331 330 330 332 333 340 341 342 342 342 342 341 341 339 338 337 337 337 338 337 337 335 335 333 333 334 333 333 335 335 337 337 338 340 340 338
341 341 342 342 342 342 341 342 341 340 340 340 338 338 338 338 337 337 336 336 338 338 338 337 334 333 332 332 331 331 334 338 339 340 341 342 341 341 340 339 339 338 336 335 334 334 336 336 336 335 335 334 333 333 332 333 334 333 335 337 337 337
340 341 342 342 342 341 340 340 341 340 339 339 338 338 338 336 335 335 335 335 336 338 338 338 336 333 332 333 333 334 334 337 338 339 339 340 339 340 339 337 336 339 338 335 334 332 334 336 334 334 334 334 335 333 333 335 332 333 333 334 333 332
340 342 342 341 340 340 339 340 340 339 339 338 338 338 338 337 336 334 334 335 335 336 337 336 338 337 335 336 336 334 335 336 337 338 338 338 338 338 338 338 333 333 335 335 335 334 333 334 333 332 331 331 334 335 335 336 335 336 335 333 335 333
338 339 339 339 339 338 338 338 338 338 337 337 337 336 337 337 335 335 335 334 335 336 335 335 336 338 339 338 336 336 335 336 337 337 337 337 337 337 337 336 333 330 334 336 336 336 334 333 332 331 330 331 332 332 334 334 334 334 333 332 332 332
336 338 338 338 338 338 338 337 335 335 335 335 335 335 336 335 335 335 334 334 334 335 334 335 335 336 337 335 334 334 334 336 338 338 337 335 336 336 335 334 335 331 331 332 334 334 334 333 332 332 330 330 331 332 332 333 333 332 333 333 333 333
334 335 337 337 338 338 337 334 335 335 334 334 334 334 334 334 335 334 334 333 334 334 334 334 335 335 335 334 334 334 334 336 337 338 337 336 335 335 335 334 332 332 330 328 329 331 331 333 329 328 329 328 329 331 333 331 332 334 332 330 330 329
332 335 339 338 338 338 338 337 335 333 334 333 334 334 333 333 333 333 334 334 334 334 334 334 335 335 335 334 333 334 335 336 337 337 335 334 334 333 333 332 331 329 329 329 327 329 329 330 327 325 323 325 328 329 330 330 330 330 329 328 327 327
333 335 337 338 338 337 336 335 336 333 333 328 327 331 331 330 330 329 332 333 334 335 335 334 335 334 334 334 334 334 333 334 336 334 333 333 333 333 334 334 334 330 327 329 328 330 330 331 328 327 328 324 321 320 325 329 330 329 328 328 328 327
333 335 335 336 336 336 334 331 331 331 330 331 328 327 328 327 328 327 328 330 334 334 334 335 335 334 335 334 335 334 334 335 335 335 334 332 331 331 332 333 333 332 331 325 325 326 331 331 331 328 320 321 321 321 315 319 324 326 329 328 326 325
332 332 333 333 334 332 329 328 327 327 328 327 328 328 327 325 328 329 328 330 330 334 335 335 335 335 335 334 334 334 334 334 333 333 333 332 331 330 331 333 333 331 329 329 327 328 328 331 331 330 326 320 316 316 317 319 322 321 326 321 319 319
331 330 330 332 332 331 329 328 327 327 326 327 327 327 326 324 324 326 324 326 326 328 331 334 335 335 334 333 333 334 334 333 333 333 333 333 332 331 330 331 332 332 330 332 330 327 326 328 331 329 331 332 328 320 318 322 320 313 322 323 319 315
329 328 329 330 331 331 330 329 330 331 330 328 326 324 324 324 325 322 324 325 324 327 326 332 334 335 335 334 334 333 333 334 334 333 333 332 331 331 331 332 333 333 332 331 331 327 326 325 327 328 328 328 327 329 327 321 316 317 313 317 316 315
328 327 327 330 330 332 330 330 330 329 328 327 326 322 324 323 324 322 322 322 324 324 325 328 331 334 337 335 334 333 334 333 332 332 332 331 331 331 332 333 334 334 332 331 330 329 326 325 326 324 326 326 326 327 328 327 324 319 317 311 308 311
327 326 326 329 330 330 331 330 330 328 324 324 324 323 323 323 321 322 321 321 323 323 325 326 328 332 334 335 335 334 333 332 332 333 332 331 332 332 331 331 332 331 332 331 332 332 329 327 327 325 324 326 327 326 326 327 327 324 315 309 307 308
326 325 326 328 329 329 329 329 328 328 325 323 323 323 323 321 320 322 321 321 322 323 324 326 326 327 329 331 333 334 333 332 333 332 331 332 332 331 332 332 332 333 333 332 332 331 330 329 330 329 330 326 322 322 323 320 316 313 313 312 307 307
326 324 325 327 327 327 328 329 328 327 327 324 325 324 322 321 319 321 320 321 322 322 323 324 325 326 326 327 329 330 331 331 332 331 329 330 331 330 330 330 330 331 331 331 331 330 330 330 330 329 327 323 320 319 316 314 313 312 309 308 309 309
324 324 323 326 326 326 326 327 328 327 326 326 325 325 324 322 321 320 321 320 320 321 322 323 325 325 325 326 327 327 327 328 326 327 326 327 326 326 326 326 327 328 328 328 329 329 328 326 326 325 323 321 319 318 316 313 311 311 309 309 310 310
319 323 323 324 325 326 326 326 326 326 326 326 326 326 325 323 321 320 320 320 321 321 321 323 323 324 323 324 325 327 327 326 325 324 323 323 323 322 324 324 324 324 325 326 327 327 323 322 321 317 316 319 316 315 314 315 314 312 314 313 312 309
319 320 321 323 324 324 324 324 325 325 325 325 325 325 324 323 321 321 321 321 322 322 322 324 324 323 321 321 323 323 324 323 322 322 322 322 321 320 322 320 322 322 321 321 321 321 319 320 320 320 320 316 316 314 314 316 314 314 312 311 309 309
318 319 319 320 321 320 320 321 322 322 323 324 323 322 322 323 321 319 319 320 321 322 323 323 322 321 320 321 322 322 322 321 320 321 320 320 320 320 321 319 319 320 318 318 319 319 318 318 317 316 319 316 315 315 314 314 314 313 313 313 312 311
318 317 318 319 319 320 321 322 322 321 321 322 321 321 320 319 318 319 317 319 320 321 321 320 320 320 319 320 321 321 320 320 319 319 319 319 319 319 320 319 317 318 315 316 319 318 317 318 317 318 318 317 314 312 315 313 314 314 313 314 313 313
317 317 319 319 321 322 324 323 324 320 321 323 322 320 319 319 319 318 317 318 319 319 319 320 320 320 319 319 320 320 320 318 318 318 318 318 317 318 319 319 318 317 316 316 317 316 317 316 316 316 316 317 314 313 314 316 314 315 315 316 315 315

ECMWFFLT2_sfc_thetae_021.txt.gz
Theta_e
348 348 348 346 347 346 350 349 349 349 349 349 349 349 349 349 349 349 349 349 348 343 342 346 346 347 347 346 346 345 345 344 344 343 342 342 341 341 340 340 341 341 341 342 340 341 342 342 342 343 344 344 343 345 344 342 340 337 336 336 338 338
348 347 345 347 347 349 350 348 345 348 347 349 349 349 350 348 348 349 348 348 348 345 343 346 346 344 344 345 345 345 345 344 343 343 342 342 341 341 340 339 340 340 340 340 341 339 342 342 341 343 344 345 346 341 343 343 341 336 337 338 338 340
346 345 346 345 348 347 349 346 351 348 348 346 347 347 345 345 345 345 344 342 347 345 345 345 344 342 341 343 345 344 344 344 343 343 342 342 342 341 341 338 338 339 339 339 339 338 338 338 341 342 344 346 344 341 342 340 341 336 336 337 337 341
345 345 345 341 346 346 346 345 347 347 346 346 345 342 342 343 342 342 340 343 341 341 344 346 344 344 344 343 344 344 344 343 343 343 342 342 342 342 341 341 339 340 338 338 337 337 338 339 337 340 343 341 341 343 341 339 338 338 336 336 336 340
347 348 344 344 345 343 344 345 343 344 347 347 347 346 345 340 343 342 340 344 341 340 340 342 344 343 343 345 340 342 340 339 340 341 342 340 338 338 341 337 337 337 338 336 336 338 339 340 342 340 341 342 343 344 342 341 340 334 337 337 339 341
343 343 346 344 341 345 347 345 345 346 346 348 346 347 346 343 343 344 346 341 340 339 340 342 343 341 339 338 338 338 340 343 340 341 339 343 340 340 338 337 335 335 339 337 338 338 339 340 339 338 338 342 342 341 340 339 338 339 338 336 340 341
342 343 344 345 345 345 344 343 345 347 344 345 348 344 342 341 344 346 341 339 340 338 338 341 343 344 343 340 337 339 337 340 339 339 338 342 340 339 338 340 336 336 337 337 333 336 337 338 340 337 338 337 339 338 340 338 338 339 338 335 339 340
345 344 345 346 342 344 347 347 347 347 346 346 344 342 340 340 343 348 338 337 342 339 342 341 342 344 343 342 339 340 341 340 338 337 340 341 337 335 339 336 335 334 333 335 333 334 334 337 338 340 337 336 335 341 339 340 347 339 337 335 338 340
346 344 345 345 343 342 343 344 347 346 345 346 343 341 343 341 341 341 336 340 342 343 342 341 341 343 343 344 342 343 343 343 341 341 340 341 339 336 337 340 337 333 336 333 334 335 335 336 339 340 340 338 336 336 336 338 337 340 339 339 336 340
344 344 344 344 345 346 347 344 344 344 345 345 345 344 342 342 345 342 341 340 344 342 343 342 343 342 342 342 343 344 344 342 341 343 343 341 343 338 335 337 339 334 332 334 332 333 332 336 336 338 338 337 338 337 336 337 338 338 337 341 337 338
342 345 343 343 345 345 343 341 342 344 344 344 347 345 345 344 345 342 339 342 345 345 345 345 344 344 344 344 344 344 343 343 341 342 342 343 342 338 338 338 335 334 332 334 333 331 333 336 336 332 335 335 338 338 338 338 337 337 337 338 338 337
341 343 344 343 345 343 344 344 343 344 343 347 347 344 343 342 341 342 338 342 345 345 344 344 345 344 344 344 343 343 342 342 341 341 342 344 341 341 340 339 335 337 334 333 333 337 337 335 335 334 334 333 335 337 338 337 334 337 336 337 336 339
341 343 342 342 342 344 344 342 343 344 344 342 343 341 342 342 342 341 341 342 345 345 345 344 344 342 342 342 343 342 340 342 342 341 342 341 342 340 340 338 333 337 334 334 332 334 335 336 336 335 333 335 337 334 334 335 337 338 335 338 338 337
342 340 340 341 342 343 342 341 342 341 342 342 342 340 342 340 343 340 342 346 346 346 345 343 340 341 343 342 342 342 341 342 341 340 341 341 340 342 340 336 335 336 334 333 331 332 331 332 334 335 335 336 337 338 339 337 339 338 339 337 338 336
343 340 340 341 339 341 341 342 339 340 339 340 339 338 340 345 345 345 344 343 346 346 345 341 337 341 341 342 342 341 341 341 343 340 340 341 340 339 337 334 335 333 336 337 332 331 330 331 330 334 336 335 335 335 336 338 339 339 339 341 340 340
347 342 340 340 341 339 340 340 339 340 340 338 341 340 343 345 344 344 344 343 345 345 345 342 342 342 340 340 338 339 340 343 342 340 340 340 339 337 334 334 335 335 333 334 334 335 336 335 336 336 336 336 337 337 335 336 337 335 336 338 337 339
346 347 345 343 341 342 340 342 340 336 340 345 348 344 343 344 344 341 340 343 343 344 343 343 342 341 342 339 345 340 340 343 342 341 339 340 338 339 334 334 334 336 335 335 334 332 333 336 336 337 337 337 336 335 335 336 336 336 335 334 335 336
346 347 346 344 345 346 345 347 345 344 344 343 340 340 336 337 337 336 336 334 338 343 343 343 339 339 336 338 340 340 341 340 341 343 340 339 337 338 336 335 333 336 337 333 334 332 332 333 334 334 335 336 335 337 336 336 337 335 336 334 333 335
345 346 345 345 346 350 347 345 342 340 339 337 338 334 334 333 335 337 339 341 339 340 342 343 342 338 337 340 339 338 340 338 336 339 340 339 336 337 337 333 333 334 336 336 334 330 333 334 331 331 332 332 336 334 337 336 336 335 333 333 332 332
345 345 344 345 345 344 341 338 335 336 334 333 335 333 335 333 335 334 337 338 339 342 341 343 342 342 339 342 340 340 338 336 336 339 338 337 335 335 334 332 331 331 332 334 334 336 334 336 332 331 334 333 333 334 333 334 334 333 335 335 334 334
344 344 342 341 342 338 335 334 334 333 332 330 332 333 334 334 335 335 337 337 340 340 342 342 341 342 343 339 338 340 334 333 338 340 339 338 337 335 334 332 331 331 330 329 330 336 335 332 330 329 331 330 330 333 333 334 335 334 333 333 333 332
344 342 342 343 341 339 336 334 334 333 333 329 327 330 329 333 332 336 340 340 341 340 342 343 340 339 338 339 338 336 335 335 339 340 338 338 335 334 334 331 331 330 334 334 331 334 333 332 327 326 325 324 328 330 331 334 329 330 333 329 330 329
343 341 343 344 341 338 337 337 336 334 331 329 334 335 332 332 333 333 338 337 339 340 339 340 343 342 340 339 339 339 337 339 340 339 336 336 334 335 335 330 333 330 330 333 332 336 336 335 325 328 327 325 320 319 325 329 330 330 332 332 330 329
343 342 340 344 339 340 341 341 340 337 337 335 331 330 331 335 334 332 333 335 337 338 337 340 339 341 340 339 337 336 337 334 332 336 336 333 332 333 333 336 331 334 334 329 330 333 335 333 329 328 320 320 321 321 316 318 324 327 330 327 328 327
340 339 343 341 340 344 342 341 339 339 337 332 330 329 329 330 333 332 331 333 333 335 334 334 336 340 339 340 340 339 336 335 335 334 334 332 331 333 333 332 334 334 334 330 331 332 332 333 331 332 326 321 319 317 317 320 322 321 325 323 324 324
327 333 337 342 343 342 338 335 333 329 327 327 326 326 326 326 326 330 329 332 332 332 333 333 333 334 336 340 339 341 339 337 335 335 336 335 333 333 332 332 333 334 333 335 329 329 327 334 334 331 332 332 328 319 317 321 319 313 325 324 324 323
327 324 326 341 342 339 336 334 333 330 329 329 327 330 329 330 331 328 330 332 331 334 332 332 333 332 333 334 334 334 334 333 333 335 336 335 334 334 332 330 332 332 334 332 332 325 327 327 332 333 333 332 331 329 327 322 319 317 313 319 322 321
329 330 328 337 337 334 333 332 332 332 332 330 331 328 329 331 331 329 329 328 328 328 330 329 329 330 331 330 332 331 331 331 328 329 327 328 330 330 330 332 332 334 331 331 332 327 326 327 328 326 333 329 330 330 330 329 324 321 316 312 314 319
337 338 339 340 337 334 334 333 333 334 332 331 328 328 327 327 326 329 327 327 327 325 329 331 331 331 331 329 329 330 330 329 329 329 325 325 328 328 331 335 335 335 334 332 333 334 331 328 328 328 329 330 325 326 328 329 327 323 320 314 312 313
333 336 339 341 341 336 335 334 332 332 329 326 328 327 326 325 327 327 326 327 325 325 325 328 331 331 331 330 329 330 329 330 330 329 328 328 329 333 337 337 336 336 336 335 335 333 332 330 330 330 329 329 326 325 324 324 327 323 320 317 311 311
329 331 333 338 340 339 337 333 331 330 327 327 327 327 326 324 324 326 325 325 325 325 326 326 330 331 330 330 331 331 331 330 331 330 328 328 329 331 336 337 337 337 336 334 332 333 332 332 330 329 328 326 326 323 322 322 321 322 319 315 312 312
327 326 329 334 337 337 336 334 332 330 328 328 327 326 325 324 323 324 325 323 324 325 326 327 329 328 329 329 330 331 331 330 330 330 329 329 329 329 332 333 335 335 334 335 334 332 332 331 330 329 328 327 325 323 321 320 318 319 317 315 315 312
329 328 326 329 333 335 335 334 334 330 329 329 326 328 326 324 325 323 322 323 322 322 323 325 326 326 327 327 328 330 330 329 329 330 330 329 330 330 330 330 334 334 333 332 332 332 330 332 331 328 324 323 321 320 320 319 321 319 318 319 317 312
327 330 328 328 331 332 334 335 335 334 334 333 331 330 328 325 324 324 322 322 323 322 323 326 326 325 326 328 329 330 330 330 329 329 329 330 329 327 328 326 333 333 333 332 331 328 329 326 326 325 323 318 318 316 315 317 318 318 317 317 314 313
327 328 328 328 330 331 332 334 334 334 333 333 330 328 327 326 325 323 324 324 324 325 325 326 325 327 327 328 328 329 329 328 328 329 329 329 328 328 328 326 326 327 326 325 324 324 323 323 321 320 320 316 316 316 315 314 314 315 315 318 317 316
330 329 327 327 328 330 331 332 333 334 334 333 331 331 327 324 325 325 325 324 325 326 326 325 325 325 325 327 326 324 325 325 327 327 327 327 327 326 326 326 324 324 322 321 322 322 321 321 320 319 318 318 317 315 317 316 317 317 315 318 318 317
329 329 327 327 327 329 330 330 332 333 335 333 332 329 326 326 325 327 327 326 326 326 326 325 324 324 325 325 324 323 323 323 325 326 326 325 324 323 323 322 321 320 320 321 321 319 319 319 320 320 319 319 317 317 317 319 317 318 318 319 318 318

ECMWFFLT2_sfc_thetae_024.txt.gz
Theta_e
345 345 346 345 346 347 348 349 349 349 350 350 349 349 349 349 347 348 348 348 347 345 345 346 345 344 347 345 346 344 344 344 343 342 342 341 341 341 341 341 341 340 342 342 341 341 342 343 343 344 344 344 344 341 343 339 335 337 336 336 337 337
345 344 346 346 345 347 347 347 346 347 348 349 349 349 348 345 347 346 346 344 344 347 345 345 343 346 344 345 344 344 344 344 343 342 341 341 340 339 339 339 341 341 342 342 341 339 340 342 344 344 345 345 343 341 340 336 336 335 335 335 338 340
346 344 345 345 344 344 345 346 345 345 346 347 347 346 345 340 340 340 341 341 344 346 344 343 345 343 343 345 344 344 344 343 343 343 341 341 340 339 338 338 339 339 340 341 340 338 337 338 339 343 345 343 341 341 342 339 336 335 335 337 337 342
343 342 341 343 345 345 344 346 345 345 344 345 345 343 341 338 338 338 340 343 342 344 345 347 343 343 343 343 343 344 344 343 343 343 342 341 341 340 339 339 339 340 338 336 334 332 334 338 336 339 340 342 340 340 339 337 334 334 334 338 338 342
343 342 343 344 344 344 344 345 344 344 344 344 343 341 338 336 336 339 340 341 341 342 343 344 344 343 342 342 342 341 342 341 341 340 342 341 341 340 339 337 335 337 336 334 332 333 337 341 339 337 339 341 339 340 336 335 342 333 335 338 339 341
341 341 342 344 344 344 344 342 343 345 344 345 345 340 337 338 338 339 340 340 342 341 341 342 340 341 340 340 340 339 340 342 343 342 340 338 339 341 338 339 337 335 334 336 336 336 337 338 338 339 338 338 336 336 336 335 336 333 336 337 339 341
342 342 341 344 344 344 343 344 344 345 343 342 343 340 338 338 339 340 340 340 339 338 340 340 340 340 339 338 338 339 340 341 341 339 341 340 339 339 340 340 337 336 334 334 335 335 336 340 341 337 337 335 334 336 335 339 341 334 334 337 339 340
343 342 341 343 344 344 343 345 345 345 344 344 342 342 340 341 340 339 340 341 341 339 339 339 338 338 337 338 338 338 339 338 339 339 342 341 339 338 339 339 337 334 335 332 331 333 335 338 337 343 335 333 333 331 331 338 339 335 334 336 338 340
341 342 343 344 342 342 343 343 342 341 342 343 343 342 341 341 340 338 339 340 340 340 340 342 339 338 340 338 339 339 339 340 340 339 339 340 339 339 338 340 337 336 335 334 331 331 333 333 334 339 336 333 333 335 337 337 336 335 333 335 336 339
342 342 340 342 342 342 341 340 342 340 346 345 343 343 342 340 341 341 340 340 343 342 343 343 341 338 337 333 337 338 339 339 339 340 341 340 340 339 339 339 338 336 333 332 330 331 335 335 335 335 340 334 333 333 336 336 335 337 337 334 337 339
343 342 340 341 344 343 342 341 341 343 343 343 344 344 344 344 343 343 342 344 343 344 343 341 340 339 339 337 335 336 338 340 342 341 342 341 342 339 339 340 337 335 337 335 331 331 329 334 334 337 335 336 335 337 334 335 333 338 339 337 335 337
341 341 342 340 340 340 341 343 342 342 343 344 346 344 343 344 345 342 341 344 342 343 343 340 340 337 334 336 336 340 339 339 341 342 341 341 341 341 341 340 339 338 336 335 332 337 333 332 331 332 335 334 334 335 333 334 334 335 338 339 337 334
340 339 339 337 339 342 342 341 341 340 342 344 345 345 342 343 343 340 340 342 342 338 339 341 342 342 338 335 336 336 337 339 342 342 342 342 341 341 340 339 337 337 335 334 338 334 335 333 329 329 335 332 336 332 332 334 333 332 334 338 339 335
339 336 336 340 340 341 341 341 339 341 343 344 345 344 344 344 341 339 341 341 341 340 339 341 342 340 340 339 338 337 335 339 341 342 341 341 340 340 338 337 338 337 336 332 332 332 331 330 334 335 333 337 335 336 335 333 335 334 335 333 337 336
342 340 339 339 340 343 344 342 342 343 343 344 341 342 342 342 340 342 344 339 341 339 338 339 340 343 341 337 336 335 336 339 342 339 339 340 340 338 337 337 337 334 334 333 330 330 328 329 331 332 335 336 334 335 336 333 331 334 337 335 338 333
342 342 342 341 342 342 341 343 343 343 342 340 340 339 341 343 339 340 340 339 340 339 335 339 336 341 339 334 335 336 338 336 336 340 340 340 340 336 335 336 336 336 333 333 331 329 329 328 329 332 335 335 335 334 334 333 331 331 335 338 335 333
339 339 339 340 341 340 340 340 339 338 337 338 339 339 338 341 341 340 339 336 338 337 334 338 339 338 340 338 338 339 337 338 337 339 340 340 338 338 334 336 335 337 335 332 331 329 330 330 331 333 331 332 335 334 334 335 335 332 333 334 335 334
339 340 340 340 339 338 339 338 337 337 341 337 336 337 339 338 339 343 338 337 339 342 340 336 338 339 341 340 337 337 337 336 334 340 340 338 338 338 336 336 334 336 336 330 330 329 329 328 329 331 331 331 333 334 335 336 336 337 335 336 333 333
337 337 337 337 337 336 338 336 337 336 337 342 341 338 338 339 338 336 336 338 339 340 340 340 338 338 338 339 336 335 334 334 336 337 339 336 335 337 336 335 335 334 334 332 330 331 329 328 330 329 330 331 332 332 336 335 337 334 333 333 332 333
336 337 336 335 334 333 333 333 333 336 334 337 338 334 334 333 337 336 338 340 339 341 338 338 338 338 339 339 337 336 335 336 332 333 335 334 333 335 334 333 333 333 332 331 331 329 331 330 329 328 327 330 331 333 332 332 334 331 333 334 332 329
334 334 332 331 332 331 330 329 330 331 331 332 329 334 334 336 334 337 340 336 339 340 341 340 338 338 338 335 336 336 335 335 335 333 331 334 335 335 335 334 332 332 331 329 328 332 333 333 327 325 328 327 330 333 332 333 332 332 330 334 331 328
333 332 333 332 330 331 331 328 329 329 329 328 328 328 328 333 336 338 340 340 341 339 341 340 340 339 338 338 335 334 335 334 335 331 332 335 335 335 333 332 332 329 330 328 329 332 332 332 325 324 322 324 326 328 330 331 329 328 330 326 327 326
328 329 331 332 335 331 332 332 337 337 330 327 328 332 328 330 332 334 339 338 341 340 340 339 340 339 337 335 336 336 334 334 334 333 334 334 334 334 333 331 330 328 327 329 328 328 330 331 326 325 326 322 319 319 325 327 331 330 329 330 327 324
328 330 329 330 332 336 337 339 335 330 331 330 326 332 335 335 334 332 332 335 338 339 337 336 336 336 336 335 335 334 333 335 334 336 336 334 333 332 333 330 329 328 328 324 326 325 329 331 330 325 318 317 318 318 313 318 322 327 328 326 326 325
327 329 329 328 327 329 337 335 334 333 331 331 333 333 333 333 332 332 332 334 334 339 335 334 336 337 337 336 337 337 336 336 336 336 336 335 334 334 333 331 330 329 328 325 323 325 326 330 330 330 325 319 317 314 315 318 320 322 327 324 322 321
329 329 328 328 328 328 338 333 332 329 327 328 328 331 327 328 330 335 326 335 332 332 332 338 334 334 338 337 336 338 337 335 336 334 333 333 333 334 333 332 330 329 329 328 323 322 323 328 329 330 330 330 326 318 316 318 317 312 324 325 323 320
329 329 329 329 330 331 336 333 333 331 332 330 326 328 332 335 332 328 334 332 332 340 332 334 336 334 335 334 335 335 336 335 335 335 333 332 331 332 332 332 332 330 330 329 327 323 323 323 328 328 331 331 331 329 326 319 315 315 311 317 319 317
330 330 330 331 332 336 334 334 333 333 332 329 328 328 330 329 332 330 333 334 329 331 333 329 335 332 333 332 336 334 335 336 335 332 332 331 330 332 332 331 333 330 328 327 327 325 325 325 324 324 329 329 329 328 327 325 326 323 313 310 310 315
330 330 331 333 333 335 334 333 332 331 330 329 328 327 326 328 329 330 330 333 329 327 330 334 331 334 331 332 334 329 334 335 331 332 326 329 331 329 332 333 334 335 333 331 331 331 329 326 326 324 325 325 326 326 327 327 325 324 319 311 309 310
333 335 336 337 336 334 334 333 333 332 331 327 329 329 326 328 328 332 326 329 332 332 329 334 339 335 337 330 333 336 331 330 333 329 328 329 330 332 335 334 333 335 335 332 332 331 327 327 329 327 328 327 324 324 323 322 323 322 320 317 309 308
336 338 339 336 334 333 333 334 331 332 329 329 329 327 325 326 327 330 326 329 336 330 336 330 334 336 331 330 331 333 334 330 331 331 330 328 330 332 335 336 336 335 333 332 332 332 332 332 329 326 324 326 326 326 322 318 318 318 317 314 309 309
334 336 337 337 335 334 333 332 332 331 330 329 329 327 326 326 325 326 326 328 328 333 330 330 337 330 331 331 334 334 335 332 333 332 332 332 330 330 335 336 335 335 333 333 334 332 332 329 326 325 325 324 324 323 323 321 321 321 319 313 312 310
332 334 336 337 335 334 332 331 331 331 330 331 331 329 326 327 330 326 328 326 325 327 328 328 330 328 330 332 331 333 335 330 330 330 330 328 328 331 331 331 332 331 330 329 331 330 327 327 329 327 324 326 325 323 322 323 324 322 321 318 313 307
330 333 334 335 335 334 333 331 331 330 330 328 331 330 328 326 331 328 329 327 330 326 329 328 328 328 331 333 333 330 329 329 329 331 331 332 331 329 329 327 330 329 328 329 329 327 327 327 327 326 328 317 316 315 316 322 319 322 319 319 317 310
329 331 333 333 334 334 334 332 332 332 331 331 330 331 331 328 330 326 327 330 331 331 329 328 329 329 329 329 330 331 330 330 330 331 331 330 330 327 328 325 326 328 327 327 327 325 324 322 319 318 320 315 313 314 321 318 320 317 319 322 318 312
329 330 331 332 333 333 334 334 334 333 334 333 331 332 327 327 329 330 329 330 330 330 328 326 327 328 330 328 326 327 328 329 330 331 331 331 329 327 328 326 324 322 319 322 322 320 318 320 320 321 320 320 317 316 317 318 318 315 317 317 315 317
329 330 330 331 332 333 333 333 333 334 333 332 332 329 326 327 328 329 331 331 330 327 327 326 325 329 328 329 330 327 325 326 329 328 326 325 325 325 324 324 323 321 320 320 320 319 320 320 320 318 316 317 317 317 316 318 318 318 318 320 321 324

ECMWFFLT2_sfc_thetae_027.txt.gz
Theta_e
343 343 344 344 345 346 348 349 349 350 350 349 349 348 347 349 348 348 347 348 346 345 345 345 345 344 346 345 345 345 345 344 343 342 342 342 341 341 341 341 341 340 342 340 340 341 342 342 343 344 345 345 346 339 337 334 334 335 335 335 336 335
341 342 344 344 345 346 347 347 345 346 347 347 348 348 346 346 350 345 346 344 344 346 343 342 344 347 344 345 343 344 344 343 342 342 341 341 340 340 340 340 341 341 341 341 341 335 337 342 343 343 345 346 341 337 333 333 334 334 335 335 337 338
342 342 342 343 344 344 343 344 344 345 346 346 348 347 343 346 342 341 340 341 343 343 341 342 342 345 345 344 344 344 344 343 343 342 341 340 339 338 338 339 339 339 339 340 336 334 332 333 334 343 345 341 337 337 333 333 333 334 334 336 336 342
342 341 340 341 342 341 341 342 342 343 343 343 342 340 336 336 337 338 339 339 338 340 339 339 345 346 347 343 342 344 344 343 343 342 341 340 340 339 339 339 338 338 340 338 331 331 331 331 333 334 335 336 334 333 332 333 334 335 336 339 336 342
341 340 340 341 340 340 340 340 340 341 340 340 336 334 334 334 335 337 337 336 338 338 337 338 338 338 339 340 338 338 339 338 336 335 341 334 335 336 336 334 332 336 331 331 330 328 330 334 333 331 331 333 333 333 333 332 333 334 335 336 337 341
339 339 340 340 339 342 341 339 339 339 339 337 333 332 332 333 335 336 336 337 337 336 336 335 336 336 336 336 335 335 335 336 335 335 339 332 333 333 332 332 333 332 331 331 331 332 334 332 332 329 329 329 332 333 332 332 334 335 334 334 338 342
338 339 341 341 341 341 338 339 341 340 338 335 333 332 332 334 335 335 336 337 334 333 333 333 334 333 332 334 334 334 332 333 334 333 338 334 334 333 334 333 332 332 332 330 329 330 332 333 332 332 330 333 331 334 333 333 333 333 334 334 339 341
338 339 340 341 340 338 337 337 339 345 339 339 335 333 333 335 336 335 336 336 338 333 334 332 332 331 331 332 332 333 331 331 332 333 337 335 332 332 332 333 333 333 332 331 330 329 331 332 336 333 329 328 331 328 331 332 331 333 334 334 336 340
339 339 339 339 338 338 338 339 341 339 338 343 337 336 336 336 334 335 336 337 338 334 333 333 332 333 333 333 333 333 332 332 332 332 335 332 332 331 332 333 332 332 331 331 328 328 330 330 330 330 329 331 332 333 333 332 330 333 334 333 335 338
339 340 339 338 338 339 338 338 338 337 337 342 337 337 337 335 335 335 335 337 337 335 334 334 333 333 332 330 331 332 333 332 332 333 334 333 332 332 332 333 333 331 332 330 329 331 330 331 332 332 334 331 333 332 332 332 332 331 333 335 336 338
339 341 340 338 338 338 338 337 337 338 339 339 338 338 336 336 336 335 335 337 338 338 337 335 333 331 332 330 329 330 331 332 332 335 334 335 335 333 332 333 332 331 332 331 329 330 330 330 331 333 334 335 332 333 332 332 334 333 334 334 335 335
339 340 340 340 339 337 337 337 338 339 339 339 339 338 337 337 339 336 336 336 337 336 335 334 332 331 332 330 330 329 331 331 333 334 335 335 334 334 334 334 333 334 332 331 330 328 328 329 329 331 334 334 335 333 331 331 333 334 334 333 333 334
340 339 339 339 338 338 338 338 337 338 339 341 339 339 338 338 337 335 334 336 334 335 334 333 333 332 333 329 330 329 329 330 333 334 336 337 336 334 334 332 330 333 331 330 328 328 330 329 327 328 332 334 332 332 333 332 331 331 331 331 331 333
337 337 338 339 339 339 339 337 337 338 340 340 338 338 339 338 336 334 334 335 334 335 334 335 334 332 331 329 330 328 328 330 332 334 335 335 334 333 332 331 330 330 330 326 325 326 329 329 329 329 329 331 330 330 330 331 331 330 331 330 331 331
336 336 338 338 339 338 336 335 336 337 339 339 339 339 337 336 334 335 335 334 335 334 333 334 334 332 330 330 328 328 329 332 331 332 333 333 333 332 331 331 330 329 327 325 325 328 328 327 326 328 329 329 330 329 328 329 330 330 331 330 331 332
334 335 336 337 338 338 336 336 338 342 337 337 337 337 336 337 336 337 336 335 335 335 333 333 333 334 329 329 327 327 330 329 330 332 333 333 333 330 329 330 331 329 325 323 325 325 327 326 325 328 328 329 329 330 327 326 328 331 331 330 331 331
333 334 335 337 338 337 338 338 337 337 335 335 335 335 336 336 335 335 335 333 335 333 333 333 333 334 331 329 329 329 331 330 331 330 332 332 331 330 329 331 330 330 327 324 324 326 327 327 326 327 328 326 329 329 329 328 327 329 332 329 328 331
336 335 336 337 335 335 335 335 334 334 336 334 335 334 335 336 334 334 334 333 334 333 334 333 333 334 333 333 331 330 330 329 329 330 332 333 331 331 329 330 329 328 327 326 325 324 324 325 327 327 326 327 327 327 329 329 327 331 329 329 329 330
334 335 334 334 334 334 333 332 332 334 333 333 333 334 334 334 336 335 333 334 336 336 335 333 334 335 332 331 330 328 329 329 330 330 331 331 332 331 330 330 329 327 328 327 326 326 325 325 328 328 328 327 327 328 329 329 327 326 328 329 329 332
332 333 333 332 332 330 330 330 330 332 334 333 332 333 333 333 334 334 334 336 336 336 336 334 334 334 333 331 329 327 328 328 328 327 327 329 329 330 329 329 327 325 324 325 327 327 326 326 325 324 323 325 327 328 329 327 328 327 327 329 329 330
331 332 330 330 328 328 327 327 329 331 331 333 333 331 330 330 332 332 334 335 336 335 335 334 335 334 333 335 330 329 329 327 326 327 326 326 329 330 329 328 328 327 325 322 322 325 327 327 323 321 323 323 325 327 331 327 326 328 327 328 327 326
330 330 330 329 328 328 327 327 327 328 326 327 325 325 326 329 331 334 334 333 333 335 334 335 335 334 333 332 329 328 329 328 328 325 326 328 330 331 329 327 327 325 324 323 322 325 328 325 319 318 318 318 319 321 325 326 325 325 326 326 326 324
329 329 329 330 330 329 329 329 329 328 323 321 324 326 329 331 333 332 333 334 333 334 334 334 334 336 333 332 330 329 329 327 327 328 326 326 329 328 327 327 325 323 321 322 322 325 325 325 319 320 320 316 314 313 318 321 323 324 326 324 323 325
327 327 327 329 331 332 332 328 329 329 324 325 324 327 329 329 330 331 331 334 335 335 334 333 335 335 333 331 330 329 329 327 328 329 327 327 327 327 326 325 324 323 324 320 318 321 325 325 323 320 314 312 313 311 309 313 317 320 322 323 323 322
326 326 327 329 329 330 329 328 325 324 325 324 324 323 323 324 326 329 329 330 331 332 332 331 333 333 332 331 330 329 329 329 328 329 329 328 327 327 326 324 324 324 321 320 318 318 321 325 325 324 317 313 311 308 308 312 314 315 321 319 321 318
326 326 327 328 328 329 327 326 321 321 320 320 320 317 315 318 322 325 324 326 330 331 331 330 331 333 333 333 331 331 331 331 329 327 328 328 329 329 327 326 325 324 322 320 320 318 318 322 323 325 323 321 316 310 312 315 311 307 315 316 316 316
325 326 327 327 328 328 327 325 322 321 322 322 320 320 321 320 321 322 323 323 324 327 330 329 330 332 332 333 332 332 331 330 330 328 330 328 327 328 329 328 328 325 324 323 321 316 318 319 320 321 325 324 325 324 318 314 310 309 306 309 312 312
326 326 327 327 326 328 327 324 323 325 324 322 321 321 321 321 322 322 321 320 322 322 324 326 328 330 330 331 330 329 330 329 330 329 328 327 327 328 329 330 327 327 326 326 323 320 319 320 318 318 322 321 323 323 321 321 318 312 307 305 306 311
327 327 327 327 327 329 328 327 327 324 322 323 321 319 321 322 319 319 318 320 321 322 323 323 323 323 322 325 328 325 327 328 328 329 329 327 326 327 327 326 326 324 323 323 323 323 322 320 321 318 320 320 322 322 321 320 319 317 310 306 306 307
327 327 327 327 328 329 328 326 324 322 322 320 320 319 318 317 318 317 316 318 318 319 321 324 324 325 324 325 325 324 323 323 323 324 326 326 326 327 326 326 327 325 324 323 323 324 323 321 322 321 321 321 319 318 317 317 317 315 314 312 306 306
326 327 328 328 328 327 325 325 324 322 321 320 319 318 317 317 316 314 315 317 318 320 320 321 324 323 323 323 324 326 323 322 322 326 326 326 326 328 327 326 327 328 326 325 324 322 323 323 323 323 323 321 320 319 315 313 315 314 312 307 305 306
326 327 329 329 327 326 325 325 325 323 321 320 319 319 317 317 317 316 317 319 319 319 319 321 320 320 321 323 323 323 324 324 324 323 323 324 326 328 327 328 327 326 327 326 325 325 323 321 322 321 321 321 320 321 319 317 317 316 312 308 307 305
327 329 329 327 326 325 323 324 323 322 321 320 319 319 319 318 317 316 318 317 318 317 318 320 318 318 320 321 321 323 322 321 321 322 322 323 324 325 326 327 326 325 324 324 323 324 321 319 320 320 318 319 320 320 319 319 319 317 315 310 309 305
328 328 327 326 325 323 323 323 323 322 322 320 320 320 318 319 317 318 316 315 318 317 319 319 317 316 319 323 322 322 322 321 320 321 322 322 323 323 324 325 324 324 323 322 322 322 321 320 320 320 321 318 319 318 315 317 318 318 315 310 306 304
328 327 328 326 325 322 323 323 323 323 323 322 320 319 319 319 319 318 317 318 318 320 319 319 319 320 322 321 321 322 322 322 321 320 322 323 324 322 322 323 323 323 322 321 319 319 316 314 313 310 309 309 311 311 312 313 310 312 316 312 308 305
327 327 328 326 324 323 323 323 322 322 323 323 323 321 320 319 317 317 319 321 320 320 319 319 320 320 319 318 318 319 320 319 320 320 321 321 321 319 317 316 315 316 315 317 313 313 313 313 312 311 309 309 310 310 312 312 313 312 313 312 310 308
325 326 326 325 325 324 324 324 324 324 323 323 321 318 319 319 319 320 321 320 319 318 318 318 318 318 316 317 318 318 317 318 318 317 317 318 317 316 316 315 314 313 314 314 314 313 312 310 309 311 312 312 311 311 311 312 312 312 312 313 312 311

ECMWFFLT2_sfc_thetae_030.txt.gz
Theta_e
343 344 344 344 345 346 348 349 349 350 350 349 349 348 348 348 348 348 347 347 345 343 343 344 343 343 346 344 345 345 344 343 343 343 342 342 342 342 341 342 341 341 340 340 340 341 341 341 343 344 345 343 340 331 330 330 331 333 333 334 335 334
342 343 344 344 345 345 347 348 345 346 346 347 348 348 346 346 349 344 347 343 342 344 341 341 343 346 344 344 344 345 344 343 342 342 342 341 341 341 341 341 341 340 340 341 341 333 332 338 340 342 341 342 334 331 331 332 332 332 333 332 335 338
342 342 342 343 344 345 344 343 343 342 345 347 347 346 344 345 340 339 340 342 342 340 340 342 343 344 343 344 344 344 343 342 341 340 341 340 340 339 339 340 339 339 339 339 331 329 328 328 330 341 341 334 332 330 331 332 332 332 332 334 332 341
341 341 341 342 342 341 341 341 340 340 341 341 340 340 339 338 337 337 337 337 337 339 339 340 346 346 345 341 341 344 344 342 341 341 341 341 341 340 340 339 339 340 335 333 326 327 328 327 329 330 331 330 329 330 331 332 332 332 334 339 334 342
340 341 340 341 340 339 339 339 339 339 338 336 334 334 334 335 336 335 336 336 337 337 335 335 336 339 336 336 336 336 337 336 332 333 339 331 331 333 332 330 329 330 326 328 328 326 328 328 329 329 329 331 331 330 331 332 332 332 332 332 335 342
339 340 339 339 338 341 340 337 337 337 335 332 332 331 332 333 334 335 335 337 336 334 334 334 335 334 334 333 334 332 332 332 331 332 334 329 329 329 329 330 330 330 329 327 327 329 331 330 328 328 328 330 330 330 330 332 332 332 332 332 337 340
338 338 339 339 339 339 337 337 337 337 333 330 330 330 331 333 333 334 335 337 334 332 332 332 332 331 331 332 332 330 330 331 330 330 332 330 330 330 330 330 329 329 328 328 327 329 328 329 329 328 326 329 330 330 330 331 331 332 331 333 339 340
338 338 338 340 338 337 336 337 338 341 333 336 332 330 330 332 333 333 334 334 335 332 332 331 330 330 330 330 330 330 330 330 329 330 332 331 329 329 330 329 329 328 329 327 328 329 329 331 328 326 327 326 329 329 329 330 331 331 332 332 335 340
338 338 338 339 337 336 336 337 338 334 333 339 330 331 332 333 332 332 332 335 337 332 330 330 329 329 329 330 330 329 328 327 327 329 329 329 330 330 331 330 328 329 326 325 326 328 328 328 326 326 327 329 330 330 329 330 331 332 331 331 333 338
339 338 338 337 336 335 335 336 336 335 336 337 332 333 333 331 332 332 332 333 334 332 331 330 330 329 330 329 329 330 330 328 328 328 329 329 329 330 331 330 329 327 328 326 327 328 327 328 328 328 329 329 330 331 328 329 331 331 332 332 333 336
339 339 338 336 336 335 336 336 336 336 337 334 334 334 333 332 332 332 332 333 333 333 332 331 330 328 328 328 327 328 328 328 329 329 329 329 328 329 329 330 329 327 326 326 327 328 328 328 328 330 330 330 330 330 330 330 332 332 332 331 331 331
338 337 337 337 337 336 336 336 336 336 336 336 335 333 333 332 334 331 333 333 333 333 334 331 330 329 328 328 328 328 326 326 328 330 332 330 329 329 332 334 332 329 328 327 326 326 326 327 327 329 330 332 330 329 330 331 333 333 331 328 328 329
338 337 337 337 337 337 336 337 336 336 337 337 335 334 333 333 333 332 333 333 333 333 333 330 329 330 331 328 329 326 325 327 330 332 332 331 332 332 331 329 327 328 327 327 326 326 327 326 325 327 330 330 329 330 331 332 332 332 331 328 328 328
337 336 337 337 337 336 336 336 336 337 339 336 335 334 336 334 334 333 334 333 333 333 332 331 330 328 327 327 326 326 326 327 328 332 333 331 328 327 328 327 326 327 329 325 325 324 325 325 326 326 327 328 329 329 329 331 330 330 329 328 327 327
334 334 339 337 337 336 335 336 336 337 337 336 335 335 335 334 333 333 333 333 333 333 333 332 330 328 327 327 326 326 326 328 330 332 332 329 329 328 327 327 325 324 323 323 324 325 325 325 326 325 326 328 327 327 328 328 327 327 327 326 326 328
333 334 337 337 337 336 335 335 336 340 336 336 336 335 334 333 333 333 332 332 331 333 331 332 330 329 327 325 325 325 327 327 329 331 331 329 328 328 327 326 325 324 322 322 323 322 323 325 326 325 326 326 326 327 326 325 327 327 327 326 327 327
333 335 333 333 335 334 335 335 337 337 336 335 335 334 333 333 333 333 331 331 331 333 331 331 331 328 327 326 325 327 327 328 329 331 331 328 327 328 327 327 325 324 323 321 322 323 323 324 325 326 326 325 324 323 323 324 324 325 328 325 324 327
334 334 331 331 332 334 335 336 335 335 337 334 333 334 334 334 333 332 331 331 331 332 332 331 331 329 328 329 328 328 328 327 327 330 329 328 327 327 326 326 324 324 323 323 321 321 322 324 326 326 325 326 326 324 323 322 324 329 325 325 325 326
333 334 334 333 331 332 334 333 331 332 332 331 330 331 333 332 332 331 330 330 330 330 332 331 332 331 330 330 328 328 327 325 327 328 329 327 327 327 327 324 325 324 324 322 322 322 324 325 326 326 326 325 326 324 323 324 323 322 324 325 327 328
333 334 333 333 332 331 331 330 330 328 328 329 329 330 329 331 332 330 331 332 332 330 331 331 331 330 329 328 327 326 326 326 326 327 327 327 325 325 325 324 323 324 323 324 323 322 324 324 323 323 324 325 325 323 323 323 323 323 323 324 325 326
332 333 332 331 330 329 328 327 328 329 328 328 329 329 330 329 332 331 331 333 333 332 330 330 331 330 328 331 327 326 326 324 325 327 326 327 326 326 325 323 323 323 322 321 320 322 324 324 323 320 322 322 323 324 326 324 322 323 323 323 324 324
330 331 331 331 330 329 328 328 327 328 326 328 329 327 324 327 329 331 331 332 332 331 330 330 332 330 330 328 327 326 325 324 325 325 326 327 326 328 326 324 323 321 319 319 319 322 325 321 317 316 316 315 317 320 322 322 323 324 322 322 321 321
329 329 329 331 330 328 328 328 328 327 327 325 326 326 327 329 332 330 330 331 331 331 331 331 331 331 329 328 327 326 326 325 325 327 326 326 327 325 324 324 322 322 319 319 320 322 323 318 318 316 316 315 310 309 315 317 319 321 322 321 321 322
328 328 329 330 330 329 329 328 328 326 324 324 323 326 328 328 330 330 328 330 330 331 331 331 332 332 330 328 326 326 326 325 324 325 325 326 326 324 322 321 320 320 322 319 313 318 321 322 318 319 312 309 310 309 306 310 313 317 320 320 321 322
327 327 328 330 329 329 329 326 324 323 324 324 325 324 324 323 325 329 329 328 329 330 331 330 330 330 330 327 326 326 326 326 325 324 326 325 325 324 323 322 321 321 320 319 314 313 318 322 321 319 315 311 308 307 304 309 310 310 314 314 315 320
326 325 327 328 328 328 327 323 320 321 321 321 320 321 321 322 321 325 326 324 327 329 329 328 328 328 329 328 326 326 326 327 325 326 326 326 325 324 323 322 322 322 319 317 319 316 317 320 321 322 317 313 312 309 311 312 307 304 310 311 313 318
325 325 326 327 328 327 324 321 321 321 321 321 320 320 322 321 323 322 324 325 326 324 326 327 326 327 328 328 326 325 325 326 327 326 328 327 326 325 325 325 324 321 320 320 319 316 318 317 318 318 320 321 323 318 317 312 305 305 304 307 310 312
324 324 325 326 327 326 322 321 320 321 322 321 320 320 320 320 320 322 322 323 324 322 324 325 327 325 326 327 326 325 324 324 326 326 327 326 326 326 325 325 323 321 321 320 319 319 317 317 319 317 319 318 318 319 317 314 310 308 305 304 305 309
323 323 324 326 326 324 322 321 321 322 321 321 320 320 320 321 319 319 318 318 321 321 322 323 325 326 324 327 327 326 324 323 323 324 327 326 324 326 326 324 323 321 321 320 318 317 319 318 317 317 317 315 317 316 316 315 313 310 305 305 303 305
322 322 324 324 325 325 323 323 322 322 320 319 319 319 318 317 316 317 318 317 318 318 318 319 319 320 320 322 323 325 326 325 325 324 326 324 323 324 324 324 324 322 320 320 319 319 319 318 319 319 318 318 315 313 313 312 310 308 308 307 305 305
323 323 324 324 325 324 324 323 322 321 319 318 318 317 316 315 315 316 317 315 316 318 319 320 319 318 319 320 320 321 318 318 321 326 326 323 323 324 323 324 323 322 321 320 320 319 318 318 319 319 318 318 317 315 312 310 310 310 306 304 304 304
323 323 324 325 325 323 323 321 321 319 319 318 317 316 315 314 315 316 315 315 316 318 317 318 318 317 318 320 322 319 320 319 321 322 323 324 324 324 324 324 324 322 321 320 320 321 319 319 318 318 317 317 316 316 314 314 314 312 308 306 306 304
323 323 325 324 324 322 322 320 320 319 318 318 317 316 314 313 314 315 315 316 315 316 315 317 316 318 316 318 319 318 318 318 319 319 321 322 323 324 324 324 324 323 322 321 321 320 319 319 319 318 316 315 317 317 315 315 316 310 308 307 306 303
323 324 324 323 322 321 321 320 320 319 318 318 317 317 315 314 314 316 316 316 315 316 315 315 315 316 316 319 318 319 318 316 317 319 321 321 322 322 322 323 321 321 320 320 320 319 317 316 316 316 317 316 315 315 314 316 315 310 307 306 304 304
324 323 322 321 320 320 320 320 319 319 318 318 318 317 316 316 315 315 315 316 315 316 315 313 314 314 317 317 316 317 317 317 318 319 319 319 322 320 321 322 321 319 319 318 318 318 315 316 316 316 313 313 312 312 312 315 315 311 309 308 307 305
324 323 322 320 318 319 319 319 318 317 317 318 319 318 317 316 315 315 315 316 316 316 315 315 315 316 316 317 316 317 316 316 317 318 317 318 318 319 319 318 316 315 313 316 313 311 310 310 309 308 308 307 309 308 309 311 315 312 310 309 307 305
323 323 322 320 319 319 319 318 318 318 317 317 317 316 316 315 314 315 316 317 317 316 316 317 317 315 314 314 315 315 314 314 316 316 316 315 315 314 314 314 312 311 310 311 311 308 307 307 307 308 308 307 308 308 308 309 313 314 311 308 307 304

ECMWFFLT2_sfc_thetae_033.txt.gz
Theta_e
345 345 345 344 344 345 348 349 349 350 349 349 348 348 348 348 347 347 346 346 344 342 341 342 342 342 345 344 345 344 344 344 344 343 342 341 341 341 341 341 341 341 341 341 341 340 339 341 343 342 343 343 340 329 328 328 329 333 332 331 333 331
344 345 344 344 344 345 346 347 345 346 346 346 347 348 346 345 347 343 346 342 341 343 339 339 341 345 342 343 343 344 344 343 343 343 342 342 341 341 341 340 340 340 341 340 340 329 330 339 342 341 340 338 330 328 329 330 330 331 332 330 332 337
344 343 343 343 343 344 343 342 342 343 345 346 346 346 343 343 339 340 340 340 341 339 338 339 340 343 343 343 343 343 343 342 341 341 341 340 339 339 339 339 339 339 339 339 327 325 326 327 331 341 339 331 328 329 329 330 330 330 330 331 329 340
343 342 341 341 342 343 342 340 339 341 341 341 343 343 340 338 338 338 338 337 337 339 337 338 346 346 346 340 340 343 342 341 341 341 342 340 341 339 339 340 340 338 330 330 323 325 327 327 328 328 328 328 328 329 329 329 329 329 329 336 332 340
342 341 340 341 341 341 341 339 339 341 340 340 339 337 336 335 336 336 335 336 335 335 334 335 336 336 334 334 332 331 331 331 332 333 336 329 330 331 329 326 325 328 323 326 325 325 328 328 328 328 328 329 329 329 330 330 330 328 328 329 333 342
340 340 339 340 340 342 340 337 337 338 337 337 336 335 332 334 334 335 335 335 335 333 333 334 334 333 333 331 330 328 327 328 330 332 333 328 327 328 325 325 325 327 325 325 327 328 328 329 328 328 329 329 329 329 329 329 329 330 328 329 335 342
339 338 337 338 339 339 336 336 337 336 334 333 333 332 331 332 333 333 334 335 332 331 332 332 332 333 334 331 328 327 326 327 328 329 331 329 328 328 327 326 324 325 324 326 328 327 327 327 328 329 329 329 329 329 328 328 328 328 328 330 337 340
338 338 336 338 337 336 334 335 338 338 333 337 333 331 331 332 333 333 333 333 334 331 331 331 332 333 331 327 326 326 325 326 327 328 331 329 328 329 329 327 323 323 325 326 328 328 328 327 326 328 328 328 329 328 328 328 328 327 329 330 332 339
337 336 336 337 335 334 335 336 335 332 332 338 330 331 331 331 331 331 332 333 335 330 329 330 330 329 327 326 325 325 325 324 326 328 328 328 329 328 328 328 325 323 322 324 326 327 326 325 325 326 328 329 329 328 328 328 328 328 328 329 330 335
336 337 337 336 334 334 335 335 333 332 333 335 329 330 330 330 329 330 330 332 332 330 329 329 328 326 327 325 326 326 325 324 326 327 327 328 328 328 329 328 325 324 324 324 326 328 326 326 327 327 328 329 329 329 328 328 328 328 328 329 329 334
337 338 336 335 334 334 335 334 334 333 333 330 331 332 331 329 329 329 331 331 331 331 330 328 328 326 326 326 324 325 326 325 324 326 327 328 328 329 329 328 326 324 324 325 326 327 327 327 326 328 329 329 328 329 329 329 329 330 330 329 330 331
334 334 334 334 335 335 335 335 334 333 332 332 332 330 329 329 332 328 330 330 330 330 331 328 328 326 327 326 325 326 325 325 325 326 329 329 330 330 331 330 330 326 325 326 325 325 326 326 326 327 327 328 328 329 328 329 330 329 329 328 329 329
335 335 335 335 335 335 335 336 334 334 333 334 332 331 329 329 330 329 328 329 329 331 330 329 327 328 330 326 326 325 323 327 328 329 330 332 332 330 328 327 325 326 325 325 325 325 326 325 325 325 326 327 327 328 329 330 329 329 329 328 328 329
334 335 335 336 335 335 335 335 335 334 336 333 331 330 331 330 331 329 330 328 329 329 329 328 328 326 326 325 324 323 322 326 328 330 331 331 328 327 325 325 324 326 327 324 324 323 324 324 324 323 324 326 326 326 329 329 328 328 328 327 325 327
335 334 337 336 336 335 335 335 335 335 335 333 332 331 331 330 330 330 331 329 330 330 328 329 327 327 325 325 323 323 323 326 330 331 330 328 327 325 324 323 323 323 323 323 323 325 323 323 323 324 325 325 325 327 327 326 326 326 325 323 326 325
333 333 335 336 335 335 335 335 335 337 334 333 332 332 331 331 330 329 330 330 328 330 329 328 327 326 325 324 323 322 324 325 330 330 329 327 327 325 323 322 321 323 322 321 323 322 321 323 324 325 325 324 325 325 325 324 326 327 325 324 325 325
332 333 336 336 335 334 334 334 335 337 334 333 332 331 330 330 331 331 330 329 329 332 330 329 327 326 326 324 323 324 324 325 329 329 327 325 325 324 323 322 321 322 323 321 322 321 321 323 323 323 323 323 323 323 323 324 323 323 325 323 324 325
333 334 336 336 335 334 334 335 335 334 335 333 333 331 331 331 331 330 330 329 330 331 330 329 328 327 326 326 326 326 324 324 328 329 326 325 324 324 322 322 320 320 322 322 321 322 321 322 323 322 322 322 322 321 321 322 324 328 323 324 324 326
333 334 333 334 334 333 334 333 331 333 332 332 332 331 331 331 330 330 328 328 329 331 331 329 328 328 328 329 326 325 324 323 327 327 326 325 326 326 324 319 322 321 322 321 321 321 323 323 324 323 323 322 323 321 321 322 322 321 322 324 329 329
333 332 332 331 332 332 333 333 332 332 333 332 332 332 330 329 330 328 329 330 329 329 331 330 327 328 329 328 326 324 324 323 326 327 326 326 326 325 322 321 320 322 321 322 322 322 323 323 322 321 322 321 322 322 323 321 320 320 321 323 325 325
332 332 331 330 330 332 332 331 332 333 332 331 331 329 329 327 329 327 329 330 330 329 329 330 329 328 327 330 326 324 323 322 325 327 325 325 325 323 321 321 320 320 321 320 319 320 321 323 321 319 318 317 318 321 326 322 321 321 321 321 323 324
333 332 332 331 330 332 333 332 332 332 330 329 329 328 326 325 328 329 328 329 330 329 329 330 330 328 328 326 324 324 323 323 324 324 325 326 325 326 322 321 321 319 317 319 318 321 323 318 315 314 314 311 313 315 319 319 320 319 319 320 320 321
333 332 332 331 331 331 331 331 331 327 327 323 326 326 327 325 329 329 328 329 329 329 329 329 329 329 326 325 325 324 323 322 323 327 326 327 327 323 321 321 319 320 318 319 321 321 321 315 314 313 312 312 308 308 314 315 315 318 319 318 320 321
332 333 332 332 332 331 331 329 327 327 327 325 322 325 324 325 325 326 326 328 329 329 330 329 329 329 327 325 324 324 323 322 322 326 328 327 326 323 321 319 317 318 320 319 314 318 321 320 316 317 310 307 308 306 306 308 310 312 314 319 320 321
331 332 332 332 331 329 329 325 324 324 325 324 325 323 323 321 323 325 326 324 327 328 329 329 329 328 328 325 323 324 324 323 322 323 327 326 325 324 322 320 319 320 319 319 314 314 319 321 318 318 314 309 307 305 302 306 306 307 310 311 315 321
330 330 331 330 329 328 327 323 321 322 321 320 320 321 321 322 321 324 325 322 325 327 328 328 327 327 327 326 324 324 324 324 322 323 325 324 323 322 321 321 320 321 318 318 319 316 315 319 321 321 316 313 311 307 308 308 303 303 309 310 315 318
328 328 328 328 327 327 324 322 322 323 322 322 321 320 320 321 324 321 323 323 324 323 326 327 325 325 326 326 324 324 324 323 324 324 326 324 323 323 323 322 321 319 318 318 317 315 317 317 318 319 319 318 320 314 315 310 303 304 304 308 309 311
326 326 326 327 326 326 323 321 321 322 323 322 322 321 321 321 319 322 322 320 319 320 322 324 325 324 325 326 325 324 324 324 324 325 326 324 323 322 323 322 322 320 318 319 318 319 316 314 319 318 318 315 315 315 312 309 308 308 305 306 306 310
324 325 324 325 325 323 322 321 322 322 321 322 321 321 320 321 320 321 319 316 318 318 319 320 321 323 323 325 327 324 323 323 323 324 327 324 323 323 322 322 320 319 318 318 318 317 319 318 316 316 316 313 313 312 311 310 309 307 304 305 304 305
322 323 323 323 323 321 321 322 321 321 321 319 320 319 318 318 318 317 318 315 315 316 316 316 316 319 319 321 322 323 322 322 322 323 325 323 322 323 321 321 321 320 319 318 316 319 319 318 318 316 317 315 311 309 309 308 306 307 307 306 306 304
319 321 322 322 321 319 320 321 321 321 320 319 318 318 317 316 316 317 317 314 314 314 314 315 315 315 317 318 317 321 319 319 321 326 325 322 322 324 322 322 321 318 319 318 317 317 316 316 317 317 316 316 313 312 310 307 307 307 305 304 303 303
318 320 321 322 321 320 321 320 320 320 319 319 318 317 316 315 316 316 315 314 314 316 314 315 314 315 315 317 317 316 317 317 321 321 322 322 322 322 322 321 320 319 318 317 317 318 317 317 316 317 315 315 314 312 311 310 309 308 308 307 306 303
318 319 321 321 320 320 319 319 319 319 319 319 318 316 315 315 315 315 314 314 314 314 313 315 313 316 314 315 316 316 314 316 319 321 320 320 320 321 321 321 320 319 318 318 319 318 317 317 317 318 317 313 314 313 312 312 311 308 308 307 306 303
318 319 320 320 319 319 318 318 317 318 318 317 316 315 313 314 314 314 315 315 315 314 314 314 313 314 314 316 315 316 316 314 316 317 318 318 319 319 321 322 320 319 318 319 318 317 316 315 315 314 316 315 314 312 312 313 309 309 307 306 304 305
318 319 320 319 317 318 317 317 316 317 316 315 315 314 313 314 314 314 313 314 314 313 315 311 312 313 315 314 313 313 314 316 315 316 316 317 320 318 318 319 319 319 316 315 316 316 314 316 316 314 314 316 315 312 313 312 308 309 309 308 307 305
320 320 320 319 317 317 317 317 316 316 315 317 317 315 315 314 313 314 313 314 313 312 312 312 313 313 314 314 314 314 314 313 314 315 314 315 317 318 318 318 315 315 314 317 314 313 313 314 315 314 315 311 315 313 313 313 309 308 308 308 308 306
319 319 319 318 317 317 316 316 315 316 316 317 316 315 314 313 312 312 313 313 314 312 312 313 314 313 312 312 312 313 314 312 313 313 313 313 314 314 315 315 313 310 310 309 311 310 308 311 309 310 308 309 312 311 312 313 310 308 308 307 307 305

ECMWFFLT2_sfc_thetae_036.txt.gz
Theta_e
345 344 344 344 344 345 347 349 347 349 349 348 348 348 347 346 345 345 344 345 344 342 342 342 343 343 346 344 345 344 344 344 343 342 342 341 341 341 341 341 341 341 341 340 340 341 343 343 344 342 342 342 340 331 331 331 332 334 334 336 336 335
344 344 344 344 344 344 345 347 344 345 346 345 347 347 345 344 345 343 344 343 341 343 340 340 342 345 342 344 343 343 343 343 342 341 341 341 341 340 340 340 340 340 341 337 336 329 334 343 344 343 342 339 331 330 331 332 332 333 334 333 336 338
344 344 344 344 344 343 343 345 344 343 344 345 346 345 343 343 340 340 341 340 340 339 339 340 341 343 343 343 343 343 343 342 341 341 340 339 339 339 339 339 339 340 336 332 327 327 329 333 340 343 339 331 330 330 331 332 332 332 332 335 334 339
343 344 343 343 343 343 344 344 343 341 341 343 343 341 339 339 341 341 340 337 337 339 338 339 344 344 345 339 339 342 341 340 340 342 341 338 339 340 340 339 337 334 331 329 328 329 329 330 330 329 329 330 330 331 331 332 332 331 333 339 334 339
343 343 342 342 343 342 342 343 342 342 342 342 341 339 338 338 339 339 337 336 336 337 334 335 335 335 334 335 334 333 333 332 332 333 334 330 329 329 328 326 327 328 326 328 328 328 330 330 330 330 330 331 331 331 332 332 332 333 334 335 339 341
342 342 342 342 341 342 341 340 340 341 340 340 339 337 336 336 337 336 334 336 335 333 334 334 334 334 333 333 332 331 330 330 331 331 332 328 328 327 327 327 327 327 327 328 329 329 332 331 330 330 330 331 331 331 331 332 333 333 333 335 341 340
340 341 341 342 341 340 339 340 339 339 338 337 337 336 335 335 334 334 334 335 333 333 333 333 334 335 334 333 332 331 330 329 328 329 332 329 328 328 326 326 326 326 327 328 328 328 329 330 330 330 331 331 331 331 331 331 331 332 333 336 341 341
339 340 340 341 339 338 338 338 339 341 338 339 337 335 333 333 333 332 333 334 335 333 333 333 334 334 333 331 330 329 327 328 329 330 330 328 327 328 328 327 325 326 328 328 328 328 328 329 330 331 331 331 331 331 330 331 331 332 332 333 338 343
339 338 338 339 337 337 338 338 337 336 336 339 333 332 331 332 331 332 332 333 334 331 332 332 332 333 332 329 327 328 326 327 328 329 328 328 329 327 327 327 325 326 326 327 327 327 328 328 329 330 331 331 330 330 330 330 331 331 331 332 337 342
338 338 337 337 336 337 337 336 334 335 337 336 330 330 331 330 330 332 331 331 332 331 330 331 331 331 331 328 327 327 326 326 328 328 327 328 328 328 328 326 325 326 326 326 327 329 328 329 330 330 331 331 331 331 330 331 331 331 332 333 336 342
337 337 336 334 334 336 337 334 334 334 335 332 331 332 331 330 330 331 331 331 331 332 329 329 329 328 327 326 325 327 327 326 327 328 327 328 328 328 328 327 326 326 326 326 327 328 328 329 329 330 331 331 330 331 331 331 332 332 332 332 334 337
336 334 334 333 335 335 335 334 333 333 332 331 331 330 329 330 332 330 331 330 330 330 331 328 328 326 326 326 326 327 326 327 328 329 329 329 330 330 330 329 328 327 327 327 327 327 328 328 328 329 330 330 330 330 331 332 331 331 332 332 332 334
334 333 331 333 334 335 335 334 333 332 331 332 331 330 329 329 329 330 330 330 330 331 330 328 327 328 330 325 326 325 325 326 328 330 331 332 330 329 327 326 326 327 326 326 326 326 327 327 327 327 329 329 330 331 331 332 330 331 331 331 331 332
333 333 332 333 334 335 335 334 334 332 333 331 330 329 330 328 330 330 330 330 330 331 329 328 328 327 327 325 325 324 325 327 329 331 331 330 326 325 325 325 326 327 328 326 325 325 326 325 326 326 327 328 329 330 330 329 330 329 330 330 330 331
334 332 334 334 334 334 334 334 333 333 332 331 330 329 329 328 329 329 330 330 331 331 329 328 328 328 326 325 324 323 325 329 331 332 331 328 326 325 325 324 325 324 324 325 325 326 324 324 325 326 326 327 328 328 328 328 329 329 329 328 330 330
333 332 333 334 334 335 334 334 334 335 331 331 330 329 329 329 329 329 331 331 330 331 329 328 328 327 326 325 324 324 326 328 332 332 329 327 326 324 323 323 324 325 324 323 324 323 324 324 325 325 326 326 326 327 326 326 328 328 327 328 327 328
331 332 333 334 334 334 334 333 334 335 332 331 330 330 330 329 329 330 330 331 330 331 329 328 328 327 327 325 324 325 325 329 332 331 328 326 324 324 323 323 322 324 324 323 323 323 324 324 324 324 324 324 325 326 325 326 326 326 327 326 327 328
332 333 334 334 334 333 334 334 334 334 334 331 330 331 330 330 329 329 330 330 331 332 330 328 327 327 326 326 325 326 326 329 330 329 326 326 324 323 323 323 321 322 323 324 323 323 323 323 324 323 323 323 323 323 324 326 328 329 325 325 326 327
332 333 334 334 333 333 333 334 334 335 333 333 332 332 332 331 329 330 330 330 332 331 331 328 328 328 327 328 326 325 325 326 329 327 326 326 324 324 323 322 322 322 323 324 324 324 324 324 323 323 323 323 323 323 324 326 324 324 326 328 331 329
332 333 334 333 333 332 333 333 332 333 333 333 333 333 332 332 331 331 331 332 331 330 331 329 327 328 329 328 326 325 325 326 328 327 326 325 324 323 322 322 322 323 323 324 324 324 324 324 322 323 323 323 323 324 324 324 324 324 325 327 326 326
332 334 333 332 332 332 331 332 333 332 332 332 332 332 331 330 331 330 331 331 331 330 330 330 329 328 328 330 326 324 325 326 326 328 327 326 325 323 322 323 323 323 324 323 323 323 323 324 321 319 320 319 321 324 327 325 323 324 324 325 327 326
333 333 333 333 332 333 333 333 333 333 332 332 332 331 329 329 329 329 329 329 329 329 330 330 330 328 329 328 325 325 325 326 327 326 327 327 326 326 323 322 322 321 320 323 321 322 322 319 316 317 317 315 318 320 322 321 320 321 324 324 324 325
331 332 333 333 333 332 332 333 334 332 333 329 330 330 328 327 330 328 327 329 329 328 330 331 329 329 328 326 325 325 325 325 325 326 327 327 325 322 322 322 322 322 320 321 322 322 321 319 317 316 316 315 310 313 317 317 316 317 322 323 325 326
331 332 332 333 332 331 332 331 330 331 332 332 328 329 325 325 326 327 327 329 330 329 330 331 329 328 327 325 325 324 324 325 326 328 328 327 325 322 321 321 320 322 323 321 319 321 322 321 319 319 314 312 311 311 310 311 311 313 317 323 324 325
332 332 332 332 331 330 330 328 327 327 328 326 326 324 323 322 325 327 328 329 330 330 331 331 330 328 328 325 324 324 324 325 327 328 329 327 325 323 322 322 322 322 323 323 317 318 322 323 320 321 316 311 310 310 307 312 310 312 314 318 322 325
332 332 332 331 330 330 330 327 326 326 324 322 321 321 321 322 323 326 327 327 330 330 330 331 330 329 327 326 324 324 324 324 326 328 328 327 326 324 321 321 322 323 321 322 322 319 320 321 321 320 318 317 316 311 311 312 309 308 315 314 318 322
332 332 332 330 329 330 327 327 326 326 325 323 321 317 318 319 323 320 324 327 328 328 330 330 329 328 326 326 324 325 324 324 326 327 328 326 325 324 323 322 322 322 322 321 321 320 320 319 320 321 320 320 321 316 317 312 307 309 310 313 314 316
331 331 332 330 329 329 326 325 325 324 323 322 322 321 320 320 320 323 323 324 326 326 328 328 327 326 325 326 325 324 323 324 325 327 327 325 325 324 323 324 323 321 320 322 322 322 320 320 321 320 319 318 317 316 314 312 313 314 312 310 311 317
329 329 329 329 328 327 326 324 324 323 322 323 323 321 321 322 321 321 321 321 324 324 324 324 324 324 325 325 327 324 324 324 325 327 328 325 324 324 324 323 322 320 320 320 321 321 321 321 320 319 317 315 315 313 312 312 311 311 311 311 310 312
327 327 328 328 326 325 324 323 323 322 322 321 321 319 320 319 319 319 319 318 318 320 320 320 322 324 325 325 325 325 324 324 326 328 328 325 324 323 323 323 322 321 320 319 319 321 321 321 321 319 319 316 313 312 312 312 311 311 311 311 311 311
324 324 326 326 325 322 322 322 322 323 322 320 320 320 319 317 317 317 318 316 317 316 316 318 320 322 324 324 323 325 324 324 325 328 327 325 325 324 323 323 322 321 320 320 319 320 320 320 320 319 318 318 315 314 313 311 310 312 310 309 311 311
321 322 323 323 322 321 321 322 323 323 321 321 320 320 320 318 318 319 317 316 315 316 315 315 315 317 318 321 324 323 323 323 325 326 325 325 325 324 323 322 321 321 320 319 319 320 319 319 319 320 318 318 317 315 313 313 312 313 313 313 314 311
318 319 320 320 320 320 321 321 322 322 321 321 321 320 320 319 318 318 316 316 316 316 314 316 314 316 315 317 319 318 319 320 322 323 323 322 323 323 322 322 321 320 319 319 320 319 319 319 320 320 320 317 315 314 313 313 313 312 312 313 313 311
317 318 319 319 319 319 320 321 321 322 321 321 320 320 319 319 317 317 317 317 317 317 316 317 315 316 315 316 316 318 318 317 318 320 321 320 321 322 322 322 321 320 319 319 319 319 319 319 319 319 319 317 316 315 314 313 312 312 311 312 312 312
317 318 318 317 318 319 319 320 320 321 321 320 319 318 317 318 316 316 315 316 316 316 316 315 316 316 317 315 314 315 316 316 317 318 320 320 321 321 321 322 321 320 319 318 319 318 318 318 318 317 318 318 316 315 314 312 312 312 313 314 314 312
318 318 318 318 317 318 318 318 319 319 319 318 318 316 316 316 315 316 316 316 315 315 315 314 314 316 315 315 315 316 316 315 316 317 318 318 319 320 321 321 320 320 319 319 318 318 317 318 318 317 318 316 317 316 315 312 312 312 312 314 314 313
317 317 317 317 316 316 317 317 317 317 317 317 316 315 315 314 314 314 315 315 315 314 314 316 316 315 314 312 313 315 315 314 315 315 316 317 318 319 319 320 318 317 316 317 318 318 315 318 318 317 316 317 319 316 315 313 311 312 312 312 313 314

ECMWFFLT2_sfc_thetae_039.txt.gz
Theta_e
349 349 348 348 348 348 348 349 349 349 348 348 348 347 346 346 346 345 344 343 344 349 350 348 346 348 345 347 344 343 344 344 343 342 341 341 342 341 341 341 341 340 340 342 344 344 344 343 343 343 342 342 340 341 341 340 338 338 337 337 337 335
347 348 348 347 347 348 349 349 351 350 349 348 347 346 347 348 346 346 343 346 349 349 349 349 348 345 346 345 344 343 343 342 341 342 342 341 340 340 341 341 340 339 338 339 341 346 345 343 343 342 341 338 340 340 341 340 339 337 337 338 339 338
347 347 347 346 346 347 349 349 349 349 349 346 347 348 348 347 348 347 347 348 349 349 347 345 345 344 344 343 343 343 341 340 340 340 340 340 340 340 340 339 338 339 337 337 344 345 344 344 344 341 339 341 341 341 341 340 339 338 336 338 339 339
346 347 346 345 345 347 350 348 348 349 350 350 349 348 349 348 347 346 346 348 348 346 344 344 344 343 343 343 342 342 342 342 342 341 340 341 340 340 338 337 337 337 340 342 344 343 343 343 342 343 342 341 340 340 339 339 336 337 338 338 338 339
347 346 345 345 345 346 348 348 348 348 347 346 345 345 346 346 346 345 345 346 344 344 344 343 343 343 342 341 340 341 341 341 342 340 338 339 339 337 338 338 339 339 341 341 341 344 344 342 342 341 340 340 340 340 339 339 337 337 339 339 339 342
346 345 345 344 345 345 348 347 347 346 345 344 344 344 344 344 345 344 344 344 344 344 343 341 341 340 339 340 339 340 340 342 341 340 341 339 338 339 338 338 339 339 340 342 343 343 343 342 341 341 339 341 341 341 339 337 338 339 340 339 339 342
344 344 344 344 345 344 346 345 346 344 342 342 343 342 342 342 343 343 344 343 342 342 340 339 338 337 337 337 337 338 339 341 341 341 342 340 339 339 338 339 339 341 341 340 340 341 341 341 340 339 340 340 340 340 340 339 338 339 339 340 340 342
342 342 343 344 343 343 346 345 344 342 342 342 342 341 341 342 343 344 344 344 343 340 338 336 336 336 336 337 336 338 340 340 340 338 341 340 338 337 338 339 341 340 339 339 339 339 339 339 339 340 340 340 339 340 339 338 339 339 339 339 340 342
341 342 342 343 341 342 343 342 342 341 339 341 341 341 340 341 341 342 342 342 341 339 337 337 338 337 337 336 337 339 339 339 341 340 339 338 338 338 338 339 341 341 341 340 339 339 338 338 341 341 339 338 339 338 339 340 339 337 339 340 341 340
342 342 341 341 340 340 341 340 340 339 340 341 340 341 342 340 340 341 341 341 342 340 339 338 337 338 338 337 339 339 339 339 338 338 338 339 336 337 338 339 341 341 337 338 339 339 338 338 340 341 341 338 338 339 340 339 338 337 339 340 340 341
342 341 341 340 339 339 340 340 339 339 340 339 339 340 340 340 341 341 342 343 343 343 341 339 338 337 338 337 338 338 338 339 337 336 338 336 336 335 337 340 342 342 340 339 339 339 338 338 338 338 339 337 336 339 339 339 338 338 338 340 340 340
341 341 340 339 339 338 337 338 339 338 338 339 340 340 339 340 340 340 342 343 344 344 343 342 340 339 339 338 338 338 338 338 337 337 337 336 335 335 336 337 339 340 340 340 339 339 339 337 336 336 336 335 336 338 337 338 338 337 338 340 340 340
340 339 339 339 338 338 338 337 337 338 338 339 340 340 339 340 341 341 342 343 344 344 344 342 343 343 340 339 338 337 337 338 338 337 337 337 336 336 335 335 336 339 338 339 338 337 337 337 335 335 336 337 338 337 337 337 337 337 336 338 338 337
339 339 338 338 339 337 338 338 338 338 338 339 340 339 340 340 341 341 342 342 342 343 343 343 341 342 340 339 338 338 338 338 338 338 337 337 337 338 336 335 336 337 336 337 334 335 335 334 335 335 335 335 336 337 337 337 337 337 338 338 341 340
336 336 336 338 337 338 338 337 337 338 339 340 340 340 340 340 341 342 342 341 342 341 343 342 342 341 340 339 338 338 339 338 338 338 336 336 338 338 338 336 336 335 336 334 334 334 333 332 333 333 334 335 335 334 337 335 336 337 339 339 340 340
335 334 336 338 338 339 338 338 338 338 339 340 340 339 339 340 341 341 341 341 341 341 341 342 342 342 340 339 339 338 338 337 338 337 335 336 338 337 337 335 335 335 331 332 332 331 333 331 332 332 333 335 334 334 334 336 337 336 338 339 338 339
333 334 335 337 337 338 339 338 338 338 338 340 339 338 338 340 339 340 341 340 341 341 340 340 341 341 342 340 339 338 337 338 338 337 335 336 337 337 337 333 334 335 334 331 331 330 331 331 331 331 331 333 333 333 335 336 336 336 337 337 337 338
334 335 337 337 336 337 337 338 338 338 339 337 338 339 339 339 339 339 339 339 340 340 340 340 340 340 341 340 341 339 338 337 337 336 335 337 336 337 338 335 332 333 333 332 330 329 329 331 330 330 330 330 331 333 333 336 335 336 337 335 336 336
332 334 334 336 335 337 337 337 339 337 337 337 338 338 339 339 338 338 338 339 339 340 339 340 340 340 341 340 339 339 337 335 336 335 334 334 335 335 335 335 333 331 333 333 331 331 331 331 330 330 329 330 332 333 333 334 333 335 336 336 336 334
334 334 334 336 337 335 335 333 334 336 335 336 336 336 338 337 338 337 338 339 339 339 339 339 338 339 340 339 338 338 337 335 334 335 333 332 333 335 335 333 333 331 330 330 332 331 331 330 330 329 328 330 331 333 332 333 333 333 333 333 334 334
334 335 334 333 334 334 331 331 333 334 333 335 336 337 337 338 338 337 338 339 339 339 340 339 339 339 338 337 338 338 336 334 333 335 334 332 334 336 336 334 333 333 330 328 329 331 331 332 328 326 328 328 329 332 332 332 332 332 331 332 332 332
334 337 338 334 334 334 334 333 331 334 334 335 336 335 334 335 336 337 338 339 339 338 339 339 339 339 337 338 337 336 337 335 334 335 334 333 333 333 334 333 333 330 331 330 328 332 331 331 326 325 321 322 324 327 330 331 329 330 331 330 330 331
335 335 336 336 335 334 335 335 336 336 336 335 338 339 337 337 337 337 338 338 338 338 338 338 338 337 336 336 336 336 336 337 336 334 332 331 332 332 333 333 333 330 328 331 330 331 331 333 325 327 327 323 320 319 323 326 328 328 328 329 330 330
333 335 337 336 334 335 335 337 338 338 338 337 335 337 338 337 337 336 335 336 337 337 336 336 337 336 336 336 336 335 335 336 334 336 334 332 332 331 332 333 334 333 331 326 327 328 331 333 330 326 319 320 320 320 315 318 322 324 329 328 328 329
331 333 335 335 333 335 335 335 336 337 336 335 336 335 333 332 334 335 334 335 335 336 336 335 336 336 336 336 336 336 335 335 334 334 336 333 332 332 332 333 333 333 333 329 326 329 330 332 334 332 326 320 319 318 318 319 321 321 326 326 327 328
330 331 332 334 334 334 333 332 332 330 329 330 329 330 330 329 330 333 333 335 335 335 335 335 336 336 336 335 335 335 335 334 332 333 334 333 333 332 333 332 334 335 334 335 332 328 328 330 331 331 332 332 332 320 318 320 320 314 324 326 326 326
330 332 334 334 333 333 332 333 333 332 332 332 330 331 334 334 334 334 334 333 333 334 335 335 335 335 335 335 335 335 335 335 334 333 331 333 332 333 333 332 334 335 335 335 335 330 329 327 329 330 330 333 334 332 328 321 318 319 315 320 322 322
331 333 334 332 332 332 331 333 334 334 334 333 333 332 334 333 333 332 332 332 333 334 334 335 335 335 335 335 335 334 335 335 334 334 333 333 333 332 334 334 335 335 335 334 335 332 331 330 328 327 330 333 331 330 329 327 326 322 318 315 315 322
330 332 331 331 332 332 334 335 334 333 332 334 335 334 333 333 332 332 331 331 333 333 333 334 335 334 334 335 334 334 334 334 334 333 333 333 334 333 333 334 333 333 333 333 333 336 334 330 332 330 329 329 328 325 324 327 328 326 320 318 316 317
329 330 330 332 334 334 335 334 333 334 333 333 333 332 333 332 332 332 330 330 332 332 332 331 332 333 333 334 334 334 334 334 334 334 333 334 334 334 334 334 334 334 335 333 334 334 334 335 333 334 331 328 325 323 323 323 325 324 324 324 317 316
330 330 330 331 333 333 333 334 333 334 334 333 333 333 332 331 331 332 330 330 331 331 332 332 332 332 333 333 333 333 333 334 335 334 333 334 335 335 335 335 334 334 334 333 333 334 333 335 334 333 330 328 326 324 323 322 323 323 323 321 319 317
330 330 331 332 333 332 332 332 334 334 334 334 334 334 333 332 333 333 331 331 331 332 332 332 333 332 332 332 332 332 332 332 332 333 333 334 335 335 335 334 334 333 333 334 333 333 332 332 333 332 332 330 328 328 327 325 324 326 324 323 321 318
328 330 331 331 331 330 331 331 332 333 334 335 336 335 335 334 334 333 332 330 329 330 330 331 332 332 333 332 332 332 331 332 333 333 334 334 335 334 334 334 334 333 333 333 333 333 331 332 333 332 332 332 329 327 326 327 327 326 328 327 323 318
328 330 330 330 329 328 329 332 334 333 334 335 336 336 335 334 333 332 332 332 332 332 331 332 332 333 333 333 333 334 333 333 333 333 333 334 334 334 335 333 334 332 332 335 334 334 333 333 334 334 335 331 330 327 326 326 328 328 327 326 322 320
326 329 329 328 327 327 328 329 332 334 334 335 335 335 334 334 333 332 332 332 332 331 331 331 331 332 330 332 332 332 333 333 331 331 332 333 333 334 335 334 335 336 335 334 333 333 332 332 331 331 333 332 331 328 325 325 326 326 327 326 325 322
326 327 328 327 327 328 327 328 330 333 334 334 334 335 333 332 333 333 332 331 330 330 331 330 330 330 329 330 330 330 331 332 332 332 332 333 333 333 334 334 334 335 334 331 333 332 332 332 332 332 333 333 330 327 327 325 326 327 326 328 328 325
327 328 328 328 327 327 328 328 329 332 332 332 332 333 331 331 331 332 332 332 330 329 329 331 331 331 329 329 331 332 332 332 332 333 334 334 334 334 333 333 334 334 334 333 333 331 332 332 333 332 332 332 331 328 326 327 325 327 329 330 328 326

ECMWFFLT2_sfc_thetae_042.txt.gz
Theta_e
349 349 349 348 347 347 349 350 350 349 349 349 348 348 348 348 348 348 348 346 347 349 350 348 347 348 346 348 344 344 344 344 343 343 342 342 342 342 342 342 342 343 344 345 344 344 343 343 342 342 341 341 339 341 341 339 338 338 337 336 334 333
349 349 348 348 347 347 349 349 351 352 352 350 347 347 349 350 350 352 347 349 348 347 349 341 346 346 348 346 345 343 343 342 343 342 342 342 342 341 341 340 341 343 343 345 344 345 345 344 343 342 342 341 343 341 341 339 340 337 338 339 337 336
351 348 348 347 345 346 348 349 348 348 345 347 349 348 348 348 350 350 350 347 345 345 344 346 344 344 346 342 344 342 341 341 341 341 341 341 341 341 340 339 339 341 343 344 346 346 345 344 345 342 341 344 343 341 341 340 339 339 337 338 339 338
352 351 348 346 344 346 349 348 347 347 350 349 349 348 348 350 349 349 346 347 343 345 342 345 342 343 344 344 343 342 342 341 341 341 341 341 341 340 339 338 340 340 342 345 344 346 344 345 343 343 343 342 342 340 340 340 336 338 339 338 339 338
351 351 348 345 344 347 350 348 346 345 345 345 347 346 345 343 344 342 341 340 346 347 346 343 346 343 343 342 341 341 342 341 341 340 342 341 339 336 339 338 341 341 342 343 344 345 344 343 345 342 342 342 341 341 340 340 339 338 339 339 341 339
349 348 348 344 345 349 350 348 344 345 345 343 342 343 342 342 342 339 342 347 347 347 347 345 345 344 343 342 339 338 340 341 340 339 341 340 339 340 341 339 339 339 341 343 346 346 344 344 343 341 341 342 341 342 341 339 339 340 340 339 342 341
345 346 347 345 346 346 348 349 348 343 345 346 347 346 345 343 346 347 348 348 347 345 344 341 340 340 339 341 339 338 339 341 341 340 341 339 340 341 340 339 339 340 340 341 344 345 344 344 343 340 341 340 340 340 341 341 340 340 340 340 341 341
343 346 346 344 346 346 349 349 349 348 348 346 346 345 344 345 347 347 349 349 346 344 341 337 339 339 339 340 339 342 342 340 340 340 342 340 339 339 338 339 340 339 338 341 342 343 342 343 343 343 340 340 340 341 342 341 342 342 341 341 341 341
345 344 344 344 344 346 349 348 347 346 345 345 347 346 345 347 347 347 348 347 346 344 342 340 339 339 339 341 340 343 341 341 342 340 341 340 341 339 339 339 339 339 340 341 342 342 341 341 343 343 341 339 340 340 342 341 341 340 341 341 341 340
343 342 343 343 344 345 347 346 347 346 346 345 346 347 347 346 347 346 344 345 345 344 341 339 340 338 338 338 340 341 342 342 342 341 340 341 340 339 338 338 339 339 338 340 340 341 340 341 342 342 342 341 340 340 341 340 340 341 342 342 342 340
343 345 344 342 346 347 347 345 344 345 345 345 346 346 345 346 345 345 345 348 346 343 342 341 341 340 339 339 341 342 341 342 339 340 343 342 342 340 340 339 343 341 340 339 339 340 339 341 342 342 342 340 340 341 341 341 340 340 341 341 341 340
344 346 345 345 346 346 344 342 344 344 344 344 345 344 344 345 344 345 347 348 345 342 341 341 342 342 342 341 341 341 340 341 341 341 342 341 340 340 341 345 346 345 344 342 341 340 340 339 340 339 340 339 340 340 340 340 340 340 341 341 340 340
346 347 345 344 344 343 342 342 343 345 344 344 344 345 344 345 346 347 349 349 347 343 342 340 341 342 341 341 341 340 339 341 341 341 343 341 340 341 341 343 345 345 343 342 341 341 340 341 340 339 340 342 342 340 340 341 340 340 339 340 339 338
342 344 343 344 343 342 341 342 343 344 344 344 344 343 344 345 346 345 348 350 349 344 343 341 341 342 342 341 341 339 340 339 341 342 342 341 339 339 340 342 341 342 340 339 339 340 339 338 339 339 340 342 341 341 341 339 339 339 339 337 337 338
340 341 342 342 341 340 341 341 341 341 342 345 345 344 343 346 344 346 346 345 347 346 345 343 343 342 341 340 339 339 339 339 342 343 342 341 341 343 342 341 339 340 339 338 339 338 337 337 337 338 340 340 338 337 339 338 339 338 338 338 338 338
339 337 338 341 340 340 342 342 342 340 343 345 343 343 343 345 345 346 346 346 347 347 346 344 343 343 341 341 339 338 339 341 342 341 341 341 341 340 341 341 342 341 337 337 337 337 337 336 336 335 337 339 338 338 337 337 336 335 337 337 337 338
337 338 338 339 342 341 342 341 341 340 341 344 343 343 342 345 346 347 346 345 347 346 346 344 344 345 345 344 342 341 340 344 343 340 340 340 339 341 341 341 341 341 340 337 336 335 336 336 335 335 335 337 338 336 335 336 335 336 336 334 335 335
335 336 339 340 341 341 340 341 340 340 342 342 343 342 342 343 344 344 344 344 345 345 345 344 343 346 347 345 344 342 344 345 344 341 339 341 339 341 342 342 339 341 339 338 336 335 335 335 335 334 334 334 334 338 335 334 334 335 337 333 335 335
335 337 338 340 340 340 340 342 341 340 340 339 341 342 342 342 342 344 343 345 345 345 343 344 343 346 347 343 343 343 344 345 344 339 339 339 339 341 342 341 339 338 340 338 337 337 336 335 334 332 331 333 335 335 335 336 335 333 334 334 335 335
336 339 340 339 340 338 339 338 335 336 336 336 337 339 342 341 343 343 344 344 345 345 343 343 343 346 346 344 343 342 342 342 342 342 337 336 335 339 340 339 338 337 337 336 338 337 337 334 333 332 332 334 334 333 332 334 334 334 335 336 336 337
334 337 335 335 337 337 333 335 336 333 333 335 336 339 340 341 343 344 344 343 345 343 343 344 343 344 344 344 344 343 341 341 342 342 339 337 337 340 340 340 337 337 336 335 335 337 337 337 331 329 331 331 332 333 333 333 333 334 335 335 336 335
337 335 334 336 337 337 335 334 333 334 333 335 337 338 339 341 342 343 345 345 344 344 345 345 344 344 343 342 342 340 341 340 341 341 339 340 337 337 340 339 337 335 338 335 334 337 338 335 332 329 327 327 328 332 332 334 330 331 333 333 335 336
335 338 336 336 338 338 337 337 337 338 336 336 341 343 341 340 340 341 344 343 343 342 345 344 344 343 343 341 341 341 340 340 340 340 336 336 335 338 339 338 338 335 334 337 336 339 338 337 329 331 331 324 323 320 325 328 330 330 332 335 336 335
336 339 337 336 337 340 338 338 341 342 343 341 336 334 335 340 340 341 341 342 341 341 343 342 342 342 342 341 341 340 338 337 337 341 337 335 336 337 339 338 338 338 337 332 334 334 339 340 333 330 322 323 322 325 317 320 325 331 335 335 333 333
337 336 335 336 338 340 336 340 339 338 337 336 335 333 334 336 338 340 340 340 340 341 341 341 341 340 340 342 342 342 339 339 338 340 340 338 336 335 337 339 339 338 337 334 332 334 337 339 336 337 328 324 321 318 320 323 325 327 331 330 330 331
339 337 335 336 336 337 339 335 333 332 327 328 330 332 333 333 336 336 337 340 340 340 340 340 339 339 338 341 342 342 342 340 340 339 339 339 337 335 336 337 338 338 337 338 336 332 332 337 339 339 337 334 330 324 319 322 321 316 330 332 330 329
337 336 337 337 337 337 335 337 334 333 332 331 329 331 335 336 338 337 339 339 338 340 339 339 340 339 339 339 339 340 343 342 340 340 341 340 337 338 336 336 338 337 336 336 337 332 332 333 337 335 338 338 338 334 330 323 320 321 320 326 329 329
337 336 338 339 338 337 336 334 332 331 331 332 332 334 335 336 338 339 337 337 338 338 339 339 338 338 338 338 339 339 342 342 340 340 338 338 338 337 337 337 339 339 336 336 337 332 332 333 330 331 334 335 333 334 333 332 329 324 322 319 321 328
337 338 339 340 341 341 339 334 335 331 331 330 332 333 335 336 335 337 336 337 337 337 338 339 338 338 338 338 339 338 338 340 341 339 337 337 339 337 339 339 339 338 338 337 336 335 333 333 332 331 331 333 332 331 331 332 330 327 322 320 319 321
336 337 337 338 337 336 337 335 332 328 330 330 335 333 334 333 334 335 335 335 337 336 336 337 338 338 338 337 337 338 337 337 339 338 336 338 339 339 338 339 340 340 341 339 338 335 333 333 334 335 332 332 329 329 328 329 328 325 324 323 319 319
336 337 337 337 337 336 334 333 330 330 330 330 333 332 332 332 332 334 333 334 334 335 336 335 337 338 338 337 338 338 337 337 337 338 336 339 339 338 339 339 340 340 340 339 337 337 335 334 332 333 331 330 328 328 327 325 325 325 323 321 320 320
336 336 336 336 336 336 335 334 334 331 330 331 334 333 333 332 333 332 333 333 334 334 334 335 336 336 337 337 337 336 338 337 336 337 336 339 340 339 339 339 339 339 338 339 339 338 337 335 331 332 332 331 330 328 328 326 325 332 328 322 323 322
333 334 334 335 335 335 335 333 333 330 330 333 337 336 336 335 335 334 332 332 334 332 332 333 334 334 336 336 336 336 336 335 335 337 336 336 340 339 339 339 339 339 338 338 338 338 335 337 336 332 332 333 330 329 329 331 328 328 328 326 325 321
331 330 332 332 331 329 330 331 332 332 331 333 336 337 335 334 334 334 333 332 333 331 331 332 333 333 335 335 335 336 336 336 336 336 336 337 336 339 339 334 338 337 338 339 339 339 338 338 338 336 335 331 332 330 330 331 330 329 327 326 324 323
327 327 330 332 330 331 331 332 331 333 333 334 336 335 335 337 336 335 335 334 335 334 333 333 333 335 336 335 335 336 336 335 335 336 336 336 336 338 339 337 336 338 338 338 339 339 337 337 335 335 334 333 331 331 332 330 331 330 328 327 326 325
329 329 331 331 331 331 330 331 331 330 332 337 336 335 337 336 336 336 336 334 334 334 333 333 334 335 336 335 335 334 335 335 336 336 336 336 335 337 339 338 336 337 337 337 338 338 337 337 337 336 337 336 333 331 334 331 331 329 327 328 328 328
329 330 331 331 332 330 328 329 330 334 335 337 336 336 336 334 334 335 336 334 333 333 335 335 334 336 335 334 334 334 333 333 336 336 336 335 334 333 337 339 336 337 337 337 337 335 336 336 337 338 337 337 334 332 332 333 331 331 331 330 330 328

ECMWFFLT2_sfc_thetae_045.txt.gz
Theta_e
348 347 348 347 347 347 349 350 350 350 349 349 348 348 348 348 349 349 348 347 346 349 350 348 347 346 346 345 344 345 345 345 344 344 343 343 343 343 344 344 344 345 345 345 344 343 343 342 342 341 341 342 342 347 339 339 338 336 334 334 334 333
348 348 347 346 345 346 349 348 348 349 349 350 349 350 350 348 349 350 347 347 348 350 349 349 345 347 346 345 345 344 344 343 343 343 343 343 343 343 343 344 344 345 345 344 344 343 344 343 342 341 344 341 343 339 340 338 339 336 334 332 332 334
347 348 346 342 344 345 346 346 346 347 348 348 349 348 347 346 346 347 345 345 347 346 347 348 346 345 345 344 344 343 343 342 342 342 342 342 342 342 342 343 345 345 345 344 344 343 342 340 341 344 343 344 342 339 339 339 338 337 336 336 336 336
345 346 348 342 343 343 344 345 345 346 346 347 347 346 347 347 345 347 346 346 347 347 348 348 345 345 344 344 343 342 342 342 341 341 342 342 341 341 341 342 343 345 345 343 346 346 340 340 340 344 346 341 339 339 339 338 335 338 339 337 338 338
345 344 346 343 342 342 345 345 344 344 347 345 347 349 347 344 344 344 345 347 346 347 346 345 345 345 343 342 343 342 342 342 342 343 341 339 338 337 341 339 343 344 342 342 345 345 343 342 344 343 343 341 341 340 338 338 337 336 338 339 339 338
345 345 346 342 342 343 344 345 346 345 348 346 344 346 345 342 342 343 346 345 346 347 344 343 344 342 341 340 338 336 339 341 339 338 342 339 337 336 337 337 338 337 340 344 346 344 341 342 340 340 340 341 339 340 340 337 336 336 340 340 341 340
347 346 345 344 347 343 346 346 348 347 348 348 350 349 348 346 347 346 345 343 341 343 344 342 342 342 339 340 339 339 341 341 339 338 340 338 339 338 338 338 338 339 341 343 341 342 343 340 343 338 340 340 341 340 340 341 338 336 340 340 341 340
346 345 345 345 347 346 345 346 348 348 348 347 347 344 345 346 348 344 342 343 343 342 343 341 341 341 341 342 339 341 341 339 341 337 340 338 338 338 339 337 337 336 340 340 337 338 343 337 341 339 339 340 339 341 340 340 340 338 339 340 340 340
345 345 345 345 342 344 344 344 346 347 345 344 343 343 344 344 346 343 342 343 342 341 339 338 339 341 340 340 341 342 341 340 341 340 340 340 340 340 339 339 339 339 338 337 342 341 338 336 339 340 338 338 338 339 341 340 339 338 338 339 339 339
342 345 344 345 345 344 340 344 345 344 343 343 343 343 343 343 344 342 341 343 340 342 341 339 340 339 340 340 342 344 344 343 341 340 341 341 340 339 338 339 339 338 336 337 338 337 336 340 341 339 338 337 337 338 340 339 341 339 338 340 339 338
347 347 345 345 344 343 338 341 343 345 343 340 342 343 343 343 343 345 345 344 345 343 342 341 340 340 339 341 344 344 343 343 341 341 342 341 341 340 339 340 339 337 337 338 337 340 336 336 340 337 337 335 337 338 338 338 339 339 339 338 338 337
344 343 342 340 343 339 342 341 342 344 343 344 341 340 342 340 343 341 344 349 345 343 342 341 343 340 342 341 342 342 342 342 343 342 342 340 340 341 342 341 340 340 340 340 342 338 339 339 338 335 335 334 335 337 338 337 340 340 339 338 336 336
343 344 342 342 336 340 339 342 341 344 341 341 342 343 340 340 342 343 344 346 344 343 343 344 344 342 342 342 343 342 341 343 341 343 343 343 343 343 344 343 343 340 339 339 337 337 337 337 338 338 338 338 341 337 337 340 340 339 339 339 337 336
342 341 340 341 339 340 341 342 342 346 347 343 343 342 344 342 344 344 345 345 343 343 343 343 343 343 340 343 342 341 341 341 341 342 343 344 342 342 341 340 338 338 336 339 336 337 337 336 338 341 339 340 338 342 338 338 339 339 339 337 339 338
341 340 342 343 342 339 342 341 340 342 345 344 344 341 343 344 344 343 343 346 345 342 341 340 343 343 343 342 340 341 340 341 342 343 340 342 341 341 340 338 340 336 337 339 336 336 334 336 337 340 340 339 338 339 339 340 339 337 339 337 336 339
342 341 342 341 341 342 345 347 343 343 342 344 341 342 341 344 342 342 345 344 345 344 343 342 343 344 343 342 340 340 342 343 343 341 341 342 343 338 339 339 340 338 339 338 336 334 335 336 337 339 339 334 338 336 338 336 336 338 341 336 337 338
339 339 340 343 342 342 343 342 344 341 341 344 341 340 349 346 341 341 343 342 344 345 345 344 344 344 343 342 340 341 342 343 343 340 342 343 340 338 340 338 339 339 340 337 336 332 336 337 337 337 337 334 335 334 336 335 336 337 339 336 336 338
341 341 341 342 341 341 342 341 337 342 343 345 341 341 341 340 339 342 341 341 345 345 344 345 344 345 345 343 341 341 343 343 340 340 341 341 339 339 339 342 339 340 336 336 335 334 333 334 336 336 336 334 335 338 337 338 339 338 338 337 335 336
340 341 341 342 339 340 342 341 340 341 341 343 343 340 344 337 342 343 341 343 344 344 344 344 345 345 345 341 340 341 344 344 341 339 341 341 339 338 339 340 336 337 338 337 335 336 334 333 333 334 333 334 337 338 339 338 338 338 338 336 336 336
339 340 339 340 339 339 340 338 338 337 337 337 335 337 339 338 342 343 342 343 343 345 344 344 344 343 344 343 340 341 343 344 342 339 339 338 337 337 339 340 340 339 337 337 337 336 335 334 333 333 331 333 336 335 335 336 337 336 334 335 336 335
340 340 339 336 336 336 335 335 336 336 336 335 333 337 339 338 341 341 341 341 343 343 344 343 343 343 342 340 341 342 344 343 343 340 339 337 339 339 340 339 340 340 338 335 335 337 334 335 332 330 332 330 330 333 335 335 333 334 336 337 335 334
338 339 338 338 336 336 337 337 336 335 334 338 335 337 334 335 340 340 342 341 344 341 343 343 342 342 342 341 340 341 342 343 342 341 339 339 341 339 339 340 338 336 339 336 334 335 337 334 329 327 325 328 329 333 334 334 333 332 333 334 336 336
338 338 337 336 336 336 338 339 339 338 336 336 337 340 338 340 334 338 340 341 342 342 341 340 341 341 342 340 341 339 341 342 342 341 338 338 339 339 340 339 338 336 335 336 335 337 336 336 327 329 330 325 321 323 327 329 332 333 333 334 333 332
339 340 337 336 336 338 339 339 338 337 336 336 331 336 333 335 337 340 335 340 341 342 342 339 340 339 340 340 341 340 340 341 341 341 338 338 338 337 339 338 338 337 336 332 332 332 337 335 333 328 320 323 323 322 317 323 326 329 333 331 331 331
337 338 338 337 336 338 338 335 338 336 334 333 331 333 335 336 336 335 337 341 340 342 342 339 340 339 337 340 340 341 339 340 340 340 338 334 336 338 338 338 339 337 335 333 330 333 332 337 334 335 326 324 322 319 319 321 326 326 329 329 328 330
337 337 337 337 337 338 335 334 333 330 327 329 329 332 331 335 334 334 334 340 338 341 340 340 340 340 338 340 340 341 340 340 341 340 340 337 336 337 337 336 338 338 336 336 332 330 332 335 333 332 334 333 330 321 322 324 323 317 330 329 328 328
335 338 338 337 338 337 334 335 334 332 332 331 331 332 335 336 337 337 338 339 338 340 340 342 341 341 341 341 341 340 341 341 340 341 340 338 336 336 335 335 337 337 336 336 336 331 331 329 335 333 335 334 332 333 329 324 321 321 319 324 327 326
335 336 336 336 337 337 335 334 335 336 335 333 334 333 335 337 337 330 331 334 337 339 338 338 338 339 341 342 343 342 341 340 339 339 337 338 337 336 336 335 337 337 335 335 336 331 333 336 331 330 335 334 334 334 333 329 328 324 319 318 320 325
335 337 339 336 335 338 337 338 336 335 335 335 337 335 333 333 331 331 330 331 335 336 337 338 338 337 337 338 339 340 339 339 339 339 336 338 338 337 336 336 335 339 335 335 335 338 336 334 332 330 329 329 331 329 332 331 330 326 323 319 318 320
332 337 336 337 337 337 338 335 335 336 333 334 334 332 334 331 331 331 329 331 336 335 335 337 337 337 338 337 337 339 340 340 340 341 337 336 338 336 337 337 336 338 337 338 337 336 336 336 335 336 329 329 329 328 326 328 328 325 325 323 318 319
328 333 332 332 333 333 333 334 334 335 333 332 331 331 328 328 328 330 328 333 335 335 336 336 337 338 338 336 338 337 338 342 342 341 337 337 338 336 337 337 338 339 337 338 335 335 335 336 336 335 335 332 328 327 327 325 325 326 325 321 319 320
330 333 333 334 333 333 334 334 334 334 334 333 331 329 327 325 327 328 332 333 334 335 335 336 337 337 338 337 338 337 338 338 338 338 337 340 339 338 338 338 337 337 335 336 337 335 336 335 335 333 335 334 331 331 331 329 326 327 327 326 326 320
329 332 333 333 333 333 331 330 332 332 334 333 332 331 328 328 329 332 333 333 334 333 334 334 335 335 337 337 337 337 337 336 336 338 337 339 340 338 338 337 337 337 337 336 337 334 335 337 336 334 334 334 333 327 329 330 331 329 328 329 326 321
332 334 335 331 333 334 333 332 334 334 336 334 335 333 329 330 333 332 334 334 334 333 333 334 334 334 336 337 336 337 337 336 336 336 336 338 339 339 339 338 337 336 336 336 336 335 333 336 336 336 337 334 332 331 334 332 331 330 329 327 324 321
334 335 335 334 333 333 333 333 335 335 335 334 336 332 331 331 333 334 335 335 334 332 333 333 332 333 335 336 336 337 337 337 336 336 336 337 338 340 339 337 337 338 335 336 335 337 335 334 333 333 333 333 332 329 331 330 331 329 329 328 325 324
334 334 334 332 331 333 334 335 335 335 335 334 334 333 332 332 334 335 335 334 334 334 333 333 335 335 334 335 335 335 336 335 335 336 336 336 337 337 339 337 335 336 336 334 334 335 336 333 333 334 333 335 333 331 331 330 330 330 328 329 328 326
334 334 334 333 333 333 335 334 335 336 335 335 333 332 332 332 336 337 336 335 334 334 335 335 334 335 335 335 335 335 334 333 334 335 336 335 335 335 337 337 335 335 335 335 335 334 334 333 334 333 334 333 333 332 332 333 329 330 329 329 329 327

ECMWFFLT2_sfc_thetae_051.txt.gz
Theta_e
345 345 346 346 347 348 349 351 350 351 350 350 349 349 349 349 348 348 347 348 346 345 345 345 345 345 347 346 347 346 346 347 346 346 347 346 346 345 344 345 344 344 344 344 344 343 343 343 344 344 344 345 345 334 329 329 329 330 329 330 331 333
343 344 344 346 347 348 348 349 347 347 348 348 349 349 348 347 350 346 348 345 344 345 343 342 343 347 344 344 344 346 345 346 346 346 346 346 345 345 345 345 345 345 344 344 343 334 337 343 343 345 346 345 337 330 325 326 327 328 329 329 333 333
342 342 343 344 346 347 346 346 345 345 346 347 348 348 346 347 345 345 344 344 344 342 341 342 342 344 343 344 344 345 345 345 345 346 346 345 345 345 344 344 345 344 344 344 338 334 333 332 332 344 345 338 333 326 326 327 327 327 328 331 329 336
341 342 342 343 345 345 344 344 344 344 343 344 344 345 343 343 343 343 342 342 342 342 341 341 346 347 345 342 342 344 344 344 344 344 345 344 345 344 344 345 344 345 344 342 333 335 334 332 333 334 335 337 331 330 329 328 328 327 328 332 332 337
341 341 341 342 343 342 343 343 342 342 342 342 342 341 341 340 341 341 341 341 342 342 341 340 340 340 338 339 337 337 339 338 338 337 342 336 337 341 341 340 341 341 336 335 334 336 336 336 336 335 332 333 331 331 332 332 331 330 331 332 334 337
340 340 340 342 341 343 343 341 341 342 341 340 340 340 341 341 341 341 342 342 342 340 340 340 339 338 338 338 337 335 335 334 334 336 338 334 333 337 336 338 340 340 337 337 336 336 337 336 333 332 329 330 333 334 333 332 332 332 332 332 334 336
338 340 341 342 341 341 339 339 340 340 337 337 339 339 339 340 341 342 342 343 341 339 339 339 339 338 338 337 336 334 334 333 334 333 335 332 331 334 333 335 338 338 337 337 337 338 337 334 332 331 330 332 333 335 333 333 333 333 333 334 336 337
340 340 338 341 340 340 340 339 340 341 337 338 338 338 338 339 341 341 342 342 342 340 339 338 338 338 338 336 335 334 334 333 334 333 333 333 330 331 329 331 336 337 336 336 338 336 334 333 333 333 333 332 333 333 334 334 334 334 334 333 334 336
339 338 338 341 340 340 340 339 339 338 336 340 337 338 339 340 340 340 341 342 341 339 339 339 338 338 337 335 334 333 333 333 333 332 331 333 331 329 327 329 333 333 333 336 335 335 333 333 334 334 334 333 332 332 333 334 333 334 333 331 331 333
337 337 338 340 339 338 338 337 337 337 337 338 336 338 339 340 339 339 340 341 341 339 338 338 338 338 337 334 333 333 333 332 331 332 332 332 332 329 329 331 332 334 336 335 334 334 332 333 332 332 333 333 333 334 334 335 333 332 332 331 331 333
337 339 338 338 338 337 338 336 337 337 337 336 336 338 339 340 340 339 339 340 340 340 338 337 336 336 336 334 334 332 333 333 331 333 333 331 333 332 333 332 333 333 333 333 333 334 332 333 333 332 331 332 332 332 334 334 333 332 332 331 331 331
337 338 337 338 338 337 337 337 337 338 336 336 337 336 339 340 340 339 340 339 339 338 338 337 336 336 334 335 334 332 334 334 333 335 333 334 334 335 336 334 333 334 333 332 333 332 331 331 332 333 332 332 332 333 333 334 333 332 331 330 330 332
336 336 336 337 338 337 338 338 337 336 336 338 336 337 340 340 339 339 339 337 337 337 336 336 335 336 338 335 334 334 335 335 336 335 335 335 337 336 334 334 335 334 332 332 332 331 333 332 331 332 332 332 333 332 331 331 331 331 330 329 330 332
335 336 336 335 337 338 339 338 338 338 339 339 338 339 340 340 339 338 338 337 336 336 335 335 336 337 335 335 335 335 335 334 335 337 336 335 334 335 334 334 334 333 335 332 330 330 330 330 330 330 329 331 332 332 331 331 330 330 331 331 329 330
336 335 336 335 335 337 338 339 339 337 338 339 339 339 339 339 338 337 336 335 336 336 335 335 335 337 334 335 335 334 334 334 337 336 336 335 335 335 334 333 334 333 332 331 331 330 329 329 330 329 329 330 331 332 331 330 329 329 332 332 331 331
336 335 334 334 334 335 335 337 337 339 337 338 338 337 337 337 338 338 336 335 336 335 334 334 336 337 337 335 334 334 334 335 336 335 335 336 335 334 334 334 334 332 330 330 331 329 330 330 330 331 331 330 330 330 328 328 328 329 331 331 331 331
335 335 335 336 335 335 335 336 336 337 338 338 336 336 336 335 336 337 337 337 336 334 334 334 337 337 339 336 334 335 335 335 335 334 334 334 334 334 335 335 334 333 331 329 329 328 329 329 328 329 330 329 329 330 328 328 328 328 331 330 330 331
336 336 336 337 337 335 335 336 336 337 339 336 335 337 337 337 336 337 338 337 338 338 336 334 335 338 338 339 334 335 335 335 336 335 334 334 333 334 334 334 332 333 332 330 329 329 328 328 330 330 329 329 329 329 329 328 329 332 329 329 329 330
336 336 336 336 335 336 336 336 336 335 335 334 335 336 336 336 335 336 336 337 336 334 332 331 333 336 335 336 335 336 336 335 336 335 335 333 332 333 332 332 332 332 333 331 330 330 329 329 330 331 330 329 330 330 330 329 328 329 328 329 331 333
336 335 333 332 334 333 333 333 333 335 333 333 333 334 335 336 335 335 338 338 337 336 334 333 335 337 334 336 336 335 333 333 334 335 333 331 330 331 331 331 331 331 330 331 331 330 329 329 329 328 326 327 328 328 330 329 328 328 328 329 330 330
335 334 332 332 332 331 330 331 332 331 330 331 331 332 333 334 335 335 337 338 337 335 335 336 335 335 332 332 333 334 333 332 334 334 333 331 332 332 332 331 331 330 329 328 328 328 328 329 325 322 324 324 325 326 328 328 327 327 327 329 329 329
335 333 333 332 330 331 332 330 331 331 330 330 331 330 330 332 333 335 335 336 336 336 335 334 335 335 332 331 330 333 336 333 333 334 334 335 334 335 333 332 332 328 328 327 326 328 329 327 322 320 319 320 322 323 325 327 328 329 330 330 328 328
335 333 332 333 332 332 333 332 332 332 331 330 332 332 333 333 334 333 333 334 335 336 334 334 335 335 332 331 330 330 334 334 335 334 334 334 334 332 331 331 331 329 327 327 328 329 328 325 322 322 321 319 316 316 319 322 323 326 330 328 328 328
335 333 332 332 332 333 333 333 333 333 331 331 330 332 332 332 332 332 332 335 334 335 334 334 335 334 334 333 333 331 331 335 334 334 333 332 332 332 331 331 331 329 327 324 326 326 329 328 326 323 316 313 315 316 314 314 317 322 327 328 328 328
334 332 332 333 333 333 332 331 330 331 332 332 331 330 329 329 331 331 332 333 333 335 335 334 334 334 334 333 333 333 333 335 333 334 333 332 332 332 331 332 331 329 327 326 326 325 326 329 327 326 320 316 314 313 313 313 316 317 324 325 327 327
334 332 332 332 333 332 330 328 327 326 325 326 325 326 325 326 328 328 330 333 334 334 334 332 333 333 334 333 332 332 334 334 331 334 334 333 333 333 331 331 332 330 328 329 327 326 325 326 328 329 327 322 318 312 315 317 315 310 321 324 324 326
333 332 332 333 333 332 329 327 327 326 327 326 325 325 328 330 330 331 332 332 332 333 334 333 334 332 331 333 332 333 335 334 333 333 334 333 332 332 333 334 333 332 330 329 328 325 325 324 325 327 329 328 325 325 323 318 311 314 312 316 322 321
333 332 332 332 332 332 329 327 326 326 327 326 326 326 328 329 331 330 332 331 331 332 333 333 335 335 333 333 332 334 335 334 332 333 334 332 332 332 331 331 331 332 332 330 328 326 324 324 321 321 325 325 325 324 324 320 320 317 314 312 312 317
332 332 332 331 330 330 329 327 326 326 326 327 329 331 331 331 330 332 331 331 332 332 332 333 335 335 334 336 334 335 336 334 333 333 335 333 331 331 329 329 330 331 330 329 329 327 326 323 323 322 323 324 323 322 322 322 322 319 313 312 310 311
331 332 331 330 329 329 328 328 327 325 326 326 328 330 332 331 331 331 329 330 331 332 332 332 332 333 333 335 334 334 335 334 332 332 332 331 331 331 330 330 330 329 328 327 328 328 326 325 325 325 326 324 322 320 321 320 319 318 317 316 312 311
330 331 331 329 329 328 328 328 327 326 326 326 327 329 329 328 329 329 327 328 328 329 330 331 330 331 332 333 332 334 333 333 332 332 331 329 329 331 330 331 331 330 328 327 326 326 327 326 326 326 325 324 323 321 319 317 317 318 317 314 314 312
328 330 331 331 330 329 329 329 326 326 326 327 328 329 328 327 328 327 326 326 327 328 330 331 331 331 330 332 331 332 332 334 333 331 330 330 331 332 332 331 330 329 329 328 328 329 328 326 327 325 324 324 323 324 322 321 320 320 318 317 316 314
326 329 330 331 331 330 329 328 327 326 327 328 329 329 328 328 328 327 326 325 326 326 328 329 330 330 330 332 332 332 333 331 330 329 329 331 332 334 333 331 330 329 330 330 330 330 328 327 328 326 325 323 324 323 322 323 323 322 320 319 318 315
325 327 329 329 329 329 328 328 328 326 328 329 329 328 326 327 327 327 327 326 326 327 329 329 329 329 331 332 333 333 332 330 330 329 328 328 331 333 332 333 332 332 332 332 331 330 329 328 328 327 326 324 323 323 323 324 324 324 322 320 316 316
325 326 328 329 328 327 328 328 328 328 329 328 326 325 327 327 326 326 326 327 328 329 330 329 330 331 331 330 332 332 332 330 330 330 330 329 330 331 331 331 332 332 331 330 331 330 329 328 327 327 326 325 324 323 324 324 325 325 325 322 320 317
326 326 328 329 328 329 329 329 329 329 328 327 325 326 326 326 326 326 327 327 328 330 331 330 331 331 331 331 331 331 331 331 331 331 330 328 329 331 332 330 330 330 330 332 330 329 329 329 328 328 327 325 324 324 325 326 326 324 324 323 322 320
326 328 328 329 329 330 330 329 329 329 328 327 326 326 326 326 326 327 328 328 328 331 331 331 331 331 331 331 331 330 330 329 329 330 330 329 329 330 329 330 330 328 329 331 330 329 328 328 328 328 326 324 324 324 324 325 326 325 325 324 323 322

ECMWFFLT2_sfc_thetae_054.txt.gz
Theta_e
345 345 345 346 346 347 349 351 350 350 350 350 350 350 349 349 349 347 348 348 346 345 345 346 346 345 348 346 347 347 347 347 347 347 346 346 346 345 345 345 344 344 344 344 343 343 343 344 345 344 339 336 335 328 327 327 327 329 328 330 331 331
344 345 346 347 347 346 348 349 346 347 348 348 349 349 347 345 347 344 347 345 343 346 342 342 343 348 344 346 345 346 347 347 346 347 346 346 345 345 345 345 345 345 344 344 342 333 334 339 344 344 338 334 326 326 326 326 326 327 328 329 331 332
343 344 346 346 346 346 345 344 345 345 346 347 347 347 345 345 342 343 343 342 343 341 340 340 340 344 344 345 345 346 346 346 346 346 345 346 345 345 344 345 345 344 344 343 332 332 332 330 333 341 334 326 324 325 326 326 326 326 327 329 328 335
342 343 344 345 346 345 343 343 344 344 344 344 344 345 343 342 342 343 342 340 340 340 339 338 346 347 346 342 343 345 345 345 346 345 345 344 345 344 345 345 344 345 338 335 331 332 334 331 329 329 327 325 325 326 326 326 326 326 328 333 330 335
342 343 343 343 344 344 343 343 343 343 343 343 343 342 342 341 342 341 340 340 339 340 338 339 338 340 338 338 336 337 339 339 338 338 343 337 337 340 337 336 334 335 330 332 332 333 331 329 329 329 328 327 326 326 326 327 328 329 329 330 332 335
341 341 342 342 343 343 343 342 342 342 342 341 341 340 340 340 341 340 340 340 340 337 337 337 337 336 336 336 335 333 333 334 334 337 339 335 333 335 333 334 333 333 331 333 333 331 331 330 329 329 330 330 330 329 328 327 329 329 330 330 333 335
340 340 341 341 341 342 341 342 342 342 341 339 339 339 339 339 339 339 340 340 338 337 336 336 336 335 335 335 334 333 332 332 333 334 334 333 333 335 334 334 333 332 332 333 332 331 330 330 329 331 331 332 331 330 329 329 329 329 330 331 335 335
339 340 340 341 341 340 338 340 341 343 340 340 339 338 338 339 340 339 340 340 340 338 337 336 335 335 335 334 333 333 332 330 330 332 333 331 332 331 331 333 333 332 334 332 330 330 331 332 331 332 332 332 332 331 331 331 332 331 330 330 331 334
338 339 339 340 339 339 338 339 340 339 337 342 337 337 339 339 339 340 341 340 340 337 337 336 335 335 334 332 332 332 331 330 331 331 330 329 330 329 329 331 333 333 332 330 329 329 331 331 330 331 332 332 331 331 331 331 331 331 329 328 329 332
337 337 339 339 338 337 337 338 338 337 337 339 337 338 339 339 340 340 340 340 340 339 337 337 336 335 334 331 331 332 331 330 330 330 328 329 328 328 327 328 330 331 332 329 329 330 330 329 330 330 330 331 331 331 331 330 331 330 329 328 329 331
336 338 337 337 336 336 337 337 337 337 337 336 336 338 339 339 339 340 340 340 339 339 338 338 336 335 334 332 330 331 330 331 329 329 329 330 330 328 326 328 331 332 330 329 329 330 330 329 329 330 330 331 330 331 331 331 330 330 329 327 327 328
335 336 336 336 337 336 335 336 337 336 335 335 337 337 338 339 339 338 340 339 339 339 339 337 336 335 334 332 330 330 330 330 329 330 330 330 330 329 330 331 333 333 331 330 329 328 329 329 328 329 329 330 331 331 331 330 329 329 328 328 328 330
335 336 335 335 336 336 335 336 335 335 335 336 336 337 337 337 338 338 339 339 339 338 338 336 335 335 336 333 332 330 330 331 330 331 331 330 333 333 332 332 331 332 330 329 328 328 330 329 328 328 329 330 330 330 330 329 328 328 327 327 329 330
334 334 334 335 333 334 334 335 335 334 335 335 335 336 338 337 338 338 338 338 338 338 337 336 335 334 334 333 332 330 331 332 332 331 332 333 332 332 331 330 329 330 331 328 328 328 328 327 327 327 328 329 329 328 329 329 327 328 326 327 327 328
334 333 335 334 335 334 334 335 334 334 335 334 335 336 338 337 337 337 337 337 337 337 336 335 334 333 334 333 332 331 331 332 333 333 332 332 332 331 331 330 330 329 327 327 327 328 328 327 327 327 328 329 329 329 328 328 328 328 327 327 328 328
332 334 332 334 335 334 333 333 334 337 335 335 336 337 338 337 337 336 336 335 336 336 335 333 333 333 332 333 332 332 331 334 333 333 333 332 332 331 330 330 331 329 326 326 327 326 327 326 326 327 327 328 328 328 326 327 328 328 328 328 328 327
330 332 333 334 333 332 333 333 333 334 337 337 335 336 337 337 336 335 335 334 335 335 333 332 332 333 332 330 332 332 332 333 333 333 332 331 331 331 331 330 329 329 328 326 326 326 326 326 327 327 327 327 326 327 326 327 327 328 329 328 327 327
333 333 333 331 331 331 333 333 333 334 338 336 336 336 337 337 336 336 335 335 335 335 333 331 332 333 333 333 331 333 332 333 333 333 332 331 331 332 332 330 328 328 328 327 326 326 325 326 328 328 327 326 325 325 325 326 328 330 328 327 327 327
334 333 332 331 330 331 331 332 333 334 335 335 335 335 336 336 336 336 335 335 335 334 333 332 332 333 331 332 331 333 332 333 333 332 331 331 331 331 331 330 329 327 327 328 327 326 327 328 328 328 327 327 327 326 326 327 327 327 327 328 328 330
334 333 333 331 330 331 331 330 329 331 332 333 334 334 334 334 334 334 336 335 334 333 333 332 333 334 332 333 333 332 332 333 333 332 330 330 329 330 330 330 329 328 327 328 328 327 328 328 326 324 324 324 325 326 328 326 325 327 327 328 329 328
333 334 333 331 330 331 329 329 330 330 330 331 331 332 333 333 333 334 336 335 334 334 333 335 335 333 332 336 331 330 330 330 332 331 330 329 330 330 331 330 329 329 327 326 325 328 328 327 324 322 323 321 322 324 327 326 324 325 326 326 326 327
334 333 333 332 331 331 330 330 330 330 330 330 329 330 330 332 333 334 335 335 334 333 334 334 334 333 332 331 330 330 330 329 329 328 330 330 329 331 330 330 329 327 328 326 325 328 328 325 321 321 320 319 319 323 326 326 327 326 326 327 327 326
333 332 332 333 331 330 331 333 331 329 329 327 328 329 331 331 333 333 333 334 334 334 333 333 333 332 331 331 330 329 329 329 328 328 330 329 330 329 329 329 328 327 325 325 326 328 326 324 319 321 321 319 316 316 319 322 322 324 327 325 325 326
332 332 332 333 332 331 332 333 331 330 329 328 326 330 328 329 331 332 332 333 333 333 333 333 333 332 331 331 329 329 329 328 328 330 331 329 329 328 329 328 327 327 327 323 324 324 326 323 324 321 315 312 315 316 313 315 317 321 325 325 325 326
332 331 332 333 332 331 331 330 329 328 329 328 329 328 327 326 328 331 331 332 332 333 333 333 333 332 332 330 330 329 328 328 329 330 332 330 329 329 329 329 328 327 326 325 323 323 324 325 324 323 319 315 312 312 311 310 315 317 321 322 324 325
332 331 331 332 331 331 330 329 328 326 325 326 325 325 325 325 326 327 330 331 332 333 333 332 332 332 332 331 330 330 329 329 329 330 332 331 330 329 329 329 328 327 326 326 325 323 322 325 325 325 320 318 318 312 312 314 313 309 318 320 320 325
332 331 331 331 331 331 328 328 328 327 327 327 325 326 326 327 328 328 329 331 332 333 333 331 332 331 331 331 330 331 330 330 329 329 329 331 330 329 330 331 329 327 327 326 326 323 323 323 322 323 325 321 322 318 320 317 310 310 311 315 318 319
333 331 330 331 331 330 329 328 326 326 327 326 326 326 326 327 329 329 330 330 331 331 332 332 332 330 331 331 330 330 330 329 329 329 331 331 331 330 330 330 330 328 328 328 327 325 323 324 322 320 322 320 320 322 321 315 316 316 314 312 312 313
332 331 330 331 331 330 330 328 326 326 325 326 326 324 326 328 329 330 329 329 330 330 331 332 333 330 331 331 331 330 329 329 329 330 332 332 331 331 330 329 328 327 327 327 327 326 324 323 321 320 321 318 320 320 318 317 319 315 309 309 307 308
332 331 331 331 332 330 329 328 326 325 324 324 325 325 326 327 328 328 328 328 329 329 329 329 332 332 330 331 331 330 329 330 330 331 331 331 331 329 328 329 329 328 328 326 326 326 325 323 322 322 323 321 318 317 316 316 314 314 314 311 309 308
331 331 331 330 331 330 328 326 326 325 325 325 325 325 325 326 326 327 327 327 328 328 329 329 331 331 330 332 330 331 330 331 331 332 331 330 329 328 328 328 329 328 328 327 326 325 323 323 322 323 322 322 321 320 318 315 316 315 314 309 307 306
327 329 330 330 330 330 329 327 325 326 326 326 326 327 326 325 327 326 326 326 328 328 328 329 329 329 330 332 330 331 331 329 329 328 327 328 329 329 328 328 328 327 327 327 327 326 324 323 322 323 322 321 321 321 319 318 318 318 316 312 309 307
327 326 328 329 329 329 329 328 326 325 325 326 325 326 326 326 327 326 324 325 326 327 327 326 326 327 328 330 330 330 329 327 326 327 328 326 327 329 328 328 328 326 326 325 326 325 324 324 324 323 322 320 321 321 320 319 320 319 317 314 311 308
328 329 330 329 329 328 328 327 326 326 325 326 325 326 326 328 328 329 328 327 327 327 327 327 327 328 329 329 329 329 331 330 328 328 328 328 329 329 329 328 327 326 326 326 326 325 325 324 324 323 322 321 321 320 320 321 320 319 317 314 310 309
323 327 329 329 329 328 324 325 325 325 325 326 326 326 326 326 327 328 328 328 327 327 328 329 329 329 328 329 328 329 329 328 327 327 328 328 329 329 328 328 328 327 327 327 327 326 324 325 325 323 321 322 322 321 320 321 321 320 320 317 314 312
324 324 326 326 327 326 325 326 326 325 325 325 324 324 324 325 327 328 328 327 326 327 329 329 329 330 329 330 330 329 328 327 327 327 327 327 328 328 328 327 327 328 327 330 327 326 325 325 325 324 323 321 321 321 321 322 323 322 321 320 318 315
325 325 325 325 326 326 325 327 326 325 325 324 323 322 324 325 325 326 326 326 325 326 327 327 330 330 329 330 330 329 328 327 327 327 327 327 328 328 327 327 328 327 328 328 328 327 326 326 325 324 323 322 321 321 322 323 323 323 322 320 320 316

ECMWFFLT2_sfc_thetae_060.txt.gz
Theta_e
345 345 345 345 345 345 347 350 349 350 350 350 350 350 349 350 349 349 348 348 347 344 344 345 345 345 347 346 346 346 346 346 346 346 346 346 345 344 343 344 344 344 343 342 341 341 340 340 339 338 337 336 334 328 328 328 329 332 331 333 334 332
345 345 345 345 344 345 346 348 345 346 347 347 348 349 347 346 347 345 346 345 343 345 342 342 344 347 344 346 345 346 346 346 346 346 346 346 345 344 344 344 343 343 343 342 341 338 340 340 339 337 336 333 327 327 328 328 328 329 330 331 334 334
346 345 345 345 345 345 344 344 343 344 346 347 346 346 344 345 341 342 342 342 343 341 341 342 343 345 345 345 345 345 345 345 345 346 346 345 345 344 343 343 341 340 341 340 336 334 334 334 335 337 334 328 326 327 327 327 328 328 329 332 331 333
345 345 345 345 344 344 344 342 342 342 342 342 342 344 342 342 341 341 341 343 342 341 340 340 345 347 346 343 343 345 345 345 345 345 345 344 345 344 342 341 339 338 336 334 333 332 329 327 326 325 326 326 326 326 327 328 329 328 330 332 330 333
345 344 344 344 344 343 344 342 341 341 342 341 341 339 338 338 340 340 342 343 343 342 339 339 340 339 337 338 338 338 337 336 336 337 339 335 337 336 333 332 331 331 330 331 330 327 326 325 326 326 326 326 327 327 328 329 329 329 329 330 334 334
344 343 343 344 344 345 344 343 342 342 342 342 340 339 338 336 339 340 341 342 342 339 337 338 337 336 336 336 336 335 334 334 334 335 336 332 333 333 332 332 331 329 329 329 327 326 326 326 325 326 326 327 327 328 328 329 329 330 330 331 334 333
343 343 344 345 345 344 343 343 343 343 342 341 340 336 338 338 339 340 340 341 340 338 337 336 336 335 335 335 334 333 334 334 335 335 334 333 332 332 332 332 330 329 328 328 327 326 326 325 326 326 327 328 328 329 329 329 329 329 330 332 333 332
342 342 342 344 344 343 343 342 342 343 342 342 340 338 339 340 340 339 338 339 340 338 338 336 335 335 334 334 333 332 335 337 337 336 334 333 333 332 332 332 330 329 329 328 327 327 328 327 327 328 328 328 329 329 329 329 329 329 330 331 333 333
342 342 342 343 342 342 342 341 340 340 339 343 339 339 339 339 339 339 338 338 339 337 338 336 335 335 333 333 332 333 336 335 336 335 334 331 332 332 332 331 329 328 328 328 328 328 329 328 328 328 329 329 330 330 330 330 329 329 329 330 331 333
341 341 342 342 341 341 340 339 338 339 339 342 339 339 340 337 338 338 338 337 337 337 337 336 336 335 334 333 332 332 334 334 334 333 330 330 330 332 331 330 328 328 328 328 329 330 329 329 329 329 330 330 331 331 330 330 329 328 328 329 330 334
340 342 341 340 340 340 340 338 338 338 340 340 339 339 339 338 337 338 338 337 336 337 336 336 336 335 335 333 332 332 332 331 330 329 329 328 329 330 331 331 329 328 327 328 329 330 330 329 329 330 331 331 330 330 330 329 329 329 328 328 330 333
339 340 340 340 339 339 339 339 339 339 340 339 339 339 338 338 339 338 337 336 336 336 337 335 335 334 333 332 331 331 330 329 329 328 329 328 328 328 330 330 329 328 328 329 328 329 329 329 329 330 330 330 330 330 330 329 329 328 329 330 331 333
337 338 339 339 338 338 339 339 339 339 339 339 339 338 337 337 339 338 337 337 336 336 337 335 334 334 335 332 331 330 329 330 329 328 328 328 328 328 331 330 329 329 328 328 328 328 329 329 328 329 330 330 330 329 329 329 328 329 330 329 330 332
335 336 337 337 337 337 338 338 339 338 339 338 338 338 338 338 340 339 338 337 336 337 336 336 335 334 335 332 331 330 329 329 328 328 328 329 328 328 329 329 328 328 330 328 327 327 328 327 328 329 330 330 330 329 329 328 328 329 328 328 328 330
335 333 337 336 336 336 337 337 338 337 337 338 337 337 338 338 339 339 339 337 337 337 336 336 335 335 334 332 330 329 329 329 329 329 328 329 329 328 329 328 328 327 326 326 327 328 328 328 328 328 329 329 329 328 328 328 328 329 328 328 328 329
333 333 334 334 334 335 336 336 336 337 335 336 337 337 338 338 339 339 339 337 337 337 336 336 335 335 333 333 332 330 329 329 330 329 329 329 329 328 328 328 328 327 325 325 326 326 328 328 328 328 328 328 328 328 327 327 328 328 328 328 328 328
331 332 333 334 333 333 334 335 335 336 335 336 336 336 337 338 338 338 338 337 337 337 336 336 335 334 334 332 332 331 330 330 331 330 329 329 329 329 328 328 327 328 328 325 325 326 327 328 328 328 328 327 327 327 327 327 327 327 328 328 327 327
329 331 332 333 333 332 333 334 335 335 336 335 335 336 337 338 337 336 336 336 337 337 336 334 334 333 332 332 331 331 329 331 331 330 329 329 329 329 329 328 326 326 327 326 325 326 326 328 328 327 326 326 326 326 326 327 328 329 328 327 327 326
331 330 330 333 333 332 332 333 333 333 334 334 334 334 336 337 336 336 335 336 337 337 336 334 333 333 331 332 330 330 329 330 331 330 329 328 328 329 328 328 327 326 326 326 326 327 328 329 328 327 326 326 326 327 327 328 328 327 327 327 329 329
331 331 331 333 333 332 332 331 330 331 332 333 333 334 334 336 336 335 335 335 333 333 334 333 332 332 331 332 330 329 329 329 330 330 329 328 327 327 327 326 326 326 325 327 328 329 329 328 327 326 325 326 327 328 328 327 327 327 327 328 330 328
331 331 332 331 331 331 329 329 330 330 330 332 332 334 334 335 335 335 335 334 333 333 333 334 333 332 331 333 330 329 329 329 329 329 328 328 328 328 328 327 326 327 325 324 326 329 329 328 325 322 325 325 325 327 327 327 326 326 327 328 328 328
331 331 331 332 332 332 331 331 330 330 331 332 332 332 332 334 334 335 334 333 333 333 332 332 334 331 331 331 329 329 329 329 329 328 328 329 329 330 328 327 326 325 326 326 325 328 328 327 322 321 319 320 322 324 324 324 326 327 327 327 327 327
330 331 332 332 332 331 332 332 332 331 331 331 334 334 334 335 335 334 333 331 332 332 332 332 332 332 331 331 330 329 329 329 329 329 328 328 328 328 327 326 326 325 324 327 327 328 328 326 322 323 323 320 317 317 321 323 325 326 325 325 326 327
331 332 332 333 332 332 332 332 331 330 331 332 331 333 333 334 334 333 331 331 331 331 331 331 331 331 332 331 330 329 329 329 329 329 328 327 327 327 327 326 326 326 326 324 325 325 327 324 325 322 316 317 317 318 314 317 321 323 326 326 327 327
331 332 333 333 333 332 332 331 330 331 331 330 331 331 331 330 332 331 330 329 329 331 331 331 331 332 332 331 330 330 329 330 329 330 329 328 327 328 327 327 327 326 326 325 323 325 325 325 326 327 321 317 315 315 315 317 320 321 325 324 325 327
332 332 333 333 333 331 331 330 328 327 326 326 324 326 326 327 328 328 327 330 330 331 331 331 331 331 332 331 329 329 329 329 329 329 329 329 329 329 327 327 327 327 326 328 326 324 323 325 326 325 324 321 322 317 316 319 319 313 322 324 323 326
330 331 332 333 333 332 330 330 329 328 327 325 325 325 329 330 331 331 330 329 330 332 332 332 331 331 330 330 329 329 329 329 329 329 329 328 328 328 328 328 328 327 327 327 327 323 323 323 324 324 324 322 322 319 323 320 315 317 314 320 322 323
329 331 332 333 332 332 330 330 329 328 326 325 325 323 326 328 329 331 330 329 329 329 331 332 331 330 330 330 329 329 328 329 329 329 330 328 328 328 329 329 329 328 328 328 327 325 324 324 322 322 323 321 321 319 323 320 322 318 316 314 316 319
328 330 332 332 332 332 331 330 326 324 324 325 325 324 326 327 327 329 328 327 327 328 329 330 331 330 329 330 330 328 328 328 328 329 330 329 328 329 328 328 327 326 326 327 327 327 325 323 323 322 320 318 318 320 320 319 321 319 318 315 315 317
325 329 332 332 332 332 331 330 324 324 324 323 324 323 325 326 326 326 326 326 326 327 327 328 329 329 329 329 329 329 328 327 327 328 330 329 328 328 328 328 328 327 327 326 327 326 325 325 324 323 323 320 318 317 319 318 318 317 316 318 315 316
323 326 329 330 331 331 331 326 324 323 323 323 323 323 323 323 325 325 325 326 325 327 327 327 328 328 328 328 328 329 328 328 328 329 329 330 328 328 329 328 328 328 327 327 326 325 325 325 324 323 323 322 321 320 319 318 317 318 318 314 315 316
322 324 324 324 324 324 326 326 325 324 323 324 323 323 322 322 324 324 325 325 327 327 326 326 326 327 327 328 327 328 328 328 328 328 328 329 329 328 329 329 328 327 327 327 327 326 325 324 323 323 323 323 322 322 321 320 320 320 318 316 318 315
321 323 322 323 323 322 324 325 324 323 323 324 324 324 324 323 325 325 326 326 325 325 326 325 324 326 326 327 327 326 327 327 327 327 328 329 329 329 328 328 328 327 327 326 326 326 324 324 324 323 323 322 323 322 322 321 321 320 318 317 317 314
320 322 323 322 322 323 323 324 324 323 323 324 324 324 324 325 325 326 327 326 326 325 325 325 325 325 327 327 327 327 327 327 327 327 328 328 329 329 327 327 328 327 326 327 327 326 326 325 324 325 325 322 321 322 322 320 321 319 316 316 314 315
320 321 321 320 321 323 324 324 323 324 324 324 324 324 324 325 325 326 326 326 326 326 326 325 325 325 328 328 327 327 327 327 327 327 328 328 328 326 327 327 327 327 327 327 326 326 325 324 324 323 323 324 322 322 321 320 321 319 317 318 317 315
318 321 322 323 323 322 322 323 323 323 323 324 324 325 325 325 325 326 326 325 325 326 326 326 326 326 327 328 327 326 327 327 327 327 327 327 326 326 327 326 326 326 326 327 326 325 325 325 324 324 324 324 323 322 322 321 321 320 317 318 318 316
315 317 320 323 324 323 322 322 322 322 323 324 323 323 324 325 326 327 327 326 325 326 326 326 326 326 327 328 327 327 327 327 327 326 326 326 327 326 326 327 326 326 325 326 326 326 325 324 324 324 324 323 324 323 322 322 321 320 317 317 317 317

ECMWFFLT2_sfc_thetae_063.txt.gz
Theta_e
350 349 351 350 350 350 350 351 351 350 350 350 350 350 350 350 350 349 349 347 347 349 352 351 349 349 348 347 346 346 346 346 345 345 344 344 344 344 344 344 343 342 342 341 341 340 339 339 338 337 337 337 336 336 336 335 335 335 335 335 335 334
348 348 349 349 349 351 349 350 350 350 350 350 350 350 350 349 349 348 347 350 352 351 351 352 349 348 348 348 347 346 346 345 345 345 344 343 344 343 343 343 343 342 341 341 341 341 340 339 338 337 336 336 335 335 336 336 336 334 334 335 336 334
346 348 349 349 349 350 349 349 349 349 349 348 349 349 348 348 348 348 348 348 352 351 350 349 352 347 348 346 346 346 346 345 345 344 344 344 344 344 344 343 342 342 342 342 343 342 339 337 337 337 336 336 336 336 336 337 336 336 335 335 334 334
348 349 348 348 348 348 348 349 348 348 348 349 348 348 348 348 347 348 348 349 350 350 350 350 347 348 348 347 346 345 345 345 344 344 344 344 344 344 343 343 343 342 341 342 342 339 338 338 335 336 337 335 335 335 336 337 337 336 335 334 333 334
348 349 348 347 347 346 348 347 347 347 348 348 348 348 349 348 347 348 349 349 347 348 348 349 349 347 346 346 346 345 345 344 344 344 342 343 343 341 343 342 342 340 342 342 340 338 336 335 335 335 336 335 336 336 336 337 334 333 335 335 334 333
348 347 348 347 347 346 346 345 345 346 346 348 347 348 347 347 347 349 350 347 347 347 349 346 347 345 345 345 344 343 343 344 343 342 342 343 343 343 343 342 342 341 341 340 339 337 336 335 334 335 335 336 336 336 335 334 333 335 336 336 334 332
347 347 347 348 347 346 345 345 345 345 345 346 348 346 345 345 347 347 347 346 345 347 347 345 344 343 343 345 343 342 342 343 342 341 342 342 343 343 342 341 341 341 339 337 336 335 335 335 335 334 335 335 335 335 335 334 334 335 335 334 333 331
346 347 347 348 347 345 345 346 346 347 347 347 346 345 345 346 348 347 346 346 346 345 343 343 343 343 342 344 343 342 342 341 340 340 341 342 342 341 341 341 341 339 336 335 334 334 333 334 336 336 335 336 336 336 335 334 335 335 335 336 334 333
347 348 348 348 345 345 346 347 347 347 346 346 346 346 345 347 346 346 347 345 346 345 343 343 343 342 343 342 342 342 340 339 340 340 340 339 342 341 341 340 340 338 337 336 334 335 334 334 337 337 336 335 336 336 336 335 335 334 334 334 335 334
345 346 348 347 345 345 345 345 345 346 345 345 346 346 346 345 345 344 344 345 345 344 343 342 343 343 341 341 341 342 341 339 338 339 339 337 341 342 340 340 340 338 335 335 333 335 336 335 336 337 337 337 335 335 336 334 334 334 334 335 336 335
346 347 346 344 346 346 346 344 344 345 347 344 344 345 345 344 343 344 344 345 344 345 344 343 343 342 341 340 340 340 339 338 337 338 339 338 341 343 341 340 340 338 338 335 335 336 335 336 336 337 338 336 335 335 335 336 335 334 333 334 335 339
346 346 345 343 345 345 344 343 344 345 344 345 345 345 343 343 343 343 344 344 344 344 343 342 342 341 340 340 339 338 339 339 338 338 339 340 339 342 342 341 341 341 340 340 337 337 338 337 337 336 336 335 335 335 334 334 335 334 334 335 336 339
345 345 345 344 343 344 345 343 343 343 344 345 344 344 343 342 342 343 344 344 344 343 343 341 341 341 340 339 339 338 338 339 339 339 339 339 340 341 341 340 340 341 339 339 337 336 337 337 336 335 336 335 335 334 335 334 335 335 335 336 337 339
343 343 345 345 343 343 343 343 343 344 346 344 344 344 343 343 343 343 343 343 343 343 341 342 342 341 340 340 339 338 337 338 339 340 338 338 338 338 337 338 339 339 337 337 336 336 335 334 335 336 336 336 335 335 334 334 334 334 334 335 337 338
342 342 343 343 342 341 342 342 343 344 344 345 344 343 342 343 343 344 344 343 343 342 342 342 342 342 341 341 340 339 337 339 339 341 338 338 338 338 338 336 337 337 337 336 336 335 335 334 333 334 335 335 334 334 334 334 334 333 334 335 337 338
340 340 340 340 341 342 342 342 342 342 343 343 344 342 343 343 343 344 344 342 342 343 343 342 343 342 341 341 341 340 339 338 339 340 338 339 338 336 338 337 338 338 334 335 335 334 335 334 334 334 335 335 335 333 333 333 333 333 334 335 334 336
338 339 340 340 340 342 343 342 341 341 341 342 342 342 342 343 343 343 342 342 343 342 342 342 343 343 343 342 341 340 338 338 339 339 338 338 337 337 337 337 337 338 339 334 334 333 333 333 333 333 334 334 333 332 332 331 332 333 334 334 334 334
337 338 340 339 339 341 342 341 340 340 340 339 340 339 341 342 342 343 343 341 342 342 342 341 342 342 343 342 342 341 337 338 338 339 339 338 337 338 338 338 336 337 338 337 334 333 332 332 333 332 332 332 332 333 333 332 333 333 332 332 333 334
337 337 337 338 339 339 338 339 339 339 338 338 339 342 341 341 342 341 342 342 342 343 342 338 338 340 340 341 341 341 339 339 340 339 339 338 337 338 338 339 338 335 337 337 335 334 333 332 332 331 330 330 332 333 333 333 333 332 331 333 333 333
335 336 336 337 337 336 336 336 335 336 336 337 336 335 337 340 340 340 342 342 341 341 337 336 337 337 339 339 341 341 340 341 340 339 338 337 336 336 337 338 338 334 333 333 334 334 333 332 331 330 328 329 332 332 331 333 332 332 333 333 334 334
332 335 335 334 334 334 333 333 334 334 334 336 335 335 335 337 338 337 340 341 340 340 338 337 337 338 338 339 338 336 338 339 340 339 339 338 339 338 338 338 335 334 330 330 330 332 333 333 328 326 327 327 329 331 333 332 332 332 332 334 334 333
332 334 334 334 334 334 335 333 332 332 333 332 331 333 333 335 337 338 339 339 340 340 339 338 338 338 338 339 335 333 334 336 338 339 340 340 339 337 337 336 334 331 333 332 330 332 332 331 326 324 322 321 326 329 330 331 330 330 332 332 333 333
334 335 336 336 336 335 335 335 334 334 332 331 333 334 334 335 338 338 338 338 339 340 339 338 339 338 337 337 337 337 337 338 336 335 336 336 336 336 336 334 334 331 329 332 332 332 332 332 327 328 328 323 319 318 322 327 332 331 332 333 334 332
335 336 336 337 337 339 339 337 336 335 334 333 331 334 335 335 336 337 337 336 338 339 338 337 337 338 337 338 337 336 337 335 333 334 335 335 335 335 335 334 334 334 332 327 328 329 332 332 332 328 320 322 322 321 317 320 323 328 333 333 333 331
336 337 337 337 336 338 338 337 336 335 333 330 332 335 333 331 333 335 336 335 336 338 338 337 336 335 335 335 336 336 335 335 334 333 334 333 332 334 334 334 334 334 333 329 326 328 330 332 331 334 329 322 321 319 320 323 324 325 331 330 331 331
337 337 336 338 338 338 336 334 333 331 327 327 327 330 328 330 331 332 333 337 338 337 337 337 336 333 333 334 333 334 335 334 335 333 332 332 334 334 333 333 334 334 333 335 331 327 326 331 332 334 335 335 331 322 321 323 324 319 330 331 331 331
336 336 336 337 338 337 337 335 333 331 331 330 329 330 335 336 335 335 336 336 336 338 337 336 334 331 331 333 334 334 333 335 335 333 332 333 333 332 333 332 334 334 334 334 333 327 327 327 330 332 333 333 332 331 330 324 319 323 318 324 328 328
333 333 335 337 337 337 335 335 333 332 330 331 331 332 332 332 334 336 336 335 336 336 336 336 335 333 332 332 333 333 334 334 334 332 333 331 331 334 334 334 334 334 336 334 333 331 329 329 326 327 331 330 330 332 332 330 329 324 321 318 320 326
332 333 334 336 336 337 336 335 333 331 330 333 334 332 333 333 333 335 335 336 335 335 335 337 337 335 333 332 333 332 333 333 334 334 332 332 332 332 333 333 332 332 333 334 334 334 333 329 329 329 329 328 329 329 330 331 330 329 323 320 319 320
329 331 332 331 334 334 335 335 333 332 332 332 331 331 332 332 332 334 333 334 334 334 333 335 335 334 333 332 333 332 332 331 332 333 332 332 332 331 332 333 332 332 333 333 335 336 333 332 331 333 331 329 327 328 328 327 327 326 327 326 321 319
327 329 330 329 329 330 332 333 334 334 333 333 334 332 331 330 331 332 331 332 333 332 333 333 333 332 333 332 333 334 332 331 333 332 331 332 330 331 333 333 334 333 332 332 333 334 333 333 333 333 333 331 329 328 326 324 324 325 325 324 323 322
325 327 329 330 330 331 335 333 330 331 332 333 333 331 330 330 330 330 331 331 332 333 333 333 334 332 332 332 332 333 332 331 331 331 331 332 331 331 333 333 332 331 330 331 334 333 332 331 331 333 333 333 331 331 331 328 329 328 327 326 325 323
320 323 326 329 330 328 329 329 329 329 330 331 331 332 332 331 332 330 330 330 331 331 332 331 331 330 331 331 331 331 331 330 329 329 330 331 331 332 332 332 331 329 330 330 331 331 329 331 331 331 331 333 332 332 331 332 332 330 330 330 327 325
316 319 322 325 328 328 329 329 329 328 329 329 328 329 329 329 330 330 330 331 331 331 330 331 329 329 332 332 331 331 331 331 330 329 329 331 331 332 331 331 331 331 329 330 332 332 332 333 332 333 335 332 333 331 331 333 333 331 330 328 325 324
313 314 317 318 322 325 328 329 329 329 328 328 328 327 328 329 329 329 330 329 331 332 331 332 331 332 332 332 331 330 330 330 329 330 330 331 332 332 332 331 331 330 330 332 331 332 332 334 333 333 334 334 333 333 333 332 332 331 330 329 328 327
312 313 315 316 316 319 322 326 327 327 327 328 328 327 327 328 329 329 329 330 329 331 331 333 332 330 331 331 330 329 329 329 330 330 330 330 331 331 330 331 332 331 330 331 330 330 330 334 335 334 333 334 333 332 334 333 332 332 330 331 330 331
308 309 311 312 314 316 318 321 326 328 328 327 328 327 326 328 329 330 330 329 329 330 330 330 330 331 330 330 331 329 329 330 330 330 330 331 331 331 331 331 331 330 329 330 330 330 331 334 333 335 334 333 332 333 333 334 333 332 332 332 331 330

ECMWFFLT2_sfc_thetae_066.txt.gz
Theta_e
350 350 348 351 350 350 351 351 351 351 350 350 350 350 349 349 349 349 350 349 349 351 353 352 350 349 346 346 346 345 344 344 345 346 346 346 347 346 345 345 344 342 341 340 340 339 339 338 338 336 335 336 336 341 341 341 341 340 339 338 337 334
349 350 351 348 350 353 351 350 349 351 349 351 350 350 351 350 349 349 348 350 352 352 353 351 350 347 348 348 347 345 344 344 345 345 345 345 346 345 345 344 343 342 341 340 340 340 340 339 338 337 336 336 340 340 342 341 340 337 338 338 336 335
349 349 351 350 351 353 349 352 350 350 350 348 349 350 349 348 349 348 351 350 353 355 353 352 351 347 348 345 347 344 344 344 344 344 345 345 345 344 344 343 343 342 341 340 342 340 339 337 337 337 336 341 341 340 341 341 342 341 338 337 335 334
351 353 350 350 351 352 352 352 348 349 349 350 349 349 349 349 347 349 350 354 354 354 354 353 348 347 347 347 347 345 344 343 343 344 345 346 345 344 343 342 342 342 342 344 344 341 339 338 336 340 342 338 337 339 342 341 337 339 339 336 335 334
354 354 353 352 353 351 352 348 348 349 348 347 349 349 349 349 349 349 351 352 352 353 352 351 352 350 347 346 346 345 343 342 343 345 344 345 345 343 342 341 342 341 345 344 342 342 341 339 341 340 339 338 339 340 339 339 338 338 338 337 335 333
354 355 353 351 351 351 351 349 348 348 348 349 349 349 349 350 350 352 352 351 351 352 350 349 350 349 348 348 343 343 340 341 342 342 344 343 341 340 342 341 340 342 343 344 342 341 340 340 339 338 338 339 339 340 338 337 339 338 338 336 335 333
352 351 351 351 351 351 349 349 348 348 347 348 350 350 349 350 351 351 352 351 350 348 347 346 348 349 348 348 344 343 342 343 341 339 342 342 341 341 341 342 343 345 343 342 340 339 339 339 340 338 339 339 339 338 338 339 339 338 339 337 335 332
350 350 351 351 350 349 350 349 348 348 348 347 349 348 347 350 353 352 352 351 350 347 345 344 347 348 347 345 345 345 343 342 340 339 340 340 340 339 341 343 344 343 341 340 338 339 338 339 340 342 339 340 339 339 339 338 340 339 337 336 334 333
350 350 351 351 349 348 350 349 349 348 347 347 348 348 349 352 352 352 350 349 348 347 345 347 347 347 348 346 347 345 342 341 341 340 341 341 339 339 339 342 343 342 342 340 338 339 338 340 342 342 340 339 339 339 339 339 339 337 338 338 338 334
351 350 352 352 350 349 350 350 348 349 347 348 347 349 350 351 352 350 348 349 348 347 348 348 347 347 346 346 347 347 343 342 341 341 341 339 339 339 340 342 343 341 339 339 338 339 339 340 341 340 339 338 337 337 338 337 338 337 336 338 337 336
351 351 353 352 351 349 351 350 350 351 350 349 349 349 350 350 350 349 347 348 346 347 347 347 348 347 347 346 346 347 345 343 341 342 340 338 341 341 342 340 343 340 341 339 339 339 339 339 340 341 340 338 338 339 338 338 337 336 335 336 335 334
351 352 352 351 351 350 350 350 351 350 351 350 351 349 349 349 350 349 347 347 347 347 347 346 348 348 347 345 344 345 343 342 340 340 340 339 340 341 342 342 342 341 342 342 341 340 342 340 340 340 340 337 338 339 337 336 336 336 337 337 336 334
350 350 350 349 348 348 350 349 349 349 349 349 350 349 348 349 349 349 349 347 347 347 346 344 348 347 345 344 344 343 341 341 341 340 340 340 340 341 342 341 341 342 341 341 340 340 340 341 340 339 341 340 340 339 338 336 335 335 334 337 339 338
348 347 348 349 348 348 349 349 348 349 349 348 348 347 347 349 349 348 348 346 346 344 346 345 345 346 345 343 344 343 341 340 341 342 340 341 339 339 337 338 338 339 337 338 338 339 337 337 338 340 340 341 339 340 338 337 335 334 334 336 340 341
341 346 347 347 345 347 348 346 347 348 349 348 346 345 346 346 347 347 345 345 346 345 341 346 345 344 344 345 344 343 341 339 341 342 340 340 339 339 338 337 337 337 339 338 338 338 337 337 337 337 339 339 338 339 340 337 335 334 333 335 339 340
343 345 344 344 345 344 346 346 347 346 349 348 344 344 345 346 346 346 345 344 346 347 346 346 345 345 345 344 342 342 343 341 341 341 340 340 340 337 337 337 338 338 336 336 336 336 337 336 337 337 338 340 339 338 338 336 335 333 334 335 335 338
345 346 345 346 346 346 345 345 346 347 348 348 345 343 345 349 347 346 344 342 346 347 344 342 342 345 345 344 342 341 343 342 342 341 340 340 338 337 339 338 338 339 338 336 335 334 335 337 336 338 341 340 338 337 338 336 334 333 334 334 334 334
346 346 345 346 347 346 345 345 346 346 346 345 345 345 346 346 346 345 344 342 345 345 348 341 342 346 346 346 343 342 343 344 342 341 339 338 337 338 340 340 338 339 338 338 335 335 336 336 336 339 339 338 337 336 337 335 334 332 332 332 334 334
344 343 343 344 345 345 347 347 347 347 346 345 344 344 346 344 344 345 344 344 343 346 343 341 342 340 344 345 342 342 343 343 341 339 338 336 337 337 338 341 339 338 340 340 336 338 337 337 337 338 336 336 335 336 337 335 333 332 335 335 335 335
343 343 342 342 341 342 344 343 340 341 342 342 342 341 343 343 344 343 345 344 345 347 341 342 340 342 345 340 339 339 340 342 340 338 337 336 335 335 337 341 342 340 339 340 340 340 340 338 337 337 334 335 336 338 336 334 333 334 335 336 337 337
340 341 340 339 340 339 339 339 339 338 338 340 341 341 341 342 341 341 344 344 344 344 343 343 344 344 343 342 340 339 336 337 340 337 337 336 338 339 340 340 340 340 338 336 338 340 340 338 334 332 333 334 334 338 335 333 334 335 335 336 337 336
339 340 340 341 341 340 341 340 339 339 340 340 340 338 339 341 341 341 343 342 343 343 345 342 343 343 344 344 342 338 338 337 338 338 337 338 338 338 339 338 338 337 339 337 337 339 338 335 330 329 326 327 330 333 333 333 333 335 336 334 337 338
339 339 340 340 340 339 341 342 341 341 340 340 343 342 341 341 342 341 341 342 342 343 344 342 343 343 343 344 342 338 337 337 337 337 336 336 341 338 339 337 338 337 336 338 336 339 339 338 330 331 332 328 323 322 329 330 335 334 334 336 337 335
338 340 340 340 339 341 342 342 343 343 343 341 340 340 341 342 341 341 340 342 342 344 343 343 343 342 343 345 345 344 342 340 338 338 338 336 334 334 336 336 337 338 337 332 332 334 339 338 337 330 324 323 326 324 320 325 328 333 336 336 335 334
339 339 339 340 340 340 341 341 341 341 341 339 340 337 338 338 338 338 339 341 341 341 341 341 341 343 344 345 344 343 340 336 335 337 337 336 335 333 339 340 338 337 335 333 332 336 337 339 335 336 331 325 323 321 323 326 328 328 333 332 333 333
339 339 339 340 342 341 340 339 337 335 333 333 331 332 334 335 337 337 336 340 341 340 340 341 342 342 342 341 342 341 338 334 335 336 336 336 337 337 335 339 338 337 333 335 335 334 333 336 335 336 335 336 331 324 324 327 326 321 332 333 331 331
335 336 338 339 341 341 340 340 338 336 336 334 332 335 338 340 339 338 340 339 340 342 341 339 341 342 341 340 341 342 340 337 336 336 335 335 335 334 337 336 337 337 337 336 336 331 332 333 336 336 336 334 337 334 332 328 322 328 322 326 328 329
333 335 338 340 340 341 339 339 338 336 335 335 336 335 339 340 341 339 339 339 340 340 341 341 341 341 340 340 339 338 338 337 336 336 336 334 333 336 336 338 340 337 337 332 333 333 333 334 331 331 333 333 337 338 335 333 332 328 324 319 322 329
333 334 335 337 339 341 340 339 339 338 336 336 337 337 337 338 337 338 338 338 339 340 342 344 340 337 339 338 337 337 338 337 336 334 335 335 335 337 336 335 335 333 334 332 332 335 335 333 333 333 333 334 335 333 332 333 332 331 326 322 321 324
330 332 332 335 338 339 340 340 339 341 338 336 337 337 339 337 337 338 336 337 338 340 339 339 342 340 338 338 338 336 337 337 338 336 335 336 335 335 336 334 334 336 337 334 336 336 335 334 335 333 330 334 333 332 330 330 331 330 328 325 320 323
325 327 330 332 335 335 336 338 338 339 338 337 337 336 337 337 336 336 335 335 335 338 340 339 341 341 340 340 337 337 337 337 338 337 335 335 334 335 334 336 335 334 338 335 335 336 331 333 333 334 334 334 333 333 329 328 329 330 329 325 323 323
325 325 327 329 331 332 334 334 335 334 334 335 336 335 334 334 334 335 335 334 335 336 336 337 339 339 337 337 335 336 337 336 336 336 335 337 337 335 335 336 335 338 335 333 336 334 335 334 335 335 334 333 334 334 334 332 331 332 331 329 327 325
322 324 325 327 328 329 330 332 333 332 333 333 333 333 333 332 334 335 335 335 334 333 335 334 337 338 336 336 337 337 336 336 336 336 337 336 337 335 334 334 335 336 334 332 334 335 332 335 337 334 332 338 334 331 331 332 333 332 332 332 330 326
319 320 322 323 325 327 328 329 331 332 332 333 332 333 332 332 333 333 334 334 334 333 333 335 337 336 335 336 336 337 338 338 336 335 336 337 336 335 332 332 333 335 334 333 335 333 331 334 338 338 334 335 334 333 332 334 331 333 332 331 327 326
317 318 319 320 323 325 326 328 329 331 332 332 332 332 333 333 333 332 333 333 333 333 333 335 337 339 336 336 335 336 336 337 337 336 335 334 334 332 332 332 332 332 333 335 335 335 334 336 336 335 335 335 335 334 333 333 334 335 333 334 331 328
317 318 319 319 322 322 324 326 328 329 330 332 332 332 332 333 333 333 333 333 334 335 335 336 337 338 338 336 336 337 336 335 335 334 332 332 332 331 331 330 331 332 331 334 334 332 332 337 338 336 333 333 335 334 336 333 334 334 333 334 333 332
317 318 319 321 323 323 323 324 325 326 327 328 329 331 331 333 333 334 335 334 333 334 335 336 336 337 337 337 337 336 335 335 334 333 333 332 332 332 332 332 332 332 332 334 334 332 335 335 337 337 334 333 334 335 334 335 335 333 335 335 334 333

ECMWFFLT2_sfc_thetae_072.txt.gz
Theta_e
344 345 345 346 346 346 348 350 350 350 349 348 349 349 349 349 349 349 349 350 349 348 347 347 346 344 346 345 346 347 345 345 345 346 345 346 346 345 345 344 343 342 341 339 338 337 336 336 338 338 340 339 340 336 339 333 334 335 332 332 332 331
345 345 346 347 347 347 348 347 347 348 348 348 348 348 348 346 347 347 350 349 347 345 346 348 347 345 344 343 345 346 345 345 345 345 345 346 345 345 345 344 343 342 340 339 339 335 336 336 337 339 338 339 337 335 339 336 335 334 333 332 333 334
347 347 347 345 347 348 346 346 344 346 347 348 347 347 345 345 345 343 343 344 343 338 338 343 347 346 346 345 345 345 345 345 346 345 345 345 345 345 344 343 343 342 341 340 338 333 332 332 333 337 339 336 336 338 342 339 334 333 332 332 331 335
347 350 348 348 350 348 346 348 349 345 346 347 346 346 343 342 341 342 343 343 342 342 341 340 342 343 344 345 344 343 344 345 345 345 345 344 345 345 344 343 343 342 340 338 336 331 329 331 334 334 335 337 339 338 339 335 332 331 330 332 330 335
348 349 348 348 345 346 348 349 347 347 344 343 342 343 341 342 341 343 342 343 343 343 344 341 341 343 345 346 341 341 343 343 343 343 345 343 343 342 342 339 340 341 336 335 335 337 330 330 335 336 337 340 338 341 338 336 334 331 329 329 331 337
347 347 347 345 346 347 349 346 346 346 343 341 344 344 340 342 343 343 344 344 345 345 344 342 341 343 345 345 344 339 339 341 340 342 343 342 342 342 338 336 335 334 335 336 338 340 336 336 335 340 336 339 339 338 336 335 333 332 331 330 332 334
345 344 344 347 346 346 347 346 347 345 341 341 343 342 342 342 343 341 344 344 342 344 343 342 341 342 343 344 341 343 338 339 339 338 342 342 341 340 337 337 336 336 336 338 340 341 340 337 339 335 335 336 336 338 335 335 332 331 331 330 332 333
344 343 343 345 346 346 344 343 346 343 344 345 344 342 343 344 345 345 345 345 346 343 342 343 341 343 343 342 342 342 343 340 337 337 338 340 340 339 338 338 337 336 337 338 337 341 335 340 340 340 338 338 338 337 336 335 333 331 330 330 330 332
345 346 347 348 345 346 346 345 346 344 342 343 341 342 344 344 344 345 345 344 345 344 344 343 341 341 342 339 339 342 341 339 338 335 335 337 339 338 338 339 337 337 338 342 340 337 338 338 343 341 338 336 338 337 338 336 334 333 331 331 330 331
344 344 344 344 344 342 344 344 343 344 343 343 342 343 344 344 344 343 343 342 343 344 343 342 342 342 341 338 340 341 342 342 341 337 338 339 340 339 339 341 341 342 336 337 333 338 341 338 339 339 339 337 335 337 339 334 334 332 332 332 331 332
345 344 343 342 344 343 344 342 343 344 345 343 344 344 344 344 345 344 344 344 343 343 343 342 343 342 342 340 340 341 341 341 341 340 338 338 341 340 342 341 347 342 340 338 338 339 335 336 339 338 339 337 334 335 335 338 335 333 333 331 331 331
345 345 345 344 346 345 344 343 344 345 345 346 344 343 343 344 345 345 345 344 344 343 343 343 343 343 342 341 341 342 340 340 338 340 339 338 339 341 341 344 347 346 343 341 337 335 338 336 335 334 337 335 334 337 334 334 334 333 332 331 330 329
348 347 346 345 345 345 345 345 344 344 346 346 346 345 344 344 345 346 346 345 344 343 343 342 345 344 343 343 342 341 340 337 339 338 338 338 337 341 344 345 343 343 342 340 339 335 336 336 333 337 335 334 339 337 336 335 335 333 330 329 328 328
347 347 347 346 347 345 347 347 348 348 348 346 347 346 346 345 347 347 346 346 344 344 344 345 344 344 343 343 343 341 341 339 340 339 338 336 338 341 341 340 341 343 341 338 335 335 336 336 337 338 339 340 338 338 339 335 333 333 331 328 327 327
348 348 349 348 347 347 349 347 345 348 346 347 347 346 345 346 348 348 346 346 345 344 344 345 345 345 344 343 342 341 340 341 342 339 337 338 340 340 340 338 340 338 340 337 335 335 335 335 336 336 339 340 338 338 338 337 336 335 333 332 329 329
348 348 349 350 349 350 351 352 350 345 346 348 347 345 346 345 346 346 346 346 345 345 345 345 344 345 345 343 342 341 341 342 340 338 340 341 340 337 337 338 338 339 335 333 335 333 334 334 335 335 338 339 339 339 338 337 335 333 333 336 338 338
347 347 349 349 350 349 351 350 350 351 348 349 348 348 345 342 343 343 346 345 345 346 345 345 345 344 344 343 342 341 342 343 343 343 342 343 341 339 338 337 338 338 336 332 333 333 334 336 335 336 338 338 338 338 337 336 334 334 335 334 336 335
347 348 349 351 350 350 351 350 349 349 348 347 343 344 346 346 342 345 345 343 342 344 345 346 346 344 343 343 342 341 342 343 342 343 343 342 340 340 338 338 336 337 338 336 335 336 337 335 332 329 333 338 338 337 337 337 335 335 333 332 335 336
347 347 347 348 348 348 351 350 349 348 347 347 349 346 349 347 344 344 345 343 342 343 343 344 345 344 343 342 341 341 341 341 342 341 342 339 338 338 338 338 339 337 343 339 340 337 334 333 332 331 331 334 336 338 338 338 336 334 333 331 333 335
346 348 346 348 347 345 345 345 343 345 342 343 343 343 344 345 346 346 346 345 344 342 342 343 340 343 342 342 341 341 340 341 340 340 339 338 337 337 337 336 339 340 339 338 337 336 334 333 332 331 330 331 332 334 335 336 336 332 333 334 332 332
345 347 346 343 345 343 341 341 344 342 340 342 342 343 346 349 346 346 344 344 342 338 339 339 342 342 342 342 341 342 341 341 341 340 339 338 339 339 339 338 341 338 336 333 333 335 335 334 330 328 328 330 330 333 334 336 334 332 331 332 333 332
344 345 345 344 344 345 344 343 341 341 341 341 341 342 343 345 346 345 347 346 344 339 339 339 341 342 343 341 340 341 341 341 342 340 339 339 339 339 338 340 337 334 336 334 332 334 334 330 327 325 323 324 327 330 333 335 334 332 330 331 333 332
343 343 343 345 345 343 346 346 345 344 342 343 347 348 345 344 348 346 347 347 347 343 340 337 339 340 341 342 341 340 340 341 339 338 338 337 338 336 336 338 335 333 333 333 332 335 334 333 327 328 326 322 320 321 327 328 331 333 334 337 335 334
341 343 343 344 343 345 345 347 348 348 347 346 344 346 348 349 347 347 345 346 345 346 342 340 339 337 342 341 341 339 339 339 338 338 338 336 336 335 336 337 335 334 334 329 329 330 333 332 330 326 319 320 322 320 317 320 324 328 331 334 332 331
339 341 342 342 343 344 344 344 347 347 347 346 345 345 345 345 345 345 345 346 344 344 344 340 340 338 340 339 341 340 339 338 338 337 336 336 335 335 336 336 336 332 331 329 328 330 331 333 330 331 325 320 318 317 317 322 324 325 329 330 331 331
336 338 338 340 341 342 342 341 340 339 338 339 339 340 338 339 341 342 340 346 347 344 345 342 341 340 339 341 341 340 339 338 338 337 335 335 335 336 334 335 335 333 331 332 331 328 329 332 332 331 331 331 330 320 320 324 322 316 328 331 330 330
333 334 336 337 338 340 339 340 339 338 339 337 335 339 341 342 344 344 345 344 344 348 346 347 344 341 340 339 340 341 340 338 338 339 339 337 335 334 335 336 336 334 333 333 333 328 327 329 331 332 333 334 331 328 328 324 318 321 317 324 328 329
331 332 333 334 335 337 336 338 339 338 338 338 337 337 340 341 343 343 344 343 343 345 345 342 342 340 341 340 340 340 340 338 337 337 336 335 336 336 336 336 337 336 336 335 332 329 328 330 327 327 332 331 330 331 328 330 329 323 322 318 320 327
328 330 330 332 333 334 334 335 336 337 337 338 339 339 339 339 341 342 342 343 342 343 345 343 342 342 341 340 340 339 340 338 336 335 336 335 336 337 336 335 334 334 334 334 333 331 330 329 330 328 330 329 328 328 328 329 329 326 319 318 319 321
326 328 329 330 331 332 332 333 333 334 334 334 336 336 338 338 339 341 340 340 342 341 340 341 340 340 338 337 340 340 340 338 337 337 336 336 335 335 336 334 334 334 334 333 334 333 331 331 332 331 331 330 327 327 325 323 325 324 324 325 321 320
325 327 328 329 329 329 330 331 330 331 331 332 333 333 333 333 335 336 336 336 339 337 336 337 340 342 335 334 336 337 337 335 337 336 336 336 335 335 336 336 334 334 334 332 333 333 332 332 332 331 331 330 328 327 324 322 323 324 323 321 320 319
324 325 326 326 328 328 328 329 329 329 329 330 331 331 331 332 333 333 333 334 338 338 337 337 337 339 340 339 337 338 335 335 336 336 335 336 336 336 336 336 335 333 332 332 333 332 332 331 332 331 330 330 329 329 327 326 327 326 324 323 322 321
322 324 325 325 325 326 327 327 327 327 328 329 329 329 329 330 332 332 332 332 333 333 335 335 336 336 337 339 338 336 335 334 333 334 334 334 332 333 336 336 335 334 333 333 332 332 330 331 331 330 330 331 330 329 328 330 329 326 326 327 323 320
321 323 323 324 324 324 325 326 326 326 327 327 327 327 328 328 330 331 332 332 332 332 333 334 334 335 337 338 338 338 336 334 334 334 334 332 333 334 335 335 335 334 332 333 333 332 332 332 332 332 332 330 329 329 329 329 329 328 327 326 323 322
319 320 322 322 323 323 323 325 326 326 325 325 325 325 326 328 329 330 332 332 333 334 333 334 334 334 337 338 339 340 335 334 334 332 333 332 333 332 331 332 334 333 332 332 332 331 329 330 330 331 332 331 330 330 330 331 330 328 329 327 325 325
319 320 320 321 321 322 323 325 325 324 325 325 325 325 326 326 327 328 329 331 332 333 334 334 335 335 336 336 338 338 337 336 334 333 333 332 331 331 330 329 330 331 330 333 332 330 329 330 329 331 332 332 331 330 331 331 331 330 331 330 329 328
318 319 319 320 321 322 322 322 323 322 323 324 323 323 323 325 326 326 327 329 331 334 334 334 334 335 335 336 336 336 336 336 333 333 333 332 332 331 330 331 332 332 331 331 330 330 330 329 330 332 331 331 330 331 330 331 330 332 330 330 329 329

ECMWFFLT2_sfc_thetae_075.txt.gz
Theta_e
343 344 344 345 346 346 348 350 348 349 349 349 350 350 350 350 349 349 348 349 348 344 343 344 343 343 347 345 346 347 346 345 345 345 344 345 345 344 343 343 342 341 340 338 338 338 337 339 340 342 342 343 342 332 333 330 330 331 329 331 333 333
342 343 343 344 346 347 348 348 346 346 346 347 349 350 349 347 351 346 349 346 340 340 338 341 341 346 341 343 344 346 346 345 344 345 345 345 345 344 344 343 342 341 340 339 339 333 336 340 340 341 343 343 335 332 331 331 330 330 330 330 333 334
342 342 343 344 345 346 345 345 345 345 346 348 348 347 345 347 345 345 345 342 340 337 336 340 338 344 343 345 344 346 345 346 346 345 345 345 345 344 344 343 342 341 340 340 335 331 329 329 328 338 341 336 331 333 332 330 330 329 329 331 329 335
343 344 343 344 345 343 342 342 343 343 343 343 343 344 343 341 341 340 341 340 338 336 338 337 344 346 345 341 341 345 345 345 345 345 345 345 344 344 344 343 343 342 341 339 332 332 328 326 327 328 329 330 332 334 330 329 329 329 330 332 330 336
345 345 345 345 343 342 343 342 341 340 340 340 339 339 339 338 338 339 339 339 340 339 339 337 337 339 341 340 338 337 338 338 339 340 345 339 340 342 341 337 336 338 333 333 331 330 331 327 329 331 331 332 334 332 329 328 328 327 327 329 331 338
344 344 344 343 344 346 344 341 339 339 338 337 339 339 337 338 337 338 338 339 341 339 340 337 336 338 339 339 337 336 336 336 336 338 343 339 338 337 337 336 336 337 335 333 331 331 332 334 328 329 331 332 334 331 329 328 328 328 327 329 333 335
342 343 343 344 343 344 342 341 340 338 336 336 339 338 336 337 338 338 338 340 338 337 338 336 335 337 338 338 337 336 335 335 335 335 340 339 338 338 336 335 332 333 333 332 332 333 334 336 334 331 332 333 331 330 329 328 328 328 328 329 333 334
342 342 342 343 343 341 340 340 340 343 338 341 340 337 337 337 339 338 340 340 341 338 337 338 336 338 337 336 336 337 338 336 334 334 339 338 338 338 336 333 333 332 332 333 333 335 336 337 335 333 330 331 332 330 328 328 328 328 327 327 330 333
341 342 342 343 342 340 340 340 339 338 337 344 338 337 338 340 339 339 340 340 342 337 338 338 336 335 336 335 335 336 337 336 335 336 335 335 336 336 335 333 333 332 332 332 333 334 335 333 335 333 331 332 332 330 329 328 327 328 327 327 328 331
342 342 342 342 341 340 340 339 339 338 337 342 337 338 339 338 339 340 338 339 341 339 338 336 335 335 334 333 333 334 336 336 337 337 335 334 336 335 334 333 334 333 333 334 333 330 335 334 334 333 332 330 331 331 330 328 328 327 327 327 327 331
341 343 340 340 339 340 341 339 340 339 340 338 339 340 340 338 338 339 339 339 339 340 338 337 337 336 335 334 334 335 336 336 336 336 336 336 335 336 335 335 336 337 335 336 335 333 333 333 335 333 334 331 329 332 330 330 329 328 328 327 328 329
340 341 339 340 341 339 339 339 340 339 339 339 341 339 339 339 342 339 340 338 338 339 339 337 338 338 336 335 334 335 335 335 335 335 337 337 336 336 335 336 340 340 338 337 336 333 333 333 333 332 332 332 330 331 330 330 329 329 329 328 328 328
340 341 340 341 341 340 339 341 340 340 341 342 340 339 338 339 340 340 339 339 338 339 339 338 338 339 340 336 335 335 335 335 335 335 336 337 337 336 334 336 336 339 336 335 334 334 334 332 330 331 331 330 332 331 330 329 329 329 328 328 327 327
341 340 340 341 341 340 340 340 341 341 344 341 339 339 339 340 341 341 342 340 339 339 339 338 339 339 339 337 336 335 335 334 334 335 335 334 333 334 333 334 334 336 338 333 331 331 331 330 331 331 331 331 330 330 331 329 329 328 328 327 327 327
342 340 342 340 342 341 342 342 341 342 342 341 341 340 340 341 341 342 342 341 341 340 340 340 340 338 337 336 336 335 335 335 335 336 334 334 333 334 335 335 335 334 332 332 331 331 332 329 329 331 331 331 329 331 332 329 328 327 326 326 326 326
342 342 342 342 342 342 343 341 342 346 342 341 340 338 340 341 341 341 341 341 341 340 340 340 340 340 338 338 336 335 335 335 335 335 333 332 334 335 334 333 334 335 332 331 330 330 329 328 330 330 330 329 329 330 330 330 327 326 325 325 325 325
341 341 341 343 343 342 342 341 341 341 341 336 335 336 338 339 340 339 339 340 341 341 341 340 340 341 340 338 336 336 335 335 335 333 332 333 334 335 334 334 333 335 334 330 329 329 329 329 329 329 328 330 331 331 330 330 329 329 328 325 325 326
340 342 341 341 341 341 341 341 340 338 338 336 335 335 336 337 337 340 341 339 339 341 341 341 340 340 339 339 338 337 336 336 337 335 334 335 335 335 334 334 332 333 334 331 329 329 329 330 329 328 330 332 331 332 331 331 330 332 329 329 329 329
340 341 340 342 342 340 340 340 338 338 340 337 334 335 336 335 336 335 339 338 337 337 339 340 340 339 338 338 337 336 336 337 337 334 335 335 334 335 334 333 332 332 334 334 331 330 330 327 328 329 331 331 331 331 331 331 331 329 329 331 331 332
338 340 341 340 340 338 337 334 334 335 334 334 335 334 335 336 335 335 338 339 339 337 338 339 339 339 338 338 336 335 335 336 336 335 333 333 332 332 332 332 331 332 332 332 332 330 328 328 327 326 329 328 328 330 333 331 331 330 329 330 331 331
336 336 337 336 335 335 334 334 334 334 333 333 333 333 333 336 335 336 337 337 338 339 337 337 338 338 337 339 337 336 336 335 335 335 333 333 333 333 333 333 331 331 332 330 329 328 326 328 326 324 325 325 325 329 331 331 330 330 329 328 330 330
336 336 336 335 335 335 335 335 334 332 334 333 332 333 331 333 333 335 334 334 337 336 334 334 336 336 337 337 337 336 335 335 335 335 334 334 333 335 333 333 332 329 331 330 327 329 329 328 323 322 319 320 322 325 328 329 329 332 332 329 328 329
336 336 336 338 336 334 336 338 337 335 337 336 338 338 337 334 334 334 332 333 336 336 335 334 334 336 337 338 337 335 335 335 335 335 333 332 332 332 333 332 331 330 327 328 328 331 329 327 322 323 322 319 316 317 321 325 329 331 331 329 330 329
335 337 338 337 337 337 337 338 337 338 338 336 335 337 337 337 332 333 333 335 336 335 335 334 335 335 337 337 336 335 335 334 335 334 333 332 331 332 331 331 331 330 329 325 326 327 330 329 328 323 316 317 317 317 312 318 323 326 329 329 329 328
333 335 335 334 334 337 337 336 336 336 336 335 334 334 335 333 334 333 331 332 333 334 334 335 336 335 336 336 337 336 335 334 334 333 333 332 332 332 332 331 332 330 328 327 325 324 327 329 328 327 322 318 315 314 315 317 321 321 325 326 328 329
330 331 331 332 333 334 333 334 333 331 330 328 327 329 329 329 331 333 333 333 333 334 335 335 335 335 335 336 336 336 335 334 333 334 333 332 332 331 331 331 332 331 329 328 327 324 324 328 328 328 327 324 322 317 317 319 319 314 321 326 326 329
328 328 329 329 330 331 330 332 333 333 332 330 328 329 333 334 334 335 336 335 333 331 334 333 333 336 335 336 336 336 336 335 334 333 333 331 331 331 332 332 333 332 330 329 327 324 324 325 327 327 328 328 328 325 325 321 317 316 314 318 324 326
326 327 326 327 327 329 328 330 331 331 332 332 332 332 333 334 334 335 335 335 335 333 333 333 333 334 334 335 336 336 336 335 334 334 334 333 332 332 332 333 333 332 332 330 328 326 325 326 324 324 327 326 327 328 326 326 324 320 316 315 318 323
323 324 324 326 326 327 328 329 328 328 328 330 331 331 333 334 333 335 334 333 334 334 332 331 331 332 333 333 335 336 335 335 334 334 335 334 333 333 332 332 332 329 329 329 329 329 327 325 326 324 326 326 327 327 326 325 325 324 317 315 315 319
321 322 323 324 326 327 327 327 326 326 327 326 328 329 330 330 331 332 332 332 333 333 333 334 333 333 332 332 333 335 334 334 334 334 333 334 332 331 332 332 332 331 331 329 328 329 328 327 327 327 328 327 325 326 325 323 323 323 321 319 315 317
320 321 322 322 324 325 325 326 325 325 325 325 325 325 325 326 328 328 329 329 330 331 332 332 333 333 333 330 331 332 331 331 333 333 333 333 332 330 331 332 333 332 332 330 329 329 328 328 327 327 327 328 327 326 324 321 321 323 322 318 317 317
317 319 319 321 322 322 323 324 324 324 324 323 324 323 323 324 325 326 327 327 328 329 329 331 331 330 331 331 331 331 331 331 330 330 331 332 331 332 331 331 332 331 331 331 330 329 328 328 327 327 326 328 329 328 327 325 325 325 323 321 320 318
314 316 317 318 318 318 317 319 322 322 323 322 321 323 323 323 324 324 325 326 327 327 328 329 329 330 330 331 333 332 331 329 328 329 328 327 328 329 328 329 329 329 330 329 329 329 329 328 327 326 327 328 328 327 327 328 327 326 326 325 322 319
314 316 316 316 317 317 318 319 320 319 319 319 318 320 321 322 323 323 324 324 325 327 328 328 329 329 331 332 332 332 332 331 331 329 329 328 328 329 329 328 328 328 328 329 331 330 329 327 327 328 328 326 327 326 326 328 328 327 325 324 322 321
313 314 315 315 315 316 317 318 317 317 318 320 319 319 319 320 319 319 321 323 324 324 324 325 327 327 330 330 332 332 332 332 331 330 329 329 329 329 329 328 328 328 328 329 328 328 329 329 329 328 327 328 328 327 326 327 329 328 327 326 324 323
313 313 313 314 315 315 315 316 316 316 316 317 319 318 317 317 317 318 319 320 319 320 322 323 324 325 326 327 328 331 331 331 329 328 328 327 327 327 327 327 326 326 326 328 327 327 327 328 327 328 328 329 328 327 328 328 328 329 328 327 326 325
312 312 313 314 314 314 315 315 315 315 315 315 315 314 314 314 314 316 316 316 317 318 319 320 321 323 323 324 325 327 329 330 331 328 327 326 326 326 327 328 326 325 325 328 327 326 327 327 327 327 326 327 327 327 327 329 329 329 329 328 327 327

ECMWFFLT2_sfc_thetae_078.txt.gz
Theta_e
344 344 344 344 344 344 347 349 348 349 348 349 350 350 349 349 348 348 347 348 346 340 338 339 338 340 347 342 347 346 346 345 345 346 346 346 344 344 343 343 340 340 339 340 339 340 340 341 342 343 344 341 338 328 328 328 328 330 330 331 332 330
342 342 343 344 345 345 346 347 342 343 344 346 348 349 346 344 349 340 348 342 339 342 338 338 338 346 340 342 343 346 346 346 345 345 345 345 345 344 344 343 341 340 340 339 340 333 332 335 339 341 343 339 330 327 327 328 328 328 330 328 331 334
340 341 342 343 344 345 344 343 342 342 344 347 346 345 343 344 340 341 342 339 337 335 337 336 337 342 342 345 343 346 345 345 345 345 346 345 344 344 344 343 342 341 340 340 332 328 328 327 325 335 337 331 329 328 328 327 327 328 328 330 327 336
340 340 341 341 343 342 341 341 341 342 341 341 340 341 339 337 337 339 339 336 335 337 336 335 347 348 348 340 341 345 345 345 344 345 345 344 344 344 344 343 342 342 340 334 327 328 329 327 325 326 327 329 329 328 327 327 327 327 328 332 328 336
341 341 341 342 341 339 340 340 338 339 338 336 335 335 335 335 336 337 336 336 336 337 335 333 333 335 336 337 335 335 336 335 335 336 343 334 334 338 337 333 333 335 328 329 328 326 327 328 329 328 327 330 329 327 327 328 327 327 328 329 330 337
342 342 341 340 339 342 341 338 337 337 336 334 335 334 333 333 335 335 336 338 339 334 335 333 333 333 336 335 335 333 333 333 333 334 338 334 333 332 332 333 332 331 331 329 328 327 327 331 330 330 328 329 328 327 326 325 326 326 327 327 333 335
341 341 341 341 341 341 338 337 337 336 335 333 334 333 332 333 334 336 336 339 336 336 334 332 332 333 335 334 334 332 331 332 331 332 335 334 333 334 334 332 331 331 332 331 330 329 329 329 330 332 331 329 328 326 326 325 326 325 326 328 334 335
341 341 340 341 340 338 336 336 337 342 335 340 336 333 333 334 335 335 338 339 340 336 335 332 332 333 334 333 333 333 331 330 330 331 334 334 334 334 334 332 332 331 332 332 331 330 329 331 331 333 333 329 328 326 325 325 326 326 326 327 330 334
340 340 339 340 339 337 337 337 338 335 333 343 334 334 335 336 335 336 339 339 341 336 334 334 333 333 332 331 333 334 333 332 331 331 330 330 332 333 334 334 332 331 330 330 329 330 331 332 332 333 333 329 328 326 326 326 326 326 325 326 328 332
339 339 339 339 337 337 336 336 335 334 334 342 334 335 336 336 336 337 338 338 339 336 335 334 333 331 332 330 331 332 333 332 332 330 330 329 331 331 332 332 332 331 331 330 330 329 332 330 330 331 329 330 328 327 327 326 326 325 325 326 327 332
339 342 339 337 336 336 336 335 335 334 336 337 335 338 337 336 336 337 337 337 338 338 336 334 333 333 332 330 330 331 331 332 332 331 331 330 331 331 331 331 331 331 331 331 331 331 330 329 329 331 332 329 328 328 327 326 326 326 326 325 326 327
339 340 338 337 337 335 336 335 336 335 335 334 335 335 336 334 339 336 337 336 336 336 338 334 334 333 333 331 331 331 331 330 332 332 332 332 331 332 331 331 334 336 335 334 332 331 330 330 329 330 331 329 329 327 326 326 326 326 326 325 326 327
338 338 336 336 336 335 334 337 336 336 335 337 337 335 336 336 336 337 336 336 336 336 337 335 333 334 337 332 332 331 331 332 332 331 332 333 333 332 331 330 331 334 333 332 331 330 332 328 328 328 328 329 328 328 328 327 326 326 326 326 326 325
336 336 335 336 335 335 336 335 337 336 339 336 335 335 336 336 337 337 338 337 336 336 336 334 335 335 334 333 332 331 331 332 332 332 331 332 331 330 330 330 330 331 337 332 330 328 328 328 327 328 329 330 329 328 328 327 327 326 326 326 326 325
337 336 339 337 338 336 336 338 338 337 339 337 337 336 336 337 337 338 338 336 337 337 337 336 336 335 335 334 333 332 331 333 332 331 331 331 330 330 330 330 329 331 331 330 329 330 330 326 327 328 329 329 327 329 329 327 327 327 326 326 325 325
338 337 337 339 338 337 338 338 337 341 337 337 338 337 337 337 338 337 338 338 338 338 337 337 336 336 334 334 334 333 333 332 331 331 331 330 329 330 329 331 331 330 329 330 329 328 328 327 328 327 327 327 328 329 327 328 327 326 326 325 325 325
338 338 335 338 336 337 338 338 336 334 337 336 334 333 333 335 336 337 337 336 337 338 338 337 337 337 335 335 334 333 332 331 331 331 330 329 329 331 329 331 330 330 331 329 329 330 326 329 327 327 328 328 328 329 328 329 328 326 325 323 324 324
335 334 335 336 334 335 339 338 335 334 337 336 334 332 333 334 334 335 335 335 336 338 338 337 337 337 336 336 335 334 333 330 331 330 329 328 330 329 330 329 330 330 331 330 327 327 325 326 327 326 327 329 328 328 329 328 328 333 325 323 322 323
334 334 336 335 334 333 336 334 334 332 333 333 332 332 332 332 332 333 332 335 334 337 338 336 336 336 335 335 335 333 333 332 333 330 330 330 330 331 331 330 329 329 330 330 329 327 327 326 326 327 327 327 328 329 329 329 329 328 328 325 324 325
333 336 336 335 333 331 331 330 329 330 329 330 331 332 331 331 332 331 332 334 335 332 333 334 334 333 334 335 334 333 333 332 332 331 330 329 330 330 330 329 328 329 328 328 329 327 326 324 324 323 325 326 327 328 330 328 328 328 328 328 328 327
335 335 336 334 333 331 329 331 329 328 327 328 329 331 331 330 332 332 332 333 333 334 332 333 335 334 333 336 335 331 332 331 332 333 331 330 330 330 330 329 328 327 328 327 325 325 325 325 322 321 322 322 323 326 329 330 328 328 328 327 328 329
334 335 335 335 333 333 332 330 330 330 329 329 330 329 329 328 331 333 332 330 332 332 333 332 333 332 332 331 333 332 332 332 331 331 332 332 329 332 329 328 327 327 327 328 325 326 325 324 320 320 317 317 319 322 326 327 328 329 329 329 327 329
331 331 331 334 334 333 332 333 332 330 332 331 331 330 331 332 332 330 330 330 331 332 332 332 330 332 333 333 333 332 333 333 332 333 332 331 330 330 330 329 328 328 325 324 325 326 325 326 320 320 319 318 314 315 319 322 326 327 328 329 329 327
329 330 330 332 332 331 332 332 333 333 332 333 331 332 331 332 331 331 330 329 331 332 332 330 332 332 333 333 332 333 333 333 333 333 332 331 330 330 329 328 328 328 328 322 323 325 328 326 323 320 315 317 314 314 311 316 320 325 329 329 329 328
327 329 328 329 329 330 331 331 332 333 332 330 331 331 329 328 329 330 331 330 331 331 331 330 331 332 332 332 333 334 334 334 333 333 333 332 331 331 330 330 329 327 325 326 323 323 323 326 324 325 322 315 313 313 315 316 318 321 326 326 328 329
326 326 326 326 327 328 328 329 329 329 328 327 326 328 327 327 328 328 328 330 331 331 331 331 331 330 330 333 333 334 334 334 333 332 330 330 331 330 329 328 329 327 326 326 325 323 321 325 326 326 325 324 321 316 315 318 317 313 319 326 326 328
325 325 326 326 326 327 326 327 328 328 329 327 327 328 332 332 331 330 330 329 330 331 331 331 331 330 331 332 333 334 335 335 334 330 331 329 328 329 328 330 330 329 327 327 326 324 324 323 325 325 326 326 325 322 322 319 316 315 314 318 324 324
324 324 324 325 325 326 325 326 326 327 327 326 327 327 329 331 333 334 329 328 329 329 329 331 330 329 328 329 330 331 333 333 333 331 332 330 328 329 330 330 330 330 329 328 327 326 325 325 323 323 325 325 325 326 324 323 321 318 316 313 317 322
322 322 323 325 325 325 326 325 324 324 323 325 326 326 327 329 329 330 330 332 331 330 330 330 329 328 329 330 331 330 331 333 333 331 331 330 330 330 330 330 330 329 329 328 327 327 325 324 324 323 323 323 324 324 324 324 323 321 317 315 315 318
320 321 322 322 323 324 325 325 323 322 321 321 323 324 325 324 326 327 326 326 328 330 332 331 331 330 328 330 330 330 330 331 332 331 331 330 330 329 330 330 330 329 330 328 328 327 326 325 325 325 326 324 321 322 322 323 321 320 320 319 316 317
316 317 318 319 320 321 322 323 322 322 321 320 321 322 321 321 322 322 322 323 324 326 328 329 331 331 330 330 329 330 330 330 331 332 331 330 330 329 329 328 329 329 329 329 328 327 326 326 326 326 325 325 323 322 321 320 321 322 321 319 318 317
313 314 315 317 317 317 318 318 319 320 320 319 319 319 319 317 318 319 320 321 323 324 324 326 327 327 328 331 331 330 331 330 329 328 328 328 329 330 330 331 330 329 329 329 329 328 327 326 325 324 324 326 325 326 325 324 324 324 322 321 320 319
312 313 314 315 316 316 316 315 315 316 317 318 316 316 316 315 317 317 319 319 318 318 320 322 322 323 325 328 329 328 330 331 329 328 328 328 328 329 328 328 328 328 328 328 328 327 327 326 325 324 324 325 325 325 325 327 326 324 323 324 322 319
311 312 313 314 314 315 315 315 315 314 316 317 315 314 313 313 314 315 316 316 316 316 317 318 319 320 322 324 325 327 329 330 330 330 329 329 329 329 329 328 328 327 327 328 328 327 326 326 327 327 326 324 324 325 326 327 327 326 323 322 319 319
310 311 312 312 313 313 313 313 313 313 314 315 314 313 313 314 312 312 313 314 314 315 314 315 316 317 319 319 320 322 323 325 327 329 329 328 328 327 327 327 327 327 328 329 329 328 327 327 327 326 325 325 325 326 326 326 326 326 326 324 322 321
309 310 312 312 312 312 312 312 311 311 312 313 313 312 312 312 312 312 311 311 312 312 313 313 314 315 315 315 315 317 319 320 323 322 322 324 326 326 324 323 323 325 325 328 327 327 327 327 326 326 326 326 326 325 326 326 326 326 326 326 325 324
309 311 312 312 311 311 311 310 310 310 310 310 310 309 309 309 309 311 311 311 310 310 311 311 311 312 311 311 312 314 315 318 312 311 312 313 314 320 324 324 324 325 326 327 327 326 327 326 326 326 325 325 325 325 326 327 327 326 326 326 327 326

ECMWFFLT2_sfc_thetae_081.txt.gz
Theta_e
341 341 340 339 339 341 345 346 345 347 347 348 348 348 347 347 347 347 347 345 343 339 336 338 338 341 346 341 346 346 345 344 344 345 345 344 342 343 342 341 340 340 340 340 340 341 340 340 342 342 341 341 339 328 327 327 327 329 329 330 331 325
341 341 341 343 343 342 344 346 340 339 341 345 347 348 345 343 348 341 344 339 337 340 335 334 335 346 338 342 343 346 345 345 344 345 345 344 344 342 342 341 340 340 340 340 341 328 330 337 340 341 340 337 328 326 326 327 327 328 329 327 330 332
339 340 340 341 343 343 342 340 338 339 343 346 345 346 342 343 341 341 338 335 336 333 334 333 335 341 341 345 343 345 345 344 345 345 345 345 344 344 343 341 341 341 341 339 328 324 325 324 327 339 338 329 325 325 326 326 326 328 327 327 326 336
339 339 340 339 341 341 339 337 338 339 340 340 338 339 336 336 338 340 338 333 333 336 335 330 346 347 346 338 338 345 345 345 344 344 345 344 344 344 344 343 342 342 335 332 327 324 326 325 324 324 327 325 325 325 325 326 326 326 327 331 326 336
338 338 338 340 342 340 337 337 337 335 336 334 334 333 332 333 334 335 334 333 332 337 332 331 331 333 334 334 334 332 333 333 332 333 342 330 331 335 333 329 327 331 328 329 327 326 326 326 326 326 328 327 326 325 325 327 326 325 326 326 328 336
338 336 337 338 340 342 340 336 334 334 334 331 332 332 331 332 332 333 333 334 336 334 333 331 330 330 332 331 334 332 331 330 329 331 338 332 330 330 331 330 329 331 330 327 326 327 325 328 327 325 326 328 327 326 326 325 326 326 326 326 330 336
337 337 337 339 339 339 336 335 334 334 333 331 331 330 330 330 331 332 332 336 332 333 334 330 329 331 332 332 332 330 330 329 328 329 335 331 330 330 332 332 328 328 327 328 329 327 326 327 326 328 326 328 327 327 326 325 325 325 325 326 332 336
338 337 335 337 336 335 333 334 335 341 334 338 334 330 330 330 332 332 334 334 337 332 334 331 330 330 333 331 332 331 328 329 327 328 329 331 330 330 331 331 330 329 329 329 329 329 327 328 328 328 329 327 326 326 326 325 325 325 325 326 329 335
338 337 336 337 336 333 333 334 335 333 331 342 330 329 331 332 332 333 335 334 336 332 334 331 329 331 332 330 330 332 330 329 328 328 327 328 330 329 330 330 329 329 329 328 328 329 329 330 329 330 329 328 327 325 325 325 324 324 324 324 327 332
337 337 337 336 335 334 332 334 333 332 331 339 330 332 334 333 332 332 332 334 335 333 333 333 330 330 332 331 329 329 330 330 330 328 328 326 327 328 328 328 328 328 329 328 328 329 329 329 329 329 328 328 327 326 326 326 325 325 325 325 326 331
337 341 336 335 333 332 333 331 333 332 331 335 333 336 337 335 334 333 332 332 334 334 332 331 331 331 331 330 329 328 329 328 330 329 328 327 326 328 328 328 327 327 327 328 329 329 330 329 327 328 328 327 326 326 326 326 326 326 325 325 325 327
335 336 335 333 335 333 333 333 333 331 331 332 334 335 337 336 338 336 334 332 333 334 334 332 332 332 331 331 330 329 328 327 330 329 329 328 327 328 328 328 329 330 329 329 330 328 328 327 326 327 327 327 326 325 326 326 326 325 325 324 324 327
334 335 333 333 333 332 332 334 333 331 332 336 333 335 335 336 336 337 337 334 332 334 336 334 333 333 335 331 330 329 328 330 330 330 329 330 330 329 328 328 327 329 329 328 327 327 329 325 325 325 326 328 326 326 326 325 325 324 324 324 324 325
334 333 333 333 333 332 332 332 333 331 335 334 332 333 334 333 334 335 336 337 335 334 335 334 334 333 332 331 330 329 328 329 329 329 329 329 328 327 328 327 326 326 332 331 329 328 326 326 325 325 326 328 326 326 325 325 324 324 324 324 324 324
335 333 336 334 335 332 333 334 333 333 333 334 333 332 331 332 332 333 334 335 335 334 335 335 334 333 332 332 331 329 328 330 329 328 328 328 328 329 328 328 326 327 327 327 327 329 327 324 326 326 325 328 328 328 326 325 325 324 324 324 324 324
334 334 333 334 333 331 332 332 333 339 334 336 337 335 333 334 335 334 336 337 337 336 336 336 335 334 333 334 334 332 330 329 329 328 327 327 328 328 327 328 327 327 325 326 327 328 325 325 325 326 326 326 327 329 326 325 325 325 325 324 324 324
333 333 332 332 331 332 335 336 334 331 334 336 336 335 333 331 332 334 336 338 338 338 339 338 336 335 334 333 333 333 330 329 330 329 328 327 326 327 326 328 328 327 327 325 327 328 327 325 325 326 326 325 326 327 327 326 326 325 326 324 324 324
334 334 332 331 331 332 334 334 332 331 334 332 333 335 333 332 331 331 332 334 336 338 339 337 336 335 334 335 333 332 329 329 330 328 327 326 326 326 326 325 327 325 327 326 326 326 326 325 326 326 325 326 326 326 326 327 328 329 325 324 323 324
332 332 333 332 332 330 331 331 330 329 329 329 330 330 330 330 330 329 330 331 332 334 335 334 334 334 336 336 336 335 334 332 331 330 329 327 325 326 326 325 326 327 327 328 327 326 326 325 325 325 325 325 326 326 326 327 328 329 325 324 324 325
332 332 332 330 328 327 328 328 326 326 326 326 327 329 329 329 330 330 330 330 330 331 330 333 334 336 337 337 336 336 335 333 332 332 331 330 328 327 327 326 326 326 326 327 328 328 325 323 321 320 322 323 324 326 328 327 327 327 327 325 324 325
334 334 333 330 328 326 325 325 325 324 323 323 325 327 328 328 329 330 331 330 330 330 330 331 333 332 331 335 336 334 334 333 332 334 333 332 331 328 327 327 326 327 326 325 325 324 321 323 321 321 321 322 323 324 328 329 326 327 328 327 326 325
330 329 330 330 329 328 326 326 326 325 324 324 325 325 325 326 329 330 329 328 329 328 328 329 331 330 331 330 330 331 333 333 331 331 332 333 332 332 329 327 325 325 324 325 324 324 322 323 318 318 317 317 318 320 324 326 326 327 327 327 327 327
328 329 329 331 329 326 328 330 327 326 326 326 327 326 326 328 330 330 328 327 328 327 329 330 329 330 329 329 329 328 330 330 330 331 332 332 332 331 328 327 325 326 326 323 322 324 324 324 320 316 317 316 315 314 316 319 323 326 328 328 327 326
327 327 328 330 330 329 330 328 329 328 328 326 326 330 327 328 326 326 328 326 327 328 328 327 328 329 329 327 327 327 328 328 330 331 330 329 330 330 329 329 328 327 326 323 322 322 325 324 324 318 315 317 316 313 312 315 317 322 327 327 327 327
326 326 327 328 328 329 329 328 327 327 327 326 326 327 328 328 328 329 329 327 328 328 329 328 328 328 330 329 328 328 327 330 332 331 331 329 328 328 330 329 328 326 325 325 324 323 322 325 324 325 320 313 312 312 314 315 315 318 323 324 326 328
325 326 326 326 327 328 327 326 325 324 323 323 322 323 325 325 326 327 326 327 328 328 328 327 327 327 328 331 329 329 329 332 333 332 331 329 328 328 329 329 328 327 326 327 325 324 323 325 326 324 324 324 322 316 313 314 314 311 315 324 325 327
324 324 326 325 325 326 325 325 325 325 325 324 322 322 325 326 326 328 327 327 327 328 329 329 328 327 327 328 328 328 328 330 333 333 332 330 329 328 328 329 329 328 328 328 326 322 323 324 323 325 326 325 324 324 322 317 313 314 313 313 321 324
323 324 323 324 325 325 322 322 323 323 324 324 324 324 325 325 326 327 325 325 326 327 328 329 328 328 327 328 328 327 326 327 329 331 331 330 329 329 329 329 330 330 330 328 327 325 324 325 322 323 325 324 324 324 324 322 321 318 315 313 314 318
321 321 322 324 324 323 324 322 322 322 321 323 325 324 325 324 323 324 322 323 324 325 325 326 327 326 326 327 328 327 328 327 327 329 331 329 329 330 330 329 329 329 329 329 328 327 326 325 325 324 323 323 324 323 323 323 323 321 317 314 315 316
317 319 320 320 321 321 322 323 321 320 320 320 321 322 321 320 321 322 321 321 321 322 322 323 324 324 324 325 325 326 327 328 328 328 330 330 330 330 329 329 329 329 329 328 329 328 326 326 326 326 325 324 321 322 322 321 321 320 320 320 316 316
316 317 318 317 317 317 318 320 319 318 317 316 316 316 315 316 317 318 318 318 318 318 318 319 320 321 320 321 322 324 325 327 328 329 329 329 329 329 330 330 330 329 329 328 328 328 327 326 326 325 325 324 323 322 320 319 320 321 320 318 317 317
314 315 315 315 315 314 315 316 317 316 315 314 313 313 312 312 313 314 315 315 315 316 315 316 316 316 316 318 318 319 321 323 323 323 324 326 328 329 329 329 329 329 329 329 329 328 327 327 327 326 325 325 325 324 323 322 322 322 321 320 319 318
312 313 313 312 311 311 311 312 313 313 313 313 311 310 310 309 310 311 312 312 312 312 312 312 313 313 313 314 315 316 318 317 315 316 316 317 319 323 327 328 328 328 328 327 327 327 326 326 327 326 325 325 325 325 324 325 324 323 323 323 321 318
310 311 311 310 310 310 310 310 311 311 311 311 310 310 310 309 309 309 309 309 309 310 310 309 310 310 310 311 312 315 316 311 310 311 312 311 313 315 316 321 325 326 326 327 328 327 327 327 327 327 327 325 325 325 325 325 325 325 323 322 320 319
309 310 310 309 309 309 309 309 309 309 310 310 309 308 308 310 309 308 307 307 307 308 307 307 307 308 309 309 311 312 309 308 307 308 308 307 309 308 310 314 318 321 325 326 326 326 326 327 326 327 327 326 326 325 325 326 326 325 326 324 322 322
309 309 309 309 308 308 308 309 308 308 308 309 310 307 307 308 307 307 305 305 305 305 305 306 306 308 308 308 309 309 305 305 306 305 305 304 305 304 306 309 310 312 315 318 319 323 326 327 326 326 326 327 326 325 326 326 326 326 326 326 325 324
308 308 308 308 307 307 307 307 307 307 307 306 306 305 305 306 305 305 305 304 303 304 304 305 305 307 305 306 308 308 304 303 303 303 303 303 303 302 303 304 305 307 308 309 311 314 319 323 325 327 326 326 326 326 326 327 327 326 326 326 326 325

ECMWFFLT2_sfc_thetae_084.txt.gz
Theta_e
339 339 338 338 339 340 344 345 345 345 346 347 347 347 347 348 347 346 346 345 341 337 337 337 339 342 346 343 345 345 344 344 344 344 344 343 343 343 342 341 341 341 341 340 338 340 342 342 342 341 341 341 340 331 330 330 330 332 332 335 336 329
340 339 339 342 342 341 342 344 338 339 341 344 346 347 345 345 346 343 345 339 338 340 335 335 336 344 340 345 344 345 344 344 344 344 344 344 343 342 343 342 342 342 340 337 335 328 330 339 342 341 341 338 330 329 329 329 330 331 333 332 332 333
340 340 342 344 342 341 341 339 337 338 341 346 345 345 344 343 341 339 336 335 337 334 334 334 333 340 340 345 344 345 345 344 344 344 344 344 343 343 343 342 342 341 337 334 327 327 327 326 332 342 339 331 328 328 328 329 329 331 330 330 329 336
341 341 340 341 343 342 341 337 337 338 340 341 341 341 342 341 340 338 334 333 334 336 332 329 345 346 344 337 336 343 345 344 344 345 344 340 343 343 342 340 340 339 333 330 328 328 327 328 327 328 328 328 328 327 328 328 330 329 329 331 328 338
342 342 341 341 343 341 340 337 337 338 338 338 339 336 334 335 336 334 333 333 333 335 332 331 332 334 335 334 332 332 334 332 333 334 341 332 332 333 335 330 331 332 328 331 329 327 328 329 330 329 329 328 328 328 328 330 329 329 329 331 332 336
341 341 341 341 342 343 340 337 338 338 337 335 335 333 332 333 333 333 332 334 336 333 333 331 329 331 333 331 333 334 332 331 331 335 338 335 332 335 333 333 333 333 332 330 329 328 330 331 329 329 329 328 328 329 328 328 328 329 329 330 333 337
340 341 341 342 343 341 338 335 337 337 334 333 331 330 329 330 332 332 333 338 332 332 332 330 329 330 332 332 333 330 331 331 331 332 335 334 333 333 333 333 332 331 329 330 331 330 328 328 329 329 329 329 328 328 328 328 328 329 329 329 332 337
339 340 340 341 341 339 336 335 336 341 333 338 333 329 329 330 333 333 334 334 337 333 334 331 329 330 333 332 333 333 329 329 327 328 329 333 333 332 334 333 332 332 332 331 330 331 330 330 329 330 330 330 328 328 328 328 328 328 328 329 330 336
337 339 339 339 338 337 336 336 336 334 332 341 329 330 331 333 332 334 336 335 337 332 334 333 330 331 332 332 331 332 331 331 330 329 328 329 330 329 330 331 332 332 332 331 331 331 332 332 331 331 331 330 329 328 328 328 328 328 328 328 329 333
336 336 337 338 335 335 334 334 334 333 331 338 330 332 335 332 332 333 332 335 337 335 333 333 331 330 332 332 331 330 331 330 331 331 330 329 329 329 329 330 330 330 330 330 331 331 333 331 331 331 330 330 330 328 328 327 327 327 328 328 329 331
337 341 337 335 334 334 334 332 334 331 332 334 333 336 336 335 334 334 334 334 335 337 336 334 333 332 332 331 330 329 330 329 330 331 330 330 329 330 329 330 330 330 330 330 331 331 331 331 331 331 331 331 330 328 328 328 328 327 327 328 329 330
338 340 336 335 337 335 333 334 334 330 332 333 336 335 336 336 337 337 336 335 336 336 337 335 334 334 333 332 332 331 330 329 331 331 331 331 330 331 331 330 331 332 332 331 332 332 331 330 330 329 329 329 328 327 327 327 327 327 327 328 328 329
338 338 334 335 335 334 333 335 335 333 332 336 336 335 334 335 336 337 337 337 336 336 337 337 336 335 336 335 333 331 331 331 330 331 331 331 331 330 331 330 329 331 330 331 330 330 331 329 328 328 328 329 328 328 327 327 327 327 327 327 327 328
337 335 334 333 334 333 333 335 335 333 337 336 334 334 335 335 336 337 337 338 338 338 338 337 337 336 335 335 334 332 330 331 330 330 330 331 330 330 330 330 329 329 332 331 330 330 329 329 328 328 329 330 330 328 327 327 327 326 327 327 327 328
337 334 338 336 335 334 334 336 336 335 337 337 336 335 334 335 336 337 338 338 338 337 338 337 337 336 335 335 334 334 332 332 330 331 331 330 331 330 329 329 329 329 328 328 328 330 331 329 328 328 329 331 330 329 328 327 327 327 326 327 327 327
336 334 334 337 336 336 336 337 337 340 337 339 339 338 336 336 335 336 337 338 339 338 338 338 337 337 335 334 334 334 334 333 332 331 330 329 331 330 329 329 329 329 328 328 328 329 328 328 328 328 328 329 330 330 328 327 326 326 326 327 326 327
336 335 335 335 336 337 338 337 335 334 335 335 337 337 336 334 333 333 334 336 338 339 340 340 339 338 337 335 333 333 334 334 334 332 331 329 329 329 329 329 329 330 329 328 328 328 328 328 327 327 327 326 328 329 329 329 327 327 326 325 326 326
335 334 333 333 334 334 333 332 331 331 334 330 332 332 332 332 331 330 330 331 332 335 339 339 339 339 336 335 334 333 333 334 333 332 332 330 330 328 328 328 328 328 329 328 328 328 328 328 328 328 327 327 327 328 329 329 329 330 327 326 325 325
333 331 330 329 332 330 329 328 326 328 328 328 328 328 329 329 329 328 329 330 331 332 334 336 337 337 337 337 337 334 333 334 334 332 332 331 330 329 329 329 328 328 329 329 329 328 329 328 327 327 326 326 327 327 328 329 330 330 328 328 328 326
330 329 328 327 326 325 325 326 326 326 326 326 326 330 329 328 328 329 331 331 331 330 331 333 333 334 336 337 337 336 335 335 334 333 332 331 331 330 330 329 328 327 328 328 329 329 327 327 325 323 325 325 326 327 327 328 329 328 328 327 328 328
329 329 329 328 327 326 324 325 324 322 322 322 327 329 328 327 328 329 330 330 331 330 329 330 333 331 330 333 335 334 335 335 334 334 333 333 333 332 332 331 330 329 329 328 328 326 325 325 324 324 322 322 323 326 328 329 327 328 328 328 327 328
327 328 328 328 329 330 329 326 324 324 324 323 326 326 327 328 329 329 329 329 330 330 330 330 332 332 332 332 332 333 333 334 334 333 333 334 334 334 333 331 330 329 328 329 328 326 325 325 322 321 320 320 321 323 325 328 328 328 328 329 328 326
328 327 328 331 327 326 328 330 328 324 325 326 326 327 327 328 329 328 328 329 330 330 329 330 331 332 332 332 331 330 330 331 332 333 332 332 333 332 332 331 330 328 328 327 326 326 326 327 324 320 321 320 318 317 319 322 325 327 328 329 329 327
326 327 327 329 330 327 330 327 327 327 328 327 328 329 327 328 328 328 327 328 330 330 330 329 329 329 330 328 329 329 330 331 331 332 332 331 331 330 331 330 329 329 328 325 326 326 328 326 326 324 318 318 317 316 315 317 318 322 327 328 328 327
325 325 325 327 327 327 327 324 325 325 325 323 324 325 325 325 326 327 327 327 328 329 329 329 330 330 330 329 328 328 328 330 332 333 332 331 330 330 330 330 330 328 327 325 324 326 325 327 326 327 324 318 316 314 315 318 317 321 324 325 327 328
323 324 324 325 326 325 324 323 322 321 320 320 320 321 321 321 323 323 324 326 327 328 328 327 327 328 328 330 329 329 328 329 330 332 333 332 331 330 329 330 330 329 328 328 326 325 324 327 327 327 326 326 324 318 317 319 318 314 321 325 326 327
323 323 324 324 324 324 321 321 321 321 320 319 319 320 322 323 322 323 324 324 325 326 326 325 324 325 326 327 327 329 329 329 330 331 333 332 330 330 330 330 331 329 328 328 327 324 324 325 326 326 326 326 325 325 324 319 315 317 314 319 322 324
320 321 321 323 323 323 320 319 319 320 322 320 320 319 321 321 322 324 321 321 322 323 323 323 321 320 322 323 324 325 327 328 329 330 331 331 330 331 330 330 331 331 330 330 328 326 325 326 323 324 326 324 325 326 326 324 322 318 316 314 317 322
318 318 318 320 321 320 322 320 319 319 317 319 320 319 320 320 319 320 317 318 319 319 320 320 318 318 318 319 321 322 323 323 323 325 328 328 329 330 330 329 329 330 329 329 329 329 327 325 326 325 325 324 324 324 325 325 324 323 317 315 315 317
316 317 317 317 318 318 317 317 315 315 314 314 315 315 315 314 314 315 314 314 315 315 316 316 316 314 315 316 318 319 317 317 317 319 320 320 321 323 326 327 329 329 330 328 329 329 327 327 327 327 326 325 323 323 322 322 322 321 320 319 315 317
314 314 315 315 315 315 315 315 314 313 313 312 312 311 310 309 310 310 309 310 311 312 312 312 312 312 312 314 317 315 312 312 314 314 313 314 315 316 319 322 325 328 329 328 328 328 328 328 327 326 326 325 324 323 322 320 321 322 320 318 317 318
312 312 312 313 312 312 312 312 312 312 311 310 310 309 307 306 307 306 307 306 308 308 308 309 309 308 310 312 312 310 310 309 309 310 309 310 310 309 313 317 320 322 324 327 328 328 327 326 327 327 327 327 326 326 325 323 323 323 321 320 319 318
310 310 310 311 310 310 310 309 309 308 309 310 308 307 306 305 305 305 305 304 304 304 305 305 306 306 308 309 307 307 306 305 306 307 306 306 306 306 308 312 313 314 316 318 319 320 324 326 327 326 326 327 327 326 325 326 326 324 324 323 321 318
309 310 310 309 309 308 308 307 307 307 307 307 307 306 305 304 304 304 304 303 303 303 303 304 305 305 307 309 305 305 305 304 303 303 304 303 303 304 305 307 309 309 310 312 312 314 317 320 324 327 327 326 326 326 326 327 326 325 324 322 320 319
309 309 308 308 307 306 306 306 306 306 307 307 306 305 305 305 303 302 302 302 302 303 303 303 304 305 306 308 306 303 303 302 302 302 302 301 301 301 302 304 305 306 306 307 307 310 312 314 316 319 322 325 326 326 326 327 327 326 325 324 322 321
307 306 307 307 305 305 305 306 305 305 305 307 307 305 304 304 303 303 302 302 302 302 302 303 304 304 304 306 306 303 302 301 301 300 300 300 300 299 300 301 301 302 303 305 305 306 307 309 311 313 316 320 322 323 326 327 327 327 326 325 324 324
306 305 305 306 305 305 305 304 304 304 304 304 303 303 302 302 302 303 302 302 301 301 302 302 302 303 303 305 305 302 300 299 299 299 299 299 299 298 298 299 299 299 300 301 302 302 303 305 306 308 310 313 316 319 323 325 326 326 326 326 325 325

ECMWFFLT2_sfc_thetae_087.txt.gz
Theta_e
346 345 346 347 346 347 346 346 347 346 346 347 348 347 347 347 347 347 348 344 345 347 347 347 347 347 345 346 346 345 344 344 344 344 344 343 342 342 342 342 341 339 338 339 342 343 342 342 342 341 341 341 341 341 340 340 339 338 338 338 338 337
344 345 346 345 345 346 346 347 347 347 347 347 347 347 348 348 347 348 344 345 346 345 346 346 346 345 345 345 345 344 345 344 344 344 344 344 343 342 342 341 339 337 337 336 338 344 344 342 341 341 341 340 341 340 340 340 339 338 337 338 338 339
344 345 345 344 344 346 346 346 346 347 347 346 348 347 347 345 346 346 345 344 345 347 346 347 347 345 346 345 346 345 344 345 344 344 344 344 344 343 341 340 338 337 334 335 340 340 343 343 344 342 341 341 340 339 340 340 339 339 337 337 337 338
343 345 343 343 344 345 344 346 345 346 346 347 346 345 344 345 344 345 344 344 346 346 348 348 347 346 345 346 345 345 345 345 344 344 343 342 342 342 340 339 337 335 336 340 340 337 338 341 343 345 343 341 340 339 339 340 338 339 339 335 335 336
344 344 342 344 343 343 344 345 344 345 346 346 345 345 345 344 344 344 344 344 345 345 346 347 347 347 346 346 346 345 345 345 345 344 342 342 342 341 342 341 341 338 339 338 338 338 338 339 341 341 341 340 340 340 340 340 339 338 339 338 338 336
344 343 344 343 344 344 344 343 343 345 343 343 344 344 345 344 346 346 346 345 346 346 346 346 347 346 346 345 345 344 344 345 344 343 342 343 341 342 342 342 342 340 340 340 339 339 339 340 340 339 340 340 340 340 339 339 339 339 339 339 339 336
343 342 343 344 344 344 343 343 344 345 343 343 345 343 344 345 345 345 346 346 346 345 344 344 345 345 345 345 344 344 343 344 344 343 343 341 342 343 343 343 343 342 343 340 340 340 340 339 341 339 340 340 340 340 340 339 338 338 339 338 339 336
342 342 343 343 344 343 343 343 344 345 344 344 345 344 345 344 344 345 345 346 345 344 342 341 343 344 343 344 344 344 344 343 343 343 343 343 341 341 342 343 344 340 339 340 340 342 341 340 341 342 341 341 341 340 340 339 339 339 339 339 338 337
342 342 343 344 342 342 343 344 345 345 344 345 344 344 343 343 343 344 343 344 344 344 343 342 342 342 342 343 343 343 344 344 344 343 344 343 342 341 340 340 341 340 339 339 339 341 341 340 341 342 342 341 340 341 341 340 339 337 338 338 338 337
342 341 342 342 341 341 342 343 343 344 344 346 344 343 343 343 343 343 343 343 343 343 342 342 342 342 342 343 343 343 343 343 344 344 344 342 342 341 340 339 340 340 337 338 338 340 341 341 341 341 341 340 340 341 341 339 339 339 338 338 339 338
343 343 343 341 341 341 342 343 343 344 344 344 344 344 344 342 342 342 342 341 341 341 342 342 342 342 343 343 344 344 344 343 344 345 343 342 344 342 342 341 342 340 339 338 338 340 339 340 341 342 340 340 340 341 340 340 339 338 337 337 338 338
344 344 343 342 342 342 342 343 343 344 344 344 344 343 342 342 343 342 341 341 341 342 342 342 341 341 342 343 343 343 344 343 344 343 342 343 343 343 343 343 343 343 344 343 341 340 341 340 340 340 339 338 339 340 338 339 339 338 338 338 337 338
343 343 343 341 341 341 341 342 343 343 343 342 342 342 342 342 342 342 342 342 342 342 342 342 343 343 343 343 342 343 342 342 343 343 342 341 341 342 342 342 344 344 343 343 343 341 341 340 339 340 340 339 340 339 339 339 338 336 335 336 336 336
342 341 341 341 342 341 341 341 342 343 344 342 342 342 342 342 341 342 343 343 343 343 343 343 343 344 343 344 343 342 340 341 342 341 342 341 341 341 341 341 340 341 341 341 340 341 340 339 338 339 340 341 341 341 340 339 338 336 335 335 337 338
342 341 341 341 340 340 341 341 341 342 342 342 341 341 342 342 343 343 343 343 343 343 344 344 344 343 343 343 341 340 340 341 340 341 342 342 340 341 341 339 339 338 341 341 339 340 339 340 339 340 342 343 342 342 341 340 340 339 336 337 338 337
339 339 340 341 342 342 342 343 343 343 343 343 343 344 344 342 342 343 343 343 343 343 343 344 345 344 344 342 342 341 341 342 341 341 341 341 341 340 340 339 340 339 338 339 339 340 341 340 341 341 342 342 342 342 341 340 339 339 339 339 337 337
339 339 340 342 343 342 343 343 344 344 343 343 343 342 342 342 341 341 341 342 342 343 344 344 345 344 344 341 343 341 342 342 342 341 341 341 340 339 339 338 339 339 339 337 338 338 340 340 339 339 340 340 340 341 341 340 339 339 340 338 337 335
339 341 342 342 341 342 342 342 341 340 340 339 339 340 340 340 339 340 340 339 340 342 342 342 343 342 343 342 342 341 341 341 341 341 341 341 340 340 339 338 337 338 338 338 337 338 339 340 339 338 339 340 340 340 340 341 341 340 339 337 337 337
337 339 340 340 341 342 342 341 341 340 340 340 340 339 340 339 339 339 339 338 339 340 340 340 341 341 342 342 343 342 341 341 341 341 339 340 339 339 339 337 335 336 338 338 336 337 338 337 337 338 337 338 340 339 340 341 340 339 338 338 337 337
338 339 339 339 340 340 340 340 339 341 339 338 337 337 337 337 338 338 338 339 338 339 339 340 340 340 341 341 342 342 341 341 342 340 339 337 338 338 337 336 336 335 334 336 337 336 336 335 335 335 334 336 337 337 336 337 338 337 337 338 338 338
339 341 341 340 340 341 341 340 338 336 334 335 335 336 335 336 336 337 337 337 337 338 338 338 339 339 339 340 341 341 340 340 340 339 338 338 339 339 338 337 336 336 334 333 334 335 335 334 331 331 333 333 334 338 337 336 335 336 335 336 338 337
339 340 339 339 339 339 339 337 336 334 334 334 333 333 332 334 335 336 337 336 337 337 337 338 338 338 338 338 338 337 337 337 339 339 338 338 337 337 337 336 335 333 335 334 333 334 335 332 329 326 324 326 329 333 336 337 334 334 334 335 336 337
337 338 338 339 339 337 337 338 337 335 333 330 333 334 333 334 335 334 334 335 335 336 336 336 337 337 336 336 336 335 335 336 336 337 337 337 336 336 337 335 335 332 331 332 332 335 335 333 326 328 328 323 323 323 328 331 334 334 335 336 336 335
335 337 337 337 337 338 337 337 336 335 334 333 331 331 332 332 332 332 331 333 333 334 334 335 335 336 336 336 336 335 336 336 336 337 337 336 335 334 335 334 333 333 332 328 331 331 334 334 331 328 321 322 322 322 319 323 326 331 334 334 334 334
330 332 334 336 336 337 336 335 333 332 331 330 330 330 329 327 328 329 329 329 329 330 329 329 331 332 333 334 335 335 335 335 336 337 337 337 335 334 335 334 333 332 332 330 328 330 332 333 332 334 328 323 321 319 319 322 324 325 332 331 333 332
329 330 331 332 334 335 335 333 331 330 328 328 325 325 324 323 324 324 325 328 328 325 324 325 326 328 329 330 331 332 333 333 334 335 335 336 336 336 335 335 334 332 331 332 328 329 329 332 332 332 332 331 327 320 320 323 322 318 330 332 331 330
328 328 329 330 331 332 332 331 330 329 328 327 324 323 325 326 324 325 325 325 325 325 322 322 323 325 326 326 326 327 327 327 328 329 332 332 332 333 334 334 334 334 332 332 331 326 326 328 332 331 331 331 330 330 329 322 318 321 317 326 329 328
326 326 326 327 328 330 329 328 327 326 325 324 323 322 322 323 324 323 321 321 322 321 320 319 320 321 322 322 322 321 322 321 321 323 324 324 325 326 328 331 334 334 334 332 331 328 327 329 326 326 331 329 329 330 328 328 328 322 318 315 319 327
323 323 324 325 325 325 324 324 324 323 322 322 321 319 319 320 319 319 318 318 318 319 318 317 317 318 319 317 316 316 317 317 317 318 319 318 319 320 322 323 324 326 329 331 331 331 329 328 328 327 328 328 329 329 330 330 330 329 321 317 319 321
320 320 321 322 322 322 322 322 320 320 319 318 318 317 317 316 316 316 315 315 316 315 315 316 317 316 316 314 314 313 313 313 314 314 315 314 313 315 318 319 320 321 323 324 327 328 328 329 330 330 330 328 326 326 327 326 328 328 327 327 318 319
319 320 320 320 320 319 319 319 318 317 317 316 315 315 314 314 314 314 314 314 314 314 314 314 315 315 313 314 314 313 311 311 311 311 310 311 310 311 314 316 318 319 320 320 320 320 322 325 327 328 329 329 327 327 325 322 323 324 323 321 321 321
317 318 318 318 318 317 317 316 317 316 314 314 313 312 311 311 311 311 312 311 312 313 313 313 313 313 311 311 312 311 311 310 309 309 308 309 309 309 310 313 315 316 317 318 316 316 318 320 320 322 326 328 328 330 327 325 324 326 324 322 322 320
315 316 316 316 316 316 315 315 314 314 313 313 312 311 310 309 310 310 310 310 310 310 310 310 310 310 310 309 310 309 308 307 307 308 308 307 308 308 308 311 312 312 312 313 313 313 314 314 315 317 318 321 324 326 327 329 328 327 327 328 324 320
314 315 315 314 314 313 313 313 313 313 312 311 310 310 309 308 308 308 309 308 308 308 308 308 308 309 309 308 307 307 307 307 307 307 307 307 307 307 307 308 309 309 310 310 310 310 311 311 313 314 314 315 316 318 323 327 327 327 325 324 322 320
313 313 313 312 312 311 311 311 312 312 311 311 309 309 308 308 308 307 307 307 307 307 307 307 307 308 307 307 307 306 306 306 305 306 306 306 306 306 306 307 307 306 307 306 306 307 307 308 308 308 309 310 311 314 317 320 323 326 327 325 324 323
312 311 311 311 311 311 310 311 311 310 310 310 309 309 308 308 308 308 307 307 306 307 307 307 307 307 306 306 306 305 305 305 305 305 305 304 304 304 305 305 304 304 304 304 304 305 305 306 306 306 307 308 309 310 313 313 314 316 319 322 323 324
311 311 311 311 311 311 310 310 310 310 310 309 308 308 307 307 307 307 307 306 306 306 307 307 306 307 306 306 305 305 304 304 304 304 304 304 304 304 305 303 303 303 302 303 304 304 304 304 305 306 306 307 307 308 310 311 312 313 314 316 319 322

ECMWFFLT2_sfc_thetae_090.txt.gz
Theta_e
348 347 348 348 348 347 348 347 348 347 347 347 348 348 348 347 349 348 347 346 347 346 348 346 350 346 346 347 346 344 344 344 344 344 343 342 341 340 340 339 339 339 342 344 344 344 343 342 342 342 342 341 342 342 344 343 344 342 341 341 343 340
346 345 346 346 346 347 348 346 347 349 349 349 348 348 350 348 348 349 345 348 347 345 344 346 345 341 344 349 348 344 344 343 343 344 344 343 342 341 339 338 338 338 339 343 344 347 345 343 342 342 341 342 342 342 343 345 344 341 341 342 342 339
345 345 345 344 345 345 344 346 345 346 346 345 348 348 346 346 347 346 345 344 345 348 349 348 349 346 346 343 348 344 344 345 344 343 344 344 343 340 339 338 336 338 338 339 347 343 345 344 345 342 342 344 343 344 344 344 344 343 341 341 341 339
344 345 343 343 344 344 342 345 345 346 347 347 345 345 345 346 346 347 345 346 347 348 349 350 348 346 347 348 347 347 345 344 343 343 341 345 341 341 339 337 337 335 339 343 343 341 339 342 347 347 347 342 341 342 343 344 341 342 342 339 339 339
344 345 341 342 343 342 344 343 343 344 346 345 345 345 345 346 346 346 346 348 348 348 349 350 350 350 350 349 349 349 347 347 347 347 342 346 344 343 345 337 334 337 340 342 341 341 341 342 344 343 344 343 343 344 343 343 341 340 342 343 343 340
345 343 344 343 344 342 343 343 344 344 345 345 345 345 345 346 346 347 347 347 348 348 347 350 350 350 351 349 348 347 348 348 348 346 343 346 344 345 345 340 336 334 338 342 342 342 342 342 341 342 342 343 343 344 343 342 342 343 344 343 344 338
343 342 344 344 345 343 342 343 344 345 343 343 345 345 344 345 347 347 347 348 347 346 345 346 347 348 348 349 349 347 348 348 348 348 347 343 343 344 343 343 339 337 337 339 341 341 340 342 343 340 343 342 343 343 343 342 341 341 342 343 343 338
342 343 344 344 344 342 343 344 345 344 344 344 345 344 344 344 346 346 347 347 347 346 345 344 346 345 346 347 346 348 349 347 346 347 348 345 343 343 342 342 343 339 336 337 338 340 340 340 341 343 341 343 343 343 343 340 342 343 342 343 342 340
344 343 344 345 343 342 343 344 344 343 343 345 345 345 345 345 345 344 347 347 348 348 345 346 345 346 347 346 347 348 347 346 348 346 346 345 344 342 343 341 342 340 339 338 339 340 339 340 341 342 341 341 342 342 342 341 342 340 342 343 343 341
343 343 343 344 343 343 344 344 345 345 346 346 345 346 347 347 346 347 346 347 347 346 346 346 345 346 346 347 346 348 347 346 347 346 345 345 345 343 341 341 341 340 338 338 336 339 339 340 342 342 341 340 338 340 341 339 340 340 343 344 343 343
345 345 343 343 344 344 346 346 347 347 347 347 347 348 349 349 348 348 348 347 347 347 348 346 346 346 346 346 347 346 346 347 345 345 347 345 347 345 344 343 341 339 340 339 339 339 337 339 341 341 342 340 339 339 338 342 341 341 342 343 343 344
347 346 345 344 346 347 348 348 349 349 350 349 350 349 347 349 348 347 347 347 347 348 347 348 348 348 349 347 347 346 345 345 345 345 346 345 345 346 346 346 345 344 343 342 339 339 340 338 338 338 339 338 339 341 339 341 342 342 343 344 344 343
347 347 347 347 347 349 350 349 348 349 349 348 349 350 348 348 347 347 347 347 347 347 348 350 349 349 346 348 348 347 345 346 348 346 347 345 346 347 346 345 347 349 345 344 340 340 340 340 339 339 340 340 341 340 342 342 343 343 342 343 343 341
345 346 346 348 348 347 349 349 348 349 350 349 348 349 347 347 347 347 348 348 347 348 348 348 349 349 346 349 349 347 344 345 345 346 347 348 345 346 344 344 344 345 344 344 343 343 341 341 340 341 342 342 342 342 343 343 342 343 343 343 343 343
346 347 345 345 346 346 348 348 347 348 348 348 347 348 348 349 348 349 349 348 348 348 347 347 348 348 347 347 347 346 346 345 347 347 346 347 345 347 346 344 344 343 346 345 343 343 342 342 342 342 343 345 344 343 345 345 345 345 344 344 344 343
343 345 347 347 348 348 348 347 347 345 347 348 347 347 348 348 347 346 348 349 348 348 347 348 348 347 346 347 347 346 346 348 347 347 346 346 347 346 346 345 345 345 341 342 343 343 343 342 342 342 344 344 345 345 344 344 343 343 343 344 343 344
343 347 348 348 348 348 347 347 347 347 346 346 346 346 345 346 346 347 348 347 348 348 349 349 349 348 347 348 347 347 347 347 349 348 347 347 346 345 345 342 343 344 343 341 341 340 342 342 342 342 344 345 346 345 345 344 344 344 345 343 343 342
346 348 347 347 347 346 347 346 346 345 345 343 344 345 344 344 344 344 345 344 345 346 345 346 347 348 349 348 347 347 348 349 348 348 347 347 347 347 346 344 341 343 344 343 341 341 341 342 342 342 341 342 344 344 345 345 345 343 343 343 343 343
345 346 346 347 348 347 347 347 348 345 346 345 345 343 344 343 343 344 344 344 344 344 344 345 345 346 347 346 347 348 348 348 348 346 346 345 345 346 346 345 342 343 342 343 341 343 342 342 341 341 340 342 344 345 345 344 345 344 342 344 343 342
344 346 347 348 348 347 346 345 344 345 342 342 342 341 342 341 343 342 343 343 343 344 344 345 344 345 346 346 347 346 347 347 347 345 344 343 342 343 344 343 342 340 341 342 343 343 343 341 340 340 339 340 343 343 343 343 343 342 342 343 343 343
346 346 346 344 343 342 342 341 342 340 337 339 339 339 340 342 341 341 342 342 341 342 343 343 343 344 345 344 345 346 345 345 345 344 342 342 344 344 344 345 343 343 341 340 340 342 343 341 336 335 338 338 338 341 340 340 341 340 340 341 341 341
345 346 346 345 344 344 343 342 340 338 338 338 338 337 337 338 339 339 340 340 341 341 342 341 342 341 342 342 342 340 341 341 341 343 344 344 344 343 343 343 343 340 342 339 339 341 341 337 334 331 327 329 332 336 340 341 339 339 339 338 340 340
344 345 346 346 344 341 342 342 340 338 338 336 338 338 337 337 337 337 337 338 338 339 339 338 339 340 340 340 340 339 339 340 341 342 342 342 343 342 341 341 341 338 336 338 338 340 340 339 332 333 332 329 325 324 331 334 340 339 340 341 339 338
344 344 343 341 341 342 342 341 341 339 338 337 334 335 335 336 335 335 333 335 335 336 336 335 335 336 337 338 338 338 339 340 341 342 341 340 341 340 341 340 341 340 338 333 335 336 340 340 336 332 324 325 325 325 321 324 329 332 335 336 337 336
339 340 339 340 341 341 339 338 337 337 336 334 334 333 333 331 332 332 332 332 331 332 332 331 333 333 333 333 333 334 335 336 336 337 338 337 337 337 338 338 338 338 337 334 330 334 337 339 338 338 331 326 325 322 321 324 326 327 333 332 333 334
337 337 338 339 340 340 338 336 334 333 331 330 329 330 328 328 328 329 327 329 328 326 328 328 327 327 327 328 328 328 330 329 328 329 330 331 333 334 335 335 335 335 334 336 335 330 331 337 339 337 336 332 329 324 322 326 325 319 330 332 332 332
335 335 337 338 338 338 337 336 334 333 332 330 328 327 328 328 327 326 326 325 325 325 324 324 324 323 322 323 324 325 326 326 326 326 326 326 326 327 327 329 331 334 333 333 334 329 330 330 333 336 337 337 335 333 332 326 321 323 321 327 330 330
332 333 334 335 335 336 334 333 332 331 330 328 328 325 325 325 325 325 323 323 324 324 324 323 322 321 321 321 322 322 322 322 322 323 323 323 323 324 325 326 327 329 330 330 329 329 330 330 328 328 333 333 334 333 334 334 333 327 324 320 323 329
330 331 330 331 332 333 333 332 331 329 326 326 326 325 325 325 324 324 323 323 323 323 323 323 323 323 324 322 321 321 321 321 321 320 320 321 321 322 323 324 324 325 325 325 324 326 326 326 328 328 329 330 330 329 330 332 332 331 327 324 321 322
325 326 327 329 330 330 330 329 329 328 326 324 324 324 324 323 323 323 321 321 321 320 320 320 320 320 321 321 320 319 318 319 319 319 318 320 320 320 321 321 323 324 326 325 324 323 322 323 323 324 325 326 327 328 328 327 327 327 326 327 322 321
326 326 327 327 327 326 327 326 325 325 324 322 323 322 321 321 320 321 320 320 319 318 318 317 318 317 318 318 318 318 317 317 318 318 317 317 318 317 318 320 322 323 324 322 322 322 322 323 320 320 321 320 320 322 323 324 324 325 324 322 321 321
324 324 324 324 325 324 323 323 323 322 321 321 321 320 319 318 318 318 318 317 317 317 316 315 315 314 315 316 316 315 316 316 315 316 315 316 317 316 317 319 318 318 319 319 319 318 320 317 317 318 319 318 319 320 321 322 323 324 324 323 322 321
321 323 322 323 322 322 321 321 320 320 319 319 318 318 317 316 317 316 316 316 315 313 313 313 313 313 313 314 314 314 314 313 314 315 315 315 315 315 316 316 315 315 315 314 313 314 314 313 314 313 314 317 318 319 319 321 321 320 322 322 321 320
321 322 321 321 320 319 319 319 319 319 318 317 316 316 315 314 315 315 314 314 313 313 311 312 312 312 313 313 312 313 313 313 313 314 313 313 314 314 315 314 313 312 312 312 312 312 312 312 312 312 314 313 315 316 318 319 317 317 317 316 315 315
319 319 320 318 318 318 317 317 317 317 316 316 315 314 313 314 314 313 313 313 313 312 311 312 312 312 312 312 312 312 312 312 312 312 313 313 313 314 313 313 312 312 311 311 312 311 310 311 310 310 311 311 312 314 314 314 314 316 317 317 316 316
318 318 318 317 317 317 316 316 316 315 314 314 314 314 313 312 312 313 313 311 311 311 312 311 312 311 311 311 311 310 311 311 311 311 312 311 312 312 312 311 311 311 310 311 311 311 310 311 310 310 310 310 311 311 313 312 313 313 314 315 316 317
317 318 317 317 316 315 315 314 313 313 313 313 313 312 311 312 312 312 312 311 310 310 312 312 311 311 311 310 310 310 310 309 310 310 310 310 310 311 311 311 310 310 309 311 311 311 310 310 310 310 310 311 310 311 311 312 312 312 313 314 313 312

ECMWFFLT2_sfc_thetae_093.txt.gz
Theta_e
349 349 349 348 348 348 348 348 348 349 349 348 349 349 348 349 349 349 348 349 348 351 347 351 349 347 345 346 344 343 343 343 343 342 340 339 340 339 340 340 340 341 343 345 347 346 345 345 344 342 344 343 344 342 346 340 340 339 338 338 342 334
347 347 347 347 347 346 347 348 348 349 349 350 349 350 350 349 350 349 349 346 348 344 344 344 345 346 347 348 346 344 343 343 344 343 341 339 340 340 338 339 339 340 342 345 346 347 346 344 343 343 343 344 343 344 343 340 336 338 334 340 339 338
347 346 346 345 346 346 345 344 344 346 344 345 348 349 346 346 346 345 345 343 344 346 348 347 347 345 348 349 347 345 344 344 344 344 343 343 340 341 340 337 340 340 340 342 345 346 345 344 344 344 344 344 344 345 344 341 340 339 338 336 340 340
346 347 345 345 345 346 342 344 344 344 342 345 345 345 342 343 344 345 343 346 347 349 348 350 348 346 346 346 346 345 344 344 344 344 344 344 342 341 340 339 339 340 341 342 345 343 342 343 347 344 344 344 345 341 342 342 339 341 339 338 339 341
345 346 344 343 343 340 340 341 342 343 345 343 343 343 343 344 344 344 346 349 347 348 349 349 347 347 349 348 348 348 347 347 346 345 345 348 345 341 338 331 334 337 337 338 341 340 340 338 344 344 343 342 343 342 341 341 339 336 340 343 342 340
344 344 342 341 341 340 342 341 342 343 344 343 342 342 344 344 344 348 347 347 349 350 350 348 347 346 345 348 350 349 348 349 349 346 343 345 344 344 344 338 334 332 333 339 340 341 340 338 339 341 338 343 343 343 341 340 338 341 341 341 344 342
340 340 341 340 341 340 340 341 342 343 342 342 343 344 344 345 347 347 348 348 349 349 348 347 347 351 351 348 348 349 349 351 347 347 348 345 344 344 343 344 340 338 335 335 337 339 338 338 338 338 340 341 341 342 342 341 339 339 341 340 343 343
341 340 342 341 341 339 341 342 344 341 342 341 344 344 346 347 348 347 348 350 349 348 347 346 349 350 349 350 348 349 348 347 345 347 349 348 344 343 343 343 344 342 338 335 335 337 336 336 341 341 338 338 340 340 342 340 341 341 339 340 342 343
341 341 342 342 340 340 342 343 343 344 344 345 347 347 348 349 349 348 348 348 350 350 348 349 349 348 349 350 350 350 349 347 348 347 348 347 346 345 343 344 343 341 341 339 339 340 338 338 341 342 340 340 339 340 341 340 341 339 339 342 342 344
341 342 343 344 343 341 344 344 344 346 346 347 347 348 347 347 348 350 349 349 349 349 347 347 349 349 349 350 350 350 350 348 348 348 349 348 347 346 345 343 342 341 338 340 338 339 339 340 340 341 339 340 340 338 339 338 339 340 339 340 342 348
343 345 345 344 345 346 346 344 345 346 344 346 347 349 350 351 350 350 351 349 348 348 349 350 350 349 350 349 349 350 349 349 348 349 348 347 349 348 348 345 345 342 342 340 339 339 337 339 339 339 340 340 340 339 339 342 338 337 338 338 339 345
344 345 345 345 346 346 346 345 347 347 347 348 349 349 349 350 350 349 349 349 349 349 349 352 351 350 350 348 348 348 347 348 348 348 349 346 344 347 347 347 347 347 346 343 340 340 341 339 338 337 336 336 337 338 337 338 336 336 338 338 341 339
347 347 346 345 346 347 346 342 345 345 346 343 343 347 348 349 350 349 349 349 349 350 352 351 351 349 348 349 349 349 347 347 349 349 350 348 347 347 348 347 347 348 346 345 344 342 339 340 340 339 340 339 339 338 338 338 338 339 338 339 339 349
348 348 348 348 346 342 344 347 344 345 346 344 347 349 349 351 349 349 350 350 350 350 350 350 351 351 350 350 350 348 348 347 348 347 348 350 348 347 346 345 344 344 343 343 341 341 339 339 339 341 342 341 341 342 341 340 340 340 340 341 340 342
348 348 346 346 345 342 345 344 343 347 348 349 351 349 349 349 350 350 351 351 352 350 350 351 350 350 350 349 347 347 347 347 349 350 347 348 348 347 345 346 343 342 343 342 342 340 339 338 338 338 341 343 340 340 342 341 341 340 340 340 340 341
346 346 345 344 344 344 344 343 344 347 349 351 349 349 349 350 349 349 349 350 350 349 351 351 350 350 349 349 347 345 345 349 349 348 347 348 347 342 343 345 345 343 341 340 340 338 339 339 339 339 341 341 340 341 343 341 342 340 340 340 338 341
343 342 345 341 342 342 341 343 345 349 349 350 347 347 348 350 349 349 348 347 350 351 350 349 349 349 349 349 347 346 348 345 346 344 342 343 344 343 342 340 339 341 344 342 341 338 339 338 338 339 340 342 342 342 341 342 342 343 342 341 339 339
343 343 342 338 340 340 342 344 347 348 347 346 347 347 347 347 347 347 348 346 349 349 349 348 349 348 348 348 346 345 345 344 344 344 343 344 343 344 343 341 338 340 338 339 341 338 338 337 338 339 339 339 341 341 342 342 342 341 342 341 340 340
338 339 335 339 340 339 340 343 347 347 345 345 346 347 347 346 347 348 347 348 348 347 347 348 348 348 348 345 343 343 344 345 344 344 342 342 340 342 342 339 338 336 337 339 340 338 339 339 340 339 337 341 340 343 344 344 343 342 342 342 341 340
338 340 339 340 338 339 343 343 341 342 342 342 343 342 345 344 346 345 346 346 345 346 346 347 347 346 346 345 344 345 345 344 344 343 343 340 341 342 342 341 338 336 335 335 338 337 339 336 337 339 336 339 339 342 341 342 343 341 342 342 342 342
338 339 337 337 335 340 340 342 342 339 340 341 340 342 341 342 342 342 343 343 343 343 344 343 343 345 344 344 344 344 343 344 343 342 341 340 339 339 340 340 338 338 337 334 334 336 338 339 335 333 336 337 338 341 342 340 340 338 339 340 340 340
336 334 336 337 341 338 341 341 340 339 339 338 338 338 338 340 340 341 342 342 342 342 342 342 342 342 342 342 342 341 341 340 340 339 338 339 338 339 339 339 338 336 337 335 335 337 337 336 332 329 328 329 333 336 338 340 338 337 338 337 340 340
336 335 337 338 342 338 343 342 340 339 338 336 339 340 339 339 339 338 339 340 340 340 339 339 339 339 339 338 338 338 337 337 339 339 338 338 338 337 337 337 336 334 333 336 335 337 339 337 330 332 331 328 326 324 330 332 337 337 338 338 339 338
335 335 334 338 339 342 341 341 341 340 340 338 336 338 338 337 337 336 335 337 337 337 336 336 335 335 335 335 336 336 336 336 335 336 335 336 336 336 336 336 336 336 336 333 332 333 337 336 334 330 324 323 323 325 320 324 327 331 334 333 334 335
335 338 336 338 339 341 340 339 338 339 338 337 337 335 334 333 333 333 333 333 332 333 332 330 330 329 330 331 331 332 333 334 334 334 333 332 333 333 333 333 333 333 333 331 330 333 335 336 335 335 329 323 323 320 321 325 327 328 334 333 332 332
335 337 338 341 341 340 339 337 336 334 333 332 331 331 329 330 330 329 328 331 330 328 328 327 326 326 327 327 328 328 329 329 330 329 329 329 330 329 330 330 331 331 331 330 328 328 329 334 334 334 334 331 328 322 322 326 325 320 331 331 332 331
336 336 337 339 339 339 337 336 335 334 334 332 329 329 331 330 329 328 329 328 328 328 327 327 328 328 326 326 327 327 327 327 327 325 326 328 326 326 326 328 329 330 329 328 327 324 325 327 330 331 330 331 332 331 329 324 321 324 321 326 329 329
334 334 336 337 338 338 335 334 333 332 331 330 329 327 327 327 328 327 326 325 325 325 325 325 325 325 324 324 325 326 326 327 325 325 324 325 325 325 325 326 326 328 327 327 326 323 323 325 322 323 326 327 327 330 330 330 329 323 322 319 321 328
332 332 333 334 334 333 334 334 331 330 328 328 328 327 326 326 325 326 324 324 324 323 322 323 322 322 323 322 323 323 324 323 322 322 322 324 324 323 324 325 325 324 323 323 324 323 322 321 321 320 321 322 324 325 325 327 328 326 322 319 319 322
327 329 330 331 331 332 332 332 331 330 327 325 326 326 326 325 324 324 321 321 321 320 320 320 321 320 320 320 320 320 320 319 320 320 320 321 320 320 321 323 322 321 321 320 320 320 320 319 318 320 320 319 319 320 321 321 322 322 321 322 318 319
327 327 329 329 329 328 329 328 327 327 327 326 325 325 323 322 322 322 321 320 319 318 318 318 319 318 318 319 319 319 319 319 319 319 319 319 319 319 320 320 320 321 320 318 318 318 319 317 317 317 317 318 317 317 316 315 316 317 316 315 315 316
326 326 325 326 326 325 325 325 326 325 324 324 324 322 322 320 320 319 319 318 318 317 317 317 317 316 316 317 317 317 318 319 318 318 317 318 319 319 320 319 318 318 317 317 317 317 317 315 315 315 317 316 317 318 319 317 315 315 314 314 314 313
323 324 324 324 324 324 324 323 323 323 323 323 322 321 320 319 319 318 317 317 316 315 315 315 315 314 315 315 316 316 316 316 316 317 318 318 317 318 317 317 316 316 316 315 314 315 313 313 313 312 313 315 315 316 315 315 315 314 315 315 315 312
321 322 323 322 322 321 321 322 322 322 321 320 319 319 318 317 317 317 316 315 315 314 314 314 314 313 314 314 314 315 315 315 315 316 316 316 316 316 317 315 315 314 314 315 315 315 314 314 313 313 314 312 313 314 314 314 314 313 312 312 311 311
321 321 322 321 320 320 319 320 320 320 319 319 317 316 316 316 315 315 314 314 314 315 314 314 312 314 315 314 314 313 313 314 314 314 314 315 315 315 315 315 313 314 314 315 314 313 313 313 312 313 313 312 313 313 312 311 313 312 312 311 310 309
321 320 320 319 318 318 318 318 318 317 317 316 316 315 315 314 314 314 314 313 314 314 314 313 314 313 313 313 312 311 312 312 313 313 314 313 314 314 314 313 312 312 313 314 314 312 312 313 312 313 312 312 312 311 311 311 311 312 312 311 311 310
319 318 318 317 316 316 316 315 315 315 315 315 315 314 313 313 314 314 314 314 314 314 314 314 313 313 312 312 312 312 312 312 312 313 313 313 313 313 312 312 311 311 311 312 312 312 311 312 312 312 311 312 310 310 309 311 311 311 312 311 311 310

ECMWFFLT2_sfc_thetae_096.txt.gz
Theta_e
343 343 343 344 346 348 349 350 350 350 350 349 349 349 348 348 348 348 347 347 347 346 347 345 345 344 347 343 344 343 343 343 341 340 339 339 339 340 339 340 341 341 342 345 347 347 346 346 346 344 344 345 345 342 339 341 339 334 337 335 335 335
345 343 344 345 345 347 347 348 348 348 348 348 349 349 348 348 351 348 349 348 348 348 349 347 348 348 347 344 343 344 343 344 343 341 339 339 340 339 341 340 340 340 340 344 345 346 345 346 345 345 345 345 343 339 340 341 338 335 333 334 335 339
346 346 346 345 345 346 345 344 346 347 347 348 349 349 348 348 347 344 346 348 348 354 352 348 348 347 348 347 345 345 344 344 345 342 342 340 341 339 341 340 341 341 342 342 344 344 344 342 343 346 346 343 341 340 341 341 337 335 336 336 333 341
346 346 345 343 341 343 344 344 343 344 346 346 347 347 347 347 345 347 345 351 357 349 350 352 348 349 350 345 344 345 345 345 345 345 344 343 342 341 342 342 341 341 341 338 339 341 342 341 341 342 341 339 340 342 342 339 337 338 340 339 334 343
346 346 344 344 343 342 342 341 342 341 342 343 345 346 346 346 348 347 346 352 350 350 351 352 351 351 350 349 345 343 344 343 343 342 345 343 342 336 340 333 332 337 335 336 336 339 341 343 346 341 340 340 341 342 339 338 336 335 333 337 337 343
346 344 345 344 344 342 344 342 341 342 342 341 343 344 349 348 346 349 349 349 349 348 349 351 350 350 351 348 349 348 346 346 345 345 344 341 344 343 331 330 328 329 332 333 334 337 339 339 341 341 338 340 339 340 339 338 335 346 342 339 341 344
344 344 342 342 340 338 341 343 343 346 343 343 349 345 351 347 347 351 351 347 346 347 345 347 347 347 347 347 346 350 350 351 349 349 349 343 343 344 338 338 332 330 331 331 333 335 339 339 338 331 335 338 338 338 337 336 336 338 334 341 341 345
343 343 349 339 339 338 343 342 344 344 346 345 350 347 350 350 350 349 350 347 344 342 345 344 346 347 346 345 345 347 348 348 345 346 346 347 345 346 343 342 343 339 342 336 336 338 335 333 341 341 340 336 337 339 340 338 337 336 336 338 339 345
343 344 344 342 339 344 342 345 343 345 346 346 348 350 351 350 351 352 350 348 347 345 341 343 343 343 346 346 349 349 350 349 345 347 348 353 347 350 349 347 344 339 340 339 336 338 337 337 338 341 339 337 336 338 340 339 339 336 334 339 340 342
343 342 344 345 348 342 345 344 345 345 346 348 352 352 352 349 351 351 351 350 350 347 342 341 343 345 346 345 347 345 348 347 350 351 350 347 348 351 348 348 345 340 337 339 336 339 340 336 337 335 337 337 338 338 340 337 335 337 334 340 343 344
344 346 343 345 345 345 346 346 344 349 347 348 350 351 351 351 348 349 351 352 350 350 350 344 343 343 344 344 344 346 348 347 349 351 348 349 350 350 350 346 344 341 340 338 339 339 338 337 340 336 344 338 335 338 339 338 338 334 336 338 345 342
345 347 345 343 345 344 345 346 347 349 348 349 351 349 348 349 346 346 350 353 355 353 352 350 348 347 345 348 345 346 348 344 347 347 349 350 347 346 344 345 343 342 342 339 338 338 337 336 336 336 335 337 333 343 338 337 336 334 338 342 341 340
344 341 340 343 344 345 346 345 346 346 347 346 347 347 347 347 346 347 351 350 355 350 350 351 354 348 349 350 350 351 348 347 351 348 348 346 346 346 347 346 343 344 344 341 337 339 339 339 334 334 338 337 339 340 339 340 336 337 339 340 341 341
339 338 339 342 344 344 346 346 345 346 347 346 345 347 346 344 346 348 351 349 348 349 349 354 349 350 350 351 352 349 347 344 347 348 347 343 345 348 342 341 340 341 342 341 340 341 337 335 336 337 338 338 339 340 341 340 339 339 338 337 338 341
337 337 339 340 340 341 346 344 344 346 345 344 346 343 346 347 346 348 350 351 352 353 352 351 352 353 351 349 345 344 342 344 346 343 343 346 346 346 342 340 341 339 338 339 336 339 341 337 335 334 338 341 336 338 339 339 341 339 338 338 339 338
336 335 337 338 341 341 342 341 342 344 345 343 344 344 344 343 344 348 350 347 349 348 348 350 350 350 349 345 344 344 345 347 345 344 345 344 345 342 342 341 340 337 335 334 335 334 336 339 337 336 338 340 339 339 337 337 337 338 339 339 337 339
333 336 337 336 339 340 338 342 342 342 341 336 341 342 341 340 342 339 343 349 351 350 348 347 348 348 345 346 345 346 348 347 346 345 346 346 345 342 342 341 341 340 338 334 334 335 334 337 337 336 338 338 339 338 337 337 338 339 339 338 338 337
335 336 338 336 338 339 338 341 340 342 338 340 342 341 343 342 341 342 346 345 347 348 347 346 347 346 346 346 346 345 345 346 346 345 344 345 344 341 341 341 339 341 339 337 336 336 334 334 336 336 334 335 337 338 338 337 338 339 337 336 337 338
336 335 335 336 338 339 339 338 341 338 338 338 338 340 340 340 341 344 345 344 346 346 345 345 345 346 346 344 343 343 342 343 343 343 342 341 340 339 339 340 338 338 341 340 337 336 336 336 336 335 335 336 337 337 337 338 339 336 336 337 337 338
336 336 336 339 338 338 339 337 336 337 337 338 337 336 340 341 340 343 342 343 342 343 342 342 342 342 342 342 342 340 341 341 341 341 340 338 337 337 336 336 337 337 337 337 338 337 336 335 335 335 334 336 337 337 337 338 337 336 336 336 336 336
337 339 337 336 336 336 334 336 336 335 332 334 334 336 335 341 340 341 341 341 341 341 339 339 340 339 338 339 340 340 339 338 339 338 337 337 337 337 337 337 337 337 335 333 334 336 336 336 333 331 332 332 333 337 338 337 336 336 336 338 338 336
335 336 337 337 337 337 336 337 334 333 333 333 333 335 337 338 339 339 339 338 337 337 336 335 336 337 336 335 336 336 336 335 335 334 337 337 336 337 335 334 334 333 334 333 332 335 335 333 329 327 325 326 328 332 337 338 337 335 335 334 335 334
334 335 336 337 337 337 337 335 336 334 335 334 338 339 337 337 337 335 336 335 334 333 332 330 332 333 332 332 333 334 334 334 333 333 333 333 333 332 331 331 331 331 329 330 331 333 333 332 327 328 328 326 321 321 328 331 334 334 335 334 334 334
334 335 335 335 336 338 336 336 335 335 336 335 335 338 338 337 335 333 330 331 331 330 329 328 328 328 330 329 329 329 330 330 329 331 331 329 328 328 329 329 329 329 328 324 325 326 332 332 329 327 321 321 321 322 317 322 323 327 331 330 330 329
335 334 335 336 337 336 336 336 336 336 338 337 339 338 335 332 333 331 329 328 328 328 328 327 328 327 327 327 328 328 328 328 327 326 329 327 325 325 326 326 326 327 326 325 322 324 326 329 328 330 324 320 318 318 317 320 322 323 329 326 329 329
335 335 336 335 336 333 332 332 332 329 328 331 331 332 328 329 327 327 326 328 326 325 326 326 325 324 324 325 326 326 327 326 326 326 327 326 326 325 324 324 324 325 324 325 324 322 321 325 326 327 325 325 325 318 318 321 321 315 324 328 327 328
334 334 336 336 335 333 330 332 330 330 331 331 327 327 329 329 328 327 327 326 324 325 323 323 323 322 322 323 324 324 324 324 323 324 326 324 322 322 322 323 324 323 322 323 322 318 318 319 320 322 321 323 322 323 324 320 316 319 315 320 323 324
334 334 335 336 335 334 332 333 332 330 329 329 327 326 327 327 328 327 325 324 323 322 322 321 321 320 320 320 321 321 321 321 321 321 322 320 320 321 323 322 322 321 321 321 319 317 317 316 314 315 318 318 319 321 321 322 322 317 314 312 313 319
331 332 333 334 335 335 335 334 332 330 328 328 328 327 326 326 325 325 323 322 321 321 323 321 319 319 319 319 320 320 319 319 319 319 319 319 319 320 319 318 318 318 317 317 317 318 315 313 314 313 313 314 316 315 316 318 317 315 312 309 310 311
329 329 330 330 331 333 334 334 331 330 328 327 328 326 325 324 323 323 320 319 320 321 321 318 319 318 319 317 318 319 318 318 318 318 319 318 319 319 318 317 317 317 316 315 316 315 313 313 313 314 313 313 312 312 312 311 310 310 310 311 307 308
327 327 328 329 329 329 329 330 330 329 328 327 327 325 323 323 322 321 318 317 318 319 318 318 318 317 317 317 317 318 317 317 317 319 318 316 316 316 316 316 316 316 315 314 314 313 313 312 312 312 312 312 311 311 309 307 307 308 308 306 306 306
325 326 327 327 327 326 327 327 328 328 327 327 326 324 322 320 319 318 318 316 319 318 316 317 316 315 315 315 316 315 316 316 315 316 315 315 315 315 314 315 314 314 314 314 314 314 312 310 311 311 311 312 312 312 311 308 309 309 307 306 306 305
322 323 323 324 324 325 325 325 325 325 324 325 324 322 319 319 319 318 317 316 318 315 315 313 314 313 313 314 314 314 314 313 313 314 315 314 314 315 314 313 313 313 313 311 312 312 310 310 311 309 309 311 312 310 308 309 310 308 308 308 306 303
321 322 322 322 322 323 323 323 324 323 323 321 320 320 318 317 317 316 317 316 315 314 313 313 313 313 313 312 312 313 313 313 313 313 314 314 313 313 313 311 312 312 312 312 311 311 311 311 311 310 310 309 310 308 308 309 308 308 307 305 304 303
319 321 321 321 321 321 321 322 321 320 319 319 318 316 316 317 316 315 317 316 314 314 313 312 311 312 313 312 313 312 312 312 312 312 312 313 313 312 312 311 311 312 312 312 311 311 310 310 310 309 309 308 309 307 306 307 307 307 307 306 305 304
319 319 319 319 318 318 317 318 317 317 316 317 316 315 315 315 315 317 316 314 313 314 313 312 312 312 312 312 311 311 311 311 312 312 311 311 311 311 311 310 310 310 310 312 310 309 309 308 309 309 308 306 306 305 306 307 306 306 306 306 305 304
317 317 317 317 316 316 316 315 315 316 315 315 314 313 313 313 314 316 315 314 313 312 313 313 312 312 311 311 311 311 310 310 311 311 310 310 310 311 311 311 309 309 309 310 310 308 308 307 308 308 307 305 305 305 304 306 305 305 305 304 303 302

ECMWFFLT2_sfc_thetae_099.txt.gz
Theta_e
344 345 346 347 348 348 349 350 350 350 350 349 349 348 348 348 347 347 347 346 346 342 340 340 341 341 345 342 345 344 343 342 339 339 340 340 340 339 340 340 341 341 342 342 346 347 346 346 346 346 347 347 347 340 337 335 336 337 334 334 336 335
342 343 345 346 348 348 349 349 347 346 345 347 348 348 345 343 349 342 347 345 342 344 343 340 340 346 343 343 343 343 343 344 342 340 339 340 340 340 340 341 342 341 340 342 344 339 342 347 347 347 347 347 343 338 336 335 337 332 333 332 336 339
339 342 343 344 346 347 347 346 346 345 346 348 348 346 344 347 343 343 344 344 344 344 344 342 343 347 346 345 344 344 344 344 344 343 341 341 340 341 341 341 341 342 341 341 338 338 340 340 341 347 348 345 340 338 337 337 337 330 331 333 334 343
340 341 341 342 343 343 343 344 344 344 343 344 344 346 344 344 343 341 344 342 345 345 345 344 351 350 352 344 341 345 344 345 345 345 344 343 342 342 342 342 342 342 343 341 334 337 340 340 339 338 338 338 336 336 337 337 338 333 332 337 335 345
342 342 341 341 342 341 341 342 343 341 342 342 342 341 342 342 342 341 340 344 343 346 345 344 343 343 340 340 338 339 339 339 339 339 344 340 339 339 339 336 331 333 331 332 333 333 336 337 339 338 337 336 336 335 337 338 336 332 332 335 336 345
343 342 339 339 340 342 341 338 338 338 339 339 341 341 341 341 339 342 342 345 345 342 343 343 343 342 343 341 340 339 339 338 339 341 343 340 339 339 334 333 329 327 327 329 330 331 334 337 338 337 336 336 336 337 337 335 334 334 334 333 338 345
342 341 339 339 339 340 337 336 336 336 336 335 338 339 339 338 341 343 342 344 340 339 339 340 340 340 339 341 340 341 341 341 342 341 344 338 337 340 333 328 327 325 325 327 328 329 330 333 336 338 337 336 336 335 333 334 334 334 332 334 339 346
341 341 340 340 337 336 337 337 336 341 340 339 340 337 340 341 343 343 343 343 344 338 339 338 339 339 339 339 340 341 342 342 343 342 344 343 340 339 340 335 333 330 329 328 328 328 329 328 333 333 329 332 332 332 334 335 335 334 332 335 337 345
340 337 335 334 333 336 336 337 337 337 338 347 339 341 342 342 341 343 344 346 345 338 338 337 336 338 339 339 341 341 342 342 341 341 341 343 342 341 340 339 337 336 335 335 333 333 335 334 333 333 333 333 333 333 334 334 334 335 333 335 337 341
335 334 333 335 335 335 336 335 337 340 343 344 343 343 342 342 341 341 343 344 345 341 339 336 336 337 339 339 340 341 344 342 341 341 341 340 340 342 339 337 338 338 336 335 336 335 334 334 335 333 333 332 333 333 334 335 333 333 335 337 337 338
336 340 340 339 337 339 341 340 342 343 344 345 345 345 342 341 341 342 343 343 344 344 339 338 337 336 337 338 340 339 341 340 341 341 341 341 341 341 341 339 337 336 336 335 334 337 334 334 333 333 335 334 334 333 332 333 334 333 334 336 338 338
338 340 341 341 342 341 341 342 343 343 342 344 346 342 341 342 341 339 341 342 343 342 341 339 339 337 337 337 339 339 340 337 338 340 341 339 339 341 340 339 337 337 336 334 333 334 335 333 332 332 333 335 334 333 336 335 334 333 332 335 338 338
336 338 340 340 341 341 341 342 342 342 343 344 341 339 339 339 340 342 341 341 341 342 341 338 338 337 338 337 338 337 338 339 340 340 338 339 340 340 338 337 337 337 338 336 334 335 337 333 331 332 333 334 334 335 336 336 334 333 333 334 336 334
337 338 338 339 340 341 341 342 342 341 342 341 339 340 341 340 341 338 337 339 340 341 340 341 337 337 338 339 338 335 338 339 338 338 338 339 338 336 335 336 335 335 338 335 333 333 333 332 332 332 332 334 334 333 334 336 334 335 335 334 334 335
337 335 336 336 338 338 339 340 340 340 338 339 340 339 339 338 338 340 338 339 340 339 341 341 341 338 338 338 336 335 336 337 337 336 337 336 336 336 336 335 333 333 332 330 330 332 332 332 333 333 332 334 334 334 334 334 334 335 335 334 333 336
334 334 334 337 337 337 338 338 339 339 334 336 338 337 336 336 338 337 339 339 341 342 340 340 339 340 337 336 336 336 338 339 338 337 337 337 337 336 334 334 334 332 329 330 331 331 330 331 332 333 333 334 334 335 334 333 333 334 335 334 334 334
333 333 334 336 335 335 337 337 337 336 337 337 336 336 337 338 338 337 339 336 337 338 338 338 337 336 337 339 338 339 339 338 340 338 338 336 336 336 335 337 333 333 331 328 331 332 332 331 331 332 332 331 332 333 333 333 334 334 336 333 333 334
333 333 333 334 335 335 336 337 335 334 336 335 335 336 337 336 336 338 339 337 337 339 339 337 337 338 339 340 338 338 338 339 339 338 337 336 335 336 335 334 333 333 335 331 331 331 331 331 332 333 332 332 332 332 333 334 334 335 333 333 333 333
333 331 332 334 335 334 335 334 333 333 333 333 334 336 336 336 335 336 337 338 339 338 339 339 338 337 338 338 337 336 335 336 336 335 335 334 333 333 333 333 331 332 334 334 332 332 331 331 331 331 332 332 332 333 334 334 334 333 333 333 333 335
331 332 334 334 334 334 333 332 332 332 331 332 333 335 335 334 334 334 337 337 338 335 335 336 334 333 333 336 335 333 333 333 333 333 332 332 331 331 331 330 330 330 329 331 332 332 330 329 329 328 328 329 330 330 332 333 331 332 333 333 333 333
332 334 333 332 331 330 329 330 330 329 328 330 331 332 333 333 333 335 333 331 330 330 330 332 332 330 329 332 332 332 331 330 330 331 333 333 333 331 331 328 328 328 327 327 328 330 328 328 325 324 325 325 326 328 328 330 331 331 330 330 331 331
334 333 332 332 332 330 329 329 329 329 330 330 330 331 331 332 330 330 329 328 328 327 326 327 330 328 327 326 326 328 328 326 327 328 330 329 330 331 327 326 326 324 326 325 326 328 327 326 323 321 320 321 321 324 326 329 327 327 327 328 329 329
332 332 332 334 332 330 330 330 328 328 330 330 333 334 332 329 328 326 327 327 327 326 326 325 325 328 326 325 324 324 324 323 322 326 323 323 323 323 323 322 324 322 321 323 324 327 324 325 321 320 320 316 314 317 319 323 324 324 326 326 327 327
331 331 332 333 333 331 331 331 331 332 332 332 331 332 330 328 326 325 323 324 324 324 323 322 322 323 324 324 323 322 323 322 321 322 322 320 320 320 320 321 321 322 320 318 319 320 323 321 322 318 314 314 315 314 311 316 318 321 325 324 326 324
330 329 331 333 332 332 332 331 331 330 331 332 332 330 327 325 326 325 322 321 320 321 322 321 320 320 322 320 320 320 320 320 320 321 321 319 318 319 319 319 319 319 318 315 315 316 318 318 320 319 318 315 313 313 313 316 318 317 320 321 322 321
330 331 331 331 331 331 330 329 327 327 326 325 323 323 323 322 322 321 320 321 320 320 320 319 318 318 318 321 318 318 317 317 317 318 318 317 317 318 318 317 317 317 316 315 314 313 311 315 317 316 318 319 320 315 313 316 316 310 316 319 319 318
331 329 330 328 329 330 328 328 327 327 327 324 322 322 323 324 323 322 322 320 319 318 317 316 316 316 316 318 317 316 316 316 316 316 319 316 316 315 316 316 316 315 314 315 313 309 309 309 311 312 314 314 316 316 315 310 306 309 306 310 313 312
330 330 329 329 329 328 327 328 328 327 326 323 322 321 322 322 323 322 320 319 319 317 315 315 315 315 315 316 317 315 315 315 315 316 318 315 315 314 315 315 315 313 314 313 311 308 307 308 307 307 312 311 312 312 311 309 309 306 305 303 305 309
328 329 330 330 330 330 330 327 326 325 323 324 323 322 322 322 320 319 317 317 317 316 314 314 314 314 314 314 317 315 314 314 315 315 316 314 314 314 313 312 311 311 310 311 311 310 307 307 307 306 306 308 308 307 307 308 307 307 304 301 301 302
326 326 326 328 329 329 327 326 324 323 322 322 321 321 320 319 317 316 314 313 314 313 312 311 312 312 312 313 313 314 313 313 313 314 315 312 312 311 312 312 311 310 310 309 309 309 308 307 307 307 307 307 305 304 303 304 304 303 303 303 299 300
322 322 322 322 322 322 324 325 323 323 322 321 321 320 319 317 315 314 312 312 312 311 311 310 310 310 311 312 312 314 312 312 313 314 312 311 310 310 310 310 311 309 309 309 308 307 308 307 306 306 306 305 303 303 301 301 301 302 302 300 299 299
320 320 320 320 320 320 320 320 321 322 322 322 321 320 319 317 315 313 312 311 311 310 309 310 309 308 308 310 311 309 311 310 311 310 309 310 310 310 310 310 309 308 307 308 308 309 306 305 305 305 305 304 303 304 303 302 302 302 301 300 300 298
317 318 319 319 319 319 318 318 318 318 318 319 317 317 317 316 316 314 312 311 309 308 308 307 307 306 307 308 310 309 308 308 308 310 310 309 309 308 308 308 308 307 306 306 307 306 305 305 303 303 303 303 303 303 303 303 303 302 301 300 299 295
316 316 317 317 317 317 317 317 317 315 315 315 315 315 314 313 313 314 313 310 309 307 306 306 306 306 308 308 308 309 309 308 308 309 310 309 308 308 307 307 307 307 306 305 306 305 305 305 303 302 303 301 301 302 302 302 301 301 299 298 296 295
315 316 316 314 313 313 314 314 314 314 314 314 313 313 314 314 313 312 310 308 307 307 306 306 306 307 309 307 307 308 309 307 307 307 307 307 309 306 306 306 307 307 307 305 304 305 304 304 302 301 301 301 301 301 301 301 301 300 299 298 297 296
314 314 314 313 312 312 312 312 312 312 313 314 314 313 312 313 313 312 310 309 307 306 307 306 307 307 307 307 306 306 307 306 306 306 306 306 306 306 306 305 304 305 305 308 304 303 303 303 302 301 300 300 300 299 300 300 300 299 298 298 297 297
313 313 312 312 311 311 311 311 312 312 312 312 312 311 311 311 312 311 309 308 307 307 307 307 308 307 306 306 306 305 305 305 305 306 305 305 305 305 305 304 304 303 303 304 304 303 302 302 301 300 300 300 299 299 298 299 299 299 298 298 297 297

ECMWFFLT2_sfc_thetae_102.txt.gz
Theta_e
347 347 348 348 347 347 349 349 349 349 349 349 348 348 347 347 346 346 345 345 345 338 337 338 338 340 344 341 344 342 343 342 339 340 340 340 341 341 342 342 342 343 342 342 344 345 346 347 347 347 348 349 348 340 331 331 332 333 330 333 336 330
344 345 347 348 348 347 347 348 344 343 343 346 347 348 343 341 349 340 346 342 339 341 339 337 337 346 342 342 343 343 344 344 343 342 340 340 340 341 342 342 342 343 343 342 344 338 340 343 345 347 348 349 345 338 335 332 332 330 333 331 335 333
342 344 345 346 347 347 345 343 343 343 344 347 346 345 341 344 338 339 341 340 342 339 340 339 340 345 345 345 343 344 343 344 344 345 344 344 343 342 342 342 342 343 343 343 336 333 336 337 337 345 346 342 337 337 336 334 333 331 332 330 333 337
342 343 344 344 345 345 343 342 341 341 342 341 340 342 339 340 339 339 340 338 340 340 342 339 348 348 350 342 340 345 344 344 345 345 345 345 344 344 344 343 342 341 342 338 332 331 333 335 337 336 336 336 335 334 334 334 334 333 329 333 333 338
342 342 342 343 343 341 342 341 340 340 339 338 338 337 339 339 337 337 337 340 340 343 340 339 339 340 337 336 336 336 336 336 337 336 343 338 338 339 339 335 333 330 325 327 328 329 331 332 334 335 336 336 335 334 333 334 334 334 331 331 335 340
341 341 342 342 342 343 343 340 339 339 338 339 340 337 338 339 337 336 338 342 343 337 338 338 337 337 337 337 337 335 336 335 335 337 340 338 336 337 337 335 334 329 325 325 326 327 328 333 331 332 334 335 335 334 333 334 333 332 330 331 334 341
341 340 340 341 341 342 340 340 340 338 338 337 337 337 337 336 336 339 341 343 336 336 336 336 335 335 336 336 336 336 337 337 336 336 340 338 337 337 336 336 332 328 324 324 325 326 326 327 328 329 332 335 335 335 334 333 332 331 331 331 335 343
341 338 338 339 340 340 338 338 338 341 340 339 338 337 336 337 340 338 340 341 341 337 335 333 333 334 335 334 335 336 336 338 338 339 341 339 339 338 337 336 333 332 330 330 332 331 330 331 329 329 330 329 330 331 330 331 332 331 330 331 333 342
340 339 336 337 338 337 336 336 335 335 336 341 336 336 337 339 339 340 341 343 343 335 334 332 332 334 335 334 335 337 337 339 338 339 338 338 338 338 337 335 334 333 332 332 332 332 334 332 331 330 330 330 331 331 330 331 332 331 331 331 333 339
340 339 336 336 336 335 334 333 334 336 338 343 338 339 340 338 339 340 339 341 340 336 333 332 332 333 333 333 335 335 337 336 336 337 336 338 337 337 335 334 334 333 334 332 331 333 333 332 332 331 331 331 332 332 331 331 331 330 331 332 333 336
336 339 335 334 333 335 337 337 340 341 341 340 340 339 337 336 336 337 338 340 340 339 335 334 333 332 333 333 334 334 336 336 335 336 336 336 336 336 334 333 332 332 332 332 332 332 333 332 331 331 331 332 332 332 332 333 333 333 332 332 333 333
339 340 339 338 339 339 339 340 340 340 339 338 338 336 337 337 339 337 338 338 337 337 336 334 334 333 333 332 334 333 334 336 336 336 335 334 336 335 335 334 334 334 333 332 332 332 334 331 330 331 331 332 333 333 332 332 333 333 332 331 332 334
339 340 339 338 339 339 339 339 339 339 338 338 338 337 337 337 336 336 335 335 335 337 335 333 334 333 335 333 334 333 334 335 335 334 334 335 335 333 334 332 333 333 334 332 331 331 333 330 329 331 331 332 332 333 333 333 333 333 333 332 331 332
338 338 338 338 339 339 339 338 338 338 339 338 338 337 337 336 335 334 334 335 335 336 336 337 334 334 334 334 333 332 333 335 334 333 333 335 335 332 332 330 330 329 334 330 329 329 329 330 331 331 332 332 331 332 332 332 332 332 333 333 333 332
338 337 338 337 337 337 338 337 336 336 337 336 336 335 335 335 334 333 333 335 335 337 338 336 336 334 333 332 332 332 333 336 335 333 334 334 333 333 331 330 330 331 328 328 327 330 330 329 329 330 331 332 332 333 332 333 333 332 332 333 332 332
335 335 335 335 336 336 336 335 335 337 335 334 334 333 333 334 333 335 336 334 337 337 336 335 336 335 333 332 333 333 333 334 334 334 335 334 334 333 333 333 331 329 328 329 329 330 329 329 329 329 330 330 330 331 330 331 331 332 332 332 332 332
334 334 334 335 335 335 335 334 334 335 334 334 333 334 334 334 334 334 333 333 334 336 334 335 334 334 332 333 335 335 333 333 334 334 333 333 332 332 331 332 330 330 328 326 328 328 328 328 328 329 329 329 330 330 329 330 331 331 333 332 332 332
333 334 334 334 334 334 334 333 333 333 335 333 333 333 333 334 334 333 332 333 335 336 336 334 335 337 335 335 333 332 332 333 334 333 332 331 330 330 329 329 328 329 330 329 327 326 325 326 328 328 328 328 328 327 328 330 331 333 331 331 331 331
332 332 332 333 333 333 332 332 331 331 331 332 332 332 333 333 332 333 334 335 335 335 334 332 332 334 334 332 331 330 329 330 332 331 330 328 327 327 327 326 326 326 328 329 326 325 324 325 326 326 326 326 326 326 327 328 329 327 327 328 328 330
331 332 332 332 332 331 331 330 329 330 330 331 331 332 331 332 332 332 333 331 330 330 330 330 328 329 331 331 329 327 326 328 329 329 328 327 325 324 324 324 324 325 323 325 324 324 323 323 323 320 323 324 324 324 327 328 324 325 325 326 326 326
331 332 331 330 330 329 328 327 327 327 328 329 331 332 331 330 329 328 327 327 327 327 327 327 327 326 325 328 325 324 324 325 327 325 324 324 325 324 324 324 323 323 322 321 320 320 320 321 318 317 319 320 321 322 326 324 323 324 324 324 324 321
332 331 330 330 329 328 327 327 327 327 328 329 329 327 325 326 326 326 325 324 324 323 324 325 327 325 323 323 322 322 321 321 322 323 322 322 322 324 321 322 322 320 320 319 317 317 317 318 314 313 313 316 316 320 322 321 321 323 323 323 320 317
332 330 329 331 329 328 327 328 328 327 329 329 330 327 325 325 324 322 322 322 321 320 320 320 322 323 321 320 320 320 320 319 320 322 318 318 318 318 318 318 317 316 316 318 318 317 315 316 310 313 313 311 309 313 315 316 318 321 321 319 317 314
330 329 329 331 331 328 329 329 330 330 330 328 325 326 324 322 320 319 319 320 320 319 318 318 319 319 318 318 318 318 318 318 318 319 317 316 316 315 315 315 315 315 314 312 312 311 314 314 313 313 309 310 311 309 306 309 312 315 318 315 313 311
328 329 329 331 329 330 330 329 331 330 329 327 325 323 321 319 319 319 317 316 316 317 317 316 317 318 319 316 316 316 316 316 316 316 316 315 314 313 313 313 313 313 312 309 308 308 310 313 312 314 312 310 309 309 308 309 309 308 314 313 310 309
330 330 329 329 329 329 329 328 327 325 323 321 319 319 317 316 315 314 314 315 315 315 316 315 315 316 317 317 315 315 315 315 315 315 315 313 313 313 312 312 312 311 310 310 308 307 306 311 312 312 312 312 313 307 305 306 304 301 309 310 308 308
330 329 329 328 328 329 327 326 326 324 322 320 319 318 319 318 316 315 315 313 313 314 314 314 314 314 316 316 314 314 314 314 314 314 315 312 311 310 311 312 312 310 309 310 308 305 305 305 307 309 310 309 310 308 306 303 299 301 299 302 305 304
330 329 327 328 327 328 326 326 325 323 322 320 319 318 318 317 317 317 313 313 312 312 313 313 312 313 314 315 314 312 313 313 313 314 314 311 310 310 310 311 311 310 310 309 307 305 304 305 304 304 308 305 306 307 305 304 303 300 299 296 296 302
327 327 327 328 328 327 328 326 324 322 321 321 320 319 318 317 314 314 311 311 310 310 311 312 312 311 312 313 315 312 311 311 311 312 314 311 310 310 309 308 308 307 306 307 308 307 304 303 303 302 302 302 302 302 303 302 302 302 299 295 295 296
326 325 326 327 328 327 326 325 323 322 320 319 319 316 314 312 311 311 309 309 309 308 309 309 310 310 310 311 311 311 310 310 311 312 312 308 309 308 308 308 308 307 306 305 305 305 304 303 303 302 302 301 299 299 299 299 299 298 298 297 293 293
320 321 323 323 324 323 323 323 322 321 320 318 316 314 311 310 310 310 308 308 308 308 308 307 308 309 309 309 310 312 310 310 310 313 310 308 307 307 307 306 306 306 306 304 303 302 303 303 302 301 301 300 299 298 297 296 295 296 295 293 292 292
317 318 319 319 319 319 320 320 321 320 319 318 315 313 311 310 310 308 307 306 306 306 306 306 306 307 307 308 309 307 309 308 308 306 306 307 307 307 307 306 305 305 304 304 303 303 301 300 300 300 300 300 299 299 298 297 297 296 295 294 293 292
315 316 316 317 316 316 316 316 318 318 318 318 315 313 312 311 310 308 307 306 305 305 305 305 305 305 306 307 308 306 306 306 306 307 306 306 306 306 306 305 304 303 303 302 301 301 300 299 299 298 298 299 299 298 297 298 297 296 295 295 293 291
314 315 315 315 314 314 313 313 314 314 314 314 313 312 311 310 309 308 307 305 305 304 304 304 304 305 305 307 306 307 306 305 306 307 307 306 305 306 305 304 303 303 302 302 301 300 300 299 299 298 299 297 297 297 297 297 296 296 294 293 292 292
312 312 312 312 312 312 312 312 312 312 313 312 311 311 310 310 308 307 306 305 304 304 304 304 305 306 306 305 305 306 306 304 304 304 305 304 305 304 304 305 304 303 303 302 301 300 299 298 298 297 297 297 298 297 296 296 295 295 295 294 293 293
311 311 312 311 310 310 311 311 311 311 312 313 313 311 310 310 309 308 306 305 304 304 304 304 305 305 305 304 304 304 304 303 303 304 304 304 303 303 303 302 302 302 302 304 300 299 298 298 297 297 296 296 296 295 296 296 296 295 294 295 294 294
310 310 310 310 310 310 310 310 309 310 310 310 309 309 309 308 308 307 306 304 304 304 304 304 305 305 304 304 303 303 303 303 303 303 302 303 303 302 302 302 301 301 301 301 300 298 298 297 297 296 296 296 295 296 295 297 296 296 295 294 294 294

ECMWFFLT2_sfc_thetae_105.txt.gz
Theta_e
347 347 347 346 345 344 347 348 348 349 348 349 347 347 346 346 345 345 345 345 344 334 332 334 334 335 344 339 344 343 342 341 340 340 339 339 340 341 341 341 341 342 342 343 343 343 341 340 342 343 345 347 347 334 328 328 329 332 329 331 337 330
345 346 347 347 346 345 345 347 342 341 341 344 346 347 342 339 347 338 345 340 336 340 335 332 334 345 340 341 342 344 343 343 343 343 342 341 342 341 342 342 342 342 342 343 343 333 334 337 339 341 343 343 337 334 331 330 330 328 331 330 334 333
344 345 346 346 346 344 343 341 340 340 343 346 345 345 339 342 334 335 336 336 340 336 337 336 339 342 345 345 342 344 344 344 344 345 345 345 344 344 343 343 343 343 342 342 332 328 329 330 330 339 340 334 333 334 333 331 331 331 331 330 332 336
344 345 345 345 345 343 341 340 339 338 339 338 336 341 336 337 337 336 336 336 338 337 339 337 347 349 350 342 338 346 345 344 346 346 344 343 343 343 344 342 341 341 338 332 326 326 328 328 328 330 330 331 332 333 333 332 330 332 332 331 334 337
344 344 344 344 345 343 341 339 338 337 335 334 335 334 335 334 335 335 334 337 336 339 340 338 336 336 334 334 332 333 334 335 336 334 342 334 334 336 335 333 331 333 324 323 324 324 325 325 327 327 328 329 331 332 333 333 332 332 332 330 333 339
343 343 344 344 344 344 343 339 338 336 336 334 335 334 334 333 333 334 335 337 340 338 338 338 336 335 337 334 334 333 334 333 333 336 337 336 334 334 334 333 332 332 328 324 323 324 324 330 327 326 327 328 330 332 333 332 332 331 331 329 331 340
341 342 343 344 343 344 341 339 338 338 336 334 333 334 334 333 333 334 336 340 336 333 332 334 334 334 332 333 333 334 335 335 334 333 338 337 335 335 333 333 332 330 327 325 325 325 325 326 325 326 327 328 330 333 333 333 331 329 330 330 333 339
340 340 341 342 342 341 339 338 338 342 339 338 336 334 333 333 335 336 339 338 338 332 331 330 330 331 331 331 333 334 334 335 335 335 337 336 333 333 333 333 332 333 332 332 332 331 331 331 329 327 329 329 329 329 329 328 329 330 330 329 330 336
339 339 339 341 340 339 338 337 337 336 336 341 335 333 333 334 334 336 338 339 340 332 331 330 329 331 331 330 333 335 336 335 333 335 335 334 334 334 333 332 332 332 331 331 329 330 333 331 328 328 327 329 329 328 327 328 328 328 328 329 329 333
339 338 338 339 338 337 335 334 333 333 332 337 333 335 335 335 335 336 335 338 337 332 330 330 329 329 330 331 333 333 334 332 333 334 333 335 333 332 330 330 330 330 331 329 329 331 332 331 330 330 329 329 330 330 329 329 331 330 330 329 330 333
338 339 337 337 336 335 335 333 334 335 338 336 336 337 336 335 334 334 336 337 336 337 332 332 331 330 330 331 331 332 334 333 334 333 332 334 334 332 330 329 330 330 329 328 329 328 330 330 329 330 331 331 331 331 332 331 331 332 332 330 329 330
338 337 336 335 336 334 334 336 338 338 336 336 336 334 335 335 337 334 336 335 335 334 334 332 332 332 332 330 331 331 333 334 331 331 333 332 333 332 331 330 332 331 330 328 327 328 329 328 328 330 330 331 331 331 331 331 331 332 332 332 329 330
337 336 334 334 335 336 337 338 338 336 336 336 336 335 335 334 334 333 332 334 333 335 333 332 332 332 334 329 330 331 332 332 332 332 333 332 331 330 331 329 329 329 330 328 330 330 331 328 328 329 329 330 330 331 331 331 331 331 331 331 331 331
337 335 335 335 336 336 337 337 336 335 337 336 335 335 335 333 335 333 333 333 333 334 334 335 331 330 332 330 329 331 332 334 334 332 332 332 331 330 330 329 329 329 332 328 328 328 328 327 328 327 328 329 329 330 330 330 330 330 330 331 331 331
338 336 337 336 336 336 336 336 335 335 335 334 334 333 332 332 332 333 333 332 334 335 334 333 333 331 331 331 331 331 332 333 333 332 332 331 330 330 329 329 329 330 328 328 327 328 326 325 326 327 327 328 328 329 329 329 329 330 331 330 330 330
337 336 336 337 336 336 334 334 335 336 333 333 333 332 332 333 333 333 334 333 334 334 332 332 334 331 330 331 331 331 332 333 332 331 330 330 330 329 327 327 329 328 327 325 325 324 324 324 325 326 327 327 326 328 327 327 329 329 330 327 325 325
335 335 336 336 334 333 333 333 333 332 332 333 333 334 334 333 332 331 332 333 335 337 334 333 332 331 331 332 331 330 330 331 331 330 328 327 327 327 325 327 326 328 325 323 322 321 322 323 324 325 325 325 325 326 326 327 327 327 326 322 320 320
334 335 334 333 332 332 333 333 332 332 334 332 333 333 333 333 333 333 333 334 335 335 335 335 336 336 334 333 330 329 329 331 331 328 326 325 324 324 323 324 324 325 324 321 320 319 319 321 323 323 323 323 324 324 325 325 325 326 321 318 317 317
333 333 332 332 332 332 331 331 331 331 331 331 331 331 332 332 332 332 330 330 330 330 330 329 332 333 330 328 326 326 326 327 328 325 323 322 322 322 323 323 322 321 322 319 317 317 317 319 321 320 321 321 323 324 323 323 322 320 317 316 316 316
332 332 332 331 331 330 330 330 329 330 330 330 330 330 329 329 328 326 327 326 326 326 327 326 326 327 327 324 322 323 323 323 322 322 321 320 319 320 320 320 321 320 317 317 316 315 315 318 318 314 317 319 320 322 321 321 319 317 314 312 312 312
331 332 330 329 329 329 327 327 328 328 328 329 328 327 327 326 325 324 323 323 323 324 324 324 324 322 321 324 321 320 321 321 321 321 320 318 318 319 319 319 318 320 317 313 312 313 313 316 314 313 313 315 316 320 322 319 316 313 311 309 310 310
332 330 329 329 329 328 327 328 328 328 328 327 326 324 322 322 321 321 321 320 320 320 320 322 323 321 320 320 320 320 319 319 319 319 319 317 317 319 316 316 315 315 316 313 310 312 312 312 310 309 309 312 312 315 319 317 315 311 309 308 308 308
331 329 328 329 328 327 327 329 330 329 326 325 326 324 321 321 321 318 319 319 318 318 319 319 319 321 318 318 317 317 317 316 317 318 315 314 314 313 313 313 313 313 311 312 311 312 310 311 307 309 313 312 308 308 311 312 313 311 308 306 306 307
330 329 328 330 329 328 329 329 329 328 326 323 321 322 320 319 317 316 316 317 317 316 317 317 317 317 316 316 316 316 316 315 315 316 314 312 311 311 311 311 311 312 309 307 306 307 311 309 309 308 307 309 310 308 304 305 306 309 307 305 303 303
330 330 330 331 328 330 331 328 327 326 324 322 321 319 317 316 317 318 316 314 314 315 315 316 316 316 317 314 315 315 315 314 314 313 313 311 310 310 309 309 309 308 307 304 304 305 307 309 308 310 309 307 305 304 303 303 303 303 306 303 302 301
330 330 329 328 330 330 329 325 323 321 319 318 316 316 314 313 313 312 312 313 313 314 314 314 314 315 316 316 314 314 314 313 312 312 312 310 309 309 309 308 308 307 306 306 305 304 303 307 307 307 307 306 306 301 299 300 299 296 303 303 302 300
330 329 328 328 330 330 326 324 323 322 320 318 317 317 317 315 312 312 312 311 311 312 312 313 313 314 314 315 313 313 313 312 312 311 312 309 308 308 308 308 309 307 306 306 304 302 301 302 303 304 304 304 304 303 301 298 295 296 293 297 299 298
330 329 328 328 328 329 326 324 323 321 321 318 317 315 314 313 313 313 310 310 310 310 311 311 311 312 313 314 313 312 312 312 311 311 311 308 307 306 307 307 307 306 306 305 303 301 300 300 299 299 303 301 301 301 299 298 297 296 295 291 291 295
328 327 327 328 328 327 327 324 322 321 319 318 316 315 315 316 312 311 308 308 308 308 309 310 310 310 311 312 314 310 310 310 309 310 312 308 307 307 306 304 303 303 303 303 303 302 300 299 298 297 298 297 298 297 296 296 296 296 293 287 287 289
326 326 326 327 327 326 325 324 321 319 317 316 316 313 312 310 309 308 307 306 306 306 307 308 308 309 309 309 309 310 309 309 309 310 310 306 306 305 304 304 303 302 302 301 301 301 300 299 299 298 297 296 295 294 294 293 293 293 292 292 288 288
326 326 325 326 326 325 324 323 320 319 317 315 313 311 308 307 307 306 305 305 305 305 305 305 307 307 307 308 309 310 308 308 309 311 308 305 304 304 303 302 302 301 301 300 299 299 299 299 298 297 296 296 295 294 292 291 291 292 291 289 289 288
323 323 322 324 325 324 323 322 321 320 317 314 312 309 307 306 306 305 304 304 304 304 304 305 305 305 305 306 307 306 308 306 306 305 304 304 304 303 303 302 301 300 299 299 300 300 297 296 296 296 295 295 295 295 294 293 293 292 291 291 290 288
319 319 319 320 320 320 321 321 321 319 316 314 311 309 308 306 305 305 304 303 303 303 303 303 303 304 304 305 306 305 305 305 304 305 304 304 303 302 302 301 300 299 299 298 298 297 296 296 296 295 294 295 294 294 293 294 294 293 292 292 291 288
315 315 316 316 316 317 318 319 319 317 315 313 310 309 308 306 306 305 305 304 303 303 302 302 303 303 303 305 305 305 305 304 305 305 305 304 303 302 301 300 299 298 298 297 297 296 296 296 296 295 295 294 294 293 293 293 293 292 291 291 289 289
313 313 313 313 313 313 314 315 315 315 313 312 311 309 307 307 305 305 304 304 303 303 303 303 303 303 305 303 304 303 303 303 303 303 303 303 303 302 302 301 300 299 298 297 297 297 296 295 295 294 294 295 295 294 293 293 292 292 292 291 291 290
312 311 312 312 311 312 312 312 312 311 311 312 312 309 308 307 305 305 304 304 303 302 303 302 303 303 303 303 302 302 302 302 302 302 302 302 301 301 300 299 298 298 297 300 296 295 295 295 294 294 294 294 294 293 294 293 293 292 292 292 292 291
310 310 310 310 310 310 311 311 310 310 310 309 308 307 306 305 305 306 305 304 303 302 302 302 303 303 302 302 301 301 301 301 301 301 301 301 301 300 300 299 298 297 296 296 297 295 295 294 294 294 294 294 293 293 293 293 293 293 292 292 292 291

ECMWFFLT2_sfc_thetae_108.txt.gz
Theta_e
347 347 347 346 344 343 345 347 347 348 346 347 345 345 345 345 345 344 346 344 341 335 335 335 335 336 345 341 344 343 343 342 341 342 341 340 341 342 343 343 343 343 343 343 343 340 338 339 339 340 342 343 340 335 334 334 334 335 335 333 339 334
346 346 346 345 345 343 343 346 340 341 342 343 345 346 343 340 346 337 345 339 336 342 333 330 334 345 342 344 343 344 343 344 344 344 344 345 344 344 344 344 344 344 343 341 338 331 331 334 335 338 339 338 333 334 335 335 334 334 336 334 337 335
344 345 345 345 344 342 342 340 338 338 341 345 344 345 340 344 334 336 338 338 341 337 339 339 339 343 345 346 344 344 344 345 345 345 345 345 345 345 345 344 343 343 340 336 328 327 327 327 328 335 334 331 331 332 334 334 334 334 334 335 337 337
344 345 345 344 344 343 340 339 338 339 339 340 339 341 338 338 337 335 336 337 337 340 341 339 345 348 349 340 337 342 345 344 344 343 344 342 342 342 343 341 341 341 335 330 326 325 326 326 328 328 329 329 330 332 333 334 334 334 335 336 337 339
344 344 344 344 343 342 339 338 339 339 339 338 336 336 335 336 337 336 335 340 337 341 340 339 338 337 335 335 332 333 334 334 335 334 341 336 335 336 337 335 334 334 329 328 326 326 326 328 330 329 329 330 330 332 333 335 335 335 335 334 335 338
343 344 344 343 343 343 341 340 340 339 338 337 337 336 335 333 334 336 334 337 342 339 340 338 337 336 336 334 335 334 334 334 334 336 339 337 337 336 336 335 335 334 331 327 326 327 328 331 329 330 330 330 331 333 334 335 335 335 334 333 334 339
342 343 343 344 344 342 340 340 340 339 336 335 335 335 335 332 332 333 335 340 337 335 335 334 334 333 333 334 334 334 336 335 336 336 340 339 337 336 336 336 334 333 331 332 333 333 333 333 331 331 332 332 332 332 332 332 332 332 333 333 334 339
342 343 343 344 343 342 339 338 338 341 338 337 336 334 331 332 334 335 339 339 338 331 332 331 332 332 332 332 334 335 335 336 336 336 337 338 336 335 334 334 334 333 333 332 332 333 334 333 332 331 332 332 333 333 333 332 332 332 333 333 333 336
342 342 343 343 342 342 340 336 337 337 335 341 332 331 331 333 333 338 339 340 339 332 330 329 330 332 331 331 333 335 335 335 334 335 337 335 335 333 333 333 333 334 332 331 332 333 335 333 332 332 331 332 332 333 333 333 333 332 333 333 333 336
341 342 342 342 341 341 338 335 335 335 334 340 331 331 333 333 334 336 337 337 337 331 330 331 331 330 331 331 331 333 335 334 334 335 335 335 334 333 332 333 333 333 332 331 332 333 334 332 331 332 333 333 333 333 333 333 333 333 334 334 334 335
340 342 341 340 339 338 336 333 333 333 335 335 334 337 334 333 334 336 337 337 336 337 333 333 332 331 331 330 331 333 333 334 334 334 335 335 335 334 333 333 332 334 332 330 331 331 332 331 331 332 332 332 333 333 333 334 334 334 334 334 334 334
338 340 339 338 337 334 333 333 333 334 334 334 335 332 333 334 337 336 337 335 335 334 334 332 333 332 332 331 332 333 333 334 333 333 333 333 333 333 333 333 333 333 331 329 330 331 332 330 330 330 331 331 332 332 332 333 333 332 332 331 331 330
336 337 336 334 334 333 333 335 336 334 334 335 334 334 334 334 334 334 334 335 335 336 335 332 332 333 334 330 331 333 334 334 333 333 333 333 333 331 332 332 332 332 332 330 330 330 330 329 329 329 330 331 331 331 331 332 331 329 327 326 325 325
335 334 334 333 334 333 334 335 335 334 336 334 334 334 334 334 335 333 334 334 334 335 334 335 333 331 332 332 332 332 334 334 333 333 332 332 332 331 331 331 330 330 331 328 327 327 327 327 327 328 329 330 330 330 330 329 327 325 323 321 322 321
336 333 335 334 334 334 336 335 333 334 335 335 334 333 332 332 333 333 334 335 335 336 334 334 334 332 332 332 332 333 333 332 332 331 331 331 330 330 329 328 329 328 326 325 325 326 325 325 326 326 327 329 329 329 328 326 323 321 319 318 318 317
335 333 333 334 334 335 334 334 335 336 334 334 333 333 333 334 334 334 334 334 335 336 334 334 334 331 331 332 332 331 331 332 331 330 329 329 329 328 327 327 327 326 323 322 323 322 323 324 325 325 327 327 327 326 323 322 320 318 317 315 314 314
333 333 333 334 333 334 334 334 333 333 334 334 334 334 334 333 332 332 333 333 335 336 334 334 334 333 331 331 330 330 330 330 330 328 327 326 326 327 327 325 324 324 322 320 319 319 320 322 323 324 326 325 324 322 319 318 317 316 315 312 312 312
333 334 333 333 333 333 333 333 333 334 334 333 333 333 333 333 332 332 331 331 332 334 333 333 333 332 330 331 328 328 329 329 327 326 325 324 324 325 324 324 322 321 319 318 317 316 316 319 321 323 324 323 322 319 317 315 314 315 311 310 310 310
334 333 332 333 333 332 332 332 333 332 332 332 332 332 331 330 330 329 328 328 329 329 330 328 329 329 327 326 325 325 325 325 326 324 323 322 322 323 323 322 321 319 318 316 315 315 314 318 319 322 322 321 320 317 314 313 312 311 310 308 308 309
333 332 332 332 332 331 331 331 330 331 330 329 329 328 327 326 326 326 327 326 326 326 326 326 326 326 325 324 323 323 323 323 323 322 321 320 319 320 320 320 320 317 314 314 314 314 313 316 317 319 322 320 319 314 310 310 309 308 309 307 307 307
331 332 331 330 330 330 328 328 329 328 326 327 326 325 324 323 323 323 323 323 324 324 324 325 324 324 324 325 322 322 322 321 321 321 319 318 318 318 319 320 318 317 313 311 311 312 312 315 316 316 316 317 317 315 311 308 305 305 306 307 306 305
331 331 331 330 330 329 328 329 328 327 326 325 324 322 320 321 321 321 321 321 321 321 321 322 323 322 322 321 320 320 320 319 319 318 318 318 317 317 315 315 317 312 312 310 308 310 310 312 310 310 312 314 316 316 312 308 305 302 302 304 304 304
331 330 329 330 328 327 329 329 328 326 324 322 323 322 320 320 320 318 318 319 319 319 319 319 320 321 319 319 318 318 317 317 317 318 314 313 313 312 312 312 313 312 309 310 309 309 308 310 310 313 314 312 309 310 315 311 308 304 301 301 302 302
329 329 328 328 329 329 330 328 327 325 324 321 318 320 319 319 318 317 316 317 318 318 318 318 318 318 317 317 317 316 315 315 314 315 312 311 310 309 310 310 310 312 309 306 306 306 308 307 308 311 308 310 311 307 305 306 305 307 303 299 299 300
329 328 328 330 329 330 327 324 323 322 321 319 319 318 317 316 317 318 316 315 315 317 317 317 317 317 318 315 315 315 314 313 313 313 312 310 309 309 309 308 309 309 307 306 304 304 305 306 305 307 310 309 306 304 302 305 304 305 303 299 298 298
329 328 327 328 330 328 325 322 320 319 317 317 315 316 314 313 313 313 312 314 314 315 315 315 315 315 317 316 313 313 313 312 311 311 311 309 309 308 307 307 307 307 306 307 305 303 302 305 304 304 303 304 306 304 303 302 302 299 304 299 299 297
329 327 328 329 330 328 324 322 322 321 319 317 315 314 314 313 312 312 313 312 312 313 312 313 313 313 314 315 313 312 312 311 311 310 311 308 307 306 307 307 307 305 304 305 303 300 300 301 302 302 302 301 300 300 300 299 296 297 294 299 298 297
329 327 327 330 329 326 323 323 322 320 320 317 315 312 312 312 313 313 311 311 310 310 311 311 312 312 313 314 313 311 311 311 310 310 309 306 305 305 305 306 306 304 304 303 301 299 298 299 298 298 301 299 299 299 298 297 298 298 295 293 293 296
328 328 329 329 328 326 325 323 321 320 317 315 314 313 314 313 311 311 309 308 308 308 309 309 310 310 311 312 313 310 309 309 308 308 308 306 305 304 303 302 302 302 301 301 302 300 298 297 297 296 296 296 297 296 296 296 296 297 292 289 290 290
327 327 329 329 328 326 325 323 320 318 315 314 313 311 309 308 308 308 307 307 307 307 307 308 309 309 309 309 310 310 309 308 307 308 307 304 303 302 302 302 301 301 301 299 300 299 297 297 297 296 296 295 294 294 294 293 293 293 293 293 289 289
326 327 328 328 327 325 324 323 320 317 315 312 310 308 307 306 306 306 306 305 305 305 306 306 307 308 308 309 309 311 308 307 308 308 305 303 302 301 301 301 301 300 299 298 297 297 297 297 296 295 295 295 294 293 292 291 291 292 292 290 290 290
325 326 327 327 326 324 323 322 320 317 314 312 310 308 307 306 306 306 305 305 305 305 305 305 306 306 306 307 307 306 307 305 305 303 302 302 302 301 301 300 300 299 298 298 298 297 295 294 294 294 294 295 294 294 294 293 293 293 292 291 291 290
324 325 326 326 324 323 322 320 318 316 313 312 310 308 308 307 307 306 305 304 304 304 304 304 304 305 305 306 306 305 305 304 303 304 303 301 301 301 300 299 298 298 297 297 297 296 295 295 295 294 294 295 294 294 293 294 294 293 293 293 292 290
323 323 324 324 323 322 321 320 318 315 314 312 310 309 308 307 306 305 305 304 304 304 304 304 304 304 304 306 306 306 305 304 304 303 302 301 301 300 299 298 298 297 297 297 297 296 296 296 295 295 295 294 294 294 294 294 294 294 293 293 291 290
320 320 321 321 321 321 320 319 317 315 313 312 310 308 308 307 306 305 304 304 303 304 304 303 304 305 306 304 304 304 304 303 303 303 302 301 301 300 299 299 299 298 298 297 297 297 295 295 294 294 294 294 294 294 294 294 294 293 294 293 292 292
318 317 318 319 318 319 318 317 315 313 312 312 311 309 308 307 306 306 305 305 304 304 304 303 304 303 304 304 303 303 303 302 302 302 301 300 299 298 298 298 297 297 297 299 296 295 295 295 294 294 293 294 293 293 294 294 294 294 294 294 293 293
314 314 315 316 316 316 316 314 313 312 312 310 308 307 306 306 306 307 307 306 305 303 303 303 303 303 302 302 302 302 302 301 301 301 301 300 299 298 298 297 297 296 296 297 297 295 296 295 295 294 294 293 293 293 293 294 294 294 294 294 293 293

ECMWFFLT2_sfc_thetae_111.txt.gz
Theta_e
348 348 349 349 349 348 348 348 347 347 346 345 345 345 345 345 344 345 346 344 343 345 346 346 346 345 344 346 344 343 344 344 344 344 344 345 345 345 344 345 345 344 344 342 339 337 336 337 337 339 340 341 338 345 344 344 344 344 343 342 344 342
347 347 348 348 347 347 348 347 348 348 347 347 345 345 346 346 346 347 345 344 345 345 345 346 348 348 348 346 345 344 344 345 345 346 346 345 345 346 346 345 344 344 342 340 336 342 342 338 337 338 338 336 343 344 345 345 346 343 342 343 344 343
346 347 347 346 346 347 347 347 347 346 346 345 346 346 345 346 346 344 345 344 346 347 347 348 350 349 350 346 347 346 346 346 345 345 346 345 345 345 345 344 343 343 340 337 342 342 342 342 344 339 340 345 344 343 345 345 346 346 343 343 344 343
345 347 346 345 346 346 346 347 346 346 345 346 346 344 345 345 345 345 344 346 346 347 347 347 347 349 349 349 348 346 345 344 343 344 344 347 345 344 343 342 341 341 343 343 343 342 341 342 342 345 345 343 342 344 344 345 343 344 345 342 341 340
346 346 345 345 344 344 345 345 345 344 343 344 344 342 344 344 344 345 345 346 347 347 347 348 348 349 348 349 348 349 349 349 350 350 346 350 350 347 348 346 346 344 344 343 344 344 345 343 344 343 343 344 344 345 344 345 343 343 344 346 345 341
345 344 346 345 344 344 345 343 343 342 343 343 344 342 342 344 344 346 347 348 348 347 347 347 347 348 348 348 347 348 348 349 350 350 350 349 348 349 347 345 345 344 344 345 345 345 345 343 343 342 342 344 343 344 343 342 343 344 345 345 344 342
344 344 345 346 345 344 343 344 343 342 343 342 343 343 344 345 346 347 348 348 347 347 346 346 345 346 347 347 348 348 348 350 350 349 350 348 348 347 346 345 344 345 345 344 344 344 342 343 344 341 342 342 343 342 344 343 343 343 344 344 342 341
343 344 345 345 345 343 344 343 343 344 344 345 344 344 344 346 347 347 347 349 348 347 347 345 344 346 346 348 348 348 349 349 349 347 349 348 346 344 344 344 345 343 342 342 341 343 342 341 343 344 343 342 342 343 344 343 344 344 344 345 344 340
344 344 345 345 344 344 344 343 343 343 343 344 345 345 345 346 346 346 347 348 348 347 345 345 345 345 347 348 348 349 348 348 348 347 348 346 346 345 345 344 345 343 343 343 343 344 342 342 343 343 342 341 342 342 343 343 343 342 342 342 342 339
344 344 344 345 344 343 343 342 343 343 343 345 345 346 347 346 345 346 345 346 347 346 345 345 345 345 347 346 347 348 348 347 347 347 347 346 348 345 344 344 344 344 341 342 341 342 342 341 341 342 341 341 341 341 341 340 340 339 338 339 340 338
344 346 345 344 344 343 344 342 343 344 344 344 344 346 346 346 345 345 344 345 344 344 343 343 343 343 344 344 346 347 345 347 347 347 347 346 347 345 345 344 344 343 343 341 340 341 340 340 340 339 340 340 341 340 339 337 334 333 332 334 336 337
344 345 344 343 343 342 342 343 344 345 344 345 345 346 344 344 344 344 344 343 343 344 343 342 344 343 344 346 345 344 345 345 345 345 346 346 345 345 344 342 342 342 343 341 339 339 339 339 339 338 339 338 337 335 332 330 329 328 328 329 331 334
344 344 343 343 343 342 343 343 344 344 345 344 344 343 343 342 342 343 344 344 343 342 342 341 343 345 344 345 345 345 343 344 345 345 345 345 344 344 343 342 341 343 341 340 338 338 338 339 338 337 338 335 333 329 327 326 326 325 324 325 326 327
344 344 343 343 342 343 344 344 344 344 344 343 343 343 342 343 343 343 343 342 342 342 342 343 342 342 345 345 344 344 343 343 344 344 344 344 343 343 341 341 339 339 336 337 336 336 336 336 335 335 334 331 330 327 325 323 322 322 322 322 323 324
343 343 343 343 343 343 343 343 342 343 342 342 341 341 341 342 342 342 342 342 342 342 342 342 343 343 343 344 342 342 342 342 343 344 342 344 342 341 340 338 337 336 336 336 334 334 334 333 333 331 331 329 325 324 323 321 321 320 319 320 320 321
343 342 343 344 344 343 341 342 342 341 340 340 340 340 341 341 341 342 342 340 341 341 341 342 343 344 343 342 342 341 341 342 342 342 341 341 341 338 337 335 334 335 334 331 332 331 333 332 331 329 328 325 324 322 320 319 318 317 317 317 317 318
341 342 343 342 341 340 342 341 340 339 339 340 340 339 340 340 340 341 342 342 342 342 342 342 343 343 342 342 341 341 340 340 341 340 340 339 337 337 336 332 331 330 331 330 329 329 331 331 328 326 324 322 321 320 319 318 318 317 315 314 314 315
341 341 341 340 339 339 338 338 338 339 340 338 337 339 340 340 339 339 341 341 342 342 342 342 342 343 342 341 341 339 338 338 338 338 337 337 336 335 334 333 329 328 328 328 327 327 328 329 327 323 320 319 319 317 316 316 316 316 314 313 313 312
339 339 337 337 336 336 337 337 337 337 336 336 334 335 338 338 337 338 338 338 339 340 339 340 339 340 340 338 337 336 336 335 336 335 335 334 334 333 333 331 329 327 326 325 324 324 328 328 325 320 316 316 316 315 315 315 314 313 312 312 311 310
337 337 336 337 335 334 334 334 333 333 332 332 331 331 332 334 336 336 336 336 336 336 336 336 336 337 337 336 334 333 332 332 333 334 332 331 330 330 330 329 327 325 325 324 322 323 327 327 324 320 317 315 314 312 310 312 312 311 311 310 311 311
334 336 335 333 333 333 332 332 332 331 329 329 328 329 329 330 331 330 330 331 332 333 334 334 333 334 334 332 332 331 331 330 331 330 330 328 329 328 328 326 324 324 323 323 320 322 325 328 324 320 319 316 314 311 310 308 308 308 309 309 310 309
334 334 334 335 334 333 334 334 333 331 330 329 327 327 326 327 326 327 327 327 329 329 330 330 330 331 331 331 329 327 328 328 328 328 326 326 325 326 327 326 325 321 320 319 317 318 320 325 324 322 318 316 314 312 310 307 304 305 307 308 308 308
334 334 335 335 335 334 336 337 335 332 333 328 328 328 328 326 324 323 324 325 326 328 327 326 327 327 328 327 327 326 325 326 326 327 326 325 324 323 323 324 324 321 317 318 316 316 318 320 323 324 324 321 316 315 314 310 307 304 305 307 307 306
333 335 335 335 335 337 337 337 336 332 328 326 323 324 324 325 324 323 321 322 324 325 325 325 325 325 324 325 326 325 325 325 324 325 324 323 322 320 321 321 321 320 320 315 314 313 314 316 321 323 319 320 319 320 315 310 307 304 304 303 304 305
335 335 334 335 335 334 333 330 327 326 326 324 324 325 323 321 322 322 321 321 322 323 324 324 324 324 324 324 324 324 324 323 322 322 322 320 319 318 318 318 319 319 318 315 311 312 311 313 313 314 320 318 314 309 304 310 308 302 304 301 302 303
336 337 334 334 335 334 332 328 326 324 323 323 322 322 321 319 319 319 318 321 322 322 322 322 323 323 323 323 322 322 322 321 321 320 319 318 318 317 316 316 316 317 315 317 314 310 307 310 310 310 310 310 314 312 306 306 311 300 304 303 302 302
337 336 334 334 335 334 332 331 330 329 327 325 322 318 319 319 318 318 320 320 320 322 322 322 322 322 322 321 321 321 320 319 319 318 318 317 315 315 314 314 314 314 313 313 314 310 307 305 306 307 308 308 309 308 309 308 302 303 298 299 300 301
337 336 334 334 334 333 332 331 330 328 326 325 321 318 318 318 319 319 319 319 319 319 321 321 321 320 321 320 320 319 319 318 316 316 315 313 313 313 313 313 313 312 311 311 311 309 307 308 304 302 307 305 305 305 306 305 307 303 300 297 295 300
336 334 333 334 333 331 331 331 330 328 324 322 321 320 319 319 318 319 317 317 318 319 319 319 319 319 319 318 318 317 317 316 315 314 313 312 312 311 311 311 310 309 309 308 308 308 307 305 306 304 305 304 304 302 302 304 304 303 301 300 295 296
333 332 333 334 334 332 331 330 326 325 322 321 319 318 319 317 317 317 316 317 318 318 318 318 318 318 318 317 317 317 315 315 314 312 311 311 310 310 309 308 308 308 308 307 307 306 305 305 305 305 305 305 304 305 303 302 302 302 301 299 295 294
331 331 333 333 333 331 330 329 325 323 321 318 317 317 317 317 316 317 316 317 317 317 317 317 317 317 317 316 316 316 315 314 313 312 311 310 309 308 308 307 307 306 305 305 304 305 304 305 304 304 303 303 301 301 300 299 300 301 300 300 298 297
330 330 331 332 333 331 329 328 324 322 319 318 318 318 319 318 318 316 315 315 316 316 316 316 316 315 315 315 315 313 313 312 311 311 309 309 308 307 307 306 305 304 304 304 305 304 304 303 303 303 303 303 302 302 302 301 300 301 300 299 299 297
327 329 330 331 330 330 328 326 323 320 318 319 320 320 319 317 317 316 315 315 316 315 314 314 314 314 314 314 313 312 312 311 310 310 309 307 307 307 306 305 305 304 304 303 303 303 303 303 304 302 302 303 302 302 301 302 302 302 302 301 300 298
327 329 329 329 329 328 327 324 322 320 319 320 320 319 318 316 316 316 316 316 316 315 314 314 314 313 313 313 313 312 311 310 309 308 308 307 306 306 306 303 304 303 302 303 303 303 303 303 304 304 304 302 302 301 302 302 302 301 300 300 298 299
326 327 328 328 328 327 325 323 321 320 320 320 319 318 317 316 315 314 315 316 315 315 314 314 313 313 313 312 312 311 311 310 309 308 307 306 306 306 305 304 303 303 302 303 302 302 302 302 302 302 303 302 301 301 301 301 302 301 301 301 300 300
326 326 327 326 327 325 323 321 320 319 318 318 318 317 314 313 313 315 315 314 314 315 314 313 313 313 313 312 311 310 309 308 308 307 306 305 305 305 305 303 302 302 302 303 302 301 300 301 301 302 302 302 301 300 301 301 301 301 301 301 301 301
325 325 326 326 325 323 321 319 318 318 317 316 315 313 312 312 313 314 314 313 313 313 313 313 312 313 312 311 310 309 308 307 307 306 305 305 305 304 304 303 303 302 302 302 302 301 301 300 300 300 301 301 300 300 300 302 302 301 302 302 301 301

ECMWFFLT2_sfc_thetae_114.txt.gz
Theta_e
348 348 351 351 350 350 349 348 348 347 345 345 345 343 344 343 344 345 344 343 344 346 347 348 349 342 345 344 343 342 342 343 341 343 344 345 346 346 346 346 345 345 343 342 342 340 340 339 339 341 343 344 346 346 342 343 342 343 343 343 343 340
348 347 347 349 348 349 350 347 349 348 347 346 344 343 346 346 345 348 342 346 349 347 347 349 348 345 344 346 346 345 345 345 346 346 346 346 347 347 346 346 345 344 343 342 343 344 344 343 342 341 341 344 344 343 345 344 344 343 343 342 344 344
346 347 348 346 347 348 347 347 346 346 344 344 345 346 345 345 347 345 346 346 348 351 350 350 351 349 350 349 349 346 346 346 346 347 347 346 347 347 346 345 344 345 345 343 344 339 339 343 345 344 345 349 346 345 345 345 345 345 343 342 345 345
347 348 347 346 346 346 347 348 346 345 344 345 346 345 345 346 346 349 348 349 350 351 351 352 351 350 350 349 350 348 347 346 346 346 347 349 346 347 347 344 346 346 346 347 346 342 342 342 344 346 346 343 344 344 345 346 343 344 342 342 345 344
347 347 346 347 345 344 347 345 345 342 342 344 345 346 346 348 349 349 349 350 349 350 350 350 351 350 352 352 349 348 349 349 350 349 347 351 350 346 350 348 349 348 346 346 346 347 345 344 347 346 347 345 346 347 346 347 345 344 345 346 346 344
347 347 348 347 345 345 345 344 344 340 342 345 345 345 346 347 348 350 349 349 350 350 349 349 350 351 351 352 349 348 349 350 350 351 351 352 350 351 350 348 348 347 347 349 349 349 348 346 346 345 345 347 347 347 346 344 345 346 344 346 343 343
346 346 346 346 346 345 344 345 345 342 341 343 344 345 344 346 348 349 349 350 349 347 348 347 348 349 348 350 348 348 348 351 351 350 352 350 350 351 349 348 346 347 345 345 345 345 344 345 346 342 345 345 345 345 346 345 345 345 344 347 342 341
345 346 346 345 346 343 344 345 345 343 344 343 343 343 343 346 349 349 349 350 350 348 347 345 348 348 348 349 348 349 350 350 351 350 352 351 349 348 346 346 347 345 343 344 343 345 344 343 345 346 345 344 344 346 346 345 347 347 345 344 340 338
346 345 347 347 345 344 345 345 345 343 341 344 344 345 346 348 347 347 349 350 350 349 347 348 347 347 348 348 349 352 351 350 351 350 351 349 349 347 346 345 345 344 345 345 344 344 342 343 345 345 343 342 342 344 344 345 345 343 344 341 337 335
346 346 346 347 346 345 345 344 343 344 342 345 344 346 348 345 347 348 346 348 348 348 347 347 347 347 347 348 349 352 352 352 350 350 351 349 347 346 344 344 344 344 342 343 343 343 342 343 343 343 342 343 343 343 343 340 340 340 342 341 337 335
345 347 346 345 346 347 346 344 342 344 344 344 345 346 346 347 346 347 348 349 348 348 348 348 348 348 350 350 351 352 351 352 350 351 351 349 349 346 346 344 344 343 343 343 343 343 341 342 343 342 342 342 341 341 339 339 338 338 338 338 337 336
345 347 347 346 346 345 345 344 344 343 344 346 347 344 344 347 347 347 348 348 349 349 348 347 347 347 351 351 350 350 351 351 350 350 350 348 345 346 344 343 343 344 345 344 343 342 343 342 341 340 339 337 336 337 336 335 335 335 336 336 336 337
346 348 347 346 345 345 345 344 345 345 345 346 345 346 344 346 348 348 349 348 348 348 349 347 349 350 349 350 350 350 350 351 351 351 350 348 346 346 345 343 344 343 343 343 342 341 339 341 339 339 339 335 335 332 333 333 332 332 331 332 330 328
345 346 347 347 347 345 346 345 345 346 346 345 344 344 345 347 347 347 348 349 349 347 347 347 348 349 350 351 351 350 348 346 349 350 348 347 344 343 342 342 341 341 339 340 338 339 338 338 336 336 335 333 333 332 331 330 329 329 329 329 328 327
346 347 347 346 346 346 347 344 344 345 346 346 345 344 345 347 347 347 346 347 348 346 346 347 349 348 349 350 348 347 345 346 347 347 345 345 342 342 342 340 341 340 340 338 335 337 336 335 334 334 332 331 330 329 329 327 327 327 325 327 327 324
346 345 347 346 347 347 346 345 344 343 345 346 344 345 346 347 347 346 348 347 347 346 347 347 347 347 349 347 346 345 344 346 346 345 345 343 343 340 341 340 341 340 337 335 334 334 335 334 333 331 330 329 328 327 326 325 324 323 323 324 323 323
345 346 346 346 346 346 345 344 345 344 345 346 344 345 348 347 346 347 346 345 345 345 346 346 348 347 347 347 345 345 344 344 345 344 343 342 339 340 340 338 339 338 338 335 332 331 333 333 329 327 326 326 325 325 325 324 322 321 320 320 320 319
345 345 345 345 344 345 345 344 343 344 345 344 346 346 347 346 346 346 346 344 345 345 346 346 347 346 347 346 345 343 343 343 343 343 341 340 339 339 339 339 336 336 335 335 332 332 331 330 325 324 323 323 322 322 320 321 321 319 317 315 317 317
344 344 344 344 344 344 345 344 344 344 344 344 344 344 345 344 344 345 345 344 344 345 346 347 347 347 346 342 342 342 343 342 342 340 340 338 338 338 338 337 336 336 334 332 332 332 332 327 323 321 318 320 321 320 319 317 318 315 315 316 314 314
344 344 344 343 341 340 339 340 340 341 340 341 342 342 343 342 343 343 342 343 342 344 345 344 344 344 343 342 341 341 342 341 340 340 339 338 337 336 336 335 334 333 332 330 332 331 331 327 323 320 317 317 317 316 314 315 314 313 315 315 314 314
344 344 342 339 338 337 336 338 340 338 337 339 339 339 339 340 340 341 342 341 342 341 342 342 341 341 342 340 341 341 341 339 339 338 337 336 336 335 335 334 332 332 330 329 328 332 331 328 324 320 319 317 315 314 314 313 312 312 312 312 312 311
342 342 341 340 339 338 339 338 338 337 338 337 336 336 336 338 336 336 337 338 339 340 340 341 341 342 342 341 340 338 339 337 336 335 334 334 333 333 333 332 333 328 327 326 327 329 330 329 324 322 319 317 316 314 312 311 309 310 311 311 312 311
339 340 341 340 340 340 341 341 340 338 338 334 337 335 334 333 333 334 334 335 336 338 338 338 338 339 339 338 337 337 336 334 333 334 334 333 332 331 331 331 331 327 322 323 325 328 329 330 324 326 326 321 315 313 311 309 310 309 309 311 310 308
343 337 337 338 339 341 342 341 340 340 338 336 332 332 331 333 333 333 331 331 333 334 334 335 335 334 334 335 336 335 336 334 332 333 331 330 329 329 330 329 328 326 325 321 320 321 325 328 326 326 320 320 321 319 312 310 307 307 309 307 307 307
341 337 336 338 340 341 337 334 332 332 331 330 331 330 329 328 328 329 329 329 329 331 332 332 333 333 333 334 334 335 333 333 331 331 330 328 326 326 327 327 328 325 326 320 316 318 319 323 324 324 320 322 316 317 314 309 306 305 308 306 306 306
339 337 336 338 340 337 334 331 330 330 328 328 326 327 325 323 323 326 327 327 328 329 329 330 331 332 332 331 332 331 331 330 329 328 327 325 326 325 325 324 325 323 322 323 318 313 311 315 316 316 317 315 317 316 311 309 310 301 307 307 306 305
338 338 336 338 339 337 335 334 334 333 332 330 326 328 328 328 325 326 326 327 327 329 329 330 331 331 330 329 330 329 329 328 327 325 325 325 324 323 322 322 323 321 320 320 319 310 309 308 310 313 313 314 315 316 318 315 307 304 302 304 305 305
337 337 338 339 339 339 336 335 336 335 333 331 328 327 326 325 326 325 325 326 327 328 329 329 328 327 328 328 327 327 326 325 323 323 322 322 322 322 321 321 321 321 319 320 320 315 315 313 307 308 313 310 309 311 313 314 315 312 305 303 301 303
337 337 338 339 339 339 338 337 336 335 332 333 330 327 327 326 325 325 324 324 326 327 328 327 327 326 326 325 325 325 324 323 321 320 319 320 319 319 318 318 318 317 316 316 316 316 314 310 310 308 310 311 310 307 307 310 311 312 307 304 300 302
336 338 338 339 339 339 339 338 336 336 333 330 328 327 327 325 325 324 324 325 326 326 325 324 325 325 325 323 323 323 321 321 321 319 318 318 317 316 315 315 316 315 315 314 315 315 313 313 313 314 314 315 313 311 309 308 308 307 306 305 300 299
338 337 338 339 339 338 338 338 336 335 334 330 329 328 327 324 322 322 323 324 325 325 324 323 323 324 324 323 323 322 321 319 319 318 316 315 314 312 312 312 313 314 314 313 311 313 313 313 312 312 311 309 308 307 306 305 306 306 307 306 302 301
337 338 339 338 338 337 336 335 336 335 332 331 329 328 326 324 324 325 325 324 323 325 324 323 323 322 322 321 321 319 320 319 317 317 314 314 313 312 311 311 311 311 312 312 313 312 312 311 311 310 310 309 308 308 308 307 306 307 307 306 305 301
338 338 337 337 336 335 335 334 333 332 331 330 329 330 330 329 327 326 325 324 323 322 323 323 321 321 320 320 319 319 318 316 315 315 314 312 312 312 312 311 312 311 311 311 311 312 311 312 312 309 307 308 308 308 307 308 309 308 308 308 308 304
334 337 336 336 336 335 334 334 334 332 331 330 330 331 330 327 327 325 324 324 324 323 323 322 321 319 319 319 319 318 318 316 315 313 312 312 312 311 311 308 310 309 309 310 311 311 311 311 311 310 310 307 308 307 307 308 308 307 307 306 304 305
334 335 335 336 336 333 333 334 332 330 329 330 330 330 328 329 327 325 325 324 324 324 323 322 320 320 319 318 317 316 315 314 313 312 311 311 311 311 310 310 309 310 309 310 310 309 309 310 309 309 309 308 307 307 307 306 307 307 307 306 305 305
335 334 333 333 332 332 331 332 332 329 329 330 329 330 328 327 325 325 325 324 323 323 322 321 320 318 317 317 316 315 314 313 312 311 310 310 310 309 309 308 307 308 307 308 308 308 308 309 309 309 308 308 307 305 307 306 307 307 306 307 306 305
335 337 333 333 334 332 330 330 330 330 330 330 329 329 326 324 323 323 323 323 322 322 322 321 319 318 317 316 315 314 313 311 311 310 310 310 309 309 309 308 308 307 307 308 308 307 307 307 307 307 307 307 306 306 306 308 307 307 307 307 306 305

ECMWFFLT2_sfc_thetae_117.txt.gz
Theta_e
346 348 349 350 351 351 348 348 347 346 344 343 343 343 343 343 344 344 345 344 345 346 344 343 343 341 341 343 341 342 342 343 343 342 342 341 341 344 343 345 346 346 346 345 346 344 342 342 343 344 345 346 348 347 345 341 341 344 343 343 343 343
347 347 348 349 348 350 348 347 347 346 345 344 344 344 345 345 344 344 345 348 350 346 346 348 346 340 346 345 342 341 341 342 342 343 343 345 345 347 348 348 347 348 347 346 346 343 340 344 345 347 346 347 347 345 344 343 343 343 344 344 345 347
345 347 348 346 348 348 345 346 345 344 342 343 344 346 344 345 344 342 348 348 348 347 347 347 345 344 341 340 342 343 343 344 345 346 347 347 348 348 349 349 349 349 348 347 343 338 338 339 343 347 349 348 343 344 344 347 344 344 345 345 345 346
346 349 347 346 347 347 344 345 343 343 342 343 343 342 343 343 343 346 345 348 348 349 350 353 348 349 348 346 345 346 346 345 348 347 348 349 348 349 349 349 348 350 349 345 342 342 340 340 343 344 345 344 342 343 343 344 347 346 345 345 343 344
348 348 346 346 345 345 345 342 342 340 342 340 343 343 343 346 346 348 348 350 348 350 348 351 353 349 349 348 346 347 347 349 346 348 347 348 347 345 349 347 346 346 346 344 345 348 346 345 347 345 344 345 346 345 344 346 344 344 345 344 343 343
348 347 346 346 345 344 345 343 343 339 341 342 341 341 343 345 347 349 348 348 349 349 348 348 352 352 351 350 350 347 346 348 347 347 347 348 351 348 345 345 347 344 348 348 347 349 347 345 345 344 344 345 345 345 344 341 343 344 345 343 341 340
346 346 346 345 344 345 342 342 342 341 340 340 342 342 342 343 346 349 348 348 348 346 346 347 352 350 352 350 349 347 349 349 350 348 350 348 346 348 349 350 346 346 346 346 344 345 344 344 344 340 344 343 343 343 344 344 345 344 343 341 339 338
346 346 347 344 343 342 342 343 342 340 341 340 340 342 341 344 347 347 349 350 349 347 346 346 350 350 349 350 351 351 352 353 352 353 349 354 351 352 357 346 345 344 343 344 342 344 343 342 343 345 344 343 343 344 344 342 344 344 343 341 338 336
346 346 347 345 342 342 342 344 342 340 339 342 342 342 342 346 346 345 350 350 349 348 345 349 350 349 350 351 350 348 353 353 351 352 349 346 347 347 346 345 346 343 345 344 344 343 342 342 345 345 342 341 341 342 342 342 342 343 341 340 337 333
347 347 346 345 342 341 341 342 341 340 338 342 342 344 346 344 343 345 346 349 348 347 346 348 349 348 346 348 348 351 350 353 349 349 348 349 347 346 345 345 345 344 341 343 342 342 343 342 343 344 342 342 341 340 340 338 338 340 340 338 335 332
347 348 346 344 343 343 344 342 339 341 342 339 342 345 344 344 345 346 346 350 348 348 348 352 350 349 349 347 348 348 349 349 350 350 349 348 350 348 346 342 343 342 343 342 342 342 341 342 342 341 340 340 339 340 338 339 337 338 338 338 335 332
347 347 346 343 344 343 343 341 341 340 342 342 346 343 341 344 344 344 348 350 350 349 349 352 352 351 349 348 349 350 351 348 350 351 351 347 347 345 344 342 342 343 343 343 343 343 343 341 340 338 338 336 336 337 336 336 335 335 334 335 335 334
347 347 346 344 343 343 344 342 342 343 343 345 344 344 343 344 345 348 350 349 350 351 352 352 352 351 349 348 349 345 349 347 350 351 350 349 347 346 345 343 343 342 342 342 341 340 339 340 339 337 337 335 335 333 334 333 333 333 331 330 327 326
346 346 347 346 345 344 346 345 344 345 345 344 342 341 344 345 346 346 348 351 351 349 351 350 350 352 350 347 348 347 346 347 348 350 350 349 345 345 343 342 341 342 338 338 336 338 337 336 335 335 335 334 334 333 332 331 330 330 329 327 324 324
346 347 347 345 345 345 346 345 343 345 346 345 344 344 344 345 344 346 348 350 352 349 350 350 351 352 349 353 347 345 345 345 348 350 346 346 344 344 342 340 339 340 339 336 334 335 334 336 334 333 333 333 331 329 330 328 328 327 326 326 324 322
346 347 346 346 346 347 347 347 345 345 348 346 343 344 343 345 345 348 350 350 351 350 349 349 350 348 347 344 347 344 345 349 347 348 346 346 345 341 341 340 340 339 336 334 332 334 335 334 333 331 331 330 329 329 327 325 324 322 323 323 322 322
346 347 346 346 346 347 347 345 346 345 346 345 343 343 344 346 346 350 348 348 350 349 348 349 348 343 345 344 347 346 347 346 347 346 345 343 341 341 341 338 339 339 338 334 331 331 333 331 329 328 327 328 327 327 325 324 322 321 319 318 320 319
346 347 345 347 347 348 347 345 345 345 345 344 345 343 345 346 349 348 347 347 349 348 345 343 342 343 345 346 346 347 346 346 345 344 343 341 342 341 340 340 337 337 336 334 332 333 331 328 327 325 324 324 325 324 322 321 319 318 317 317 318 316
347 345 345 347 347 347 347 346 346 345 344 344 344 345 345 346 348 348 348 348 346 346 343 342 343 344 342 347 345 348 345 345 344 342 341 340 340 339 338 337 337 337 334 335 334 333 329 327 325 323 321 322 322 321 319 318 319 317 317 316 314 314
346 345 347 346 345 343 343 340 340 341 341 341 342 342 347 347 346 344 344 347 342 341 341 341 341 345 345 344 343 344 343 343 341 341 340 339 338 337 336 336 334 332 332 331 334 331 328 324 322 320 319 318 319 319 316 317 317 315 316 314 314 315
345 345 345 343 341 340 338 338 340 339 339 341 340 341 342 343 342 342 343 344 343 343 341 342 342 344 342 341 342 341 341 340 340 340 338 338 337 336 335 334 333 333 331 331 331 331 327 325 321 319 319 319 318 317 317 316 315 313 311 312 313 313
344 345 343 343 341 341 341 339 338 338 339 338 339 339 339 341 341 342 343 343 343 343 342 341 342 342 342 341 340 339 339 338 337 336 335 334 333 332 333 334 333 330 333 331 330 330 326 326 322 319 317 317 317 315 315 314 311 310 311 312 313 312
345 343 344 343 342 340 341 342 341 340 339 338 341 341 340 338 339 339 340 341 341 342 340 338 338 338 339 339 339 338 337 336 336 335 334 333 332 332 332 331 332 328 326 330 329 331 329 330 325 325 325 320 317 312 310 309 310 309 310 311 310 309
344 344 343 342 342 343 343 343 343 342 342 340 336 337 336 336 336 336 336 338 338 337 338 336 335 335 336 337 336 336 335 335 334 334 334 333 331 331 332 332 331 329 326 322 324 326 329 330 328 328 320 320 320 318 307 307 307 309 309 307 308 308
344 343 342 342 342 343 342 341 339 338 338 335 335 334 333 333 335 334 334 335 334 335 335 334 335 335 334 334 335 335 334 334 333 333 333 331 330 330 331 331 330 328 328 325 321 324 327 328 329 328 322 321 318 318 315 308 308 307 310 306 306 306
342 342 341 340 342 342 341 337 334 332 330 331 330 331 331 332 331 331 331 333 335 334 333 333 333 334 332 332 332 332 333 332 332 331 331 330 328 328 328 327 326 326 325 324 321 318 317 321 324 321 322 320 317 319 310 309 307 300 307 309 307 305
341 339 340 340 341 341 339 338 336 335 335 334 332 333 337 336 335 334 333 333 333 334 332 332 332 331 330 330 330 331 331 331 330 329 329 330 328 327 325 325 325 323 321 320 318 313 313 313 315 316 315 315 318 320 321 309 311 304 303 306 306 306
342 339 340 340 341 340 338 338 338 337 336 335 335 333 333 333 335 334 333 332 332 332 332 331 330 329 329 329 329 329 329 329 327 327 326 326 325 324 323 323 323 324 325 324 320 317 314 313 311 311 314 313 312 315 319 318 317 313 308 302 301 304
341 338 340 341 340 340 339 339 339 337 336 336 335 332 331 332 332 332 331 331 332 332 331 330 330 328 328 328 328 328 327 326 324 323 323 323 323 323 322 321 321 321 321 321 320 318 313 310 311 310 312 312 311 309 310 313 313 313 308 306 303 304
340 338 340 341 341 340 340 339 339 338 336 334 332 331 332 331 331 331 330 331 330 329 327 327 328 327 327 327 326 326 325 324 323 322 320 320 319 319 319 319 319 319 320 319 319 319 318 318 318 318 317 317 313 311 309 309 309 307 306 307 304 303
339 340 341 340 341 339 340 339 338 336 334 332 332 330 330 331 330 330 329 329 328 327 326 325 326 327 326 326 326 325 323 322 321 320 317 316 315 314 315 317 318 318 318 318 317 316 317 317 316 315 314 313 312 311 310 309 308 309 310 306 303 302
339 340 340 340 340 339 339 339 336 335 333 333 333 331 330 329 330 329 328 327 326 326 326 326 326 325 325 324 324 322 322 321 319 318 316 315 315 314 314 314 314 315 316 317 317 316 316 314 314 312 312 311 311 312 312 310 309 311 310 308 305 302
337 338 340 340 339 340 339 337 333 335 336 334 333 333 331 330 330 328 328 327 326 325 325 324 324 324 323 323 322 321 321 319 318 318 316 315 315 315 315 315 315 315 316 316 317 317 315 315 314 311 310 311 310 311 310 311 312 311 311 311 311 303
337 338 338 339 340 339 338 338 336 336 336 334 333 333 333 330 330 329 329 328 327 326 324 324 323 324 322 322 321 321 320 318 317 316 315 314 314 313 314 311 313 313 313 314 315 316 314 314 314 313 313 310 310 310 310 311 311 310 309 309 307 307
336 338 338 338 339 338 338 338 336 334 334 334 333 332 331 331 330 331 329 328 327 326 325 324 323 323 323 323 321 319 318 316 316 315 315 314 314 314 314 313 312 313 313 314 314 313 313 313 312 312 312 311 310 309 309 310 310 309 309 308 307 307
337 338 338 338 338 338 338 338 336 336 334 334 334 333 332 332 332 332 331 328 327 327 326 324 323 322 321 320 318 317 316 315 314 314 314 313 313 313 313 312 311 311 311 312 311 311 312 313 312 312 311 311 310 309 310 309 310 309 308 308 308 306
338 338 338 337 337 337 337 336 335 335 334 333 333 333 331 331 331 329 329 329 327 327 326 324 322 321 320 319 318 316 315 313 313 313 313 312 311 311 311 312 311 311 311 312 311 310 310 310 311 311 310 310 309 309 309 310 310 310 309 309 307 306

ECMWFFLT2_sfc_thetae_120.txt.gz
Theta_e
346 347 347 348 348 347 346 347 347 346 344 342 342 343 343 343 343 342 341 341 340 340 341 340 340 340 342 342 343 344 344 344 344 344 343 343 343 342 343 342 343 344 346 344 345 345 346 345 345 345 346 347 347 344 345 345 344 343 339 343 343 345
345 346 347 348 347 346 346 345 344 343 342 342 343 344 343 342 345 342 343 342 342 343 341 340 340 344 341 341 341 342 343 343 344 343 343 343 342 343 343 344 344 346 345 346 346 344 341 343 345 346 347 347 346 345 344 344 343 342 343 342 343 346
345 346 347 347 347 346 344 344 342 341 341 342 343 342 342 342 341 342 343 344 346 347 343 341 343 342 339 343 343 344 343 342 343 342 342 344 344 344 346 346 348 346 347 347 346 342 336 335 335 344 348 348 344 347 348 347 342 342 341 341 342 346
345 346 345 346 346 345 344 343 342 341 340 341 342 342 343 342 340 342 345 347 348 350 349 353 346 343 346 342 343 344 341 343 342 344 343 344 347 348 347 349 348 349 347 347 341 337 333 335 340 343 341 345 344 345 343 348 342 341 340 341 341 345
345 347 344 345 345 344 344 341 341 340 339 340 340 344 343 343 344 343 346 349 348 350 350 353 350 348 341 341 341 338 341 343 342 341 345 343 345 344 347 345 345 346 343 341 338 346 343 338 346 344 343 343 344 346 347 344 342 340 338 338 338 341
347 345 346 345 345 344 345 341 339 339 339 338 340 343 342 342 345 348 353 350 350 350 349 349 350 350 347 346 341 338 342 341 344 342 346 343 346 351 348 344 344 347 345 345 348 343 343 342 337 345 340 338 341 343 342 341 341 339 337 336 336 339
345 344 344 344 344 342 341 343 342 339 339 335 339 342 342 344 347 351 350 350 350 348 348 347 348 349 350 350 349 352 351 352 350 351 351 352 348 347 347 347 347 347 345 346 344 341 342 346 344 340 340 339 341 342 341 341 340 338 336 334 335 337
345 345 345 342 342 341 342 343 343 341 340 339 343 343 344 345 347 348 350 352 352 350 348 348 348 352 351 346 349 348 350 350 348 348 347 347 347 348 346 348 346 341 342 342 338 341 342 339 345 342 343 338 340 341 341 340 339 337 335 333 332 334
345 345 346 346 341 341 342 344 344 341 340 342 345 349 347 346 347 348 351 351 352 352 349 347 349 342 346 345 346 345 348 347 345 345 345 344 342 344 343 347 343 342 342 342 344 345 341 339 344 342 340 337 338 338 340 339 337 336 333 331 330 331
345 345 346 345 342 341 342 341 340 340 343 341 342 342 349 347 350 348 347 350 351 352 353 349 348 345 341 340 344 345 345 343 344 345 344 342 344 343 342 343 342 341 338 340 344 338 346 341 343 341 338 336 336 335 337 338 336 334 332 329 328 328
346 348 345 342 343 344 343 342 339 338 342 338 343 347 349 351 348 347 349 352 352 353 352 352 347 341 342 341 340 342 342 345 343 342 341 340 344 343 341 337 345 344 342 339 341 340 342 340 341 335 338 335 335 334 334 334 334 334 332 328 326 325
344 348 346 343 344 342 343 341 341 338 342 343 351 345 349 348 348 351 352 354 353 354 351 348 344 342 343 342 341 342 342 341 342 342 341 341 341 338 338 341 344 346 345 348 340 341 338 338 335 333 332 332 332 331 331 331 329 328 328 328 325 323
348 348 347 344 343 342 345 341 339 339 343 343 349 347 345 345 351 353 354 353 355 353 351 343 342 342 344 343 344 346 346 345 347 343 346 347 344 345 346 345 349 344 345 344 338 338 338 336 333 332 331 330 330 329 329 329 327 325 323 321 321 323
347 346 348 347 347 341 344 343 341 343 345 347 350 350 346 352 352 352 352 354 350 350 344 341 342 341 341 343 344 344 342 342 343 343 345 348 348 350 348 344 344 346 342 338 334 337 334 332 331 331 331 329 328 328 327 326 326 324 322 320 321 319
347 347 348 347 345 345 346 343 340 347 345 348 350 347 352 353 353 349 350 352 353 347 341 343 343 341 341 340 342 343 341 341 341 340 342 342 344 347 348 341 341 340 344 340 331 333 331 331 329 328 328 328 326 326 326 323 323 322 322 322 320 318
347 347 347 347 346 347 346 353 347 345 347 349 349 348 351 349 348 351 348 348 348 342 341 342 343 342 341 342 341 341 342 341 341 343 342 339 341 343 341 339 337 338 337 332 330 330 330 328 327 327 327 327 327 327 322 321 320 317 318 318 317 315
345 346 347 347 347 349 350 349 347 345 346 347 345 350 347 351 349 349 349 346 347 345 341 340 341 342 344 341 341 341 342 341 342 341 343 338 340 344 342 343 339 338 337 337 331 328 327 327 326 325 324 325 323 322 318 318 318 317 320 316 313 311
346 347 347 347 347 348 348 345 342 341 339 343 343 344 348 349 349 348 348 345 346 344 341 338 341 340 343 343 343 339 340 343 340 340 338 338 345 341 339 340 338 337 334 332 331 327 325 324 324 323 321 321 321 320 320 318 319 322 316 313 313 310
346 347 347 348 349 349 346 343 343 344 340 340 342 344 349 346 349 347 345 343 343 343 342 340 341 342 343 343 338 340 342 338 339 336 338 341 341 337 340 338 338 336 337 332 332 327 325 325 323 322 319 320 321 319 320 321 320 316 314 312 313 313
346 347 347 347 345 344 342 340 338 339 339 341 342 346 347 346 345 343 343 342 341 342 340 341 341 341 342 342 340 343 338 339 336 337 340 342 339 338 338 338 337 335 332 331 327 325 323 319 318 317 318 317 318 319 316 319 317 312 313 310 312 312
346 346 345 343 342 341 338 337 339 338 339 342 342 343 344 344 343 342 343 342 342 343 342 342 341 340 340 341 340 339 339 340 340 340 339 338 339 338 338 338 335 331 334 331 325 323 322 321 318 317 318 317 317 319 319 319 313 308 308 312 313 313
345 345 345 344 343 342 340 339 338 338 338 338 339 339 338 341 342 342 343 342 343 342 340 342 342 343 342 341 341 341 340 340 341 338 338 336 335 336 335 337 334 333 333 332 324 323 323 321 318 314 313 314 314 313 316 313 309 309 309 309 310 310
344 345 344 344 342 342 343 341 339 339 340 338 341 342 341 340 341 340 342 342 342 342 340 339 340 341 340 340 340 339 337 338 338 339 338 335 334 332 337 334 333 330 332 332 326 326 324 324 322 320 319 315 311 309 310 311 311 310 309 309 310 307
343 344 344 343 342 343 338 340 340 340 340 340 336 337 339 339 338 339 338 340 340 341 339 337 336 336 337 337 338 338 337 337 337 336 338 335 336 332 334 336 333 329 328 324 324 324 326 326 327 324 316 317 315 310 302 307 309 309 308 306 304 304
344 342 344 343 344 341 341 340 340 339 338 337 336 335 334 333 336 336 336 336 337 337 335 334 336 336 335 335 337 338 338 337 338 337 335 339 329 335 332 333 331 332 328 325 322 325 327 327 324 325 321 318 318 314 310 304 306 307 311 305 304 302
342 342 342 343 343 342 339 337 335 333 331 331 330 331 330 330 330 331 332 335 335 333 333 334 336 335 333 333 334 336 336 337 334 340 332 330 330 332 332 328 330 330 327 325 323 321 320 323 326 322 322 323 318 315 306 304 305 300 312 308 306 303
341 341 343 342 342 340 339 337 336 334 334 332 330 331 335 334 333 333 333 333 333 336 333 334 335 333 333 332 333 336 336 336 331 332 331 333 331 331 326 324 326 325 323 325 323 316 316 316 319 320 320 316 320 324 318 306 306 300 300 306 310 304
341 341 341 341 342 340 338 337 336 335 335 334 333 333 335 334 334 333 333 332 333 335 336 332 334 330 330 331 333 332 334 331 328 332 330 330 326 325 324 323 323 324 324 324 323 316 315 315 314 313 317 318 316 319 320 318 315 310 304 299 299 303
341 341 340 341 341 340 339 338 336 336 335 337 336 335 334 333 332 333 331 332 332 333 333 332 331 330 333 328 330 332 329 326 330 327 325 324 323 322 322 322 322 322 321 321 320 319 317 313 313 313 314 311 314 312 312 313 315 310 310 302 299 299
340 340 340 341 340 340 340 339 337 337 336 335 333 333 332 331 331 332 330 331 331 331 329 331 331 329 330 327 329 327 327 326 323 322 321 320 319 319 319 318 320 320 320 318 318 318 317 317 316 317 318 322 313 311 310 310 310 313 308 305 303 299
339 339 339 340 340 339 339 339 338 338 336 332 332 331 330 330 330 330 329 329 329 328 328 328 329 331 333 325 326 327 325 322 321 322 319 318 318 317 318 318 318 319 318 317 316 316 315 315 314 313 312 312 310 309 311 309 307 309 309 308 305 302
338 339 339 340 340 338 338 338 339 339 334 332 331 330 330 329 329 329 329 328 328 327 326 327 329 328 329 326 324 324 323 322 321 319 317 317 316 315 316 317 317 317 316 317 317 316 315 313 314 313 312 311 310 311 310 309 310 310 308 308 307 304
337 338 338 340 339 339 338 338 339 338 335 333 332 331 331 330 330 329 328 327 326 325 325 325 326 325 326 323 325 323 322 321 319 319 317 316 316 316 316 316 316 316 317 316 316 316 314 313 313 310 310 311 311 310 309 311 311 310 310 310 308 305
337 338 338 339 338 339 339 339 339 338 336 333 332 332 331 330 330 329 329 328 327 326 325 325 325 324 323 323 323 323 321 319 317 317 316 316 315 315 315 313 313 313 314 315 315 314 313 313 312 312 313 310 309 310 310 311 310 309 307 306 305 303
336 338 338 338 339 338 338 339 337 338 336 335 333 333 332 332 331 329 329 329 328 328 327 325 326 325 322 325 322 320 318 317 317 316 316 315 315 314 314 313 313 313 314 314 314 314 313 312 312 311 311 310 310 309 309 308 308 309 307 307 305 304
337 337 338 338 338 338 338 338 337 336 335 335 334 334 332 332 331 331 330 330 329 328 328 327 325 323 322 321 319 317 317 316 315 315 315 314 314 313 314 313 312 311 311 314 312 312 311 312 311 311 310 310 309 308 309 309 309 308 307 308 306 306
337 337 338 338 338 338 338 337 335 336 335 334 334 333 331 331 331 332 331 331 329 327 328 326 325 323 322 320 319 317 315 315 315 314 314 314 313 312 312 311 311 311 311 312 312 310 311 310 310 310 309 309 309 308 308 310 309 309 308 308 308 305

ECMWFFLT2_sfc_thetae_123.txt.gz
Theta_e
346 347 346 346 346 345 346 348 347 347 346 344 343 342 341 341 341 341 341 341 341 337 335 336 336 338 342 339 342 342 343 344 344 344 344 343 343 343 343 343 343 344 344 344 345 346 346 346 347 346 346 346 345 341 339 339 341 341 341 342 344 345
345 345 346 346 346 345 346 346 342 341 340 341 342 342 340 338 342 335 341 339 335 339 336 334 336 343 338 341 341 343 344 343 344 344 344 343 343 343 343 344 344 344 345 346 346 342 342 342 345 347 346 346 342 340 341 340 340 340 341 342 344 346
345 345 345 345 345 344 343 342 341 339 340 342 343 343 338 341 336 337 337 337 338 337 337 337 338 341 342 344 342 343 344 344 343 344 343 343 344 344 344 344 345 345 347 347 344 340 340 336 332 342 346 344 339 340 341 339 338 338 339 342 343 346
344 344 345 344 343 342 341 340 339 338 337 337 338 341 338 338 339 338 340 339 339 341 340 336 344 345 348 341 340 343 345 344 343 343 344 343 345 345 346 347 347 348 348 346 341 340 336 332 331 337 337 339 339 339 339 337 337 336 337 340 341 345
344 345 344 343 342 341 341 339 338 336 335 335 336 336 337 338 336 339 340 341 342 343 344 339 340 341 337 338 337 337 337 335 337 336 344 337 338 341 343 343 344 345 344 343 340 336 336 338 341 340 340 339 340 341 339 337 336 335 336 337 339 342
344 344 344 343 341 341 341 337 336 334 334 334 336 336 337 337 336 337 341 343 345 345 345 344 341 339 335 337 334 333 335 335 335 337 341 338 339 342 341 342 341 344 341 340 338 340 340 340 336 338 337 338 340 340 337 335 334 333 333 333 337 340
342 342 343 343 341 342 338 336 335 334 333 332 334 336 337 336 337 337 343 344 343 342 342 337 336 338 340 342 337 338 339 338 339 342 346 341 342 341 342 342 342 341 341 342 342 342 341 342 338 339 338 336 339 339 336 334 333 332 331 332 336 338
341 341 342 342 340 340 337 336 335 338 335 334 334 335 336 336 340 341 343 345 346 342 340 335 336 339 341 341 342 343 342 343 342 341 342 341 339 340 340 342 342 342 341 340 341 339 341 339 338 338 336 336 339 338 336 334 332 331 329 329 332 335
341 341 341 342 340 338 337 336 336 335 332 337 332 334 336 338 340 341 343 346 346 339 337 337 337 338 339 339 341 342 342 341 340 340 341 339 338 338 340 341 340 339 339 338 338 338 339 337 337 337 335 337 339 337 335 333 330 329 328 327 328 331
340 341 341 339 337 336 336 335 334 334 333 337 333 336 338 338 339 341 342 345 343 338 339 338 337 338 336 336 339 339 338 338 339 339 340 338 340 339 338 339 340 340 339 338 337 337 337 336 335 335 335 337 337 337 334 331 328 326 326 325 326 327
340 342 341 337 336 337 335 333 333 334 335 335 335 337 340 338 339 341 342 343 338 340 339 338 338 337 337 337 337 337 338 338 338 337 338 338 340 340 339 337 336 338 336 336 338 335 334 332 331 331 332 331 329 329 332 331 327 325 324 322 323 323
340 341 340 337 337 337 335 334 333 333 333 334 337 336 339 339 341 340 343 340 338 339 340 339 338 337 337 337 336 337 337 337 338 339 339 339 339 339 338 337 337 338 339 338 333 331 330 328 327 327 328 327 327 324 323 324 326 325 323 322 320 320
341 341 339 337 336 337 335 336 333 332 336 337 340 337 337 339 340 343 340 338 339 340 339 338 338 339 340 336 337 337 337 338 338 338 340 342 341 339 338 335 335 339 339 332 332 329 329 327 326 325 325 325 324 323 321 320 319 318 320 321 319 319
341 341 339 338 337 336 335 334 332 332 337 337 336 336 337 339 343 342 340 340 339 340 340 339 338 338 337 337 338 339 337 336 335 337 339 340 340 339 336 333 334 337 342 332 330 327 325 324 324 324 324 323 322 321 321 319 317 316 316 315 316 317
341 341 343 339 336 337 335 336 329 333 336 337 338 336 338 341 341 341 340 340 340 341 339 340 339 337 337 338 338 337 336 335 336 337 338 338 338 337 335 335 334 333 334 328 328 329 325 323 322 322 322 321 318 317 318 318 319 317 315 312 311 310
340 339 340 339 336 338 336 336 333 342 337 337 336 339 339 339 341 341 340 339 339 340 340 340 339 337 335 336 338 336 336 336 338 337 339 336 336 335 335 335 334 332 330 326 325 322 322 321 320 319 318 317 316 317 315 313 313 314 312 310 309 309
339 339 340 339 339 337 338 338 338 339 340 339 339 338 339 341 341 341 340 340 340 341 339 339 338 338 337 336 336 336 336 337 339 339 338 335 335 335 336 336 332 332 329 327 323 322 320 320 319 318 317 317 316 314 312 314 312 312 312 307 306 307
339 339 340 339 339 338 337 337 336 336 339 337 337 337 339 340 341 342 342 341 341 340 338 337 338 339 337 338 337 335 337 338 336 337 335 335 334 336 333 333 331 330 329 327 321 319 318 318 318 316 314 312 312 313 313 312 314 318 308 307 306 305
340 339 340 339 340 338 336 336 336 334 334 335 335 337 340 341 341 341 341 341 340 338 338 337 337 338 338 337 335 336 336 336 334 334 334 333 333 333 331 331 330 327 327 324 321 320 319 318 317 316 316 315 313 313 313 315 311 309 308 308 308 309
340 339 340 340 338 335 334 333 333 333 333 334 335 337 339 339 340 339 340 340 338 337 337 338 338 337 337 335 335 335 334 335 334 334 333 333 332 331 329 329 328 327 324 323 321 318 316 314 313 313 314 311 312 313 314 315 308 307 309 307 308 309
339 340 340 338 336 334 332 332 330 331 331 332 335 337 337 337 339 339 338 338 338 337 337 338 338 337 336 338 335 334 333 334 333 334 333 332 331 332 331 331 327 327 322 317 316 316 316 315 312 310 311 310 310 311 314 313 306 306 306 307 308 306
339 340 340 338 337 335 334 333 331 331 331 332 333 334 335 336 338 339 339 338 339 338 338 337 337 335 336 335 333 332 333 333 332 331 330 331 330 334 328 329 327 325 325 318 316 317 317 315 311 308 306 306 307 304 309 306 306 305 305 305 306 307
339 339 339 339 337 335 334 335 333 332 333 332 334 335 336 337 338 337 337 338 338 336 337 338 338 337 336 336 335 333 330 330 331 332 329 328 327 326 327 328 326 323 323 321 319 319 317 315 312 312 311 308 303 302 304 305 306 305 305 306 305 303
339 339 339 339 338 337 336 335 335 335 335 333 332 335 336 336 336 335 333 334 335 335 334 333 334 334 333 332 331 330 331 329 329 331 330 326 325 326 326 326 325 326 321 317 317 317 318 319 319 314 308 310 306 300 298 300 302 303 303 300 300 301
339 338 339 339 338 337 336 334 334 334 334 332 332 332 332 332 333 333 332 331 331 331 331 331 331 331 331 330 330 330 329 329 328 328 328 329 326 324 324 325 325 322 320 318 317 317 319 320 319 320 316 312 307 304 301 300 301 300 306 299 299 301
339 338 338 338 338 336 334 332 331 330 328 328 327 329 329 330 330 330 329 328 329 330 330 329 330 330 331 329 327 326 326 328 326 325 326 324 324 323 322 322 322 319 319 321 319 317 312 317 316 317 317 315 314 309 301 300 299 293 302 303 301 301
338 338 338 338 336 335 333 332 331 331 330 329 328 328 330 331 330 330 329 327 327 328 329 328 327 327 327 328 327 327 327 326 325 324 327 322 321 318 318 319 321 317 317 319 317 311 310 310 309 310 314 313 317 316 304 301 299 295 295 297 301 299
338 338 338 338 336 335 333 332 331 331 330 329 328 328 329 329 330 330 328 326 326 326 327 328 325 324 325 326 326 324 323 323 322 324 323 319 318 318 319 320 319 317 316 316 312 310 308 307 304 306 313 311 312 311 305 309 302 297 296 293 294 298
337 337 337 337 336 335 334 333 332 331 330 329 329 330 330 330 330 330 327 325 325 325 324 324 324 324 324 325 326 323 321 320 322 320 320 318 317 318 317 315 314 313 313 313 314 311 307 306 304 303 304 304 306 306 307 306 306 306 300 295 295 294
335 337 337 336 336 335 334 334 332 331 330 329 330 330 330 329 329 329 326 325 325 323 322 322 323 323 323 323 323 321 316 315 317 318 318 315 314 314 314 314 314 313 312 311 311 312 310 308 308 307 309 309 306 305 303 304 303 304 302 299 294 294
335 337 337 336 335 334 334 334 332 332 331 330 329 329 328 328 328 327 325 325 323 321 321 321 321 322 321 321 320 319 315 315 316 319 316 314 313 312 313 313 313 312 311 310 308 308 308 307 306 306 305 305 304 305 303 302 301 303 302 300 297 297
335 336 336 336 335 334 334 333 333 333 331 330 329 328 327 327 328 326 325 324 322 320 320 320 319 319 318 318 318 317 317 314 313 311 311 312 312 312 312 311 311 311 311 311 311 310 307 305 305 304 305 304 303 304 304 303 305 304 303 302 301 299
334 335 335 336 335 334 334 333 333 333 330 330 329 329 328 327 328 327 325 322 320 319 319 319 319 318 316 317 317 314 313 311 311 311 310 310 310 311 311 311 311 310 310 309 308 307 306 305 305 303 302 304 304 304 303 304 304 302 302 302 300 297
334 335 335 335 335 333 333 334 334 331 330 329 329 328 328 327 327 327 325 322 320 319 318 318 319 317 316 318 317 314 313 311 311 311 310 310 310 310 310 310 310 309 309 308 307 306 305 305 305 304 304 303 303 303 302 303 302 302 301 299 297 297
334 334 335 335 334 333 333 334 334 331 330 329 329 328 328 327 326 325 324 322 321 321 320 319 318 317 318 316 314 312 311 309 309 309 310 310 311 309 310 310 310 309 309 308 307 307 305 305 306 305 304 304 304 303 303 303 302 302 301 301 300 299
334 334 334 334 334 333 333 334 334 331 330 330 329 329 327 327 326 326 324 323 322 321 321 320 317 317 315 313 312 312 311 310 309 309 309 309 309 308 308 308 307 307 307 309 306 306 305 305 304 304 303 303 303 302 303 303 303 302 302 301 300 300
335 335 334 334 333 334 333 333 333 332 331 330 329 328 327 326 325 325 325 323 322 322 320 317 317 316 314 312 311 310 310 309 309 309 308 308 307 307 306 306 305 305 306 306 306 304 304 304 303 303 303 303 302 301 301 303 303 304 303 301 301 299

ECMWFFLT2_sfc_thetae_126.txt.gz
Theta_e
347 347 346 346 345 345 346 348 347 348 347 347 346 346 345 344 344 343 343 342 341 338 334 334 337 335 342 340 341 342 342 343 343 344 344 343 343 342 343 343 343 343 344 344 345 345 345 345 344 345 346 344 344 338 338 339 340 342 342 342 343 343
346 346 346 346 345 345 345 346 343 343 343 343 345 344 341 337 344 334 342 339 333 337 332 330 333 342 337 340 340 343 343 343 344 344 344 344 343 343 343 343 343 344 344 345 346 342 340 343 342 341 346 344 338 338 338 339 339 340 341 341 343 344
345 346 345 345 345 344 343 342 340 338 340 343 342 341 334 339 331 333 334 334 336 334 331 332 334 340 341 343 341 343 344 345 343 344 344 344 343 343 343 344 344 344 345 346 343 338 337 335 331 338 347 339 337 336 336 336 336 337 339 341 341 345
344 344 344 343 342 341 340 340 337 336 336 336 335 337 333 333 333 332 334 333 334 335 335 332 343 345 345 342 340 343 344 345 345 344 344 343 344 344 344 344 345 347 347 345 339 337 337 334 330 332 335 337 336 335 335 335 335 336 337 340 341 344
344 344 343 342 342 340 339 338 336 335 334 333 333 334 334 333 334 334 334 336 335 337 337 334 337 339 340 337 333 333 335 335 335 332 344 333 335 337 339 338 338 341 340 340 339 338 335 333 338 337 337 338 336 335 334 334 334 335 336 337 339 342
343 343 342 341 341 341 340 337 335 334 333 333 333 332 332 334 334 335 336 336 338 338 339 334 335 336 336 335 334 333 334 332 330 334 338 335 335 335 337 338 338 339 339 337 337 336 336 337 335 336 337 337 335 333 332 332 332 332 332 334 337 340
342 343 342 342 341 341 338 337 335 334 333 331 330 331 332 334 334 335 337 339 339 338 339 336 335 335 335 335 333 332 331 332 333 333 340 337 336 338 338 339 338 338 337 338 339 339 339 338 334 336 336 336 334 333 331 330 330 329 330 332 336 338
342 342 341 341 340 339 338 336 335 338 335 334 333 332 333 335 335 335 338 339 343 339 337 335 334 335 337 337 337 338 336 336 337 338 340 338 336 335 336 337 337 338 339 339 339 338 337 338 335 336 336 335 333 331 330 329 328 328 327 328 331 335
342 342 341 341 339 339 337 335 335 334 331 336 333 332 334 335 335 336 338 340 343 337 335 335 334 335 336 337 337 340 340 339 339 339 337 335 334 335 335 336 335 336 335 335 335 335 336 336 334 334 335 335 333 331 329 327 326 326 325 324 326 327
342 342 341 340 338 338 335 334 333 332 330 336 332 332 334 334 336 337 338 341 340 337 336 335 335 336 334 335 337 337 336 336 336 336 335 335 336 336 334 334 335 336 338 336 335 335 333 333 333 334 336 335 332 329 326 325 324 324 323 323 323 323
342 343 341 340 337 337 335 333 333 332 331 332 332 332 334 335 336 338 338 338 338 339 336 335 335 336 334 334 335 335 335 335 334 335 335 334 335 337 334 334 333 334 334 333 332 330 328 328 330 331 334 333 330 326 324 324 323 323 321 320 320 320
341 342 341 340 338 336 334 334 333 332 331 331 332 331 334 335 339 337 338 336 337 338 338 335 336 335 334 334 334 335 336 335 335 335 335 334 335 335 334 334 336 335 335 332 327 326 326 325 324 325 328 329 328 325 323 322 321 321 320 319 318 319
340 340 339 338 337 336 335 334 332 332 332 333 332 333 334 335 337 338 337 336 336 337 337 335 335 335 338 334 334 334 334 336 336 334 335 336 337 335 333 332 332 335 333 328 326 325 325 323 322 322 322 323 323 323 323 322 320 320 318 318 317 317
339 338 338 336 335 334 333 333 332 332 333 333 333 334 336 335 339 337 336 337 337 337 336 336 336 335 335 333 334 334 334 333 332 334 334 335 335 333 331 330 332 333 332 326 324 323 322 320 320 320 319 319 319 318 317 317 317 317 317 317 316 316
339 337 339 334 335 333 333 332 331 331 332 334 334 333 334 338 337 336 336 337 337 337 336 336 336 336 334 334 334 333 332 332 331 333 333 333 333 333 332 330 331 329 326 325 324 323 320 319 318 317 317 318 317 316 316 314 313 312 311 309 309 310
339 337 337 334 334 333 333 331 330 336 332 335 334 333 335 338 337 337 337 336 337 338 337 336 335 334 334 334 334 333 332 331 332 333 333 332 333 332 330 331 330 327 323 321 321 318 318 317 316 315 315 314 315 315 312 311 309 308 307 307 307 307
337 337 337 335 334 332 333 330 329 334 334 335 333 333 335 338 337 336 336 336 337 339 337 336 336 335 334 335 332 330 331 332 335 332 333 331 331 331 333 332 328 327 323 320 319 317 316 315 314 313 312 312 312 313 310 309 307 306 307 305 305 306
338 337 337 334 333 333 335 334 333 334 337 335 335 335 337 338 337 337 336 336 337 338 337 336 335 335 334 335 333 331 331 334 334 331 330 330 329 331 331 329 327 325 322 320 318 315 313 313 313 312 311 311 311 310 311 311 311 311 304 304 304 303
337 337 336 335 335 334 334 333 332 333 333 333 335 336 337 337 337 337 337 337 337 337 338 335 336 336 334 336 332 332 332 332 332 331 330 329 330 331 330 328 326 323 322 319 317 315 314 314 314 313 312 311 311 311 310 311 309 305 303 303 305 307
336 337 336 336 335 333 333 332 331 330 331 331 335 337 336 337 337 338 338 338 336 335 336 336 335 336 335 333 332 332 331 332 331 330 330 330 329 329 327 324 323 321 320 320 318 315 314 313 311 311 311 307 308 310 311 309 306 306 307 306 307 305
336 337 336 335 333 332 331 330 329 330 330 330 335 335 335 335 337 338 337 336 335 335 335 336 336 336 333 336 333 330 330 329 329 329 329 327 329 328 327 324 323 321 317 315 313 313 312 312 309 306 307 305 304 307 313 307 304 305 305 306 306 304
336 337 337 336 334 333 331 331 330 329 328 331 334 333 333 334 335 337 336 335 335 335 336 335 336 335 334 334 331 330 329 328 328 328 328 328 327 332 327 324 321 317 317 315 312 313 313 311 308 304 303 303 302 301 308 304 303 304 303 304 305 305
336 336 337 336 334 333 331 332 331 328 331 330 331 335 335 335 336 335 334 334 335 335 335 335 335 335 333 332 330 329 330 329 327 328 326 325 325 325 325 324 321 317 314 316 315 315 313 311 308 307 307 302 299 297 302 301 302 303 303 302 302 304
336 337 337 336 335 334 334 332 332 332 331 332 332 334 335 335 334 334 333 334 334 335 335 334 334 334 333 332 330 329 329 330 330 329 326 324 323 324 325 324 322 319 317 314 313 313 316 315 311 309 303 304 301 296 294 295 299 301 301 300 300 302
337 336 338 337 335 334 334 332 332 331 333 333 333 333 332 331 332 333 331 331 333 333 333 333 333 331 332 330 329 328 328 328 329 330 329 326 324 325 325 325 324 320 317 314 312 312 315 316 312 312 310 305 302 299 296 295 298 299 300 297 299 301
337 337 337 337 335 334 332 331 329 329 329 330 330 330 330 329 329 329 329 327 328 329 330 330 329 329 329 329 327 327 327 326 326 327 328 327 325 324 323 323 323 320 317 316 315 313 313 316 314 316 314 310 306 302 301 299 295 292 299 301 300 300
337 337 337 337 335 334 332 331 330 330 330 330 330 331 332 331 330 328 327 326 326 326 328 328 327 327 327 327 325 325 326 324 324 324 325 322 320 319 319 320 321 319 318 318 317 313 313 313 309 311 313 313 315 310 303 299 295 293 293 296 296 297
337 337 337 337 335 334 332 331 330 329 330 330 331 330 331 330 330 328 326 325 326 325 325 325 325 325 325 325 324 323 323 322 321 320 320 317 317 317 318 318 316 317 318 319 316 314 312 310 310 307 312 305 312 307 303 304 300 296 293 292 293 296
337 337 337 336 335 334 333 331 330 329 329 329 330 330 330 330 328 327 326 325 324 323 323 322 323 323 323 324 324 321 321 320 319 318 320 317 316 316 314 312 312 313 314 313 313 313 311 308 306 305 302 303 305 304 303 303 301 300 296 292 292 292
336 336 337 336 335 333 333 331 330 329 328 328 329 329 328 328 327 327 325 324 323 321 321 320 321 322 322 322 320 319 318 318 317 317 317 314 314 313 312 311 311 311 311 311 309 309 309 306 305 304 302 303 303 301 301 301 301 300 298 294 293 293
336 336 336 335 334 332 332 331 330 329 328 327 328 328 327 327 327 325 324 323 323 320 319 319 320 320 320 318 315 317 316 316 316 319 316 313 312 312 311 311 310 310 309 309 307 307 307 305 305 303 302 303 302 302 300 298 300 300 299 295 292 293
335 335 335 335 334 332 332 331 331 330 329 329 328 328 327 327 327 326 325 323 321 319 318 319 318 317 317 316 315 314 316 315 315 312 312 312 312 312 311 310 309 308 307 306 307 307 304 303 303 302 301 302 301 302 303 302 301 301 301 298 295 293
334 335 335 335 333 332 331 331 331 330 330 329 329 328 328 327 327 326 324 322 319 318 317 317 317 316 315 314 314 312 311 311 310 311 311 310 310 310 310 309 309 308 307 306 304 304 303 302 302 302 301 301 301 301 301 300 302 301 300 299 298 295
333 334 334 334 333 332 331 331 331 331 330 330 329 328 328 327 327 325 324 322 319 318 317 317 316 314 314 314 312 312 311 309 309 310 310 309 309 309 309 309 307 306 306 305 305 304 303 303 302 302 301 300 300 300 299 300 299 299 298 297 296 297
333 333 334 333 333 332 332 331 331 331 330 330 329 328 327 327 326 325 324 321 319 318 317 316 316 314 315 312 311 310 309 309 309 309 309 309 310 308 309 308 307 306 306 304 304 304 303 303 303 301 301 301 301 300 299 299 298 299 299 298 298 297
333 333 333 333 333 332 332 332 332 330 330 329 329 328 327 326 326 325 323 321 319 318 317 317 315 315 313 311 309 309 310 308 308 308 308 308 308 308 307 307 305 305 304 306 303 303 302 302 301 301 300 300 300 299 300 300 300 298 298 299 299 297
333 333 333 333 333 333 333 332 332 330 329 329 328 326 326 325 325 324 322 320 319 318 318 316 315 314 311 310 309 309 308 307 307 307 307 307 307 306 306 306 304 304 304 303 304 302 301 301 301 300 300 300 299 299 299 300 300 300 299 298 298 297

ECMWFFLT2_sfc_thetae_129.txt.gz
Theta_e
346 346 346 346 344 344 347 349 348 348 347 347 346 346 346 345 344 344 342 342 341 339 333 334 337 335 341 339 341 342 343 343 343 343 343 343 343 342 342 343 342 343 344 344 344 345 345 344 343 343 345 344 343 338 339 340 341 342 342 342 342 342
345 346 346 346 345 344 345 347 342 343 344 344 345 345 343 338 344 335 342 339 334 337 331 329 331 342 336 338 339 342 343 343 343 344 343 343 343 342 343 343 343 343 344 344 345 335 336 342 341 343 344 342 337 336 337 338 339 340 340 341 342 343
345 345 346 346 345 343 343 342 342 343 343 345 345 344 336 341 332 332 333 332 335 332 329 330 333 338 339 342 339 343 343 343 343 343 344 343 343 343 343 343 344 344 344 345 339 334 332 331 328 346 342 336 335 335 335 336 336 337 338 340 340 344
344 345 345 344 343 340 339 340 340 339 339 337 337 336 331 331 329 329 330 330 331 330 331 328 342 343 344 339 338 343 344 344 344 343 344 344 344 344 344 344 344 344 345 343 335 335 334 331 331 334 335 334 334 334 334 334 334 335 337 340 340 343
344 345 344 343 342 339 340 340 339 337 334 334 331 329 328 327 327 327 328 331 330 332 331 329 330 332 334 335 331 331 334 333 334 331 343 328 329 331 334 334 333 338 335 336 337 335 333 334 336 335 334 334 333 333 333 333 333 333 333 335 338 341
343 344 343 342 342 342 341 338 337 335 332 331 332 328 327 327 329 330 330 332 334 333 331 331 328 330 331 331 330 330 331 328 329 329 334 329 328 329 330 334 335 335 335 335 335 334 334 336 335 335 334 333 332 331 331 331 331 331 331 333 337 339
342 343 342 342 342 342 340 338 335 333 332 330 330 329 327 329 330 331 332 334 333 332 333 330 330 331 332 331 331 330 330 331 329 329 332 332 331 332 334 335 335 336 333 334 335 336 336 335 336 334 333 332 331 330 329 328 328 328 329 331 334 336
342 342 341 341 340 341 339 336 335 337 335 333 333 331 326 330 332 332 333 334 337 334 336 332 331 332 333 331 332 329 328 329 330 331 336 338 334 335 335 335 334 334 335 336 336 336 335 335 335 334 332 330 329 328 327 327 326 325 325 325 326 331
341 341 340 340 339 339 338 336 335 334 333 335 331 330 329 330 332 332 333 335 339 335 334 334 332 333 334 333 333 335 334 334 334 335 338 336 334 332 332 333 332 333 332 332 331 333 335 334 334 332 330 329 327 326 325 324 324 322 321 319 320 326
341 341 340 340 338 338 336 334 334 333 332 334 330 330 329 330 332 332 332 335 339 337 335 334 333 332 333 333 335 338 338 337 336 337 334 333 334 333 331 331 331 332 334 332 332 335 333 333 333 332 329 326 325 324 323 322 321 320 319 318 318 322
341 342 340 339 338 337 336 334 334 333 331 330 330 330 331 331 332 332 333 335 338 338 336 334 334 333 331 332 333 334 333 333 333 334 332 331 333 336 333 332 331 331 332 328 328 331 332 333 333 331 328 324 323 323 322 322 321 319 318 317 317 318
341 341 340 339 338 337 336 334 333 332 330 329 329 328 329 331 334 333 335 335 337 337 338 334 334 334 332 332 333 332 332 331 332 333 331 331 334 335 334 333 334 333 331 325 325 327 331 332 331 328 324 322 322 321 321 320 319 319 318 317 316 317
341 341 340 338 337 336 335 334 333 331 331 330 329 329 328 330 332 333 335 335 336 337 338 335 334 334 337 332 332 332 332 333 333 333 335 335 335 334 330 329 330 332 325 324 324 323 326 328 327 325 323 322 321 320 320 319 318 318 317 316 315 315
341 340 340 339 337 335 335 334 333 331 332 329 328 329 330 330 333 334 335 334 335 336 336 334 334 333 333 331 331 332 331 334 334 335 336 336 334 329 329 329 330 326 329 323 322 322 323 322 322 322 321 321 320 319 319 318 317 316 316 315 314 313
341 340 341 339 337 335 335 334 333 331 331 329 328 329 330 331 333 334 335 334 335 336 335 334 334 333 332 331 331 330 330 331 331 333 333 334 334 330 329 330 326 323 322 321 320 322 321 320 320 319 319 319 318 317 316 316 315 315 313 311 311 311
340 339 339 338 336 335 335 333 333 335 330 330 330 329 330 333 334 334 335 334 335 336 334 334 334 333 332 331 332 331 330 328 330 332 331 331 331 329 328 327 325 323 320 319 319 317 318 317 317 316 315 315 315 315 312 311 310 309 308 308 308 308
338 338 338 337 336 334 334 333 332 332 331 330 330 330 331 334 334 334 334 334 335 337 334 335 334 334 332 332 331 330 328 330 333 331 330 329 328 328 328 326 324 323 320 317 316 315 314 314 313 313 312 312 312 311 308 307 306 306 307 306 305 306
338 338 337 336 334 333 333 333 331 331 333 331 331 331 334 335 334 334 334 334 335 337 335 334 334 333 332 334 332 330 331 334 335 331 329 328 327 328 327 324 321 321 319 316 314 313 311 311 312 311 310 310 309 307 306 305 308 310 304 304 304 304
337 337 336 334 333 332 332 331 330 330 331 330 331 332 335 334 334 334 334 334 335 336 336 333 334 334 333 335 331 330 331 334 334 328 328 328 329 328 327 324 321 318 319 316 313 312 311 311 311 310 309 309 308 307 307 308 308 303 302 302 304 306
336 336 335 332 332 331 330 329 328 328 328 329 331 333 334 334 334 334 335 335 335 334 335 334 333 333 333 333 330 330 330 330 329 328 327 327 326 326 324 322 319 318 316 316 314 312 312 311 308 307 308 305 307 307 306 307 303 303 305 304 306 304
335 335 333 331 330 330 328 327 328 328 328 328 331 332 333 333 334 334 335 335 335 334 334 334 334 333 332 335 330 329 329 328 328 329 328 328 327 325 324 322 320 319 314 312 311 311 310 309 306 302 303 302 303 307 310 305 303 303 303 303 303 301
334 335 333 332 331 331 330 329 328 328 325 329 331 332 332 333 334 335 335 334 334 333 334 334 336 334 332 332 330 329 328 328 328 328 327 327 327 330 324 321 319 316 315 312 310 311 310 309 306 302 300 300 301 300 307 302 302 302 303 304 303 303
334 334 334 333 332 331 329 330 329 327 330 328 329 331 334 334 335 334 333 333 333 333 334 334 335 334 332 331 329 328 328 327 327 329 327 326 327 323 321 319 318 316 313 314 313 312 310 310 306 304 302 300 296 296 301 299 300 302 302 302 303 302
334 335 334 333 333 332 332 330 330 330 330 330 329 331 332 333 333 332 331 331 332 333 333 333 333 333 332 330 328 328 327 327 328 329 326 325 324 322 320 318 317 317 315 311 309 310 314 312 307 305 302 300 297 295 293 295 296 299 300 300 301 302
334 334 334 334 333 332 332 330 330 330 332 332 332 332 332 332 333 333 332 330 331 332 332 332 332 332 332 329 328 327 327 327 327 326 326 325 323 323 321 320 318 317 315 313 309 308 312 312 308 311 306 300 297 296 294 294 296 297 297 297 297 299
334 335 334 333 332 333 331 330 329 329 328 330 329 329 328 329 329 330 330 331 330 331 331 331 331 331 331 329 327 326 326 326 326 326 326 324 323 323 323 321 319 318 316 315 313 310 309 314 310 314 309 305 303 298 298 297 294 292 298 300 300 299
334 334 335 333 333 333 331 330 330 330 330 329 329 330 331 332 331 330 329 328 328 328 330 330 329 328 328 329 326 325 324 324 324 324 327 323 321 322 322 323 321 318 316 316 313 310 310 313 309 310 312 310 313 307 301 297 293 292 293 294 295 296
334 335 335 334 333 333 331 330 330 330 330 330 330 330 329 329 329 328 327 326 325 325 327 328 326 326 327 327 325 324 323 322 322 322 324 321 320 318 318 320 321 318 316 316 314 312 310 310 308 308 309 305 309 303 300 301 297 296 293 291 291 295
334 334 335 334 333 333 332 331 330 330 329 330 331 330 329 329 327 327 325 323 324 323 324 324 325 324 324 325 326 323 321 321 321 321 322 318 317 317 316 316 316 316 315 315 314 313 313 311 309 309 306 302 303 301 301 300 300 297 294 290 290 291
333 334 335 334 333 332 332 332 330 329 329 329 330 329 329 327 326 325 324 323 323 322 321 321 321 322 322 322 322 322 320 320 319 319 320 315 314 313 312 313 315 316 315 314 311 313 313 312 311 307 307 304 302 300 300 299 299 295 295 292 292 292
334 334 335 334 333 332 332 331 330 329 329 328 328 328 328 327 326 324 324 322 322 321 320 320 319 320 320 319 318 321 319 317 317 320 317 313 313 312 310 310 310 312 314 313 310 310 308 307 306 305 303 304 305 302 300 299 297 298 294 292 292 293
333 334 334 334 333 332 332 331 330 330 329 329 329 329 328 327 327 325 324 323 322 320 319 319 319 317 316 315 317 316 317 316 317 314 313 313 312 311 310 309 309 309 309 307 308 309 306 304 303 302 301 301 303 303 302 301 300 300 298 295 295 292
332 334 334 334 333 332 331 330 330 329 329 330 329 329 329 328 327 326 325 324 322 321 320 319 318 317 315 314 315 314 314 314 313 312 312 311 310 310 308 308 308 307 306 306 306 305 304 303 303 303 301 299 300 302 301 300 301 301 298 297 295 291
332 333 334 333 333 332 331 330 330 330 329 329 329 329 329 328 328 327 326 325 323 321 320 320 318 317 315 313 314 314 314 312 311 311 311 310 309 308 308 308 307 305 304 303 303 302 302 301 300 300 300 299 298 299 298 299 300 300 298 297 294 294
332 333 333 333 333 331 331 330 330 330 329 329 329 329 329 329 328 327 326 325 323 320 319 318 318 316 314 312 311 311 311 310 309 309 310 310 310 308 307 308 306 305 304 303 302 303 301 301 301 299 297 298 299 298 298 297 297 298 298 299 297 296
332 333 333 333 332 332 331 331 330 329 329 329 329 329 328 328 328 327 326 325 321 319 317 316 315 314 313 311 310 309 310 309 308 309 309 309 308 307 306 305 304 304 303 305 302 301 301 300 300 299 299 298 298 297 297 297 297 296 296 297 298 298
332 333 333 333 332 332 331 330 329 329 329 329 328 327 327 327 327 326 325 324 321 318 317 316 314 314 311 309 309 309 308 307 307 308 308 307 307 306 305 306 304 302 302 302 302 301 300 300 299 299 298 297 298 297 297 298 297 297 297 296 297 297

ECMWFFLT2_sfc_thetae_132.txt.gz
Theta_e
345 346 346 345 345 344 347 349 349 350 349 348 347 347 346 346 345 344 343 343 341 338 335 337 339 339 341 343 345 342 342 343 343 343 343 343 343 342 342 343 343 344 344 345 345 345 344 343 344 345 345 344 343 340 341 341 341 342 342 343 343 342
345 346 346 346 346 343 345 347 344 346 345 345 346 346 344 340 345 339 341 340 336 339 333 331 334 342 341 341 340 342 343 343 343 343 343 343 343 342 343 343 343 344 344 344 344 337 337 343 345 345 343 342 339 339 340 340 340 340 341 342 343 343
345 346 346 345 345 343 344 343 342 342 343 345 346 345 339 342 334 336 336 334 336 335 331 333 335 340 341 342 342 342 342 343 343 343 343 343 343 342 343 344 344 344 344 345 339 336 334 337 343 344 341 338 337 338 338 338 339 339 340 341 342 343
344 345 344 344 344 342 340 341 340 340 340 339 339 338 335 335 332 331 331 330 331 333 332 330 342 342 343 339 338 343 343 344 344 342 343 343 343 342 343 342 341 342 340 339 338 338 334 337 336 336 336 336 336 336 336 336 337 337 339 341 341 342
343 344 343 344 343 342 340 341 340 339 339 336 334 331 332 331 330 329 328 331 329 333 330 329 333 334 334 334 332 331 333 334 334 331 342 330 328 329 331 331 333 336 334 339 338 336 336 336 336 335 335 335 335 335 335 335 335 336 337 338 340 341
343 343 343 343 343 342 342 340 339 339 338 336 335 332 330 330 329 329 328 331 334 331 329 329 329 330 331 334 334 331 331 328 327 329 335 330 328 328 329 333 335 337 338 338 337 335 337 336 335 335 334 334 333 332 332 332 333 334 335 337 337 339
342 342 342 343 343 343 341 341 340 339 337 335 335 333 331 331 330 328 328 334 332 330 330 328 328 328 330 332 332 330 330 329 330 330 333 333 331 332 333 335 336 337 335 337 337 337 337 336 335 333 333 332 332 331 330 330 329 329 329 332 334 335
341 342 341 342 342 342 340 340 339 340 338 337 335 334 332 331 332 330 330 333 336 331 333 330 328 328 330 330 332 331 330 329 331 332 334 335 334 334 335 336 336 336 336 337 338 336 336 334 333 333 331 330 330 329 328 326 325 324 325 327 330 331
341 341 341 341 340 341 340 339 339 338 335 338 334 334 333 332 332 333 332 333 337 331 333 333 330 330 332 332 332 332 332 332 333 333 334 335 336 334 334 334 334 334 334 334 336 335 335 333 332 331 330 329 327 326 324 323 322 321 321 324 326 328
340 340 341 341 340 340 340 338 337 337 335 337 333 332 332 329 330 331 331 333 336 333 334 336 335 332 332 332 333 334 334 334 334 334 335 335 335 334 332 333 333 333 335 334 335 336 334 332 330 329 328 326 325 324 323 321 320 320 320 321 324 326
340 341 341 339 340 339 339 338 337 336 335 333 331 331 330 327 329 330 331 333 335 337 335 335 335 333 332 333 334 335 335 335 334 335 335 334 334 335 334 333 331 333 332 334 335 336 333 330 328 326 326 324 323 323 322 321 320 319 318 319 320 323
340 340 340 340 340 338 338 337 337 335 333 331 330 328 327 327 331 331 333 332 334 336 338 334 334 333 333 333 334 335 336 335 334 334 334 333 335 336 335 334 335 330 329 333 334 334 333 329 326 323 323 322 322 321 320 320 319 319 319 318 318 320
340 340 339 339 339 338 338 337 335 333 332 331 329 327 326 327 329 331 333 333 334 336 338 335 334 334 336 333 334 333 333 334 333 334 335 335 336 334 332 332 329 327 328 330 332 333 331 327 323 322 322 321 321 320 320 319 319 319 318 317 317 317
340 339 338 338 338 337 336 336 335 333 333 330 328 326 327 326 330 331 333 333 334 336 337 336 335 334 335 333 333 333 333 334 334 335 336 336 334 330 331 329 327 328 330 329 330 330 326 323 322 322 321 321 321 320 319 319 318 318 317 316 316 316
340 338 339 337 337 336 336 335 334 332 331 329 327 326 326 326 329 331 333 333 335 336 337 335 335 334 334 333 332 332 332 334 333 334 334 334 333 331 330 327 325 323 323 325 327 328 324 322 321 320 321 321 320 319 319 318 318 316 315 314 315 314
339 338 338 337 337 336 335 334 333 334 330 328 327 325 325 327 329 332 334 333 334 336 337 335 335 334 333 332 332 332 331 332 332 333 332 332 332 330 328 326 325 324 322 322 324 323 323 320 320 319 319 319 319 318 316 316 315 313 312 313 313 313
337 337 338 337 337 335 334 333 332 333 330 329 326 325 326 328 331 332 333 333 334 336 335 334 334 334 333 332 332 331 330 331 332 331 331 330 330 329 326 324 324 326 323 321 321 320 318 319 318 318 318 317 317 316 314 314 312 311 312 311 310 311
338 338 338 337 336 335 334 333 332 331 332 329 327 327 327 330 331 332 333 333 334 336 335 334 334 334 333 333 332 331 331 332 333 331 331 329 330 328 326 324 321 321 321 321 319 318 316 316 316 315 314 313 312 312 311 311 314 314 310 309 310 311
338 338 337 337 336 334 333 332 330 329 329 328 328 328 329 331 332 332 333 334 334 336 337 334 334 334 333 336 333 332 331 333 333 330 330 330 329 326 324 323 320 318 319 318 318 317 315 314 313 312 310 311 311 309 309 312 313 308 308 308 309 310
337 338 337 337 335 332 330 330 328 326 326 328 327 329 330 331 332 332 334 334 335 335 335 334 334 333 334 335 333 331 331 333 333 330 329 329 327 325 322 320 319 317 315 315 314 314 314 312 310 310 312 309 310 310 309 311 306 306 309 308 310 309
336 337 336 335 333 331 329 327 327 327 327 327 328 329 331 331 332 333 334 334 335 334 334 334 334 333 333 336 333 331 331 332 332 330 330 330 328 325 323 321 319 318 314 312 312 313 312 311 308 306 306 307 308 311 313 309 306 306 306 308 308 307
336 336 336 335 333 332 331 330 328 327 326 327 328 329 330 331 332 333 333 334 334 334 334 334 335 334 334 334 331 330 330 330 331 329 330 329 327 328 323 320 318 316 317 314 311 311 310 310 307 305 303 303 307 307 311 306 306 305 306 306 306 306
335 335 335 334 333 332 331 330 329 327 329 326 327 331 331 332 333 333 333 333 334 333 333 334 335 335 333 332 331 330 330 329 329 330 329 327 326 324 321 319 318 315 314 316 314 313 311 313 308 307 306 304 300 300 305 305 304 305 306 306 306 305
335 335 335 334 334 333 332 329 329 329 329 330 329 330 331 332 333 332 332 332 332 333 333 334 335 335 333 332 331 330 329 329 329 330 329 327 324 322 321 320 319 317 315 311 311 311 315 313 308 307 304 305 301 301 297 300 301 303 303 304 306 306
334 334 334 334 333 331 331 328 328 328 330 329 330 331 331 331 333 333 333 332 332 333 333 333 334 334 333 331 330 329 329 328 328 329 329 327 324 322 321 320 319 317 316 313 310 311 313 315 310 315 309 302 300 299 300 300 300 304 302 301 301 304
334 334 334 333 332 331 330 328 327 327 326 327 327 328 327 329 330 331 331 333 333 333 332 332 333 333 333 331 329 329 329 328 328 328 328 327 325 323 321 320 319 318 317 316 313 311 310 316 313 317 310 310 308 305 301 301 301 298 303 304 305 303
333 333 334 333 331 332 329 329 328 328 328 327 327 329 330 332 332 333 333 331 332 332 332 331 331 332 331 331 328 328 328 328 328 327 328 326 324 323 321 321 320 318 318 318 315 311 311 312 313 313 315 313 314 309 304 301 299 297 297 303 300 300
333 334 333 333 331 332 330 329 328 328 328 328 328 328 329 331 333 332 331 330 330 330 331 331 330 330 330 330 328 327 327 327 327 326 327 325 325 324 323 322 321 320 319 318 316 314 312 314 310 310 314 312 309 305 305 303 302 302 298 296 297 298
333 333 333 333 332 331 331 330 329 328 328 329 329 329 330 331 331 330 329 327 328 328 328 328 329 328 328 328 329 326 325 325 325 325 328 324 323 322 323 322 321 318 317 317 316 316 314 314 311 310 310 306 305 304 303 304 303 301 301 296 294 296
332 333 333 332 332 331 331 331 329 328 328 327 329 328 329 329 329 328 328 326 326 325 326 325 325 326 326 327 327 326 324 324 324 324 325 322 320 320 320 321 321 319 318 317 316 316 315 315 313 312 313 309 306 304 304 303 302 299 298 299 297 295
332 333 333 332 332 331 331 331 330 329 328 328 328 328 328 328 328 327 326 324 324 324 324 324 323 323 324 324 324 325 323 322 322 325 322 320 319 319 318 319 320 319 318 317 315 316 316 315 314 312 311 310 310 306 305 303 300 301 300 298 297 297
331 332 333 333 332 331 331 330 330 330 329 329 329 329 329 327 327 326 326 324 323 322 322 322 321 321 321 321 323 322 322 320 321 320 318 318 318 317 315 315 316 318 317 317 316 316 314 312 312 310 308 309 310 309 307 307 302 303 301 300 301 297
331 332 332 333 331 331 331 330 330 330 330 330 330 329 329 329 328 326 325 324 322 322 321 320 320 320 319 318 320 319 318 318 317 317 316 315 314 313 313 313 314 315 315 314 314 314 312 312 311 310 309 306 308 307 308 306 304 303 302 301 300 296
331 332 332 332 332 331 331 330 330 330 330 330 330 330 329 329 328 327 326 325 324 323 321 322 320 321 319 317 319 319 319 317 316 315 314 313 312 312 311 311 312 312 311 312 311 312 312 311 309 309 307 305 305 306 307 304 305 303 301 300 298 299
330 331 332 332 332 331 331 331 330 330 330 330 330 330 330 329 328 327 326 326 325 324 323 322 321 321 318 317 316 316 316 315 313 313 313 313 312 311 311 311 310 309 308 306 308 308 307 306 306 304 304 306 305 303 303 303 303 304 303 303 301 299
331 331 332 332 332 332 331 331 330 329 330 330 330 330 329 329 329 329 327 326 325 324 323 321 320 319 316 316 314 314 315 313 312 312 312 312 311 310 309 308 307 307 306 307 305 305 304 304 304 303 303 302 303 301 301 301 302 303 303 303 302 301
330 331 332 332 332 332 331 330 329 330 329 329 329 329 329 328 328 328 327 327 325 323 321 320 319 318 315 314 313 313 313 311 311 311 311 311 310 309 308 309 306 305 305 305 305 304 303 303 302 302 301 302 302 301 300 302 301 301 301 301 301 302

ECMWFFLT2_sfc_thetae_135.txt.gz
Theta_e
349 348 349 349 350 350 350 350 350 350 350 349 348 348 347 346 346 345 344 343 342 344 344 344 344 343 343 345 345 344 344 344 344 344 344 344 344 344 344 345 345 345 345 345 344 345 345 346 345 345 344 344 344 345 345 346 346 346 346 346 345 345
348 347 348 348 348 349 350 350 350 350 350 349 348 348 348 347 346 346 344 343 344 342 343 345 345 344 345 345 344 343 343 344 344 344 344 344 344 344 344 345 345 345 345 344 342 347 345 346 345 344 343 342 344 344 345 345 346 345 344 344 346 343
345 347 348 346 347 348 348 349 348 349 348 348 348 348 347 347 346 344 344 343 343 343 342 343 345 344 345 344 343 343 342 343 344 344 344 343 344 344 344 343 343 345 343 342 345 347 345 344 345 344 343 344 344 343 343 344 344 344 343 343 344 342
345 347 345 345 346 347 347 349 348 348 348 348 348 347 346 346 345 344 344 344 343 344 343 343 342 343 343 344 344 343 343 343 344 343 343 345 344 344 341 340 342 343 345 346 346 345 343 343 343 344 345 344 343 343 343 343 342 342 343 342 342 342
345 346 344 345 345 345 347 346 346 347 347 347 347 346 346 346 346 345 344 344 342 343 342 342 342 343 343 343 343 343 344 344 345 344 343 344 344 342 341 341 347 346 347 346 345 344 343 342 342 343 343 343 342 342 342 342 341 340 341 342 342 341
345 345 345 344 344 345 346 345 345 346 347 346 346 345 345 344 344 344 343 342 342 341 341 340 341 341 341 342 340 339 341 342 342 343 343 343 343 341 338 345 346 346 346 347 345 344 343 342 341 342 341 341 341 341 340 340 339 339 340 340 340 339
344 345 344 344 344 344 345 345 345 345 345 344 344 343 342 341 341 342 342 341 339 338 338 338 341 341 340 341 339 340 341 343 342 342 343 343 341 339 340 345 347 346 346 345 343 343 342 342 342 340 340 340 340 339 339 338 338 338 338 337 337 336
343 344 344 344 344 343 345 344 344 344 344 343 342 341 340 340 341 340 340 339 339 338 337 337 339 339 340 340 340 341 342 342 342 341 342 343 340 341 344 345 346 345 345 345 342 342 342 340 341 341 339 339 338 339 337 336 337 337 336 336 334 333
344 343 343 343 342 343 344 344 344 343 342 342 341 341 340 339 339 338 339 339 340 338 337 337 338 339 339 339 341 341 341 343 343 341 341 343 344 345 345 347 345 344 345 344 343 342 341 340 340 340 339 337 335 335 333 333 332 331 332 332 332 331
343 343 343 343 342 342 343 343 342 341 342 342 340 340 339 337 337 335 336 339 340 339 339 339 339 340 339 340 341 342 341 342 342 342 342 342 346 346 346 346 345 344 343 343 342 341 340 340 339 339 338 334 330 329 329 327 328 327 329 331 330 330
343 344 343 341 342 342 343 342 341 341 342 340 340 338 337 337 336 337 338 340 341 341 341 342 342 341 341 343 343 342 342 342 342 342 343 343 345 346 346 345 345 344 345 343 342 341 339 339 338 337 333 329 327 327 326 327 326 325 325 328 328 328
342 343 343 341 342 341 342 342 341 341 341 341 340 337 337 337 336 337 340 341 342 343 343 342 342 341 342 343 342 342 343 342 341 342 342 345 345 345 345 344 344 346 346 345 342 340 340 338 335 331 328 325 325 326 325 325 324 324 324 325 326 327
344 343 342 340 340 341 342 341 341 341 340 340 339 339 337 338 338 340 342 342 344 344 344 342 343 344 345 345 345 343 343 343 344 343 344 344 344 344 344 343 342 345 344 343 340 339 337 335 331 328 327 326 326 323 323 324 324 323 323 324 323 324
343 342 341 341 342 341 342 341 341 340 340 339 340 339 340 340 339 339 341 342 343 344 343 345 343 344 346 344 345 344 343 343 344 344 343 343 343 343 344 340 340 342 340 340 338 337 334 331 329 328 327 326 326 325 324 323 323 322 322 322 322 322
343 343 341 341 341 341 342 341 340 340 340 339 339 340 339 339 337 338 341 343 344 345 344 344 344 345 343 344 344 344 343 344 343 343 342 344 344 345 343 339 339 340 339 339 337 336 332 330 327 327 327 326 324 323 323 322 322 321 320 322 322 321
343 342 342 342 342 342 341 342 342 341 341 341 340 341 339 337 335 337 342 344 345 346 344 345 344 344 344 344 344 344 345 343 342 342 342 343 344 342 341 339 340 341 336 336 335 332 331 328 327 326 326 325 324 323 322 321 320 318 319 320 320 321
342 342 342 342 342 342 342 341 342 342 341 341 340 340 339 337 336 339 344 344 345 346 345 344 344 345 345 345 344 344 343 342 342 343 343 344 343 342 339 337 338 340 340 335 332 329 328 327 326 325 324 323 323 323 321 320 319 319 318 318 318 317
342 343 343 342 342 342 341 342 342 342 342 340 340 341 339 336 335 339 342 344 345 346 346 344 344 345 346 346 344 343 341 341 342 343 343 343 343 341 339 338 336 338 338 335 331 328 326 325 324 323 322 322 322 322 321 320 319 317 315 314 316 315
342 342 342 342 343 342 342 342 343 341 339 339 341 340 339 336 335 339 341 344 345 346 346 345 344 345 345 344 342 341 340 341 342 342 343 342 341 338 337 336 335 334 336 336 332 329 326 324 322 321 319 321 322 322 321 320 318 316 314 313 313 313
342 342 342 342 341 340 340 339 337 337 337 337 339 338 338 335 340 337 340 343 345 346 345 345 344 345 344 343 341 340 340 340 341 342 342 340 338 336 335 334 333 332 331 329 330 327 325 322 320 319 319 319 320 320 317 318 315 313 314 315 314 314
342 343 341 340 339 338 337 337 339 336 335 337 337 339 337 338 337 338 341 343 345 345 345 344 344 343 343 342 341 341 339 340 341 342 342 341 340 337 336 334 331 332 329 325 324 325 324 322 318 316 318 318 318 319 318 316 313 312 312 313 314 313
343 342 342 341 340 340 339 339 338 337 337 337 336 337 337 337 339 341 343 344 345 345 344 343 343 343 343 342 340 339 339 339 340 341 342 343 339 336 334 332 330 328 329 326 324 324 323 323 319 316 312 311 312 313 315 315 311 310 311 312 313 314
343 342 342 343 341 339 341 342 341 340 338 338 340 342 341 340 341 341 344 344 345 344 343 342 343 343 342 342 341 340 340 340 341 341 340 340 337 334 332 330 330 328 325 326 324 324 324 327 320 319 317 312 308 308 310 310 313 311 311 313 312 310
342 342 344 343 342 344 343 343 343 344 343 341 339 341 343 343 343 343 342 344 344 344 342 343 343 343 343 342 342 341 341 340 341 342 341 339 336 333 332 330 330 329 327 322 320 319 323 323 321 316 311 314 311 311 308 307 309 310 312 311 310 309
343 342 344 343 343 344 343 341 341 342 343 341 341 340 338 337 338 339 341 340 340 341 342 342 343 343 343 342 342 342 341 341 341 341 342 340 336 334 332 330 330 329 328 325 320 319 319 324 321 325 319 310 308 308 312 313 310 310 310 309 309 310
343 343 343 343 344 343 341 339 337 335 334 334 335 333 333 333 334 335 336 339 341 340 341 342 342 342 343 342 341 342 342 342 341 340 340 340 338 334 332 330 330 329 329 329 324 319 318 324 322 324 324 328 325 318 315 311 309 306 311 312 311 310
343 343 343 343 343 342 341 339 339 338 337 336 335 336 339 340 337 337 339 338 339 340 341 341 341 341 342 342 342 342 342 342 342 342 342 341 338 335 332 331 330 329 329 328 326 321 320 320 321 322 322 325 325 323 319 311 309 310 304 308 309 309
343 343 343 343 342 342 340 339 339 339 339 338 339 338 337 339 341 339 338 338 338 338 340 341 340 340 341 341 342 341 342 342 341 341 340 339 338 336 333 332 331 331 330 327 327 325 322 322 317 316 321 322 321 320 320 318 318 313 312 307 305 308
342 343 343 344 342 341 341 340 340 339 339 339 341 341 340 340 339 338 338 338 337 337 338 340 340 340 341 341 341 341 341 341 340 340 339 339 340 337 334 332 330 329 329 328 328 329 325 322 323 321 320 321 319 317 314 317 317 317 312 312 308 305
341 342 343 343 342 341 341 340 339 340 339 339 339 340 340 337 336 337 335 335 336 335 336 337 339 340 340 341 341 341 341 340 341 340 338 338 338 336 334 333 331 330 330 329 328 328 326 326 326 326 323 322 318 315 314 312 312 312 312 314 312 306
341 342 343 342 342 340 340 340 339 340 339 339 339 338 336 335 335 334 334 334 334 334 335 336 337 338 339 340 341 341 340 340 340 339 337 337 337 336 335 334 333 331 330 329 328 328 328 330 328 327 324 323 321 318 317 316 315 313 315 312 311 310
340 341 342 342 342 340 339 340 340 340 339 340 339 337 335 334 334 333 334 333 334 334 334 336 337 337 338 339 340 339 340 339 338 338 337 337 337 336 335 334 333 330 331 332 331 329 328 327 328 326 325 325 324 323 323 322 321 318 317 317 316 314
339 340 341 342 341 340 339 339 339 339 339 340 339 338 338 337 335 334 334 334 333 333 334 334 335 336 337 338 339 338 337 336 336 337 337 335 335 333 331 331 331 331 332 331 329 329 327 328 328 326 324 325 325 324 324 324 325 321 320 320 318 313
338 340 341 341 340 339 339 340 340 339 339 339 338 339 339 338 337 336 337 336 336 336 336 336 336 337 338 338 338 338 337 336 336 335 334 335 333 331 329 329 331 332 332 332 331 330 329 330 329 329 329 325 324 323 323 325 324 322 319 316 313 313
338 339 340 340 340 339 339 339 340 340 340 339 338 339 339 340 339 338 339 339 338 339 338 339 338 338 336 336 337 337 336 335 333 333 332 332 330 328 329 330 330 331 332 331 330 329 329 329 327 327 327 325 324 324 324 323 322 321 320 319 318 315
338 339 340 340 339 339 340 339 340 340 340 339 339 339 339 340 340 341 340 339 339 339 339 339 339 337 335 335 335 334 333 332 331 331 331 330 329 328 327 327 327 327 327 324 327 327 327 327 327 327 326 325 324 322 323 321 320 321 320 320 320 317
338 340 340 340 339 339 339 340 340 340 339 339 339 339 339 340 340 341 341 340 340 339 340 339 337 336 333 333 333 333 332 331 330 329 329 328 327 327 326 326 326 325 325 322 324 325 325 325 326 325 323 322 322 322 319 319 318 319 320 319 317 316